<?xml version='1.0' encoding='UTF-8'?><gpx version="1.1" creator="JPX - https://github.com/jenetics/jpx" xmlns="http://www.topografix.com/GPX/1/1"><trk><trkseg><trkpt lat="45.7875932" lon="8.8755592"><ele>353.0</ele><time>2026-03-28T12:46:49.463Z</time></trkpt><trkpt lat="45.7875156" lon="8.8755743"><ele>353.0</ele><time>2026-03-28T12:46:50.464Z</time></trkpt><trkpt lat="45.7874297" lon="8.8755899"><ele>353.0</ele><time>2026-03-28T12:46:51.464Z</time></trkpt><trkpt lat="45.7873371" lon="8.8756139"><ele>353.0</ele><time>2026-03-28T12:46:52.464Z</time></trkpt><trkpt lat="45.7872491" lon="8.875644"><ele>353.0</ele><time>2026-03-28T12:46:53.464Z</time></trkpt><trkpt lat="45.7871737" lon="8.8756654"><ele>353.0</ele><time>2026-03-28T12:46:54.465Z</time></trkpt><trkpt lat="45.7870753" lon="8.8756737"><ele>353.0</ele><time>2026-03-28T12:46:56.465Z</time></trkpt><trkpt lat="45.7870241" lon="8.8756031"><ele>353.0</ele><time>2026-03-28T12:46:58.464Z</time></trkpt><trkpt lat="45.786984" lon="8.8753988"><ele>353.0</ele><time>2026-03-28T12:47:00.465Z</time></trkpt><trkpt lat="45.7869637" lon="8.8752661"><ele>353.0</ele><time>2026-03-28T12:47:01.465Z</time></trkpt><trkpt lat="45.7869424" lon="8.8751177"><ele>353.0</ele><time>2026-03-28T12:47:02.464Z</time></trkpt><trkpt lat="45.7869223" lon="8.8749653"><ele>352.25</ele><time>2026-03-28T12:47:03.465Z</time></trkpt><trkpt lat="45.7869003" lon="8.8748023"><ele>351.5</ele><time>2026-03-28T12:47:04.464Z</time></trkpt><trkpt lat="45.7868732" lon="8.8746281"><ele>350.75</ele><time>2026-03-28T12:47:05.465Z</time></trkpt><trkpt lat="45.7868471" lon="8.8744532"><ele>350.0</ele><time>2026-03-28T12:47:06.465Z</time></trkpt><trkpt lat="45.7868249" lon="8.874291"><ele>349.2</ele><time>2026-03-28T12:47:07.464Z</time></trkpt><trkpt lat="45.7868033" lon="8.8741569"><ele>348.4</ele><time>2026-03-28T12:47:08.464Z</time></trkpt><trkpt lat="45.7867569" lon="8.8740312"><ele>347.6</ele><time>2026-03-28T12:47:10.465Z</time></trkpt><trkpt lat="45.7866878" lon="8.8739527"><ele>346.8</ele><time>2026-03-28T12:47:15.465Z</time></trkpt><trkpt lat="45.786548" lon="8.8739606"><ele>346.0</ele><time>2026-03-28T12:47:17.465Z</time></trkpt><trkpt lat="45.786456" lon="8.8739986"><ele>346.0</ele><time>2026-03-28T12:47:18.464Z</time></trkpt><trkpt lat="45.7863571" lon="8.8740511"><ele>346.0</ele><time>2026-03-28T12:47:19.464Z</time></trkpt><trkpt lat="45.7862734" lon="8.8740881"><ele>346.0</ele><time>2026-03-28T12:47:20.464Z</time></trkpt><trkpt lat="45.7862021" lon="8.8741278"><ele>346.0</ele><time>2026-03-28T12:47:21.465Z</time></trkpt><trkpt lat="45.7861506" lon="8.8741911"><ele>346.0</ele><time>2026-03-28T12:47:22.464Z</time></trkpt><trkpt lat="45.7861256" lon="8.8742743"><ele>346.0</ele><time>2026-03-28T12:47:23.464Z</time></trkpt><trkpt lat="45.7861336" lon="8.8743741"><ele>346.20000000000005</ele><time>2026-03-28T12:47:24.464Z</time></trkpt><trkpt lat="45.7861633" lon="8.8744964"><ele>346.40000000000003</ele><time>2026-03-28T12:47:25.465Z</time></trkpt><trkpt lat="45.7861907" lon="8.8746367"><ele>346.6</ele><time>2026-03-28T12:47:26.464Z</time></trkpt><trkpt lat="45.7862178" lon="8.8747959"><ele>346.8</ele><time>2026-03-28T12:47:27.464Z</time></trkpt><trkpt lat="45.7862473" lon="8.8749651"><ele>347.0</ele><time>2026-03-28T12:47:28.464Z</time></trkpt><trkpt lat="45.7862711" lon="8.875145"><ele>347.75</ele><time>2026-03-28T12:47:29.464Z</time></trkpt><trkpt lat="45.7862954" lon="8.8753385"><ele>348.5</ele><time>2026-03-28T12:47:30.465Z</time></trkpt><trkpt lat="45.7863264" lon="8.8755345"><ele>349.25</ele><time>2026-03-28T12:47:31.464Z</time></trkpt><trkpt lat="45.7863565" lon="8.8757411"><ele>350.0</ele><time>2026-03-28T12:47:32.464Z</time></trkpt><trkpt lat="45.7863926" lon="8.8759558"><ele>351.33333333333337</ele><time>2026-03-28T12:47:33.464Z</time></trkpt><trkpt lat="45.7864244" lon="8.87617"><ele>352.6666666666667</ele><time>2026-03-28T12:47:34.464Z</time></trkpt><trkpt lat="45.7864596" lon="8.8763879"><ele>354.0</ele><time>2026-03-28T12:47:35.465Z</time></trkpt><trkpt lat="45.7864892" lon="8.8766207"><ele>353.6666666666667</ele><time>2026-03-28T12:47:36.465Z</time></trkpt><trkpt lat="45.7865281" lon="8.8768517"><ele>353.33333333333337</ele><time>2026-03-28T12:47:37.464Z</time></trkpt><trkpt lat="45.7865635" lon="8.8770806"><ele>353.0</ele><time>2026-03-28T12:47:38.465Z</time></trkpt><trkpt lat="45.7865976" lon="8.8773086"><ele>353.0</ele><time>2026-03-28T12:47:39.464Z</time></trkpt><trkpt lat="45.7866297" lon="8.877541"><ele>353.0</ele><time>2026-03-28T12:47:40.464Z</time></trkpt><trkpt lat="45.7866596" lon="8.8777713"><ele>353.0</ele><time>2026-03-28T12:47:41.464Z</time></trkpt><trkpt lat="45.786687" lon="8.8779939"><ele>353.25</ele><time>2026-03-28T12:47:42.465Z</time></trkpt><trkpt lat="45.7867164" lon="8.8782065"><ele>353.5</ele><time>2026-03-28T12:47:43.464Z</time></trkpt><trkpt lat="45.7867421" lon="8.8783936"><ele>353.75</ele><time>2026-03-28T12:47:44.464Z</time></trkpt><trkpt lat="45.7867665" lon="8.8785584"><ele>354.0</ele><time>2026-03-28T12:47:45.464Z</time></trkpt><trkpt lat="45.7867859" lon="8.8787124"><ele>354.0</ele><time>2026-03-28T12:47:46.465Z</time></trkpt><trkpt lat="45.7868116" lon="8.8788882"><ele>354.0</ele><time>2026-03-28T12:47:47.464Z</time></trkpt><trkpt lat="45.7868396" lon="8.8790714"><ele>354.0</ele><time>2026-03-28T12:47:48.465Z</time></trkpt><trkpt lat="45.7868693" lon="8.8792621"><ele>354.0</ele><time>2026-03-28T12:47:49.465Z</time></trkpt><trkpt lat="45.7869022" lon="8.8794589"><ele>354.0</ele><time>2026-03-28T12:47:50.465Z</time></trkpt><trkpt lat="45.786935" lon="8.8796635"><ele>354.0</ele><time>2026-03-28T12:47:51.465Z</time></trkpt><trkpt lat="45.7869699" lon="8.8798664"><ele>354.0</ele><time>2026-03-28T12:47:52.464Z</time></trkpt><trkpt lat="45.7870032" lon="8.880053"><ele>354.0</ele><time>2026-03-28T12:47:53.464Z</time></trkpt><trkpt lat="45.7870396" lon="8.8802414"><ele>354.0</ele><time>2026-03-28T12:47:54.465Z</time></trkpt><trkpt lat="45.7870778" lon="8.8804295"><ele>354.0</ele><time>2026-03-28T12:47:55.464Z</time></trkpt><trkpt lat="45.787113" lon="8.8806047"><ele>354.0</ele><time>2026-03-28T12:47:56.464Z</time></trkpt><trkpt lat="45.7871514" lon="8.8807678"><ele>354.0</ele><time>2026-03-28T12:47:57.465Z</time></trkpt><trkpt lat="45.7871891" lon="8.8809253"><ele>354.25</ele><time>2026-03-28T12:47:58.464Z</time></trkpt><trkpt lat="45.7872277" lon="8.8810896"><ele>354.5</ele><time>2026-03-28T12:47:59.465Z</time></trkpt><trkpt lat="45.7872702" lon="8.881259"><ele>354.75</ele><time>2026-03-28T12:48:00.464Z</time></trkpt><trkpt lat="45.7873135" lon="8.8814301"><ele>355.0</ele><time>2026-03-28T12:48:01.465Z</time></trkpt><trkpt lat="45.7873529" lon="8.8815942"><ele>355.0</ele><time>2026-03-28T12:48:02.465Z</time></trkpt><trkpt lat="45.7873724" lon="8.8817233"><ele>355.0</ele><time>2026-03-28T12:48:03.464Z</time></trkpt><trkpt lat="45.7874038" lon="8.8818704"><ele>355.0</ele><time>2026-03-28T12:48:04.464Z</time></trkpt><trkpt lat="45.787447" lon="8.882022"><ele>355.0</ele><time>2026-03-28T12:48:05.464Z</time></trkpt><trkpt lat="45.7875013" lon="8.8821846"><ele>355.0</ele><time>2026-03-28T12:48:06.464Z</time></trkpt><trkpt lat="45.7875593" lon="8.8823545"><ele>354.75</ele><time>2026-03-28T12:48:07.465Z</time></trkpt><trkpt lat="45.7876105" lon="8.882539"><ele>354.5</ele><time>2026-03-28T12:48:08.462Z</time></trkpt><trkpt lat="45.7876628" lon="8.8827375"><ele>354.25</ele><time>2026-03-28T12:48:09.463Z</time></trkpt><trkpt lat="45.7877174" lon="8.8829443"><ele>354.0</ele><time>2026-03-28T12:48:10.463Z</time></trkpt><trkpt lat="45.7877723" lon="8.8831502"><ele>354.0</ele><time>2026-03-28T12:48:11.464Z</time></trkpt><trkpt lat="45.7878208" lon="8.8833452"><ele>354.0</ele><time>2026-03-28T12:48:12.464Z</time></trkpt><trkpt lat="45.787865" lon="8.8835341"><ele>354.0</ele><time>2026-03-28T12:48:13.464Z</time></trkpt><trkpt lat="45.7879049" lon="8.8837128"><ele>354.0</ele><time>2026-03-28T12:48:14.463Z</time></trkpt><trkpt lat="45.7879328" lon="8.8838582"><ele>354.0</ele><time>2026-03-28T12:48:15.464Z</time></trkpt><trkpt lat="45.787944" lon="8.8840204"><ele>354.0</ele><time>2026-03-28T12:48:16.463Z</time></trkpt><trkpt lat="45.7879276" lon="8.8841913"><ele>354.0</ele><time>2026-03-28T12:48:17.464Z</time></trkpt><trkpt lat="45.7879071" lon="8.8843593"><ele>354.0</ele><time>2026-03-28T12:48:18.463Z</time></trkpt><trkpt lat="45.7879084" lon="8.8845055"><ele>353.79999999999995</ele><time>2026-03-28T12:48:19.463Z</time></trkpt><trkpt lat="45.7879344" lon="8.8846307"><ele>353.59999999999997</ele><time>2026-03-28T12:48:20.463Z</time></trkpt><trkpt lat="45.7879917" lon="8.8847303"><ele>353.4</ele><time>2026-03-28T12:48:21.464Z</time></trkpt><trkpt lat="45.7880713" lon="8.8848101"><ele>353.2</ele><time>2026-03-28T12:48:22.464Z</time></trkpt><trkpt lat="45.788153" lon="8.8849081"><ele>353.0</ele><time>2026-03-28T12:48:23.464Z</time></trkpt><trkpt lat="45.7882212" lon="8.8850386"><ele>353.25</ele><time>2026-03-28T12:48:24.464Z</time></trkpt><trkpt lat="45.7882703" lon="8.8851795"><ele>353.5</ele><time>2026-03-28T12:48:25.463Z</time></trkpt><trkpt lat="45.7883122" lon="8.8853474"><ele>353.75</ele><time>2026-03-28T12:48:26.463Z</time></trkpt><trkpt lat="45.7883541" lon="8.8855246"><ele>354.0</ele><time>2026-03-28T12:48:27.464Z</time></trkpt><trkpt lat="45.788401" lon="8.8857145"><ele>354.0</ele><time>2026-03-28T12:48:28.464Z</time></trkpt><trkpt lat="45.7884451" lon="8.8859155"><ele>354.0</ele><time>2026-03-28T12:48:29.462Z</time></trkpt><trkpt lat="45.7884883" lon="8.8861209"><ele>354.0</ele><time>2026-03-28T12:48:30.463Z</time></trkpt><trkpt lat="45.7885351" lon="8.8863339"><ele>354.0</ele><time>2026-03-28T12:48:31.463Z</time></trkpt><trkpt lat="45.7885873" lon="8.886554"><ele>354.0</ele><time>2026-03-28T12:48:32.463Z</time></trkpt><trkpt lat="45.7886424" lon="8.8867822"><ele>354.0</ele><time>2026-03-28T12:48:33.464Z</time></trkpt><trkpt lat="45.7886991" lon="8.8870196"><ele>354.0</ele><time>2026-03-28T12:48:34.464Z</time></trkpt><trkpt lat="45.7887578" lon="8.8872646"><ele>354.0</ele><time>2026-03-28T12:48:35.463Z</time></trkpt><trkpt lat="45.7888202" lon="8.8875126"><ele>354.0</ele><time>2026-03-28T12:48:36.463Z</time></trkpt><trkpt lat="45.7888889" lon="8.8877644"><ele>354.0</ele><time>2026-03-28T12:48:37.463Z</time></trkpt><trkpt lat="45.7889581" lon="8.8880215"><ele>354.0</ele><time>2026-03-28T12:48:38.463Z</time></trkpt><trkpt lat="45.7890341" lon="8.8882674"><ele>354.0</ele><time>2026-03-28T12:48:39.463Z</time></trkpt><trkpt lat="45.7891064" lon="8.8885148"><ele>354.0</ele><time>2026-03-28T12:48:40.464Z</time></trkpt><trkpt lat="45.7891865" lon="8.8887449"><ele>354.0</ele><time>2026-03-28T12:48:41.463Z</time></trkpt><trkpt lat="45.7892628" lon="8.8889662"><ele>354.0</ele><time>2026-03-28T12:48:42.463Z</time></trkpt><trkpt lat="45.7893281" lon="8.8891779"><ele>354.25</ele><time>2026-03-28T12:48:43.463Z</time></trkpt><trkpt lat="45.7893898" lon="8.8893757"><ele>354.5</ele><time>2026-03-28T12:48:44.464Z</time></trkpt><trkpt lat="45.7894497" lon="8.8895621"><ele>354.75</ele><time>2026-03-28T12:48:45.463Z</time></trkpt><trkpt lat="45.7895103" lon="8.8897429"><ele>355.0</ele><time>2026-03-28T12:48:46.464Z</time></trkpt><trkpt lat="45.7895695" lon="8.8899098"><ele>355.0</ele><time>2026-03-28T12:48:47.464Z</time></trkpt><trkpt lat="45.7896229" lon="8.8900657"><ele>355.0</ele><time>2026-03-28T12:48:48.463Z</time></trkpt><trkpt lat="45.7896765" lon="8.8902004"><ele>355.0</ele><time>2026-03-28T12:48:49.463Z</time></trkpt><trkpt lat="45.7897299" lon="8.8903093"><ele>355.0</ele><time>2026-03-28T12:48:50.464Z</time></trkpt><trkpt lat="45.7897855" lon="8.8904043"><ele>355.0</ele><time>2026-03-28T12:48:51.464Z</time></trkpt><trkpt lat="45.789828" lon="8.8904791"><ele>355.2</ele><time>2026-03-28T12:48:52.463Z</time></trkpt><trkpt lat="45.7898877" lon="8.8905719"><ele>355.4</ele><time>2026-03-28T12:48:54.463Z</time></trkpt><trkpt lat="45.7899205" lon="8.8906561"><ele>355.6</ele><time>2026-03-28T12:48:56.463Z</time></trkpt><trkpt lat="45.7899394" lon="8.8908026"><ele>355.8</ele><time>2026-03-28T12:48:58.463Z</time></trkpt><trkpt lat="45.7899942" lon="8.8909324"><ele>356.0</ele><time>2026-03-28T12:49:00.464Z</time></trkpt><trkpt lat="45.7900907" lon="8.8909604"><ele>356.0</ele><time>2026-03-28T12:49:02.463Z</time></trkpt><trkpt lat="45.7901874" lon="8.8908436"><ele>356.0</ele><time>2026-03-28T12:49:04.463Z</time></trkpt><trkpt lat="45.7902443" lon="8.8907549"><ele>356.0</ele><time>2026-03-28T12:49:05.463Z</time></trkpt><trkpt lat="45.790313" lon="8.8906659"><ele>356.0</ele><time>2026-03-28T12:49:06.463Z</time></trkpt><trkpt lat="45.7903769" lon="8.8905854"><ele>356.0</ele><time>2026-03-28T12:49:07.464Z</time></trkpt><trkpt lat="45.7904411" lon="8.8905167"><ele>356.0</ele><time>2026-03-28T12:49:08.464Z</time></trkpt><trkpt lat="45.7905145" lon="8.8904313"><ele>356.0</ele><time>2026-03-28T12:49:09.463Z</time></trkpt><trkpt lat="45.7905917" lon="8.890342"><ele>356.0</ele><time>2026-03-28T12:49:10.463Z</time></trkpt><trkpt lat="45.7906691" lon="8.8902551"><ele>356.0</ele><time>2026-03-28T12:49:11.463Z</time></trkpt><trkpt lat="45.7907478" lon="8.8901657"><ele>356.0</ele><time>2026-03-28T12:49:12.464Z</time></trkpt><trkpt lat="45.7908361" lon="8.8900672"><ele>356.25</ele><time>2026-03-28T12:49:13.463Z</time></trkpt><trkpt lat="45.7909227" lon="8.889968"><ele>356.5</ele><time>2026-03-28T12:49:14.463Z</time></trkpt><trkpt lat="45.7910124" lon="8.8898661"><ele>356.75</ele><time>2026-03-28T12:49:15.464Z</time></trkpt><trkpt lat="45.7911046" lon="8.8897599"><ele>357.0</ele><time>2026-03-28T12:49:16.463Z</time></trkpt><trkpt lat="45.7912008" lon="8.8896522"><ele>357.1666666666667</ele><time>2026-03-28T12:49:17.464Z</time></trkpt><trkpt lat="45.7912825" lon="8.8895557"><ele>357.3333333333333</ele><time>2026-03-28T12:49:18.464Z</time></trkpt><trkpt lat="45.7913597" lon="8.8894688"><ele>357.5</ele><time>2026-03-28T12:49:19.463Z</time></trkpt><trkpt lat="45.791431" lon="8.8893982"><ele>357.66666666666663</ele><time>2026-03-28T12:49:20.463Z</time></trkpt><trkpt lat="45.7914829" lon="8.8893425"><ele>357.8333333333333</ele><time>2026-03-28T12:49:21.464Z</time></trkpt><trkpt lat="45.7915603" lon="8.8892992"><ele>358.0</ele><time>2026-03-28T12:49:23.464Z</time></trkpt><trkpt lat="45.7916604" lon="8.889372"><ele>358.0</ele><time>2026-03-28T12:49:25.463Z</time></trkpt><trkpt lat="45.7916882" lon="8.8894613"><ele>358.0</ele><time>2026-03-28T12:49:26.463Z</time></trkpt><trkpt lat="45.7917083" lon="8.889602"><ele>358.0</ele><time>2026-03-28T12:49:27.464Z</time></trkpt><trkpt lat="45.7917256" lon="8.8897405"><ele>358.0</ele><time>2026-03-28T12:49:28.463Z</time></trkpt><trkpt lat="45.7917343" lon="8.889873"><ele>358.0</ele><time>2026-03-28T12:49:29.463Z</time></trkpt><trkpt lat="45.7917418" lon="8.8899881"><ele>358.0</ele><time>2026-03-28T12:49:30.464Z</time></trkpt><trkpt lat="45.7917343" lon="8.8900869"><ele>358.0</ele><time>2026-03-28T12:49:31.463Z</time></trkpt><trkpt lat="45.7917233" lon="8.890179"><ele>358.0</ele><time>2026-03-28T12:49:32.463Z</time></trkpt><trkpt lat="45.7917029" lon="8.8903411"><ele>358.0</ele><time>2026-03-28T12:49:34.463Z</time></trkpt><trkpt lat="45.7917796" lon="8.8904269"><ele>358.0</ele><time>2026-03-28T12:49:36.464Z</time></trkpt><trkpt lat="45.7918793" lon="8.8903857"><ele>358.0</ele><time>2026-03-28T12:49:38.463Z</time></trkpt><trkpt lat="45.7919379" lon="8.8903187"><ele>358.2</ele><time>2026-03-28T12:49:39.464Z</time></trkpt><trkpt lat="45.791997" lon="8.8902337"><ele>358.4</ele><time>2026-03-28T12:49:40.463Z</time></trkpt><trkpt lat="45.792061" lon="8.8901362"><ele>358.59999999999997</ele><time>2026-03-28T12:49:41.463Z</time></trkpt><trkpt lat="45.7921379" lon="8.8900428"><ele>358.79999999999995</ele><time>2026-03-28T12:49:42.463Z</time></trkpt><trkpt lat="45.7922208" lon="8.889954"><ele>359.0</ele><time>2026-03-28T12:49:43.463Z</time></trkpt><trkpt lat="45.7923181" lon="8.8898692"><ele>359.0</ele><time>2026-03-28T12:49:44.464Z</time></trkpt><trkpt lat="45.792415" lon="8.8898057"><ele>359.0</ele><time>2026-03-28T12:49:45.463Z</time></trkpt><trkpt lat="45.7925154" lon="8.8897515"><ele>359.0</ele><time>2026-03-28T12:49:46.464Z</time></trkpt><trkpt lat="45.792622" lon="8.8896937"><ele>359.0</ele><time>2026-03-28T12:49:47.463Z</time></trkpt><trkpt lat="45.7927233" lon="8.8896407"><ele>359.0</ele><time>2026-03-28T12:49:48.462Z</time></trkpt><trkpt lat="45.7928157" lon="8.8895909"><ele>359.33333333333337</ele><time>2026-03-28T12:49:49.464Z</time></trkpt><trkpt lat="45.7928893" lon="8.8895476"><ele>359.6666666666667</ele><time>2026-03-28T12:49:50.464Z</time></trkpt><trkpt lat="45.7929589" lon="8.8894989"><ele>360.0</ele><time>2026-03-28T12:49:51.464Z</time></trkpt><trkpt lat="45.7930324" lon="8.8894477"><ele>360.3333333333333</ele><time>2026-03-28T12:49:52.464Z</time></trkpt><trkpt lat="45.7931171" lon="8.8893877"><ele>360.66666666666663</ele><time>2026-03-28T12:49:53.463Z</time></trkpt><trkpt lat="45.7932058" lon="8.8893276"><ele>361.0</ele><time>2026-03-28T12:49:54.464Z</time></trkpt><trkpt lat="45.7932826" lon="8.88927"><ele>360.75</ele><time>2026-03-28T12:49:55.463Z</time></trkpt><trkpt lat="45.793382" lon="8.8892015"><ele>360.5</ele><time>2026-03-28T12:49:56.463Z</time></trkpt><trkpt lat="45.7934976" lon="8.8891215"><ele>360.25</ele><time>2026-03-28T12:49:57.464Z</time></trkpt><trkpt lat="45.7936286" lon="8.8890368"><ele>360.0</ele><time>2026-03-28T12:49:58.463Z</time></trkpt><trkpt lat="45.7937647" lon="8.8889529"><ele>360.4</ele><time>2026-03-28T12:49:59.463Z</time></trkpt><trkpt lat="45.7938835" lon="8.8888781"><ele>360.8</ele><time>2026-03-28T12:50:00.463Z</time></trkpt><trkpt lat="45.7939857" lon="8.8888223"><ele>361.20000000000005</ele><time>2026-03-28T12:50:01.463Z</time></trkpt><trkpt lat="45.7940689" lon="8.8887864"><ele>361.6</ele><time>2026-03-28T12:50:02.463Z</time></trkpt><trkpt lat="45.7941368" lon="8.8887769"><ele>362.0</ele><time>2026-03-28T12:50:03.464Z</time></trkpt><trkpt lat="45.7942426" lon="8.8888576"><ele>362.0</ele><time>2026-03-28T12:50:05.463Z</time></trkpt><trkpt lat="45.7942791" lon="8.88896"><ele>362.0</ele><time>2026-03-28T12:50:06.463Z</time></trkpt><trkpt lat="45.7943199" lon="8.8891083"><ele>362.0</ele><time>2026-03-28T12:50:07.464Z</time></trkpt><trkpt lat="45.7943522" lon="8.8892826"><ele>362.0</ele><time>2026-03-28T12:50:08.464Z</time></trkpt><trkpt lat="45.7943867" lon="8.8894719"><ele>363.0</ele><time>2026-03-28T12:50:09.464Z</time></trkpt><trkpt lat="45.7944243" lon="8.8896706"><ele>364.0</ele><time>2026-03-28T12:50:10.464Z</time></trkpt><trkpt lat="45.7944604" lon="8.889887"><ele>365.0</ele><time>2026-03-28T12:50:11.463Z</time></trkpt><trkpt lat="45.7944829" lon="8.8900648"><ele>366.0</ele><time>2026-03-28T12:50:12.463Z</time></trkpt><trkpt lat="45.7945009" lon="8.8902172"><ele>367.5</ele><time>2026-03-28T12:50:13.464Z</time></trkpt><trkpt lat="45.7945121" lon="8.8903347"><ele>369.0</ele><time>2026-03-28T12:50:14.463Z</time></trkpt><trkpt lat="45.7945173" lon="8.8904483"><ele>370.5</ele><time>2026-03-28T12:50:15.463Z</time></trkpt><trkpt lat="45.7945417" lon="8.890539"><ele>372.0</ele><time>2026-03-28T12:50:16.464Z</time></trkpt><trkpt lat="45.7946472" lon="8.8905982"><ele>373.5</ele><time>2026-03-28T12:50:18.463Z</time></trkpt><trkpt lat="45.7947255" lon="8.89057"><ele>375.0</ele><time>2026-03-28T12:50:19.463Z</time></trkpt><trkpt lat="45.7948288" lon="8.890523"><ele>375.0</ele><time>2026-03-28T12:50:20.463Z</time></trkpt><trkpt lat="45.7949432" lon="8.8904667"><ele>375.0</ele><time>2026-03-28T12:50:21.464Z</time></trkpt><trkpt lat="45.7950612" lon="8.8904063"><ele>375.0</ele><time>2026-03-28T12:50:22.463Z</time></trkpt><trkpt lat="45.795184" lon="8.8903401"><ele>375.0</ele><time>2026-03-28T12:50:23.464Z</time></trkpt><trkpt lat="45.7952968" lon="8.8902507"><ele>374.5</ele><time>2026-03-28T12:50:24.463Z</time></trkpt><trkpt lat="45.7954029" lon="8.8901329"><ele>374.0</ele><time>2026-03-28T12:50:25.463Z</time></trkpt><trkpt lat="45.7955007" lon="8.8899812"><ele>373.5</ele><time>2026-03-28T12:50:26.463Z</time></trkpt><trkpt lat="45.7956081" lon="8.8898399"><ele>373.0</ele><time>2026-03-28T12:50:27.463Z</time></trkpt><trkpt lat="45.7957291" lon="8.8897102"><ele>373.0</ele><time>2026-03-28T12:50:28.463Z</time></trkpt><trkpt lat="45.7958528" lon="8.8895941"><ele>373.0</ele><time>2026-03-28T12:50:29.463Z</time></trkpt><trkpt lat="45.7959842" lon="8.8894886"><ele>373.0</ele><time>2026-03-28T12:50:30.463Z</time></trkpt><trkpt lat="45.7961256" lon="8.889407"><ele>372.3333333333333</ele><time>2026-03-28T12:50:31.464Z</time></trkpt><trkpt lat="45.7962719" lon="8.8893392"><ele>371.6666666666667</ele><time>2026-03-28T12:50:32.463Z</time></trkpt><trkpt lat="45.7964265" lon="8.8892893"><ele>371.0</ele><time>2026-03-28T12:50:33.464Z</time></trkpt><trkpt lat="45.7965905" lon="8.889252"><ele>371.0</ele><time>2026-03-28T12:50:34.464Z</time></trkpt><trkpt lat="45.7967625" lon="8.8892187"><ele>371.0</ele><time>2026-03-28T12:50:35.463Z</time></trkpt><trkpt lat="45.7969353" lon="8.8891831"><ele>371.0</ele><time>2026-03-28T12:50:36.464Z</time></trkpt><trkpt lat="45.7971043" lon="8.8891488"><ele>373.0</ele><time>2026-03-28T12:50:37.464Z</time></trkpt><trkpt lat="45.7972673" lon="8.8891147"><ele>375.0</ele><time>2026-03-28T12:50:38.463Z</time></trkpt><trkpt lat="45.7974169" lon="8.8890849"><ele>377.0</ele><time>2026-03-28T12:50:39.464Z</time></trkpt><trkpt lat="45.7975645" lon="8.8890603"><ele>377.0</ele><time>2026-03-28T12:50:40.463Z</time></trkpt><trkpt lat="45.7977061" lon="8.8890304"><ele>377.0</ele><time>2026-03-28T12:50:41.464Z</time></trkpt><trkpt lat="45.7978437" lon="8.8889973"><ele>377.0</ele><time>2026-03-28T12:50:42.464Z</time></trkpt><trkpt lat="45.797977" lon="8.8889641"><ele>377.0</ele><time>2026-03-28T12:50:43.464Z</time></trkpt><trkpt lat="45.7980987" lon="8.8889313"><ele>377.0</ele><time>2026-03-28T12:50:44.464Z</time></trkpt><trkpt lat="45.79821" lon="8.8889049"><ele>377.0</ele><time>2026-03-28T12:50:45.463Z</time></trkpt><trkpt lat="45.7983136" lon="8.8888804"><ele>377.0</ele><time>2026-03-28T12:50:46.464Z</time></trkpt><trkpt lat="45.7984217" lon="8.8888537"><ele>377.0</ele><time>2026-03-28T12:50:47.463Z</time></trkpt><trkpt lat="45.7985099" lon="8.8888238"><ele>377.0</ele><time>2026-03-28T12:50:48.464Z</time></trkpt><trkpt lat="45.7985808" lon="8.8887793"><ele>376.8</ele><time>2026-03-28T12:50:49.463Z</time></trkpt><trkpt lat="45.7986435" lon="8.8886995"><ele>376.6</ele><time>2026-03-28T12:50:50.463Z</time></trkpt><trkpt lat="45.7986946" lon="8.888592"><ele>376.40000000000003</ele><time>2026-03-28T12:50:51.463Z</time></trkpt><trkpt lat="45.7987347" lon="8.8884998"><ele>376.20000000000005</ele><time>2026-03-28T12:50:52.463Z</time></trkpt><trkpt lat="45.7987783" lon="8.8883919"><ele>376.0</ele><time>2026-03-28T12:50:54.463Z</time></trkpt><trkpt lat="45.7988357" lon="8.888245"><ele>375.4</ele><time>2026-03-28T12:50:57.464Z</time></trkpt><trkpt lat="45.7988742" lon="8.8881332"><ele>374.8</ele><time>2026-03-28T12:50:58.463Z</time></trkpt><trkpt lat="45.7989258" lon="8.8879938"><ele>374.2</ele><time>2026-03-28T12:50:59.464Z</time></trkpt><trkpt lat="45.7989775" lon="8.887852"><ele>373.59999999999997</ele><time>2026-03-28T12:51:00.463Z</time></trkpt><trkpt lat="45.7990309" lon="8.887706"><ele>373.0</ele><time>2026-03-28T12:51:01.464Z</time></trkpt><trkpt lat="45.7990935" lon="8.8875471"><ele>373.0</ele><time>2026-03-28T12:51:02.464Z</time></trkpt><trkpt lat="45.7991569" lon="8.8873796"><ele>373.0</ele><time>2026-03-28T12:51:03.463Z</time></trkpt><trkpt lat="45.7992213" lon="8.8872002"><ele>373.0</ele><time>2026-03-28T12:51:04.464Z</time></trkpt><trkpt lat="45.7992914" lon="8.8870193"><ele>373.0</ele><time>2026-03-28T12:51:05.463Z</time></trkpt><trkpt lat="45.7993592" lon="8.8868346"><ele>373.25</ele><time>2026-03-28T12:51:06.464Z</time></trkpt><trkpt lat="45.7994323" lon="8.886659"><ele>373.5</ele><time>2026-03-28T12:51:07.463Z</time></trkpt><trkpt lat="45.7995042" lon="8.8864894"><ele>373.75</ele><time>2026-03-28T12:51:08.464Z</time></trkpt><trkpt lat="45.7995764" lon="8.8863195"><ele>374.0</ele><time>2026-03-28T12:51:09.464Z</time></trkpt><trkpt lat="45.7996395" lon="8.8861526"><ele>374.0</ele><time>2026-03-28T12:51:10.464Z</time></trkpt><trkpt lat="45.7996967" lon="8.8860071"><ele>374.0</ele><time>2026-03-28T12:51:11.464Z</time></trkpt><trkpt lat="45.7997427" lon="8.8858692"><ele>374.0</ele><time>2026-03-28T12:51:12.464Z</time></trkpt><trkpt lat="45.7997932" lon="8.8857491"><ele>374.0</ele><time>2026-03-28T12:51:13.463Z</time></trkpt><trkpt lat="45.7998475" lon="8.8856197"><ele>374.0</ele><time>2026-03-28T12:51:14.463Z</time></trkpt><trkpt lat="45.7999022" lon="8.8854747"><ele>373.79999999999995</ele><time>2026-03-28T12:51:15.464Z</time></trkpt><trkpt lat="45.7999564" lon="8.8853365"><ele>373.59999999999997</ele><time>2026-03-28T12:51:16.463Z</time></trkpt><trkpt lat="45.8000163" lon="8.8852053"><ele>373.4</ele><time>2026-03-28T12:51:17.463Z</time></trkpt><trkpt lat="45.8000742" lon="8.885064"><ele>373.2</ele><time>2026-03-28T12:51:18.464Z</time></trkpt><trkpt lat="45.8001334" lon="8.8849344"><ele>373.0</ele><time>2026-03-28T12:51:19.463Z</time></trkpt><trkpt lat="45.8002031" lon="8.8848355"><ele>372.5</ele><time>2026-03-28T12:51:20.464Z</time></trkpt><trkpt lat="45.8002877" lon="8.8847546"><ele>372.0</ele><time>2026-03-28T12:51:21.463Z</time></trkpt><trkpt lat="45.80039" lon="8.8846842"><ele>371.5</ele><time>2026-03-28T12:51:22.464Z</time></trkpt><trkpt lat="45.8005023" lon="8.8846053"><ele>371.0</ele><time>2026-03-28T12:51:23.464Z</time></trkpt><trkpt lat="45.8006208" lon="8.8845071"><ele>371.0</ele><time>2026-03-28T12:51:24.463Z</time></trkpt><trkpt lat="45.8007316" lon="8.8843874"><ele>371.0</ele><time>2026-03-28T12:51:25.464Z</time></trkpt><trkpt lat="45.8008266" lon="8.884252"><ele>371.0</ele><time>2026-03-28T12:51:26.464Z</time></trkpt><trkpt lat="45.800914" lon="8.8841167"><ele>371.0</ele><time>2026-03-28T12:51:27.464Z</time></trkpt><trkpt lat="45.8009932" lon="8.8839881"><ele>370.5</ele><time>2026-03-28T12:51:28.463Z</time></trkpt><trkpt lat="45.8010562" lon="8.8838594"><ele>370.0</ele><time>2026-03-28T12:51:29.464Z</time></trkpt><trkpt lat="45.8010851" lon="8.8837377"><ele>369.5</ele><time>2026-03-28T12:51:30.463Z</time></trkpt><trkpt lat="45.8011355" lon="8.8836517"><ele>369.0</ele><time>2026-03-28T12:51:31.463Z</time></trkpt><trkpt lat="45.8011888" lon="8.8836004"><ele>368.5</ele><time>2026-03-28T12:51:32.463Z</time></trkpt><trkpt lat="45.8012726" lon="8.8835773"><ele>368.0</ele><time>2026-03-28T12:51:33.462Z</time></trkpt><trkpt lat="45.8013727" lon="8.8835609"><ele>368.0</ele><time>2026-03-28T12:51:34.463Z</time></trkpt><trkpt lat="45.8014886" lon="8.8835486"><ele>368.0</ele><time>2026-03-28T12:51:35.464Z</time></trkpt><trkpt lat="45.8016175" lon="8.8835276"><ele>368.0</ele><time>2026-03-28T12:51:36.463Z</time></trkpt><trkpt lat="45.8017504" lon="8.883508"><ele>368.0</ele><time>2026-03-28T12:51:37.463Z</time></trkpt><trkpt lat="45.8018677" lon="8.8834998"><ele>368.33333333333337</ele><time>2026-03-28T12:51:38.464Z</time></trkpt><trkpt lat="45.8019663" lon="8.8835019"><ele>368.6666666666667</ele><time>2026-03-28T12:51:39.463Z</time></trkpt><trkpt lat="45.8020424" lon="8.883522"><ele>369.0</ele><time>2026-03-28T12:51:40.463Z</time></trkpt><trkpt lat="45.8020955" lon="8.8835733"><ele>369.3333333333333</ele><time>2026-03-28T12:51:41.464Z</time></trkpt><trkpt lat="45.8021256" lon="8.8836616"><ele>369.66666666666663</ele><time>2026-03-28T12:51:42.463Z</time></trkpt><trkpt lat="45.8021405" lon="8.8837636"><ele>370.0</ele><time>2026-03-28T12:51:43.463Z</time></trkpt><trkpt lat="45.8021799" lon="8.8838676"><ele>370.0</ele><time>2026-03-28T12:51:44.464Z</time></trkpt><trkpt lat="45.8022441" lon="8.8839462"><ele>370.0</ele><time>2026-03-28T12:51:45.463Z</time></trkpt><trkpt lat="45.80233" lon="8.8839993"><ele>370.0</ele><time>2026-03-28T12:51:46.464Z</time></trkpt><trkpt lat="45.8024304" lon="8.8840486"><ele>370.0</ele><time>2026-03-28T12:51:47.464Z</time></trkpt><trkpt lat="45.8025449" lon="8.8840993"><ele>370.0</ele><time>2026-03-28T12:51:48.463Z</time></trkpt><trkpt lat="45.802642" lon="8.8841734"><ele>371.4</ele><time>2026-03-28T12:51:49.464Z</time></trkpt><trkpt lat="45.8027116" lon="8.8842712"><ele>372.8</ele><time>2026-03-28T12:51:50.464Z</time></trkpt><trkpt lat="45.8027558" lon="8.8843947"><ele>374.20000000000005</ele><time>2026-03-28T12:51:51.464Z</time></trkpt><trkpt lat="45.8027887" lon="8.884548"><ele>375.6</ele><time>2026-03-28T12:51:52.463Z</time></trkpt><trkpt lat="45.8028119" lon="8.8847145"><ele>377.0</ele><time>2026-03-28T12:51:53.464Z</time></trkpt><trkpt lat="45.8028272" lon="8.8849262"><ele>377.75</ele><time>2026-03-28T12:51:54.464Z</time></trkpt><trkpt lat="45.8028276" lon="8.8851322"><ele>378.5</ele><time>2026-03-28T12:51:55.464Z</time></trkpt><trkpt lat="45.8028291" lon="8.8853529"><ele>379.25</ele><time>2026-03-28T12:51:56.464Z</time></trkpt><trkpt lat="45.8028312" lon="8.8855671"><ele>380.0</ele><time>2026-03-28T12:51:57.463Z</time></trkpt><trkpt lat="45.8028395" lon="8.8857632"><ele>380.75</ele><time>2026-03-28T12:51:58.463Z</time></trkpt><trkpt lat="45.8028785" lon="8.8859357"><ele>381.5</ele><time>2026-03-28T12:51:59.464Z</time></trkpt><trkpt lat="45.8029375" lon="8.8861126"><ele>382.25</ele><time>2026-03-28T12:52:00.463Z</time></trkpt><trkpt lat="45.8030058" lon="8.886294"><ele>383.0</ele><time>2026-03-28T12:52:01.462Z</time></trkpt><trkpt lat="45.8030847" lon="8.8864741"><ele>383.0</ele><time>2026-03-28T12:52:02.464Z</time></trkpt><trkpt lat="45.8031709" lon="8.8866577"><ele>383.0</ele><time>2026-03-28T12:52:03.463Z</time></trkpt><trkpt lat="45.8032549" lon="8.8868597"><ele>383.0</ele><time>2026-03-28T12:52:04.464Z</time></trkpt><trkpt lat="45.8033338" lon="8.8870647"><ele>383.33333333333337</ele><time>2026-03-28T12:52:05.463Z</time></trkpt><trkpt lat="45.803404" lon="8.887271"><ele>383.6666666666667</ele><time>2026-03-28T12:52:06.464Z</time></trkpt><trkpt lat="45.8034799" lon="8.8874893"><ele>384.0</ele><time>2026-03-28T12:52:07.464Z</time></trkpt><trkpt lat="45.8035534" lon="8.8876972"><ele>384.5</ele><time>2026-03-28T12:52:08.463Z</time></trkpt><trkpt lat="45.8036215" lon="8.8878917"><ele>385.0</ele><time>2026-03-28T12:52:09.463Z</time></trkpt><trkpt lat="45.8036847" lon="8.8880701"><ele>385.5</ele><time>2026-03-28T12:52:10.463Z</time></trkpt><trkpt lat="45.8037309" lon="8.8882293"><ele>386.0</ele><time>2026-03-28T12:52:11.464Z</time></trkpt><trkpt lat="45.8037675" lon="8.8883783"><ele>386.0</ele><time>2026-03-28T12:52:12.464Z</time></trkpt><trkpt lat="45.8037935" lon="8.8885052"><ele>387.0</ele><time>2026-03-28T12:52:13.464Z</time></trkpt><trkpt lat="45.8038118" lon="8.8886029"><ele>387.0</ele><time>2026-03-28T12:52:14.464Z</time></trkpt><trkpt lat="45.8038511" lon="8.8887149"><ele>387.0</ele><time>2026-03-28T12:52:16.464Z</time></trkpt><trkpt lat="45.8039145" lon="8.8886993"><ele>387.0</ele><time>2026-03-28T12:52:19.463Z</time></trkpt></trkseg><trkseg><trkpt lat="45.8038266" lon="8.8885614"><ele>386.8</ele><time>2026-03-28T13:06:02.461Z</time></trkpt><trkpt lat="45.803779" lon="8.8884149"><ele>386.6</ele><time>2026-03-28T13:06:04.461Z</time></trkpt><trkpt lat="45.8037599" lon="8.8883163"><ele>386.40000000000003</ele><time>2026-03-28T13:06:05.46Z</time></trkpt><trkpt lat="45.8037314" lon="8.8882054"><ele>386.20000000000005</ele><time>2026-03-28T13:06:06.461Z</time></trkpt><trkpt lat="45.8036966" lon="8.8880867"><ele>386.0</ele><time>2026-03-28T13:06:07.46Z</time></trkpt><trkpt lat="45.8036519" lon="8.8879553"><ele>386.0</ele><time>2026-03-28T13:06:08.46Z</time></trkpt><trkpt lat="45.8036055" lon="8.8878118"><ele>386.0</ele><time>2026-03-28T13:06:09.461Z</time></trkpt><trkpt lat="45.8035523" lon="8.887664"><ele>386.0</ele><time>2026-03-28T13:06:10.461Z</time></trkpt><trkpt lat="45.8034966" lon="8.8875025"><ele>386.0</ele><time>2026-03-28T13:06:11.46Z</time></trkpt><trkpt lat="45.8034401" lon="8.8873496"><ele>385.5</ele><time>2026-03-28T13:06:12.46Z</time></trkpt><trkpt lat="45.8033812" lon="8.8871982"><ele>385.0</ele><time>2026-03-28T13:06:13.461Z</time></trkpt><trkpt lat="45.8033305" lon="8.8870469"><ele>384.5</ele><time>2026-03-28T13:06:14.46Z</time></trkpt><trkpt lat="45.803271" lon="8.8868968"><ele>384.0</ele><time>2026-03-28T13:06:15.461Z</time></trkpt><trkpt lat="45.8032053" lon="8.8867437"><ele>383.75</ele><time>2026-03-28T13:06:16.46Z</time></trkpt><trkpt lat="45.8031383" lon="8.8865939"><ele>383.5</ele><time>2026-03-28T13:06:17.46Z</time></trkpt><trkpt lat="45.8030722" lon="8.886449"><ele>383.25</ele><time>2026-03-28T13:06:18.46Z</time></trkpt><trkpt lat="45.8030114" lon="8.8863027"><ele>383.0</ele><time>2026-03-28T13:06:19.461Z</time></trkpt><trkpt lat="45.8029555" lon="8.8861583"><ele>383.0</ele><time>2026-03-28T13:06:20.46Z</time></trkpt><trkpt lat="45.8029086" lon="8.8860122"><ele>383.0</ele><time>2026-03-28T13:06:21.46Z</time></trkpt><trkpt lat="45.8028759" lon="8.8858558"><ele>383.0</ele><time>2026-03-28T13:06:22.461Z</time></trkpt><trkpt lat="45.8028526" lon="8.8856941"><ele>383.0</ele><time>2026-03-28T13:06:23.461Z</time></trkpt><trkpt lat="45.8028558" lon="8.8855241"><ele>382.25</ele><time>2026-03-28T13:06:24.461Z</time></trkpt><trkpt lat="45.8028587" lon="8.8853493"><ele>381.5</ele><time>2026-03-28T13:06:25.461Z</time></trkpt><trkpt lat="45.8028576" lon="8.8851728"><ele>380.75</ele><time>2026-03-28T13:06:26.46Z</time></trkpt><trkpt lat="45.8028552" lon="8.8849961"><ele>380.0</ele><time>2026-03-28T13:06:27.46Z</time></trkpt><trkpt lat="45.802852" lon="8.8848282"><ele>379.4</ele><time>2026-03-28T13:06:28.46Z</time></trkpt><trkpt lat="45.8028377" lon="8.8846623"><ele>378.8</ele><time>2026-03-28T13:06:29.461Z</time></trkpt><trkpt lat="45.8028211" lon="8.8845134"><ele>378.20000000000005</ele><time>2026-03-28T13:06:30.461Z</time></trkpt><trkpt lat="45.8027976" lon="8.8843784"><ele>377.6</ele><time>2026-03-28T13:06:31.461Z</time></trkpt><trkpt lat="45.8027614" lon="8.8842579"><ele>377.0</ele><time>2026-03-28T13:06:32.461Z</time></trkpt><trkpt lat="45.8026997" lon="8.884161"><ele>375.6</ele><time>2026-03-28T13:06:33.46Z</time></trkpt><trkpt lat="45.8026145" lon="8.8840946"><ele>374.20000000000005</ele><time>2026-03-28T13:06:34.46Z</time></trkpt><trkpt lat="45.8025131" lon="8.8840487"><ele>372.8</ele><time>2026-03-28T13:06:35.46Z</time></trkpt><trkpt lat="45.8024102" lon="8.8840085"><ele>371.4</ele><time>2026-03-28T13:06:36.461Z</time></trkpt><trkpt lat="45.8023256" lon="8.8839685"><ele>370.0</ele><time>2026-03-28T13:06:37.46Z</time></trkpt><trkpt lat="45.8022526" lon="8.8839177"><ele>369.99999999999994</ele><time>2026-03-28T13:06:38.461Z</time></trkpt><trkpt lat="45.8022109" lon="8.8838306"><ele>370.0</ele><time>2026-03-28T13:06:39.461Z</time></trkpt><trkpt lat="45.8021892" lon="8.8837324"><ele>370.0</ele><time>2026-03-28T13:06:40.461Z</time></trkpt><trkpt lat="45.8021714" lon="8.8836376"><ele>370.0</ele><time>2026-03-28T13:06:41.461Z</time></trkpt><trkpt lat="45.8021409" lon="8.8835512"><ele>370.0</ele><time>2026-03-28T13:06:42.46Z</time></trkpt><trkpt lat="45.8020921" lon="8.8834904"><ele>369.99999999999994</ele><time>2026-03-28T13:06:43.46Z</time></trkpt><trkpt lat="45.8020235" lon="8.8834557"><ele>370.0</ele><time>2026-03-28T13:06:44.46Z</time></trkpt><trkpt lat="45.8019379" lon="8.8834489"><ele>370.0</ele><time>2026-03-28T13:06:45.461Z</time></trkpt><trkpt lat="45.8018485" lon="8.8834529"><ele>370.0</ele><time>2026-03-28T13:06:46.459Z</time></trkpt><trkpt lat="45.8017536" lon="8.8834693"><ele>370.0</ele><time>2026-03-28T13:06:47.46Z</time></trkpt><trkpt lat="45.8016524" lon="8.8834827"><ele>370.0</ele><time>2026-03-28T13:06:48.46Z</time></trkpt><trkpt lat="45.8015547" lon="8.8834949"><ele>370.0</ele><time>2026-03-28T13:06:49.461Z</time></trkpt><trkpt lat="45.8014623" lon="8.8835037"><ele>369.66666666666663</ele><time>2026-03-28T13:06:50.46Z</time></trkpt><trkpt lat="45.8013818" lon="8.8835168"><ele>369.3333333333333</ele><time>2026-03-28T13:06:51.459Z</time></trkpt><trkpt lat="45.8013167" lon="8.8835224"><ele>369.0</ele><time>2026-03-28T13:06:52.461Z</time></trkpt><trkpt lat="45.8012421" lon="8.8834933"><ele>368.6666666666667</ele><time>2026-03-28T13:06:54.461Z</time></trkpt><trkpt lat="45.8011719" lon="8.883517"><ele>368.33333333333337</ele><time>2026-03-28T13:07:00.461Z</time></trkpt><trkpt lat="45.8011081" lon="8.8836283"><ele>368.0</ele><time>2026-03-28T13:07:02.46Z</time></trkpt><trkpt lat="45.8010754" lon="8.8837212"><ele>368.0</ele><time>2026-03-28T13:07:03.461Z</time></trkpt><trkpt lat="45.801038" lon="8.8838226"><ele>368.0</ele><time>2026-03-28T13:07:04.461Z</time></trkpt><trkpt lat="45.8009945" lon="8.8839296"><ele>368.0</ele><time>2026-03-28T13:07:05.46Z</time></trkpt><trkpt lat="45.8009351" lon="8.8840303"><ele>368.0</ele><time>2026-03-28T13:07:06.46Z</time></trkpt><trkpt lat="45.8008671" lon="8.8841303"><ele>368.0</ele><time>2026-03-28T13:07:07.461Z</time></trkpt><trkpt lat="45.8007977" lon="8.884235"><ele>368.75</ele><time>2026-03-28T13:07:08.461Z</time></trkpt><trkpt lat="45.8007189" lon="8.8843488"><ele>369.5</ele><time>2026-03-28T13:07:09.46Z</time></trkpt><trkpt lat="45.8006291" lon="8.884444"><ele>370.25</ele><time>2026-03-28T13:07:10.461Z</time></trkpt><trkpt lat="45.8005285" lon="8.8845268"><ele>371.0</ele><time>2026-03-28T13:07:11.461Z</time></trkpt><trkpt lat="45.8004237" lon="8.8845934"><ele>371.0</ele><time>2026-03-28T13:07:12.46Z</time></trkpt><trkpt lat="45.8003189" lon="8.8846656"><ele>371.0</ele><time>2026-03-28T13:07:13.46Z</time></trkpt><trkpt lat="45.8002228" lon="8.884756"><ele>371.0</ele><time>2026-03-28T13:07:14.46Z</time></trkpt><trkpt lat="45.8001341" lon="8.8848728"><ele>371.0</ele><time>2026-03-28T13:07:15.461Z</time></trkpt><trkpt lat="45.8000634" lon="8.8850054"><ele>371.5</ele><time>2026-03-28T13:07:16.46Z</time></trkpt><trkpt lat="45.8000061" lon="8.8851576"><ele>372.0</ele><time>2026-03-28T13:07:17.461Z</time></trkpt><trkpt lat="45.7999473" lon="8.8853063"><ele>372.5</ele><time>2026-03-28T13:07:18.46Z</time></trkpt><trkpt lat="45.7998937" lon="8.8854528"><ele>373.0</ele><time>2026-03-28T13:07:19.461Z</time></trkpt><trkpt lat="45.7998392" lon="8.8855869"><ele>373.0</ele><time>2026-03-28T13:07:20.46Z</time></trkpt><trkpt lat="45.7997835" lon="8.885716"><ele>373.0</ele><time>2026-03-28T13:07:21.46Z</time></trkpt><trkpt lat="45.7997296" lon="8.8858478"><ele>373.0</ele><time>2026-03-28T13:07:22.461Z</time></trkpt><trkpt lat="45.7996788" lon="8.8859859"><ele>373.0</ele><time>2026-03-28T13:07:23.461Z</time></trkpt><trkpt lat="45.799624" lon="8.8861241"><ele>373.0</ele><time>2026-03-28T13:07:24.46Z</time></trkpt><trkpt lat="45.799564" lon="8.8862705"><ele>373.25</ele><time>2026-03-28T13:07:25.461Z</time></trkpt><trkpt lat="45.7995085" lon="8.8864166"><ele>373.5</ele><time>2026-03-28T13:07:26.46Z</time></trkpt><trkpt lat="45.7994489" lon="8.8865674"><ele>373.75</ele><time>2026-03-28T13:07:27.46Z</time></trkpt><trkpt lat="45.7993943" lon="8.8867117"><ele>374.0</ele><time>2026-03-28T13:07:28.46Z</time></trkpt><trkpt lat="45.7993358" lon="8.8868568"><ele>373.75</ele><time>2026-03-28T13:07:29.461Z</time></trkpt><trkpt lat="45.7992788" lon="8.8869963"><ele>373.5</ele><time>2026-03-28T13:07:30.461Z</time></trkpt><trkpt lat="45.7992209" lon="8.8871495"><ele>373.25</ele><time>2026-03-28T13:07:31.461Z</time></trkpt><trkpt lat="45.7991711" lon="8.8873028"><ele>373.0</ele><time>2026-03-28T13:07:32.461Z</time></trkpt><trkpt lat="45.7991203" lon="8.8874598"><ele>373.0</ele><time>2026-03-28T13:07:33.461Z</time></trkpt><trkpt lat="45.7990593" lon="8.8876195"><ele>373.0</ele><time>2026-03-28T13:07:34.46Z</time></trkpt><trkpt lat="45.7989957" lon="8.8877834"><ele>373.0</ele><time>2026-03-28T13:07:35.46Z</time></trkpt><trkpt lat="45.798932" lon="8.8879458"><ele>373.0</ele><time>2026-03-28T13:07:36.46Z</time></trkpt><trkpt lat="45.7988648" lon="8.8881078"><ele>373.0</ele><time>2026-03-28T13:07:37.461Z</time></trkpt><trkpt lat="45.7987944" lon="8.8882616"><ele>373.0</ele><time>2026-03-28T13:07:38.461Z</time></trkpt><trkpt lat="45.7987335" lon="8.8884028"><ele>373.0</ele><time>2026-03-28T13:07:39.46Z</time></trkpt><trkpt lat="45.7986758" lon="8.8885428"><ele>373.0</ele><time>2026-03-28T13:07:40.461Z</time></trkpt><trkpt lat="45.7986228" lon="8.8886629"><ele>373.59999999999997</ele><time>2026-03-28T13:07:41.461Z</time></trkpt><trkpt lat="45.7985615" lon="8.8887397"><ele>374.2</ele><time>2026-03-28T13:07:42.461Z</time></trkpt><trkpt lat="45.7984829" lon="8.8887856"><ele>374.8</ele><time>2026-03-28T13:07:43.461Z</time></trkpt><trkpt lat="45.7983936" lon="8.8888148"><ele>375.4</ele><time>2026-03-28T13:07:44.46Z</time></trkpt><trkpt lat="45.7982948" lon="8.8888402"><ele>376.0</ele><time>2026-03-28T13:07:45.461Z</time></trkpt><trkpt lat="45.7981924" lon="8.8888576"><ele>376.25</ele><time>2026-03-28T13:07:46.46Z</time></trkpt><trkpt lat="45.7980848" lon="8.8888806"><ele>376.5</ele><time>2026-03-28T13:07:47.46Z</time></trkpt><trkpt lat="45.7979685" lon="8.8889175"><ele>376.75</ele><time>2026-03-28T13:07:48.46Z</time></trkpt><trkpt lat="45.7978486" lon="8.8889536"><ele>377.0</ele><time>2026-03-28T13:07:49.461Z</time></trkpt><trkpt lat="45.7977182" lon="8.8889869"><ele>377.0</ele><time>2026-03-28T13:07:50.461Z</time></trkpt><trkpt lat="45.7975833" lon="8.8890148"><ele>377.0</ele><time>2026-03-28T13:07:51.461Z</time></trkpt><trkpt lat="45.7974397" lon="8.8890396"><ele>377.0</ele><time>2026-03-28T13:07:52.46Z</time></trkpt><trkpt lat="45.7972937" lon="8.8890658"><ele>377.0</ele><time>2026-03-28T13:07:53.46Z</time></trkpt><trkpt lat="45.7971495" lon="8.8890953"><ele>377.0</ele><time>2026-03-28T13:07:54.461Z</time></trkpt><trkpt lat="45.7970168" lon="8.8891226"><ele>377.0</ele><time>2026-03-28T13:07:55.461Z</time></trkpt><trkpt lat="45.7968875" lon="8.8891459"><ele>377.0</ele><time>2026-03-28T13:07:56.461Z</time></trkpt><trkpt lat="45.796772" lon="8.8891688"><ele>377.0</ele><time>2026-03-28T13:07:57.46Z</time></trkpt><trkpt lat="45.7966615" lon="8.8891936"><ele>377.8</ele><time>2026-03-28T13:07:58.461Z</time></trkpt><trkpt lat="45.7965584" lon="8.8892111"><ele>378.6</ele><time>2026-03-28T13:07:59.46Z</time></trkpt><trkpt lat="45.7964605" lon="8.8892344"><ele>379.40000000000003</ele><time>2026-03-28T13:08:00.461Z</time></trkpt><trkpt lat="45.7963661" lon="8.8892586"><ele>380.20000000000005</ele><time>2026-03-28T13:08:01.461Z</time></trkpt><trkpt lat="45.7962711" lon="8.8892868"><ele>381.0</ele><time>2026-03-28T13:08:02.461Z</time></trkpt><trkpt lat="45.7961843" lon="8.8893218"><ele>381.0</ele><time>2026-03-28T13:08:03.461Z</time></trkpt><trkpt lat="45.7961061" lon="8.8893647"><ele>381.0</ele><time>2026-03-28T13:08:04.461Z</time></trkpt><trkpt lat="45.7960448" lon="8.8894063"><ele>381.0</ele><time>2026-03-28T13:08:05.461Z</time></trkpt><trkpt lat="45.7959859" lon="8.8894459"><ele>381.0</ele><time>2026-03-28T13:08:06.46Z</time></trkpt><trkpt lat="45.7958761" lon="8.8895348"><ele>381.0</ele><time>2026-03-28T13:08:08.461Z</time></trkpt><trkpt lat="45.7958135" lon="8.8895914"><ele>381.0</ele><time>2026-03-28T13:08:09.461Z</time></trkpt><trkpt lat="45.7957513" lon="8.8896535"><ele>380.5</ele><time>2026-03-28T13:08:10.461Z</time></trkpt><trkpt lat="45.7956882" lon="8.8897217"><ele>380.0</ele><time>2026-03-28T13:08:11.46Z</time></trkpt><trkpt lat="45.7956216" lon="8.8898026"><ele>379.5</ele><time>2026-03-28T13:08:12.461Z</time></trkpt><trkpt lat="45.7955643" lon="8.8898862"><ele>379.0</ele><time>2026-03-28T13:08:13.46Z</time></trkpt><trkpt lat="45.7955111" lon="8.8899677"><ele>378.5</ele><time>2026-03-28T13:08:14.46Z</time></trkpt><trkpt lat="45.7954595" lon="8.8900484"><ele>378.0</ele><time>2026-03-28T13:08:15.461Z</time></trkpt><trkpt lat="45.7954069" lon="8.890124"><ele>378.0</ele><time>2026-03-28T13:08:16.46Z</time></trkpt><trkpt lat="45.795349" lon="8.8901826"><ele>378.0</ele><time>2026-03-28T13:08:17.461Z</time></trkpt><trkpt lat="45.795291" lon="8.890233"><ele>378.0</ele><time>2026-03-28T13:08:18.461Z</time></trkpt><trkpt lat="45.7952245" lon="8.8902794"><ele>378.0</ele><time>2026-03-28T13:08:19.46Z</time></trkpt><trkpt lat="45.7951543" lon="8.8903144"><ele>378.0</ele><time>2026-03-28T13:08:20.461Z</time></trkpt><trkpt lat="45.7950846" lon="8.8903559"><ele>378.0</ele><time>2026-03-28T13:08:21.46Z</time></trkpt><trkpt lat="45.7950209" lon="8.8903929"><ele>378.0</ele><time>2026-03-28T13:08:22.46Z</time></trkpt><trkpt lat="45.7949554" lon="8.8904267"><ele>377.5</ele><time>2026-03-28T13:08:23.46Z</time></trkpt><trkpt lat="45.7948615" lon="8.8904796"><ele>377.0</ele><time>2026-03-28T13:08:25.46Z</time></trkpt><trkpt lat="45.7947955" lon="8.8905126"><ele>376.5</ele><time>2026-03-28T13:08:27.46Z</time></trkpt><trkpt lat="45.7947324" lon="8.8905517"><ele>376.0</ele><time>2026-03-28T13:08:29.461Z</time></trkpt><trkpt lat="45.794661" lon="8.8905734"><ele>375.5</ele><time>2026-03-28T13:08:31.461Z</time></trkpt><trkpt lat="45.7945874" lon="8.8904502"><ele>375.0</ele><time>2026-03-28T13:08:33.46Z</time></trkpt><trkpt lat="45.7945656" lon="8.8903509"><ele>375.0</ele><time>2026-03-28T13:08:34.46Z</time></trkpt><trkpt lat="45.7945434" lon="8.8902407"><ele>375.0</ele><time>2026-03-28T13:08:35.461Z</time></trkpt><trkpt lat="45.7945224" lon="8.8901233"><ele>375.0</ele><time>2026-03-28T13:08:36.46Z</time></trkpt><trkpt lat="45.7944978" lon="8.8900174"><ele>375.0</ele><time>2026-03-28T13:08:37.46Z</time></trkpt><trkpt lat="45.7944791" lon="8.8899202"><ele>375.0</ele><time>2026-03-28T13:08:38.46Z</time></trkpt><trkpt lat="45.7944615" lon="8.8898228"><ele>375.0</ele><time>2026-03-28T13:08:39.461Z</time></trkpt><trkpt lat="45.7944473" lon="8.8897247"><ele>373.5</ele><time>2026-03-28T13:08:40.46Z</time></trkpt><trkpt lat="45.7944323" lon="8.8896271"><ele>372.0</ele><time>2026-03-28T13:08:41.461Z</time></trkpt><trkpt lat="45.794414" lon="8.8895329"><ele>370.5</ele><time>2026-03-28T13:08:42.459Z</time></trkpt><trkpt lat="45.7943779" lon="8.8893697"><ele>369.0</ele><time>2026-03-28T13:08:44.459Z</time></trkpt><trkpt lat="45.7943631" lon="8.8892772"><ele>367.5</ele><time>2026-03-28T13:08:45.46Z</time></trkpt><trkpt lat="45.7943396" lon="8.8891801"><ele>366.0</ele><time>2026-03-28T13:08:46.459Z</time></trkpt><trkpt lat="45.7943174" lon="8.8890841"><ele>365.20000000000005</ele><time>2026-03-28T13:08:47.46Z</time></trkpt><trkpt lat="45.7943012" lon="8.8889913"><ele>364.40000000000003</ele><time>2026-03-28T13:08:48.459Z</time></trkpt><trkpt lat="45.7942619" lon="8.8888305"><ele>363.6</ele><time>2026-03-28T13:08:50.459Z</time></trkpt><trkpt lat="45.794181" lon="8.8887342"><ele>362.8</ele><time>2026-03-28T13:08:52.46Z</time></trkpt><trkpt lat="45.7940715" lon="8.8887398"><ele>362.0</ele><time>2026-03-28T13:08:54.459Z</time></trkpt><trkpt lat="45.793955" lon="8.8887923"><ele>362.0</ele><time>2026-03-28T13:08:56.459Z</time></trkpt><trkpt lat="45.7938705" lon="8.8888342"><ele>362.0</ele><time>2026-03-28T13:08:57.459Z</time></trkpt><trkpt lat="45.7937948" lon="8.888878"><ele>362.0</ele><time>2026-03-28T13:08:58.459Z</time></trkpt><trkpt lat="45.7937273" lon="8.8889217"><ele>362.0</ele><time>2026-03-28T13:08:59.459Z</time></trkpt><trkpt lat="45.7936628" lon="8.8889644"><ele>362.0</ele><time>2026-03-28T13:09:00.46Z</time></trkpt><trkpt lat="45.7935993" lon="8.8890111"><ele>362.0</ele><time>2026-03-28T13:09:01.459Z</time></trkpt><trkpt lat="45.7935298" lon="8.8890502"><ele>361.83333333333337</ele><time>2026-03-28T13:09:02.459Z</time></trkpt><trkpt lat="45.7934595" lon="8.8890987"><ele>361.6666666666667</ele><time>2026-03-28T13:09:03.46Z</time></trkpt><trkpt lat="45.7933824" lon="8.8891527"><ele>361.5</ele><time>2026-03-28T13:09:04.459Z</time></trkpt><trkpt lat="45.7933153" lon="8.889203"><ele>361.3333333333333</ele><time>2026-03-28T13:09:05.459Z</time></trkpt><trkpt lat="45.7932541" lon="8.8892493"><ele>361.16666666666663</ele><time>2026-03-28T13:09:06.46Z</time></trkpt><trkpt lat="45.7931847" lon="8.8892931"><ele>361.0</ele><time>2026-03-28T13:09:07.459Z</time></trkpt><trkpt lat="45.793114" lon="8.8893428"><ele>361.0</ele><time>2026-03-28T13:09:08.459Z</time></trkpt><trkpt lat="45.7930407" lon="8.8893957"><ele>361.0</ele><time>2026-03-28T13:09:09.458Z</time></trkpt><trkpt lat="45.7929722" lon="8.8894474"><ele>361.0</ele><time>2026-03-28T13:09:10.46Z</time></trkpt><trkpt lat="45.7929082" lon="8.8894918"><ele>361.0</ele><time>2026-03-28T13:09:11.46Z</time></trkpt><trkpt lat="45.7928408" lon="8.8895366"><ele>361.0</ele><time>2026-03-28T13:09:12.46Z</time></trkpt><trkpt lat="45.7927636" lon="8.8895753"><ele>361.0</ele><time>2026-03-28T13:09:13.459Z</time></trkpt><trkpt lat="45.7926773" lon="8.8896286"><ele>360.66666666666663</ele><time>2026-03-28T13:09:14.459Z</time></trkpt><trkpt lat="45.792592" lon="8.8896801"><ele>360.3333333333333</ele><time>2026-03-28T13:09:15.459Z</time></trkpt><trkpt lat="45.7925163" lon="8.8897235"><ele>360.0</ele><time>2026-03-28T13:09:16.46Z</time></trkpt><trkpt lat="45.7924433" lon="8.8897624"><ele>359.6666666666667</ele><time>2026-03-28T13:09:17.459Z</time></trkpt><trkpt lat="45.7923767" lon="8.889808"><ele>359.33333333333337</ele><time>2026-03-28T13:09:18.46Z</time></trkpt><trkpt lat="45.7923111" lon="8.8898452"><ele>359.0</ele><time>2026-03-28T13:09:19.459Z</time></trkpt><trkpt lat="45.7922431" lon="8.8898956"><ele>359.0</ele><time>2026-03-28T13:09:20.46Z</time></trkpt><trkpt lat="45.7921808" lon="8.8899523"><ele>359.0</ele><time>2026-03-28T13:09:21.459Z</time></trkpt><trkpt lat="45.7921202" lon="8.8900141"><ele>359.0</ele><time>2026-03-28T13:09:22.459Z</time></trkpt><trkpt lat="45.79207" lon="8.8900799"><ele>359.0</ele><time>2026-03-28T13:09:23.46Z</time></trkpt><trkpt lat="45.7920251" lon="8.8901435"><ele>359.0</ele><time>2026-03-28T13:09:24.459Z</time></trkpt><trkpt lat="45.7919583" lon="8.8902543"><ele>359.0</ele><time>2026-03-28T13:09:26.459Z</time></trkpt><trkpt lat="45.7919115" lon="8.8903173"><ele>359.0</ele><time>2026-03-28T13:09:28.459Z</time></trkpt><trkpt lat="45.7918549" lon="8.8903635"><ele>358.83333333333337</ele><time>2026-03-28T13:09:32.46Z</time></trkpt><trkpt lat="45.7917746" lon="8.8903644"><ele>358.6666666666667</ele><time>2026-03-28T13:09:36.459Z</time></trkpt><trkpt lat="45.791757" lon="8.8902353"><ele>358.5</ele><time>2026-03-28T13:09:38.46Z</time></trkpt><trkpt lat="45.7917722" lon="8.8900595"><ele>358.3333333333333</ele><time>2026-03-28T13:09:40.46Z</time></trkpt><trkpt lat="45.7917727" lon="8.8899632"><ele>358.16666666666663</ele><time>2026-03-28T13:09:41.46Z</time></trkpt><trkpt lat="45.7917632" lon="8.8898681"><ele>358.0</ele><time>2026-03-28T13:09:42.459Z</time></trkpt><trkpt lat="45.7917517" lon="8.8897295"><ele>358.0</ele><time>2026-03-28T13:09:44.459Z</time></trkpt><trkpt lat="45.7917409" lon="8.8895983"><ele>358.0</ele><time>2026-03-28T13:09:46.46Z</time></trkpt><trkpt lat="45.7917316" lon="8.8894951"><ele>358.0</ele><time>2026-03-28T13:09:49.46Z</time></trkpt><trkpt lat="45.7917126" lon="8.8893971"><ele>358.0</ele><time>2026-03-28T13:09:53.46Z</time></trkpt><trkpt lat="45.7916897" lon="8.8892977"><ele>358.0</ele><time>2026-03-28T13:09:56.46Z</time></trkpt><trkpt lat="45.7916996" lon="8.8891672"><ele>358.0</ele><time>2026-03-28T13:09:58.46Z</time></trkpt><trkpt lat="45.7916944" lon="8.8890123"><ele>358.0</ele><time>2026-03-28T13:10:00.459Z</time></trkpt><trkpt lat="45.7916223" lon="8.8889543"><ele>358.0</ele><time>2026-03-28T13:10:02.46Z</time></trkpt><trkpt lat="45.7915504" lon="8.8890547"><ele>358.0</ele><time>2026-03-28T13:10:04.459Z</time></trkpt><trkpt lat="45.7915191" lon="8.8891467"><ele>358.0</ele><time>2026-03-28T13:10:05.459Z</time></trkpt><trkpt lat="45.7914702" lon="8.8892363"><ele>358.0</ele><time>2026-03-28T13:10:06.459Z</time></trkpt><trkpt lat="45.7914066" lon="8.8893213"><ele>358.0</ele><time>2026-03-28T13:10:07.46Z</time></trkpt><trkpt lat="45.791347" lon="8.8894036"><ele>358.0</ele><time>2026-03-28T13:10:08.46Z</time></trkpt><trkpt lat="45.791284" lon="8.88948"><ele>358.0</ele><time>2026-03-28T13:10:09.459Z</time></trkpt><trkpt lat="45.7912203" lon="8.8895585"><ele>358.0</ele><time>2026-03-28T13:10:10.459Z</time></trkpt><trkpt lat="45.7911541" lon="8.889636"><ele>358.0</ele><time>2026-03-28T13:10:11.46Z</time></trkpt><trkpt lat="45.7910905" lon="8.8897098"><ele>358.0</ele><time>2026-03-28T13:10:12.459Z</time></trkpt><trkpt lat="45.7910279" lon="8.8897856"><ele>358.0</ele><time>2026-03-28T13:10:13.46Z</time></trkpt><trkpt lat="45.7909614" lon="8.8898612"><ele>357.8333333333333</ele><time>2026-03-28T13:10:14.46Z</time></trkpt><trkpt lat="45.7908964" lon="8.8899366"><ele>357.66666666666663</ele><time>2026-03-28T13:10:15.459Z</time></trkpt><trkpt lat="45.7908288" lon="8.8900139"><ele>357.5</ele><time>2026-03-28T13:10:16.459Z</time></trkpt><trkpt lat="45.7907588" lon="8.8900836"><ele>357.3333333333333</ele><time>2026-03-28T13:10:17.46Z</time></trkpt><trkpt lat="45.7906872" lon="8.8901515"><ele>357.1666666666667</ele><time>2026-03-28T13:10:18.459Z</time></trkpt><trkpt lat="45.7906125" lon="8.8902218"><ele>357.0</ele><time>2026-03-28T13:10:19.459Z</time></trkpt><trkpt lat="45.7905381" lon="8.8902925"><ele>356.8333333333333</ele><time>2026-03-28T13:10:20.46Z</time></trkpt><trkpt lat="45.790467" lon="8.8903625"><ele>356.6666666666667</ele><time>2026-03-28T13:10:21.46Z</time></trkpt><trkpt lat="45.790409" lon="8.8904236"><ele>356.5</ele><time>2026-03-28T13:10:22.458Z</time></trkpt><trkpt lat="45.7903542" lon="8.8904768"><ele>356.33333333333337</ele><time>2026-03-28T13:10:23.459Z</time></trkpt><trkpt lat="45.7902515" lon="8.890565"><ele>356.1666666666667</ele><time>2026-03-28T13:10:25.46Z</time></trkpt><trkpt lat="45.7901613" lon="8.8905809"><ele>356.0</ele><time>2026-03-28T13:10:27.46Z</time></trkpt><trkpt lat="45.7900926" lon="8.8905733"><ele>356.0</ele><time>2026-03-28T13:10:28.459Z</time></trkpt><trkpt lat="45.7900199" lon="8.8905464"><ele>356.0</ele><time>2026-03-28T13:10:29.46Z</time></trkpt><trkpt lat="45.7899441" lon="8.8904879"><ele>356.0</ele><time>2026-03-28T13:10:30.459Z</time></trkpt><trkpt lat="45.7898733" lon="8.8904071"><ele>356.0</ele><time>2026-03-28T13:10:31.459Z</time></trkpt><trkpt lat="45.7898067" lon="8.8902992"><ele>356.0</ele><time>2026-03-28T13:10:32.46Z</time></trkpt><trkpt lat="45.7897438" lon="8.8901782"><ele>355.8</ele><time>2026-03-28T13:10:33.459Z</time></trkpt><trkpt lat="45.7896876" lon="8.8900547"><ele>355.6</ele><time>2026-03-28T13:10:34.459Z</time></trkpt><trkpt lat="45.7896247" lon="8.8899184"><ele>355.4</ele><time>2026-03-28T13:10:35.46Z</time></trkpt><trkpt lat="45.7895727" lon="8.8897774"><ele>355.2</ele><time>2026-03-28T13:10:36.46Z</time></trkpt><trkpt lat="45.7895172" lon="8.8896317"><ele>355.0</ele><time>2026-03-28T13:10:37.459Z</time></trkpt><trkpt lat="45.7894645" lon="8.8894794"><ele>355.0</ele><time>2026-03-28T13:10:38.46Z</time></trkpt><trkpt lat="45.7894134" lon="8.8893234"><ele>355.0</ele><time>2026-03-28T13:10:39.459Z</time></trkpt><trkpt lat="45.7893604" lon="8.8891663"><ele>355.0</ele><time>2026-03-28T13:10:40.46Z</time></trkpt><trkpt lat="45.789309" lon="8.8890116"><ele>355.0</ele><time>2026-03-28T13:10:41.458Z</time></trkpt><trkpt lat="45.7892582" lon="8.8888519"><ele>354.75</ele><time>2026-03-28T13:10:42.46Z</time></trkpt><trkpt lat="45.7892017" lon="8.8886841"><ele>354.5</ele><time>2026-03-28T13:10:43.46Z</time></trkpt><trkpt lat="45.7891469" lon="8.888509"><ele>354.25</ele><time>2026-03-28T13:10:44.46Z</time></trkpt><trkpt lat="45.7890935" lon="8.8883278"><ele>354.0</ele><time>2026-03-28T13:10:45.46Z</time></trkpt><trkpt lat="45.7890405" lon="8.8881442"><ele>354.0</ele><time>2026-03-28T13:10:46.46Z</time></trkpt><trkpt lat="45.7889858" lon="8.8879548"><ele>354.0</ele><time>2026-03-28T13:10:47.459Z</time></trkpt><trkpt lat="45.7889378" lon="8.8877635"><ele>354.0</ele><time>2026-03-28T13:10:48.46Z</time></trkpt><trkpt lat="45.7888827" lon="8.8875692"><ele>354.0</ele><time>2026-03-28T13:10:49.459Z</time></trkpt><trkpt lat="45.7888292" lon="8.887367"><ele>354.0</ele><time>2026-03-28T13:10:50.46Z</time></trkpt><trkpt lat="45.7887763" lon="8.8871692"><ele>354.0</ele><time>2026-03-28T13:10:51.459Z</time></trkpt><trkpt lat="45.7887292" lon="8.8869746"><ele>354.0</ele><time>2026-03-28T13:10:52.459Z</time></trkpt><trkpt lat="45.7886844" lon="8.8867957"><ele>354.0</ele><time>2026-03-28T13:10:53.459Z</time></trkpt><trkpt lat="45.7886397" lon="8.8866315"><ele>354.0</ele><time>2026-03-28T13:10:54.46Z</time></trkpt><trkpt lat="45.788603" lon="8.8864637"><ele>354.0</ele><time>2026-03-28T13:10:55.46Z</time></trkpt><trkpt lat="45.7885702" lon="8.8863088"><ele>354.0</ele><time>2026-03-28T13:10:56.46Z</time></trkpt><trkpt lat="45.7885356" lon="8.8861585"><ele>354.0</ele><time>2026-03-28T13:10:57.46Z</time></trkpt><trkpt lat="45.7884978" lon="8.886008"><ele>354.0</ele><time>2026-03-28T13:10:58.459Z</time></trkpt><trkpt lat="45.7884579" lon="8.8858549"><ele>354.0</ele><time>2026-03-28T13:10:59.459Z</time></trkpt><trkpt lat="45.7884201" lon="8.8856975"><ele>354.0</ele><time>2026-03-28T13:11:00.459Z</time></trkpt><trkpt lat="45.7883883" lon="8.8855465"><ele>354.0</ele><time>2026-03-28T13:11:01.459Z</time></trkpt><trkpt lat="45.7883576" lon="8.885401"><ele>354.0</ele><time>2026-03-28T13:11:02.459Z</time></trkpt><trkpt lat="45.788326" lon="8.8852641"><ele>354.0</ele><time>2026-03-28T13:11:03.46Z</time></trkpt><trkpt lat="45.788297" lon="8.8851354"><ele>354.0</ele><time>2026-03-28T13:11:04.459Z</time></trkpt><trkpt lat="45.7882729" lon="8.8850286"><ele>354.0</ele><time>2026-03-28T13:11:05.46Z</time></trkpt><trkpt lat="45.7882527" lon="8.8849389"><ele>354.0</ele><time>2026-03-28T13:11:06.459Z</time></trkpt><trkpt lat="45.7882228" lon="8.8848012"><ele>354.0</ele><time>2026-03-28T13:11:08.459Z</time></trkpt><trkpt lat="45.7882081" lon="8.8846742"><ele>354.0</ele><time>2026-03-28T13:11:10.46Z</time></trkpt><trkpt lat="45.7882144" lon="8.8844875"><ele>354.0</ele><time>2026-03-28T13:11:12.46Z</time></trkpt><trkpt lat="45.7882157" lon="8.8843825"><ele>354.0</ele><time>2026-03-28T13:11:13.459Z</time></trkpt><trkpt lat="45.7881954" lon="8.8842817"><ele>354.0</ele><time>2026-03-28T13:11:14.459Z</time></trkpt><trkpt lat="45.7881581" lon="8.8841894"><ele>354.0</ele><time>2026-03-28T13:11:15.46Z</time></trkpt><trkpt lat="45.7880956" lon="8.8840873"><ele>354.0</ele><time>2026-03-28T13:11:16.46Z</time></trkpt><trkpt lat="45.7880329" lon="8.8839544"><ele>354.0</ele><time>2026-03-28T13:11:17.46Z</time></trkpt><trkpt lat="45.7879821" lon="8.8837915"><ele>354.0</ele><time>2026-03-28T13:11:18.46Z</time></trkpt><trkpt lat="45.7879343" lon="8.8836125"><ele>354.0</ele><time>2026-03-28T13:11:19.46Z</time></trkpt><trkpt lat="45.7878864" lon="8.8834248"><ele>354.0</ele><time>2026-03-28T13:11:20.46Z</time></trkpt><trkpt lat="45.787837" lon="8.8832343"><ele>354.0</ele><time>2026-03-28T13:11:21.459Z</time></trkpt><trkpt lat="45.7877899" lon="8.8830381"><ele>354.0</ele><time>2026-03-28T13:11:22.459Z</time></trkpt><trkpt lat="45.7877376" lon="8.8828389"><ele>354.0</ele><time>2026-03-28T13:11:23.459Z</time></trkpt><trkpt lat="45.7876901" lon="8.8826478"><ele>354.0</ele><time>2026-03-28T13:11:24.459Z</time></trkpt><trkpt lat="45.787647" lon="8.8824828"><ele>354.0</ele><time>2026-03-28T13:11:25.46Z</time></trkpt><trkpt lat="45.7876111" lon="8.8823286"><ele>354.0</ele><time>2026-03-28T13:11:26.459Z</time></trkpt><trkpt lat="45.7875783" lon="8.8821639"><ele>354.0</ele><time>2026-03-28T13:11:27.46Z</time></trkpt><trkpt lat="45.7875414" lon="8.8819854"><ele>354.0</ele><time>2026-03-28T13:11:28.46Z</time></trkpt><trkpt lat="45.7874906" lon="8.8817924"><ele>354.0</ele><time>2026-03-28T13:11:29.46Z</time></trkpt><trkpt lat="45.7874308" lon="8.8815954"><ele>354.3333333333333</ele><time>2026-03-28T13:11:30.459Z</time></trkpt><trkpt lat="45.7873673" lon="8.8813926"><ele>354.66666666666663</ele><time>2026-03-28T13:11:31.46Z</time></trkpt><trkpt lat="45.787307" lon="8.8811833"><ele>355.0</ele><time>2026-03-28T13:11:32.46Z</time></trkpt><trkpt lat="45.787247" lon="8.8809627"><ele>354.66666666666663</ele><time>2026-03-28T13:11:33.459Z</time></trkpt><trkpt lat="45.7871954" lon="8.8807433"><ele>354.3333333333333</ele><time>2026-03-28T13:11:34.459Z</time></trkpt><trkpt lat="45.7871426" lon="8.8805191"><ele>354.0</ele><time>2026-03-28T13:11:35.459Z</time></trkpt><trkpt lat="45.7870917" lon="8.8802899"><ele>355.0</ele><time>2026-03-28T13:11:36.46Z</time></trkpt><trkpt lat="45.7870499" lon="8.8800677"><ele>356.0</ele><time>2026-03-28T13:11:37.459Z</time></trkpt><trkpt lat="45.787012" lon="8.8798516"><ele>357.0</ele><time>2026-03-28T13:11:38.46Z</time></trkpt><trkpt lat="45.7869783" lon="8.8796481"><ele>357.0</ele><time>2026-03-28T13:11:39.46Z</time></trkpt><trkpt lat="45.7869386" lon="8.8794479"><ele>357.0</ele><time>2026-03-28T13:11:40.459Z</time></trkpt><trkpt lat="45.7869109" lon="8.8792785"><ele>357.0</ele><time>2026-03-28T13:11:41.459Z</time></trkpt><trkpt lat="45.7868994" lon="8.8791413"><ele>357.0</ele><time>2026-03-28T13:11:42.459Z</time></trkpt><trkpt lat="45.7869149" lon="8.8790272"><ele>357.0</ele><time>2026-03-28T13:11:43.46Z</time></trkpt><trkpt lat="45.7869583" lon="8.8789266"><ele>357.0</ele><time>2026-03-28T13:11:44.459Z</time></trkpt><trkpt lat="45.7870191" lon="8.8788668"><ele>357.0</ele><time>2026-03-28T13:11:45.458Z</time></trkpt><trkpt lat="45.787085" lon="8.8788347"><ele>357.0</ele><time>2026-03-28T13:11:46.459Z</time></trkpt><trkpt lat="45.7871654" lon="8.8788375"><ele>357.0</ele><time>2026-03-28T13:11:47.46Z</time></trkpt><trkpt lat="45.7872571" lon="8.878802"><ele>357.0</ele><time>2026-03-28T13:11:49.459Z</time></trkpt><trkpt lat="45.787269" lon="8.8786554"><ele>357.0</ele><time>2026-03-28T13:11:51.46Z</time></trkpt><trkpt lat="45.7872594" lon="8.8785221"><ele>356.25</ele><time>2026-03-28T13:11:52.46Z</time></trkpt><trkpt lat="45.7872473" lon="8.8783663"><ele>355.5</ele><time>2026-03-28T13:11:53.459Z</time></trkpt><trkpt lat="45.7872402" lon="8.8781928"><ele>354.75</ele><time>2026-03-28T13:11:54.46Z</time></trkpt><trkpt lat="45.7872248" lon="8.8779989"><ele>354.0</ele><time>2026-03-28T13:11:55.46Z</time></trkpt><trkpt lat="45.7872116" lon="8.8778005"><ele>354.0</ele><time>2026-03-28T13:11:56.46Z</time></trkpt><trkpt lat="45.7871975" lon="8.8775947"><ele>354.0</ele><time>2026-03-28T13:11:57.46Z</time></trkpt><trkpt lat="45.7871877" lon="8.8774044"><ele>354.0</ele><time>2026-03-28T13:11:58.459Z</time></trkpt><trkpt lat="45.7871584" lon="8.8771867"><ele>354.0</ele><time>2026-03-28T13:11:59.46Z</time></trkpt><trkpt lat="45.7871463" lon="8.8769369"><ele>354.0</ele><time>2026-03-28T13:12:00.46Z</time></trkpt><trkpt lat="45.7871288" lon="8.8767178"><ele>354.0</ele><time>2026-03-28T13:12:01.46Z</time></trkpt><trkpt lat="45.7871061" lon="8.8764925"><ele>354.0</ele><time>2026-03-28T13:12:02.46Z</time></trkpt><trkpt lat="45.7870836" lon="8.8762683"><ele>354.0</ele><time>2026-03-28T13:12:03.46Z</time></trkpt><trkpt lat="45.7870652" lon="8.8760601"><ele>354.0</ele><time>2026-03-28T13:12:04.459Z</time></trkpt><trkpt lat="45.7870483" lon="8.8758511"><ele>354.0</ele><time>2026-03-28T13:12:05.46Z</time></trkpt><trkpt lat="45.7870286" lon="8.8756559"><ele>354.0</ele><time>2026-03-28T13:12:06.46Z</time></trkpt><trkpt lat="45.7870009" lon="8.8754838"><ele>353.79999999999995</ele><time>2026-03-28T13:12:07.459Z</time></trkpt><trkpt lat="45.7869788" lon="8.8753245"><ele>353.59999999999997</ele><time>2026-03-28T13:12:08.459Z</time></trkpt><trkpt lat="45.7869635" lon="8.875207"><ele>353.4</ele><time>2026-03-28T13:12:09.46Z</time></trkpt><trkpt lat="45.7869761" lon="8.8751175"><ele>353.2</ele><time>2026-03-28T13:12:10.46Z</time></trkpt><trkpt lat="45.7870669" lon="8.8750156"><ele>353.0</ele><time>2026-03-28T13:12:12.458Z</time></trkpt><trkpt lat="45.7871429" lon="8.8749999"><ele>352.79999999999995</ele><time>2026-03-28T13:12:13.459Z</time></trkpt><trkpt lat="45.787236" lon="8.8749759"><ele>352.6</ele><time>2026-03-28T13:12:14.46Z</time></trkpt><trkpt lat="45.7873375" lon="8.8749435"><ele>352.4</ele><time>2026-03-28T13:12:15.46Z</time></trkpt><trkpt lat="45.787449" lon="8.8748956"><ele>352.20000000000005</ele><time>2026-03-28T13:12:16.459Z</time></trkpt><trkpt lat="45.7875646" lon="8.874855"><ele>352.0</ele><time>2026-03-28T13:12:17.459Z</time></trkpt><trkpt lat="45.7876876" lon="8.8748142"><ele>352.0</ele><time>2026-03-28T13:12:18.459Z</time></trkpt><trkpt lat="45.7878094" lon="8.8747851"><ele>352.0</ele><time>2026-03-28T13:12:19.459Z</time></trkpt><trkpt lat="45.7879172" lon="8.8747559"><ele>352.0</ele><time>2026-03-28T13:12:20.459Z</time></trkpt><trkpt lat="45.7880127" lon="8.8747299"><ele>352.0</ele><time>2026-03-28T13:12:21.46Z</time></trkpt><trkpt lat="45.7880846" lon="8.8747138"><ele>352.0</ele><time>2026-03-28T13:12:22.46Z</time></trkpt><trkpt lat="45.7881763" lon="8.8747156"><ele>352.0</ele><time>2026-03-28T13:12:24.46Z</time></trkpt><trkpt lat="45.7882023" lon="8.8748247"><ele>352.0</ele><time>2026-03-28T13:12:26.459Z</time></trkpt><trkpt lat="45.7882078" lon="8.8750033"><ele>352.0</ele><time>2026-03-28T13:12:28.46Z</time></trkpt><trkpt lat="45.7882233" lon="8.8751088"><ele>352.0</ele><time>2026-03-28T13:12:29.459Z</time></trkpt><trkpt lat="45.7882314" lon="8.8752063"><ele>352.0</ele><time>2026-03-28T13:12:30.459Z</time></trkpt><trkpt lat="45.7881602" lon="8.8753379"><ele>352.16666666666663</ele><time>2026-03-28T13:12:32.459Z</time></trkpt><trkpt lat="45.7880995" lon="8.8753647"><ele>352.3333333333333</ele><time>2026-03-28T13:12:33.46Z</time></trkpt><trkpt lat="45.7880257" lon="8.8753897"><ele>352.5</ele><time>2026-03-28T13:12:34.46Z</time></trkpt><trkpt lat="45.7879437" lon="8.8754083"><ele>352.6666666666667</ele><time>2026-03-28T13:12:35.46Z</time></trkpt><trkpt lat="45.7878684" lon="8.8754176"><ele>352.83333333333337</ele><time>2026-03-28T13:12:36.46Z</time></trkpt><trkpt lat="45.7877597" lon="8.8754412"><ele>353.0</ele><time>2026-03-28T13:12:38.459Z</time></trkpt><trkpt lat="45.7876035" lon="8.875505"><ele>353.0</ele><time>2026-03-28T13:19:50.457Z</time></trkpt><trkpt lat="45.7874925" lon="8.8755362"><ele>353.0</ele><time>2026-03-28T13:19:52.457Z</time></trkpt><trkpt lat="45.7874289" lon="8.8755528"><ele>353.0</ele><time>2026-03-28T13:19:53.457Z</time></trkpt><trkpt lat="45.7873656" lon="8.8755762"><ele>353.0</ele><time>2026-03-28T13:19:54.457Z</time></trkpt><trkpt lat="45.7872964" lon="8.8755999"><ele>353.0</ele><time>2026-03-28T13:19:55.458Z</time></trkpt><trkpt lat="45.7871773" lon="8.8756294"><ele>353.0</ele><time>2026-03-28T13:19:57.457Z</time></trkpt><trkpt lat="45.7870991" lon="8.8756359"><ele>353.0</ele><time>2026-03-28T13:19:59.457Z</time></trkpt><trkpt lat="45.7870239" lon="8.8755862"><ele>353.0</ele><time>2026-03-28T13:20:05.458Z</time></trkpt><trkpt lat="45.7869967" lon="8.8754322"><ele>353.0</ele><time>2026-03-28T13:20:07.457Z</time></trkpt><trkpt lat="45.7869821" lon="8.8753291"><ele>353.0</ele><time>2026-03-28T13:20:08.458Z</time></trkpt><trkpt lat="45.7869608" lon="8.8752215"><ele>353.0</ele><time>2026-03-28T13:20:09.457Z</time></trkpt><trkpt lat="45.7869423" lon="8.8751017"><ele>353.0</ele><time>2026-03-28T13:20:10.457Z</time></trkpt><trkpt lat="45.7869227" lon="8.8749723"><ele>352.4</ele><time>2026-03-28T13:20:11.458Z</time></trkpt><trkpt lat="45.7869017" lon="8.8748375"><ele>351.79999999999995</ele><time>2026-03-28T13:20:12.457Z</time></trkpt><trkpt lat="45.7868756" lon="8.8746996"><ele>351.2</ele><time>2026-03-28T13:20:13.457Z</time></trkpt><trkpt lat="45.7868496" lon="8.8745679"><ele>350.6</ele><time>2026-03-28T13:20:14.458Z</time></trkpt><trkpt lat="45.7868294" lon="8.8744288"><ele>350.0</ele><time>2026-03-28T13:20:15.458Z</time></trkpt><trkpt lat="45.786813" lon="8.8743066"><ele>349.33333333333337</ele><time>2026-03-28T13:20:16.457Z</time></trkpt><trkpt lat="45.7867972" lon="8.8742006"><ele>348.6666666666667</ele><time>2026-03-28T13:20:17.458Z</time></trkpt><trkpt lat="45.7867794" lon="8.8741113"><ele>348.0</ele><time>2026-03-28T13:20:18.457Z</time></trkpt><trkpt lat="45.7867639" lon="8.8740164"><ele>347.3333333333333</ele><time>2026-03-28T13:20:20.457Z</time></trkpt><trkpt lat="45.7867679" lon="8.8738734"><ele>346.66666666666663</ele><time>2026-03-28T13:20:23.457Z</time></trkpt><trkpt lat="45.7867729" lon="8.873701"><ele>346.0</ele><time>2026-03-28T13:20:25.457Z</time></trkpt><trkpt lat="45.7867698" lon="8.8735948"><ele>346.0</ele><time>2026-03-28T13:20:26.458Z</time></trkpt><trkpt lat="45.7867636" lon="8.8734788"><ele>346.0</ele><time>2026-03-28T13:20:27.458Z</time></trkpt><trkpt lat="45.7867518" lon="8.8733562"><ele>346.0</ele><time>2026-03-28T13:20:28.457Z</time></trkpt><trkpt lat="45.78674" lon="8.8732158"><ele>346.0</ele><time>2026-03-28T13:20:29.458Z</time></trkpt><trkpt lat="45.7867287" lon="8.8730776"><ele>346.0</ele><time>2026-03-28T13:20:30.457Z</time></trkpt><trkpt lat="45.786728" lon="8.8729489"><ele>345.66666666666663</ele><time>2026-03-28T13:20:31.457Z</time></trkpt><trkpt lat="45.7867403" lon="8.8728195"><ele>345.3333333333333</ele><time>2026-03-28T13:20:32.457Z</time></trkpt><trkpt lat="45.7867538" lon="8.8726917"><ele>345.0</ele><time>2026-03-28T13:20:33.458Z</time></trkpt><trkpt lat="45.7867742" lon="8.8725598"><ele>344.6666666666667</ele><time>2026-03-28T13:20:34.458Z</time></trkpt><trkpt lat="45.7867907" lon="8.8724348"><ele>344.33333333333337</ele><time>2026-03-28T13:20:35.457Z</time></trkpt><trkpt lat="45.7868" lon="8.8723206"><ele>344.0</ele><time>2026-03-28T13:20:36.457Z</time></trkpt><trkpt lat="45.786805" lon="8.8722155"><ele>343.5</ele><time>2026-03-28T13:20:37.458Z</time></trkpt><trkpt lat="45.7868164" lon="8.8721226"><ele>343.0</ele><time>2026-03-28T13:20:38.457Z</time></trkpt><trkpt lat="45.7868174" lon="8.8719639"><ele>342.5</ele><time>2026-03-28T13:20:40.457Z</time></trkpt><trkpt lat="45.7867936" lon="8.8718746"><ele>342.0</ele><time>2026-03-28T13:20:41.458Z</time></trkpt><trkpt lat="45.7867597" lon="8.8717826"><ele>341.5</ele><time>2026-03-28T13:20:42.457Z</time></trkpt><trkpt lat="45.7867301" lon="8.8717"><ele>341.0</ele><time>2026-03-28T13:20:43.458Z</time></trkpt><trkpt lat="45.7866871" lon="8.8715413"><ele>340.8</ele><time>2026-03-28T13:20:45.458Z</time></trkpt><trkpt lat="45.786693" lon="8.8713867"><ele>340.6</ele><time>2026-03-28T13:20:47.457Z</time></trkpt><trkpt lat="45.7867715" lon="8.8712546"><ele>340.4</ele><time>2026-03-28T13:20:49.458Z</time></trkpt><trkpt lat="45.7868316" lon="8.8711909"><ele>340.2</ele><time>2026-03-28T13:20:50.457Z</time></trkpt><trkpt lat="45.7868945" lon="8.8711337"><ele>340.0</ele><time>2026-03-28T13:20:51.458Z</time></trkpt><trkpt lat="45.786969" lon="8.8710755"><ele>340.0</ele><time>2026-03-28T13:20:52.457Z</time></trkpt><trkpt lat="45.7870468" lon="8.8710259"><ele>340.0</ele><time>2026-03-28T13:20:53.458Z</time></trkpt><trkpt lat="45.7871319" lon="8.8709756"><ele>340.0</ele><time>2026-03-28T13:20:54.457Z</time></trkpt><trkpt lat="45.7872211" lon="8.8709272"><ele>340.0</ele><time>2026-03-28T13:20:55.458Z</time></trkpt><trkpt lat="45.7873078" lon="8.8708782"><ele>340.0</ele><time>2026-03-28T13:20:56.457Z</time></trkpt><trkpt lat="45.7873901" lon="8.8708315"><ele>340.0</ele><time>2026-03-28T13:20:57.458Z</time></trkpt><trkpt lat="45.7874723" lon="8.8707848"><ele>340.0</ele><time>2026-03-28T13:20:58.457Z</time></trkpt><trkpt lat="45.7875488" lon="8.870736"><ele>340.0</ele><time>2026-03-28T13:20:59.458Z</time></trkpt><trkpt lat="45.7876269" lon="8.8706911"><ele>340.0</ele><time>2026-03-28T13:21:00.457Z</time></trkpt><trkpt lat="45.7877012" lon="8.8706348"><ele>340.0</ele><time>2026-03-28T13:21:01.458Z</time></trkpt><trkpt lat="45.787775" lon="8.8705602"><ele>340.0</ele><time>2026-03-28T13:21:02.457Z</time></trkpt><trkpt lat="45.7878411" lon="8.8704803"><ele>340.0</ele><time>2026-03-28T13:21:03.458Z</time></trkpt><trkpt lat="45.7879007" lon="8.8704033"><ele>340.0</ele><time>2026-03-28T13:21:04.457Z</time></trkpt><trkpt lat="45.7879543" lon="8.8703285"><ele>340.0</ele><time>2026-03-28T13:21:05.458Z</time></trkpt><trkpt lat="45.7880073" lon="8.8702596"><ele>340.0</ele><time>2026-03-28T13:21:06.457Z</time></trkpt><trkpt lat="45.7880542" lon="8.8701983"><ele>340.0</ele><time>2026-03-28T13:21:07.458Z</time></trkpt><trkpt lat="45.7881115" lon="8.8700571"><ele>340.0</ele><time>2026-03-28T13:21:09.458Z</time></trkpt><trkpt lat="45.7881212" lon="8.869956"><ele>339.8571428571429</ele><time>2026-03-28T13:21:10.457Z</time></trkpt><trkpt lat="45.7881092" lon="8.8698531"><ele>339.71428571428567</ele><time>2026-03-28T13:21:11.458Z</time></trkpt><trkpt lat="45.788092" lon="8.8697413"><ele>339.57142857142856</ele><time>2026-03-28T13:21:12.458Z</time></trkpt><trkpt lat="45.7880785" lon="8.8696332"><ele>339.42857142857144</ele><time>2026-03-28T13:21:13.458Z</time></trkpt><trkpt lat="45.788065" lon="8.8695328"><ele>339.28571428571433</ele><time>2026-03-28T13:21:14.457Z</time></trkpt><trkpt lat="45.7880563" lon="8.8694322"><ele>339.1428571428571</ele><time>2026-03-28T13:21:15.458Z</time></trkpt><trkpt lat="45.7880485" lon="8.8693336"><ele>339.0</ele><time>2026-03-28T13:21:16.457Z</time></trkpt><trkpt lat="45.7880414" lon="8.8691474"><ele>338.85714285714283</ele><time>2026-03-28T13:21:18.457Z</time></trkpt><trkpt lat="45.7880399" lon="8.8690446"><ele>338.7142857142857</ele><time>2026-03-28T13:21:19.458Z</time></trkpt><trkpt lat="45.7880325" lon="8.8689469"><ele>338.57142857142856</ele><time>2026-03-28T13:21:20.457Z</time></trkpt><trkpt lat="45.7880235" lon="8.8688465"><ele>338.42857142857144</ele><time>2026-03-28T13:21:21.457Z</time></trkpt><trkpt lat="45.7880144" lon="8.8687407"><ele>338.2857142857143</ele><time>2026-03-28T13:21:22.457Z</time></trkpt><trkpt lat="45.7880027" lon="8.868634"><ele>338.14285714285717</ele><time>2026-03-28T13:21:23.458Z</time></trkpt><trkpt lat="45.7879948" lon="8.8685211"><ele>338.0</ele><time>2026-03-28T13:21:24.457Z</time></trkpt><trkpt lat="45.7879817" lon="8.8684229"><ele>337.7142857142857</ele><time>2026-03-28T13:21:25.458Z</time></trkpt><trkpt lat="45.78797" lon="8.8683253"><ele>337.42857142857144</ele><time>2026-03-28T13:21:26.457Z</time></trkpt><trkpt lat="45.7879557" lon="8.8682363"><ele>337.1428571428571</ele><time>2026-03-28T13:21:27.458Z</time></trkpt><trkpt lat="45.7879389" lon="8.868149"><ele>336.8571428571429</ele><time>2026-03-28T13:21:28.457Z</time></trkpt><trkpt lat="45.7879212" lon="8.868058"><ele>336.57142857142856</ele><time>2026-03-28T13:21:29.458Z</time></trkpt><trkpt lat="45.787902" lon="8.8679599"><ele>336.2857142857143</ele><time>2026-03-28T13:21:30.457Z</time></trkpt><trkpt lat="45.7878838" lon="8.8678636"><ele>336.0</ele><time>2026-03-28T13:21:31.458Z</time></trkpt><trkpt lat="45.7878524" lon="8.8677002"><ele>336.1666666666667</ele><time>2026-03-28T13:21:33.457Z</time></trkpt><trkpt lat="45.7878309" lon="8.8675518"><ele>336.3333333333333</ele><time>2026-03-28T13:21:35.457Z</time></trkpt><trkpt lat="45.7877723" lon="8.867463"><ele>336.5</ele><time>2026-03-28T13:21:37.457Z</time></trkpt><trkpt lat="45.7876685" lon="8.8674763"><ele>336.66666666666663</ele><time>2026-03-28T13:21:39.457Z</time></trkpt><trkpt lat="45.7876039" lon="8.8674993"><ele>336.8333333333333</ele><time>2026-03-28T13:21:40.457Z</time></trkpt><trkpt lat="45.7875398" lon="8.8675199"><ele>337.0</ele><time>2026-03-28T13:21:41.458Z</time></trkpt><trkpt lat="45.7874655" lon="8.8675458"><ele>337.0</ele><time>2026-03-28T13:21:42.458Z</time></trkpt><trkpt lat="45.7873909" lon="8.8675735"><ele>337.0</ele><time>2026-03-28T13:21:43.457Z</time></trkpt><trkpt lat="45.7873162" lon="8.8675981"><ele>337.0</ele><time>2026-03-28T13:21:44.458Z</time></trkpt><trkpt lat="45.7872383" lon="8.8676183"><ele>337.0</ele><time>2026-03-28T13:21:45.457Z</time></trkpt><trkpt lat="45.787151" lon="8.8676462"><ele>337.0</ele><time>2026-03-28T13:21:46.457Z</time></trkpt><trkpt lat="45.7870632" lon="8.8676896"><ele>337.0</ele><time>2026-03-28T13:21:47.457Z</time></trkpt><trkpt lat="45.7869747" lon="8.8677121"><ele>336.8333333333333</ele><time>2026-03-28T13:21:48.457Z</time></trkpt><trkpt lat="45.7868876" lon="8.8677477"><ele>336.66666666666663</ele><time>2026-03-28T13:21:49.458Z</time></trkpt><trkpt lat="45.7868031" lon="8.867769"><ele>336.5</ele><time>2026-03-28T13:21:50.457Z</time></trkpt><trkpt lat="45.7867267" lon="8.8677641"><ele>336.3333333333333</ele><time>2026-03-28T13:21:51.457Z</time></trkpt><trkpt lat="45.786659" lon="8.8677413"><ele>336.1666666666667</ele><time>2026-03-28T13:21:52.457Z</time></trkpt><trkpt lat="45.7865879" lon="8.8676993"><ele>336.0</ele><time>2026-03-28T13:21:53.458Z</time></trkpt><trkpt lat="45.7865212" lon="8.867646"><ele>335.1666666666667</ele><time>2026-03-28T13:21:54.457Z</time></trkpt><trkpt lat="45.7864569" lon="8.8675747"><ele>334.3333333333333</ele><time>2026-03-28T13:21:55.457Z</time></trkpt><trkpt lat="45.7864043" lon="8.8674711"><ele>333.5</ele><time>2026-03-28T13:21:56.457Z</time></trkpt><trkpt lat="45.7863768" lon="8.8673603"><ele>332.66666666666663</ele><time>2026-03-28T13:21:57.458Z</time></trkpt><trkpt lat="45.7863772" lon="8.8672376"><ele>331.8333333333333</ele><time>2026-03-28T13:21:58.457Z</time></trkpt><trkpt lat="45.7863835" lon="8.8671082"><ele>331.0</ele><time>2026-03-28T13:21:59.457Z</time></trkpt><trkpt lat="45.7863943" lon="8.8669802"><ele>331.0</ele><time>2026-03-28T13:22:00.457Z</time></trkpt><trkpt lat="45.7864014" lon="8.866836"><ele>331.0</ele><time>2026-03-28T13:22:01.458Z</time></trkpt><trkpt lat="45.7864174" lon="8.8666934"><ele>331.0</ele><time>2026-03-28T13:22:02.457Z</time></trkpt><trkpt lat="45.7864318" lon="8.8665426"><ele>331.0</ele><time>2026-03-28T13:22:03.457Z</time></trkpt><trkpt lat="45.7864525" lon="8.8663997"><ele>331.0</ele><time>2026-03-28T13:22:04.458Z</time></trkpt><trkpt lat="45.7864708" lon="8.8662776"><ele>330.14285714285717</ele><time>2026-03-28T13:22:05.458Z</time></trkpt><trkpt lat="45.7864743" lon="8.866167"><ele>329.2857142857143</ele><time>2026-03-28T13:22:06.458Z</time></trkpt><trkpt lat="45.7864552" lon="8.8660575"><ele>328.42857142857144</ele><time>2026-03-28T13:22:07.457Z</time></trkpt><trkpt lat="45.7864076" lon="8.8659745"><ele>327.57142857142856</ele><time>2026-03-28T13:22:08.457Z</time></trkpt><trkpt lat="45.7863463" lon="8.8659154"><ele>326.7142857142857</ele><time>2026-03-28T13:22:09.457Z</time></trkpt><trkpt lat="45.786284" lon="8.8658917"><ele>325.85714285714283</ele><time>2026-03-28T13:22:10.458Z</time></trkpt><trkpt lat="45.7862108" lon="8.8658936"><ele>325.0</ele><time>2026-03-28T13:22:11.458Z</time></trkpt><trkpt lat="45.7861431" lon="8.8659322"><ele>325.0</ele><time>2026-03-28T13:22:12.457Z</time></trkpt><trkpt lat="45.7860873" lon="8.8660049"><ele>325.0</ele><time>2026-03-28T13:22:13.458Z</time></trkpt><trkpt lat="45.7860487" lon="8.8660967"><ele>325.0</ele><time>2026-03-28T13:22:14.458Z</time></trkpt><trkpt lat="45.7860321" lon="8.8662106"><ele>325.0</ele><time>2026-03-28T13:22:15.457Z</time></trkpt><trkpt lat="45.7860247" lon="8.8663292"><ele>325.0</ele><time>2026-03-28T13:22:16.458Z</time></trkpt><trkpt lat="45.7860164" lon="8.8664554"><ele>325.0</ele><time>2026-03-28T13:22:17.457Z</time></trkpt><trkpt lat="45.7859945" lon="8.8665935"><ele>322.5</ele><time>2026-03-28T13:22:18.457Z</time></trkpt><trkpt lat="45.7859627" lon="8.8667338"><ele>320.0</ele><time>2026-03-28T13:22:19.458Z</time></trkpt><trkpt lat="45.7859129" lon="8.8668769"><ele>317.5</ele><time>2026-03-28T13:22:20.458Z</time></trkpt><trkpt lat="45.7858368" lon="8.8670242"><ele>315.0</ele><time>2026-03-28T13:22:21.457Z</time></trkpt><trkpt lat="45.7857541" lon="8.8671674"><ele>315.0</ele><time>2026-03-28T13:22:22.457Z</time></trkpt><trkpt lat="45.7856568" lon="8.8673146"><ele>315.0</ele><time>2026-03-28T13:22:23.458Z</time></trkpt><trkpt lat="45.7855624" lon="8.8674532"><ele>315.0</ele><time>2026-03-28T13:22:24.457Z</time></trkpt><trkpt lat="45.7854735" lon="8.8675892"><ele>315.0</ele><time>2026-03-28T13:22:25.457Z</time></trkpt><trkpt lat="45.785374" lon="8.8677192"><ele>313.25</ele><time>2026-03-28T13:22:26.458Z</time></trkpt><trkpt lat="45.7852778" lon="8.8678488"><ele>311.5</ele><time>2026-03-28T13:22:27.457Z</time></trkpt><trkpt lat="45.7851927" lon="8.8679933"><ele>309.75</ele><time>2026-03-28T13:22:28.458Z</time></trkpt><trkpt lat="45.7851026" lon="8.8681217"><ele>308.0</ele><time>2026-03-28T13:22:29.458Z</time></trkpt><trkpt lat="45.7850053" lon="8.8682276"><ele>308.0</ele><time>2026-03-28T13:22:30.457Z</time></trkpt><trkpt lat="45.7849038" lon="8.8683132"><ele>308.0</ele><time>2026-03-28T13:22:31.458Z</time></trkpt><trkpt lat="45.7847922" lon="8.8683883"><ele>308.0</ele><time>2026-03-28T13:22:32.457Z</time></trkpt><trkpt lat="45.7846719" lon="8.8684377"><ele>308.0</ele><time>2026-03-28T13:22:33.457Z</time></trkpt><trkpt lat="45.7845534" lon="8.8684726"><ele>306.0</ele><time>2026-03-28T13:22:34.458Z</time></trkpt><trkpt lat="45.7844279" lon="8.8685158"><ele>304.0</ele><time>2026-03-28T13:22:35.457Z</time></trkpt><trkpt lat="45.7842952" lon="8.8685593"><ele>302.0</ele><time>2026-03-28T13:22:36.457Z</time></trkpt><trkpt lat="45.7841583" lon="8.8686078"><ele>300.0</ele><time>2026-03-28T13:22:37.458Z</time></trkpt><trkpt lat="45.7840216" lon="8.86866"><ele>300.0</ele><time>2026-03-28T13:22:38.458Z</time></trkpt><trkpt lat="45.7838893" lon="8.8687201"><ele>300.0</ele><time>2026-03-28T13:22:39.457Z</time></trkpt><trkpt lat="45.7837486" lon="8.8687895"><ele>300.0</ele><time>2026-03-28T13:22:40.457Z</time></trkpt><trkpt lat="45.7836131" lon="8.8688875"><ele>300.0</ele><time>2026-03-28T13:22:41.457Z</time></trkpt><trkpt lat="45.7834897" lon="8.8689978"><ele>298.75</ele><time>2026-03-28T13:22:42.456Z</time></trkpt><trkpt lat="45.7833618" lon="8.8691132"><ele>297.5</ele><time>2026-03-28T13:22:43.457Z</time></trkpt><trkpt lat="45.7832422" lon="8.8692266"><ele>296.25</ele><time>2026-03-28T13:22:44.458Z</time></trkpt><trkpt lat="45.7831283" lon="8.8693372"><ele>295.0</ele><time>2026-03-28T13:22:45.457Z</time></trkpt><trkpt lat="45.783019" lon="8.8694412"><ele>295.0</ele><time>2026-03-28T13:22:46.457Z</time></trkpt><trkpt lat="45.7829152" lon="8.8695436"><ele>295.0</ele><time>2026-03-28T13:22:47.458Z</time></trkpt><trkpt lat="45.7828101" lon="8.8696433"><ele>295.0</ele><time>2026-03-28T13:22:48.458Z</time></trkpt><trkpt lat="45.7827044" lon="8.8697466"><ele>295.0</ele><time>2026-03-28T13:22:49.458Z</time></trkpt><trkpt lat="45.7826022" lon="8.8698419"><ele>294.25</ele><time>2026-03-28T13:22:50.458Z</time></trkpt><trkpt lat="45.7824965" lon="8.8699479"><ele>293.5</ele><time>2026-03-28T13:22:51.457Z</time></trkpt><trkpt lat="45.7823889" lon="8.8700498"><ele>292.75</ele><time>2026-03-28T13:22:52.457Z</time></trkpt><trkpt lat="45.7822811" lon="8.8701442"><ele>292.0</ele><time>2026-03-28T13:22:53.457Z</time></trkpt><trkpt lat="45.7821835" lon="8.8702357"><ele>292.0</ele><time>2026-03-28T13:22:54.457Z</time></trkpt><trkpt lat="45.7820901" lon="8.8703238"><ele>292.0</ele><time>2026-03-28T13:22:55.458Z</time></trkpt><trkpt lat="45.781991" lon="8.8704226"><ele>292.0</ele><time>2026-03-28T13:22:56.458Z</time></trkpt><trkpt lat="45.7818778" lon="8.8705475"><ele>292.0</ele><time>2026-03-28T13:22:57.457Z</time></trkpt><trkpt lat="45.7817481" lon="8.8706849"><ele>290.0</ele><time>2026-03-28T13:22:58.458Z</time></trkpt><trkpt lat="45.7815973" lon="8.8708263"><ele>288.0</ele><time>2026-03-28T13:22:59.457Z</time></trkpt><trkpt lat="45.7814523" lon="8.8709565"><ele>286.0</ele><time>2026-03-28T13:23:00.458Z</time></trkpt><trkpt lat="45.7813258" lon="8.8710772"><ele>285.8</ele><time>2026-03-28T13:23:01.458Z</time></trkpt><trkpt lat="45.7812181" lon="8.8711844"><ele>285.6</ele><time>2026-03-28T13:23:02.456Z</time></trkpt><trkpt lat="45.7811238" lon="8.8712655"><ele>285.4</ele><time>2026-03-28T13:23:03.457Z</time></trkpt><trkpt lat="45.7810428" lon="8.8713439"><ele>285.2</ele><time>2026-03-28T13:23:04.457Z</time></trkpt><trkpt lat="45.7809566" lon="8.8714209"><ele>285.0</ele><time>2026-03-28T13:23:05.457Z</time></trkpt><trkpt lat="45.780865" lon="8.871502"><ele>285.0</ele><time>2026-03-28T13:23:06.458Z</time></trkpt><trkpt lat="45.780768" lon="8.8715937"><ele>285.0</ele><time>2026-03-28T13:23:07.458Z</time></trkpt><trkpt lat="45.7806672" lon="8.8716845"><ele>285.0</ele><time>2026-03-28T13:23:08.457Z</time></trkpt><trkpt lat="45.7805665" lon="8.871783"><ele>285.0</ele><time>2026-03-28T13:23:09.458Z</time></trkpt><trkpt lat="45.7804614" lon="8.8718753"><ele>284.75</ele><time>2026-03-28T13:23:10.456Z</time></trkpt><trkpt lat="45.7803556" lon="8.8719613"><ele>284.5</ele><time>2026-03-28T13:23:11.456Z</time></trkpt><trkpt lat="45.7802453" lon="8.8720414"><ele>284.25</ele><time>2026-03-28T13:23:12.457Z</time></trkpt><trkpt lat="45.7801358" lon="8.8721041"><ele>284.0</ele><time>2026-03-28T13:23:13.456Z</time></trkpt><trkpt lat="45.7800294" lon="8.8721619"><ele>284.0</ele><time>2026-03-28T13:23:14.457Z</time></trkpt><trkpt lat="45.7799252" lon="8.8722094"><ele>284.0</ele><time>2026-03-28T13:23:15.457Z</time></trkpt><trkpt lat="45.779825" lon="8.8722547"><ele>284.0</ele><time>2026-03-28T13:23:16.456Z</time></trkpt><trkpt lat="45.7797225" lon="8.8722945"><ele>284.0</ele><time>2026-03-28T13:23:17.456Z</time></trkpt><trkpt lat="45.7796224" lon="8.8723268"><ele>284.0</ele><time>2026-03-28T13:23:18.457Z</time></trkpt><trkpt lat="45.7795229" lon="8.8723565"><ele>284.0</ele><time>2026-03-28T13:23:19.456Z</time></trkpt><trkpt lat="45.7794185" lon="8.872388"><ele>284.0</ele><time>2026-03-28T13:23:20.457Z</time></trkpt><trkpt lat="45.779319" lon="8.8724142"><ele>284.0</ele><time>2026-03-28T13:23:21.456Z</time></trkpt><trkpt lat="45.7792182" lon="8.8724405"><ele>284.0</ele><time>2026-03-28T13:23:22.456Z</time></trkpt><trkpt lat="45.779119" lon="8.8724621"><ele>284.0</ele><time>2026-03-28T13:23:23.457Z</time></trkpt><trkpt lat="45.7790215" lon="8.8724887"><ele>284.1666666666667</ele><time>2026-03-28T13:23:24.456Z</time></trkpt><trkpt lat="45.7789301" lon="8.8725121"><ele>284.33333333333337</ele><time>2026-03-28T13:23:25.456Z</time></trkpt><trkpt lat="45.7788477" lon="8.8725272"><ele>284.5</ele><time>2026-03-28T13:23:26.457Z</time></trkpt><trkpt lat="45.7787603" lon="8.872531"><ele>284.6666666666667</ele><time>2026-03-28T13:23:27.456Z</time></trkpt><trkpt lat="45.7786829" lon="8.872507"><ele>284.8333333333333</ele><time>2026-03-28T13:23:28.455Z</time></trkpt><trkpt lat="45.7786236" lon="8.872459"><ele>285.0</ele><time>2026-03-28T13:23:29.456Z</time></trkpt><trkpt lat="45.778581" lon="8.8723745"><ele>285.0</ele><time>2026-03-28T13:23:30.457Z</time></trkpt><trkpt lat="45.7785647" lon="8.8722671"><ele>285.0</ele><time>2026-03-28T13:23:31.456Z</time></trkpt><trkpt lat="45.7785675" lon="8.872157"><ele>285.0</ele><time>2026-03-28T13:23:32.457Z</time></trkpt><trkpt lat="45.7785694" lon="8.8720494"><ele>285.0</ele><time>2026-03-28T13:23:33.457Z</time></trkpt><trkpt lat="45.7785669" lon="8.8719436"><ele>285.0</ele><time>2026-03-28T13:23:34.457Z</time></trkpt><trkpt lat="45.7785516" lon="8.8718322"><ele>285.0</ele><time>2026-03-28T13:23:35.456Z</time></trkpt><trkpt lat="45.7785117" lon="8.8717275"><ele>285.0</ele><time>2026-03-28T13:23:36.457Z</time></trkpt><trkpt lat="45.7784624" lon="8.8716544"><ele>285.0</ele><time>2026-03-28T13:23:37.456Z</time></trkpt><trkpt lat="45.7783962" lon="8.8716138"><ele>285.0</ele><time>2026-03-28T13:23:38.457Z</time></trkpt><trkpt lat="45.778329" lon="8.87158"><ele>285.0</ele><time>2026-03-28T13:23:39.456Z</time></trkpt><trkpt lat="45.778255" lon="8.8715494"><ele>285.0</ele><time>2026-03-28T13:23:40.456Z</time></trkpt><trkpt lat="45.7781783" lon="8.8715171"><ele>285.0</ele><time>2026-03-28T13:23:41.456Z</time></trkpt><trkpt lat="45.7780989" lon="8.8714742"><ele>285.0</ele><time>2026-03-28T13:23:42.457Z</time></trkpt><trkpt lat="45.7780148" lon="8.871429"><ele>285.0</ele><time>2026-03-28T13:23:43.456Z</time></trkpt><trkpt lat="45.7779267" lon="8.871381"><ele>285.0</ele><time>2026-03-28T13:23:44.455Z</time></trkpt><trkpt lat="45.7778425" lon="8.8713338"><ele>285.0</ele><time>2026-03-28T13:23:45.457Z</time></trkpt><trkpt lat="45.7777677" lon="8.8712976"><ele>285.0</ele><time>2026-03-28T13:23:46.456Z</time></trkpt><trkpt lat="45.7776988" lon="8.8712574"><ele>285.0</ele><time>2026-03-28T13:23:47.457Z</time></trkpt><trkpt lat="45.7776382" lon="8.87122"><ele>285.0</ele><time>2026-03-28T13:23:48.456Z</time></trkpt><trkpt lat="45.7775717" lon="8.8711386"><ele>285.0</ele><time>2026-03-28T13:23:50.456Z</time></trkpt><trkpt lat="45.7775338" lon="8.8710347"><ele>285.0</ele><time>2026-03-28T13:23:52.456Z</time></trkpt><trkpt lat="45.7775271" lon="8.8708721"><ele>285.0</ele><time>2026-03-28T13:23:54.456Z</time></trkpt><trkpt lat="45.777551" lon="8.8707787"><ele>285.0</ele><time>2026-03-28T13:23:55.457Z</time></trkpt><trkpt lat="45.7776032" lon="8.8706992"><ele>285.0</ele><time>2026-03-28T13:23:56.456Z</time></trkpt><trkpt lat="45.7776696" lon="8.8706323"><ele>284.6666666666667</ele><time>2026-03-28T13:23:57.457Z</time></trkpt><trkpt lat="45.7777537" lon="8.870611"><ele>284.3333333333333</ele><time>2026-03-28T13:23:58.456Z</time></trkpt><trkpt lat="45.7778283" lon="8.8706252"><ele>284.0</ele><time>2026-03-28T13:23:59.456Z</time></trkpt><trkpt lat="45.7779052" lon="8.8706502"><ele>283.66666666666663</ele><time>2026-03-28T13:24:00.457Z</time></trkpt><trkpt lat="45.7779747" lon="8.8706759"><ele>283.3333333333333</ele><time>2026-03-28T13:24:01.457Z</time></trkpt><trkpt lat="45.7780494" lon="8.8706775"><ele>283.0</ele><time>2026-03-28T13:24:02.457Z</time></trkpt><trkpt lat="45.7781196" lon="8.8706554"><ele>283.0</ele><time>2026-03-28T13:24:03.457Z</time></trkpt><trkpt lat="45.7781914" lon="8.8706265"><ele>283.0</ele><time>2026-03-28T13:24:04.456Z</time></trkpt><trkpt lat="45.7782618" lon="8.8705911"><ele>283.0</ele><time>2026-03-28T13:24:05.457Z</time></trkpt><trkpt lat="45.7783377" lon="8.8705495"><ele>283.0</ele><time>2026-03-28T13:24:06.457Z</time></trkpt><trkpt lat="45.7784161" lon="8.8705059"><ele>283.0</ele><time>2026-03-28T13:24:07.457Z</time></trkpt><trkpt lat="45.7784971" lon="8.8704567"><ele>283.0</ele><time>2026-03-28T13:24:08.456Z</time></trkpt><trkpt lat="45.7785819" lon="8.8704061"><ele>282.6</ele><time>2026-03-28T13:24:09.457Z</time></trkpt><trkpt lat="45.7786678" lon="8.8703476"><ele>282.20000000000005</ele><time>2026-03-28T13:24:10.457Z</time></trkpt><trkpt lat="45.778758" lon="8.8702875"><ele>281.8</ele><time>2026-03-28T13:24:11.457Z</time></trkpt><trkpt lat="45.7788477" lon="8.8702319"><ele>281.40000000000003</ele><time>2026-03-28T13:24:12.456Z</time></trkpt><trkpt lat="45.7789473" lon="8.8701755"><ele>281.0</ele><time>2026-03-28T13:24:13.456Z</time></trkpt><trkpt lat="45.7790483" lon="8.8701157"><ele>281.0</ele><time>2026-03-28T13:24:14.457Z</time></trkpt><trkpt lat="45.7791588" lon="8.8700446"><ele>281.0</ele><time>2026-03-28T13:24:15.456Z</time></trkpt><trkpt lat="45.7792913" lon="8.8699533"><ele>281.0</ele><time>2026-03-28T13:24:16.456Z</time></trkpt><trkpt lat="45.7794492" lon="8.8698609"><ele>281.0</ele><time>2026-03-28T13:24:17.456Z</time></trkpt><trkpt lat="45.7796254" lon="8.8697768"><ele>281.33333333333337</ele><time>2026-03-28T13:24:18.457Z</time></trkpt><trkpt lat="45.7797994" lon="8.8696936"><ele>281.6666666666667</ele><time>2026-03-28T13:24:19.457Z</time></trkpt><trkpt lat="45.7799588" lon="8.869617"><ele>282.0</ele><time>2026-03-28T13:24:20.457Z</time></trkpt><trkpt lat="45.7801056" lon="8.8695436"><ele>283.0</ele><time>2026-03-28T13:24:21.456Z</time></trkpt><trkpt lat="45.7802345" lon="8.8694789"><ele>284.0</ele><time>2026-03-28T13:24:22.457Z</time></trkpt><trkpt lat="45.7803452" lon="8.8694224"><ele>285.0</ele><time>2026-03-28T13:24:23.457Z</time></trkpt><trkpt lat="45.7804595" lon="8.8693629"><ele>286.0</ele><time>2026-03-28T13:24:24.457Z</time></trkpt><trkpt lat="45.7805988" lon="8.8692894"><ele>285.0</ele><time>2026-03-28T13:24:25.457Z</time></trkpt><trkpt lat="45.7807531" lon="8.8692127"><ele>284.0</ele><time>2026-03-28T13:24:26.457Z</time></trkpt><trkpt lat="45.7809285" lon="8.8691285"><ele>283.0</ele><time>2026-03-28T13:24:27.457Z</time></trkpt><trkpt lat="45.7811232" lon="8.869042"><ele>283.0</ele><time>2026-03-28T13:24:28.457Z</time></trkpt><trkpt lat="45.781331" lon="8.8689435"><ele>283.0</ele><time>2026-03-28T13:24:29.457Z</time></trkpt><trkpt lat="45.7815456" lon="8.8688371"><ele>283.0</ele><time>2026-03-28T13:24:30.457Z</time></trkpt><trkpt lat="45.7817627" lon="8.8687241"><ele>284.5</ele><time>2026-03-28T13:24:31.456Z</time></trkpt><trkpt lat="45.7819781" lon="8.8686011"><ele>286.0</ele><time>2026-03-28T13:24:32.456Z</time></trkpt><trkpt lat="45.7821972" lon="8.868465"><ele>287.0</ele><time>2026-03-28T13:24:33.456Z</time></trkpt><trkpt lat="45.7824118" lon="8.8683249"><ele>288.0</ele><time>2026-03-28T13:24:34.457Z</time></trkpt><trkpt lat="45.7826257" lon="8.8681731"><ele>287.5</ele><time>2026-03-28T13:24:35.457Z</time></trkpt><trkpt lat="45.7828366" lon="8.8680126"><ele>287.0</ele><time>2026-03-28T13:24:36.457Z</time></trkpt><trkpt lat="45.7830449" lon="8.8678466"><ele>287.0</ele><time>2026-03-28T13:24:37.457Z</time></trkpt><trkpt lat="45.7832499" lon="8.8676717"><ele>287.0</ele><time>2026-03-28T13:24:38.457Z</time></trkpt><trkpt lat="45.7834561" lon="8.8674954"><ele>287.5</ele><time>2026-03-28T13:24:39.456Z</time></trkpt><trkpt lat="45.7836628" lon="8.8673143"><ele>288.0</ele><time>2026-03-28T13:24:40.456Z</time></trkpt><trkpt lat="45.7838708" lon="8.8671363"><ele>288.0</ele><time>2026-03-28T13:24:41.455Z</time></trkpt><trkpt lat="45.7840805" lon="8.8669572"><ele>288.0</ele><time>2026-03-28T13:24:42.456Z</time></trkpt><trkpt lat="45.7842895" lon="8.866783"><ele>290.0</ele><time>2026-03-28T13:24:43.456Z</time></trkpt><trkpt lat="45.7844989" lon="8.8666013"><ele>292.0</ele><time>2026-03-28T13:24:44.456Z</time></trkpt><trkpt lat="45.7847058" lon="8.8664209"><ele>292.0</ele><time>2026-03-28T13:24:45.456Z</time></trkpt><trkpt lat="45.7849124" lon="8.8662408"><ele>292.0</ele><time>2026-03-28T13:24:46.456Z</time></trkpt><trkpt lat="45.7851202" lon="8.8660619"><ele>295.0</ele><time>2026-03-28T13:24:47.455Z</time></trkpt><trkpt lat="45.7853246" lon="8.8658812"><ele>298.0</ele><time>2026-03-28T13:24:48.456Z</time></trkpt><trkpt lat="45.7855269" lon="8.8657005"><ele>298.0</ele><time>2026-03-28T13:24:49.456Z</time></trkpt><trkpt lat="45.7857322" lon="8.8655226"><ele>298.0</ele><time>2026-03-28T13:24:50.456Z</time></trkpt><trkpt lat="45.7859356" lon="8.8653449"><ele>300.5</ele><time>2026-03-28T13:24:51.456Z</time></trkpt><trkpt lat="45.7861372" lon="8.8651706"><ele>303.0</ele><time>2026-03-28T13:24:52.457Z</time></trkpt><trkpt lat="45.7863379" lon="8.8649959"><ele>303.0</ele><time>2026-03-28T13:24:53.457Z</time></trkpt><trkpt lat="45.7865387" lon="8.8648241"><ele>303.0</ele><time>2026-03-28T13:24:54.456Z</time></trkpt><trkpt lat="45.7867387" lon="8.8646496"><ele>309.5</ele><time>2026-03-28T13:24:55.456Z</time></trkpt><trkpt lat="45.7869379" lon="8.8644731"><ele>316.0</ele><time>2026-03-28T13:24:56.456Z</time></trkpt><trkpt lat="45.7871361" lon="8.8642993"><ele>309.0</ele><time>2026-03-28T13:24:57.456Z</time></trkpt><trkpt lat="45.7873375" lon="8.8641289"><ele>302.0</ele><time>2026-03-28T13:24:58.456Z</time></trkpt><trkpt lat="45.7875319" lon="8.8639606"><ele>305.5</ele><time>2026-03-28T13:24:59.456Z</time></trkpt><trkpt lat="45.7877294" lon="8.8637912"><ele>309.0</ele><time>2026-03-28T13:25:00.456Z</time></trkpt><trkpt lat="45.7879287" lon="8.8636185"><ele>301.5</ele><time>2026-03-28T13:25:01.457Z</time></trkpt><trkpt lat="45.7881239" lon="8.8634435"><ele>294.0</ele><time>2026-03-28T13:25:02.456Z</time></trkpt><trkpt lat="45.7883236" lon="8.863271"><ele>297.0</ele><time>2026-03-28T13:25:03.456Z</time></trkpt><trkpt lat="45.7885224" lon="8.863102"><ele>300.0</ele><time>2026-03-28T13:25:04.456Z</time></trkpt><trkpt lat="45.7887245" lon="8.8629287"><ele>300.0</ele><time>2026-03-28T13:25:05.457Z</time></trkpt><trkpt lat="45.7889278" lon="8.8627592"><ele>300.0</ele><time>2026-03-28T13:25:06.455Z</time></trkpt><trkpt lat="45.7891361" lon="8.8625989"><ele>299.5</ele><time>2026-03-28T13:25:07.456Z</time></trkpt><trkpt lat="45.7893481" lon="8.862447"><ele>299.0</ele><time>2026-03-28T13:25:08.457Z</time></trkpt><trkpt lat="45.7895558" lon="8.8623052"><ele>299.0</ele><time>2026-03-28T13:25:09.457Z</time></trkpt><trkpt lat="45.7897694" lon="8.8621735"><ele>299.0</ele><time>2026-03-28T13:25:10.456Z</time></trkpt><trkpt lat="45.7899901" lon="8.8620614"><ele>301.5</ele><time>2026-03-28T13:25:11.456Z</time></trkpt><trkpt lat="45.7902128" lon="8.8619642"><ele>304.0</ele><time>2026-03-28T13:25:12.457Z</time></trkpt><trkpt lat="45.7904379" lon="8.8618841"><ele>304.0</ele><time>2026-03-28T13:25:13.456Z</time></trkpt><trkpt lat="45.7906713" lon="8.861828"><ele>304.0</ele><time>2026-03-28T13:25:14.457Z</time></trkpt><trkpt lat="45.7909034" lon="8.8617957"><ele>307.0</ele><time>2026-03-28T13:25:15.456Z</time></trkpt><trkpt lat="45.7911352" lon="8.8617855"><ele>310.0</ele><time>2026-03-28T13:25:16.457Z</time></trkpt><trkpt lat="45.7913638" lon="8.8617964"><ele>310.0</ele><time>2026-03-28T13:25:17.456Z</time></trkpt><trkpt lat="45.7915937" lon="8.8618264"><ele>310.0</ele><time>2026-03-28T13:25:18.456Z</time></trkpt><trkpt lat="45.7918233" lon="8.8618808"><ele>311.0</ele><time>2026-03-28T13:25:19.457Z</time></trkpt><trkpt lat="45.7920513" lon="8.8619572"><ele>312.0</ele><time>2026-03-28T13:25:20.457Z</time></trkpt><trkpt lat="45.7922732" lon="8.8620516"><ele>312.0</ele><time>2026-03-28T13:25:21.456Z</time></trkpt><trkpt lat="45.7924881" lon="8.8621731"><ele>312.0</ele><time>2026-03-28T13:25:22.457Z</time></trkpt><trkpt lat="45.7926963" lon="8.8623108"><ele>306.0</ele><time>2026-03-28T13:25:23.456Z</time></trkpt><trkpt lat="45.7928983" lon="8.8624685"><ele>300.0</ele><time>2026-03-28T13:25:24.456Z</time></trkpt><trkpt lat="45.7930941" lon="8.8626508"><ele>312.0</ele><time>2026-03-28T13:25:25.457Z</time></trkpt><trkpt lat="45.7932865" lon="8.8628369"><ele>324.0</ele><time>2026-03-28T13:25:26.456Z</time></trkpt><trkpt lat="45.7934727" lon="8.8630349"><ele>319.5</ele><time>2026-03-28T13:25:27.456Z</time></trkpt><trkpt lat="45.7936522" lon="8.8632413"><ele>315.0</ele><time>2026-03-28T13:25:28.457Z</time></trkpt><trkpt lat="45.7938337" lon="8.8634503"><ele>315.0</ele><time>2026-03-28T13:25:29.457Z</time></trkpt><trkpt lat="45.7940096" lon="8.8636653"><ele>315.0</ele><time>2026-03-28T13:25:30.457Z</time></trkpt><trkpt lat="45.7941838" lon="8.8638848"><ele>314.0</ele><time>2026-03-28T13:25:31.456Z</time></trkpt><trkpt lat="45.7943582" lon="8.8641059"><ele>313.0</ele><time>2026-03-28T13:25:32.457Z</time></trkpt><trkpt lat="45.7945331" lon="8.8643233"><ele>313.0</ele><time>2026-03-28T13:25:33.457Z</time></trkpt><trkpt lat="45.7947077" lon="8.8645394"><ele>313.0</ele><time>2026-03-28T13:25:34.456Z</time></trkpt><trkpt lat="45.7948793" lon="8.8647565"><ele>313.0</ele><time>2026-03-28T13:25:35.457Z</time></trkpt><trkpt lat="45.7950513" lon="8.8649635"><ele>313.0</ele><time>2026-03-28T13:25:36.457Z</time></trkpt><trkpt lat="45.7952217" lon="8.8651769"><ele>312.5</ele><time>2026-03-28T13:25:37.457Z</time></trkpt><trkpt lat="45.7953983" lon="8.8653771"><ele>312.0</ele><time>2026-03-28T13:25:38.457Z</time></trkpt><trkpt lat="45.795585" lon="8.8655763"><ele>312.0</ele><time>2026-03-28T13:25:39.456Z</time></trkpt><trkpt lat="45.795781" lon="8.8657515"><ele>312.0</ele><time>2026-03-28T13:25:40.457Z</time></trkpt><trkpt lat="45.7959807" lon="8.8659151"><ele>309.0</ele><time>2026-03-28T13:25:41.457Z</time></trkpt><trkpt lat="45.7961864" lon="8.8660588"><ele>306.0</ele><time>2026-03-28T13:25:42.457Z</time></trkpt><trkpt lat="45.796394" lon="8.8661977"><ele>306.0</ele><time>2026-03-28T13:25:43.456Z</time></trkpt><trkpt lat="45.7966115" lon="8.8663052"><ele>306.0</ele><time>2026-03-28T13:25:44.457Z</time></trkpt><trkpt lat="45.7968258" lon="8.8663881"><ele>311.6666666666667</ele><time>2026-03-28T13:25:45.456Z</time></trkpt><trkpt lat="45.7970445" lon="8.8664537"><ele>317.33333333333337</ele><time>2026-03-28T13:25:46.457Z</time></trkpt><trkpt lat="45.7972641" lon="8.8664999"><ele>323.0</ele><time>2026-03-28T13:25:47.456Z</time></trkpt><trkpt lat="45.7974824" lon="8.8665325"><ele>318.33333333333337</ele><time>2026-03-28T13:25:48.457Z</time></trkpt><trkpt lat="45.7977046" lon="8.8665663"><ele>313.6666666666667</ele><time>2026-03-28T13:25:49.456Z</time></trkpt><trkpt lat="45.7979265" lon="8.8666026"><ele>309.0</ele><time>2026-03-28T13:25:50.456Z</time></trkpt><trkpt lat="45.8007906" lon="8.8662428"><ele>309.0</ele><time>2026-03-28T13:26:04.457Z</time></trkpt><trkpt lat="45.8009804" lon="8.8661187"><ele>309.0</ele><time>2026-03-28T13:26:05.456Z</time></trkpt><trkpt lat="45.8011408" lon="8.8660012"><ele>309.0</ele><time>2026-03-28T13:26:06.456Z</time></trkpt><trkpt lat="45.8012913" lon="8.865877"><ele>308.0</ele><time>2026-03-28T13:26:07.456Z</time></trkpt><trkpt lat="45.8014375" lon="8.8657585"><ele>307.0</ele><time>2026-03-28T13:26:08.457Z</time></trkpt><trkpt lat="45.8015891" lon="8.8656361"><ele>306.0</ele><time>2026-03-28T13:26:09.457Z</time></trkpt><trkpt lat="45.8017291" lon="8.865512"><ele>306.0</ele><time>2026-03-28T13:26:10.456Z</time></trkpt><trkpt lat="45.8018693" lon="8.8653871"><ele>306.0</ele><time>2026-03-28T13:26:11.457Z</time></trkpt><trkpt lat="45.8020031" lon="8.865264"><ele>306.0</ele><time>2026-03-28T13:26:12.456Z</time></trkpt><trkpt lat="45.8021228" lon="8.865161"><ele>305.40000000000003</ele><time>2026-03-28T13:26:13.456Z</time></trkpt><trkpt lat="45.8022389" lon="8.8650706"><ele>304.8</ele><time>2026-03-28T13:26:14.457Z</time></trkpt><trkpt lat="45.8023452" lon="8.8650039"><ele>304.20000000000005</ele><time>2026-03-28T13:26:15.457Z</time></trkpt><trkpt lat="45.8024388" lon="8.8649606"><ele>303.6</ele><time>2026-03-28T13:26:16.456Z</time></trkpt><trkpt lat="45.8025395" lon="8.8649405"><ele>303.0</ele><time>2026-03-28T13:26:17.457Z</time></trkpt><trkpt lat="45.8026297" lon="8.8649651"><ele>304.2</ele><time>2026-03-28T13:26:18.456Z</time></trkpt><trkpt lat="45.8027106" lon="8.865023"><ele>305.4</ele><time>2026-03-28T13:26:19.457Z</time></trkpt><trkpt lat="45.8027791" lon="8.8651073"><ele>306.59999999999997</ele><time>2026-03-28T13:26:20.457Z</time></trkpt><trkpt lat="45.8028302" lon="8.8652246"><ele>307.8</ele><time>2026-03-28T13:26:21.456Z</time></trkpt><trkpt lat="45.8028533" lon="8.8653398"><ele>309.0</ele><time>2026-03-28T13:26:22.457Z</time></trkpt><trkpt lat="45.8028541" lon="8.8654729"><ele>308.4</ele><time>2026-03-28T13:26:23.456Z</time></trkpt><trkpt lat="45.8028312" lon="8.8656056"><ele>307.79999999999995</ele><time>2026-03-28T13:26:24.457Z</time></trkpt><trkpt lat="45.8027769" lon="8.8657289"><ele>307.20000000000005</ele><time>2026-03-28T13:26:25.457Z</time></trkpt><trkpt lat="45.8027149" lon="8.8658277"><ele>306.6</ele><time>2026-03-28T13:26:26.456Z</time></trkpt><trkpt lat="45.8026136" lon="8.865874"><ele>306.0</ele><time>2026-03-28T13:26:27.457Z</time></trkpt><trkpt lat="45.8025123" lon="8.8658952"><ele>306.0</ele><time>2026-03-28T13:26:28.456Z</time></trkpt><trkpt lat="45.8024119" lon="8.8658644"><ele>306.0</ele><time>2026-03-28T13:26:29.456Z</time></trkpt><trkpt lat="45.802314" lon="8.8657932"><ele>306.0</ele><time>2026-03-28T13:26:30.457Z</time></trkpt><trkpt lat="45.8022318" lon="8.8656808"><ele>306.0</ele><time>2026-03-28T13:26:31.457Z</time></trkpt><trkpt lat="45.802161" lon="8.8655456"><ele>306.0</ele><time>2026-03-28T13:26:32.456Z</time></trkpt><trkpt lat="45.8021159" lon="8.865384"><ele>306.0</ele><time>2026-03-28T13:26:33.457Z</time></trkpt><trkpt lat="45.8020905" lon="8.8652089"><ele>306.0</ele><time>2026-03-28T13:26:34.456Z</time></trkpt><trkpt lat="45.8020827" lon="8.8650521"><ele>306.0</ele><time>2026-03-28T13:26:35.455Z</time></trkpt><trkpt lat="45.8020974" lon="8.8649117"><ele>306.0</ele><time>2026-03-28T13:26:36.457Z</time></trkpt><trkpt lat="45.8021383" lon="8.8647422"><ele>305.75</ele><time>2026-03-28T13:26:37.457Z</time></trkpt><trkpt lat="45.8022004" lon="8.8645889"><ele>305.5</ele><time>2026-03-28T13:26:38.456Z</time></trkpt><trkpt lat="45.8022509" lon="8.8644248"><ele>305.25</ele><time>2026-03-28T13:26:39.457Z</time></trkpt><trkpt lat="45.8023067" lon="8.8642529"><ele>305.0</ele><time>2026-03-28T13:26:40.456Z</time></trkpt><trkpt lat="45.8023655" lon="8.8640614"><ele>305.0</ele><time>2026-03-28T13:26:41.456Z</time></trkpt><trkpt lat="45.8024296" lon="8.8638798"><ele>305.0</ele><time>2026-03-28T13:26:42.456Z</time></trkpt><trkpt lat="45.8024939" lon="8.8636922"><ele>305.0</ele><time>2026-03-28T13:26:43.457Z</time></trkpt><trkpt lat="45.8025708" lon="8.8635165"><ele>305.0</ele><time>2026-03-28T13:26:44.457Z</time></trkpt><trkpt lat="45.8026598" lon="8.8633511"><ele>306.25</ele><time>2026-03-28T13:26:45.456Z</time></trkpt><trkpt lat="45.8027672" lon="8.863205"><ele>307.5</ele><time>2026-03-28T13:26:46.456Z</time></trkpt><trkpt lat="45.8028862" lon="8.8630992"><ele>308.75</ele><time>2026-03-28T13:26:47.457Z</time></trkpt><trkpt lat="45.8030227" lon="8.8630461"><ele>310.0</ele><time>2026-03-28T13:26:48.456Z</time></trkpt><trkpt lat="45.8031539" lon="8.8630173"><ele>310.0</ele><time>2026-03-28T13:26:49.457Z</time></trkpt><trkpt lat="45.803297" lon="8.8630077"><ele>310.0</ele><time>2026-03-28T13:26:50.456Z</time></trkpt><trkpt lat="45.8034429" lon="8.8630143"><ele>310.0</ele><time>2026-03-28T13:26:51.457Z</time></trkpt><trkpt lat="45.8035864" lon="8.8630294"><ele>310.0</ele><time>2026-03-28T13:26:52.456Z</time></trkpt><trkpt lat="45.803737" lon="8.863029"><ele>308.5</ele><time>2026-03-28T13:26:53.457Z</time></trkpt><trkpt lat="45.8038836" lon="8.8630314"><ele>307.0</ele><time>2026-03-28T13:26:54.456Z</time></trkpt><trkpt lat="45.8040289" lon="8.8630352"><ele>305.5</ele><time>2026-03-28T13:26:55.457Z</time></trkpt><trkpt lat="45.8041707" lon="8.8630289"><ele>304.0</ele><time>2026-03-28T13:26:56.456Z</time></trkpt><trkpt lat="45.8043039" lon="8.8630343"><ele>303.8</ele><time>2026-03-28T13:26:57.457Z</time></trkpt><trkpt lat="45.8044197" lon="8.8630476"><ele>303.59999999999997</ele><time>2026-03-28T13:26:58.456Z</time></trkpt><trkpt lat="45.8045246" lon="8.8630707"><ele>303.4</ele><time>2026-03-28T13:26:59.457Z</time></trkpt><trkpt lat="45.8046286" lon="8.8631075"><ele>303.2</ele><time>2026-03-28T13:27:00.456Z</time></trkpt><trkpt lat="45.8047121" lon="8.8631503"><ele>303.0</ele><time>2026-03-28T13:27:01.456Z</time></trkpt><trkpt lat="45.8047751" lon="8.8632018"><ele>303.0</ele><time>2026-03-28T13:27:02.455Z</time></trkpt><trkpt lat="45.8048485" lon="8.8632988"><ele>303.0</ele><time>2026-03-28T13:27:04.457Z</time></trkpt><trkpt lat="45.8049227" lon="8.8634426"><ele>303.0</ele><time>2026-03-28T13:27:06.456Z</time></trkpt><trkpt lat="45.8049737" lon="8.8635477"><ele>303.0</ele><time>2026-03-28T13:27:07.457Z</time></trkpt><trkpt lat="45.8050467" lon="8.8636267"><ele>303.0</ele><time>2026-03-28T13:27:08.457Z</time></trkpt><trkpt lat="45.8051317" lon="8.863671"><ele>303.3333333333333</ele><time>2026-03-28T13:27:09.457Z</time></trkpt><trkpt lat="45.8052178" lon="8.8636709"><ele>303.6666666666667</ele><time>2026-03-28T13:27:10.456Z</time></trkpt><trkpt lat="45.805289" lon="8.8636269"><ele>304.0</ele><time>2026-03-28T13:27:11.457Z</time></trkpt><trkpt lat="45.8053485" lon="8.8635505"><ele>304.33333333333337</ele><time>2026-03-28T13:27:12.457Z</time></trkpt><trkpt lat="45.8053789" lon="8.8634615"><ele>304.6666666666667</ele><time>2026-03-28T13:27:13.456Z</time></trkpt><trkpt lat="45.805385" lon="8.8633434"><ele>305.0</ele><time>2026-03-28T13:27:14.456Z</time></trkpt><trkpt lat="45.8053977" lon="8.8632143"><ele>305.0</ele><time>2026-03-28T13:27:15.457Z</time></trkpt><trkpt lat="45.8054123" lon="8.8630829"><ele>305.0</ele><time>2026-03-28T13:27:16.457Z</time></trkpt><trkpt lat="45.8054355" lon="8.8629344"><ele>305.0</ele><time>2026-03-28T13:27:17.457Z</time></trkpt><trkpt lat="45.8054696" lon="8.8627872"><ele>305.0</ele><time>2026-03-28T13:27:18.455Z</time></trkpt><trkpt lat="45.8055143" lon="8.8626654"><ele>305.0</ele><time>2026-03-28T13:27:19.456Z</time></trkpt><trkpt lat="45.8055726" lon="8.8625356"><ele>305.1666666666667</ele><time>2026-03-28T13:27:20.456Z</time></trkpt><trkpt lat="45.8056277" lon="8.862425"><ele>305.33333333333337</ele><time>2026-03-28T13:27:21.456Z</time></trkpt><trkpt lat="45.805679" lon="8.8623388"><ele>305.5</ele><time>2026-03-28T13:27:22.456Z</time></trkpt><trkpt lat="45.805712" lon="8.8622598"><ele>305.6666666666667</ele><time>2026-03-28T13:27:23.457Z</time></trkpt><trkpt lat="45.8057631" lon="8.8621646"><ele>305.8333333333333</ele><time>2026-03-28T13:27:25.456Z</time></trkpt><trkpt lat="45.8058014" lon="8.8620925"><ele>306.0</ele><time>2026-03-28T13:27:29.456Z</time></trkpt><trkpt lat="45.8058313" lon="8.8620069"><ele>306.0</ele><time>2026-03-28T13:27:30.456Z</time></trkpt><trkpt lat="45.8058696" lon="8.8619024"><ele>306.0</ele><time>2026-03-28T13:27:31.456Z</time></trkpt><trkpt lat="45.8059235" lon="8.8617812"><ele>306.0</ele><time>2026-03-28T13:27:32.457Z</time></trkpt><trkpt lat="45.8059937" lon="8.8616451"><ele>306.0</ele><time>2026-03-28T13:27:33.457Z</time></trkpt><trkpt lat="45.8060667" lon="8.8615004"><ele>306.0</ele><time>2026-03-28T13:27:34.456Z</time></trkpt><trkpt lat="45.8061471" lon="8.8613544"><ele>306.0</ele><time>2026-03-28T13:27:35.457Z</time></trkpt><trkpt lat="45.8062325" lon="8.8611969"><ele>306.0</ele><time>2026-03-28T13:27:36.456Z</time></trkpt><trkpt lat="45.8063196" lon="8.861032"><ele>306.0</ele><time>2026-03-28T13:27:37.456Z</time></trkpt><trkpt lat="45.8064075" lon="8.8608752"><ele>306.0</ele><time>2026-03-28T13:27:38.456Z</time></trkpt><trkpt lat="45.8064957" lon="8.8607123"><ele>306.5</ele><time>2026-03-28T13:27:39.457Z</time></trkpt><trkpt lat="45.8065877" lon="8.8605516"><ele>307.0</ele><time>2026-03-28T13:27:40.456Z</time></trkpt><trkpt lat="45.8066826" lon="8.8603938"><ele>307.5</ele><time>2026-03-28T13:27:41.456Z</time></trkpt><trkpt lat="45.8067791" lon="8.8602362"><ele>308.0</ele><time>2026-03-28T13:27:42.457Z</time></trkpt><trkpt lat="45.8068833" lon="8.8600892"><ele>310.0</ele><time>2026-03-28T13:27:43.457Z</time></trkpt><trkpt lat="45.8070018" lon="8.8599623"><ele>312.0</ele><time>2026-03-28T13:27:44.456Z</time></trkpt><trkpt lat="45.8071233" lon="8.8598372"><ele>314.0</ele><time>2026-03-28T13:27:45.457Z</time></trkpt><trkpt lat="45.8072511" lon="8.8597324"><ele>316.0</ele><time>2026-03-28T13:27:46.456Z</time></trkpt><trkpt lat="45.8073915" lon="8.8596443"><ele>316.0</ele><time>2026-03-28T13:27:47.457Z</time></trkpt><trkpt lat="45.8075323" lon="8.8595675"><ele>316.0</ele><time>2026-03-28T13:27:48.456Z</time></trkpt><trkpt lat="45.8076798" lon="8.8595076"><ele>316.0</ele><time>2026-03-28T13:27:49.457Z</time></trkpt><trkpt lat="45.8078301" lon="8.8594539"><ele>316.66666666666663</ele><time>2026-03-28T13:27:50.456Z</time></trkpt><trkpt lat="45.8079824" lon="8.8594026"><ele>317.3333333333333</ele><time>2026-03-28T13:27:51.457Z</time></trkpt><trkpt lat="45.8081342" lon="8.8593516"><ele>318.0</ele><time>2026-03-28T13:27:52.456Z</time></trkpt><trkpt lat="45.8082764" lon="8.8593018"><ele>321.5</ele><time>2026-03-28T13:27:53.457Z</time></trkpt><trkpt lat="45.8084125" lon="8.8592533"><ele>325.0</ele><time>2026-03-28T13:27:54.456Z</time></trkpt><trkpt lat="45.8085422" lon="8.8592075"><ele>328.5</ele><time>2026-03-28T13:27:55.457Z</time></trkpt><trkpt lat="45.8086598" lon="8.8591493"><ele>332.0</ele><time>2026-03-28T13:27:56.457Z</time></trkpt><trkpt lat="45.8087558" lon="8.8590603"><ele>332.0</ele><time>2026-03-28T13:27:57.456Z</time></trkpt><trkpt lat="45.8088338" lon="8.8589324"><ele>332.0</ele><time>2026-03-28T13:27:58.457Z</time></trkpt><trkpt lat="45.8088898" lon="8.8587792"><ele>332.0</ele><time>2026-03-28T13:27:59.456Z</time></trkpt><trkpt lat="45.8089243" lon="8.8586123"><ele>332.0</ele><time>2026-03-28T13:28:00.456Z</time></trkpt><trkpt lat="45.8089429" lon="8.8584391"><ele>333.0</ele><time>2026-03-28T13:28:01.457Z</time></trkpt><trkpt lat="45.8089533" lon="8.8582502"><ele>334.0</ele><time>2026-03-28T13:28:02.456Z</time></trkpt><trkpt lat="45.808967" lon="8.8580833"><ele>335.0</ele><time>2026-03-28T13:28:03.457Z</time></trkpt><trkpt lat="45.8089813" lon="8.8579036"><ele>336.0</ele><time>2026-03-28T13:28:04.456Z</time></trkpt><trkpt lat="45.8089964" lon="8.8577399"><ele>335.75</ele><time>2026-03-28T13:28:05.456Z</time></trkpt><trkpt lat="45.8090115" lon="8.8575725"><ele>335.5</ele><time>2026-03-28T13:28:06.456Z</time></trkpt><trkpt lat="45.8090292" lon="8.8573935"><ele>335.25</ele><time>2026-03-28T13:28:07.457Z</time></trkpt><trkpt lat="45.8090465" lon="8.8572089"><ele>335.0</ele><time>2026-03-28T13:28:08.456Z</time></trkpt><trkpt lat="45.8090611" lon="8.8570249"><ele>335.0</ele><time>2026-03-28T13:28:09.457Z</time></trkpt><trkpt lat="45.8090732" lon="8.856845"><ele>335.0</ele><time>2026-03-28T13:28:10.456Z</time></trkpt><trkpt lat="45.8090852" lon="8.8566697"><ele>335.0</ele><time>2026-03-28T13:28:11.456Z</time></trkpt><trkpt lat="45.809108" lon="8.8565183"><ele>335.0</ele><time>2026-03-28T13:28:12.457Z</time></trkpt><trkpt lat="45.8091513" lon="8.8563701"><ele>333.75</ele><time>2026-03-28T13:28:13.455Z</time></trkpt><trkpt lat="45.8092072" lon="8.8562304"><ele>332.5</ele><time>2026-03-28T13:28:14.456Z</time></trkpt><trkpt lat="45.8092738" lon="8.8560992"><ele>331.25</ele><time>2026-03-28T13:28:15.456Z</time></trkpt><trkpt lat="45.8093543" lon="8.8559763"><ele>330.0</ele><time>2026-03-28T13:28:16.456Z</time></trkpt><trkpt lat="45.8094419" lon="8.8558625"><ele>334.25</ele><time>2026-03-28T13:28:17.455Z</time></trkpt><trkpt lat="45.8095272" lon="8.8557395"><ele>338.5</ele><time>2026-03-28T13:28:18.456Z</time></trkpt><trkpt lat="45.8096114" lon="8.8556173"><ele>342.75</ele><time>2026-03-28T13:28:19.455Z</time></trkpt><trkpt lat="45.809694" lon="8.8554894"><ele>347.0</ele><time>2026-03-28T13:28:20.455Z</time></trkpt><trkpt lat="45.8097811" lon="8.855356"><ele>347.0</ele><time>2026-03-28T13:28:21.456Z</time></trkpt><trkpt lat="45.8098693" lon="8.855221"><ele>347.0</ele><time>2026-03-28T13:28:22.455Z</time></trkpt><trkpt lat="45.8099446" lon="8.8550942"><ele>347.0</ele><time>2026-03-28T13:28:23.456Z</time></trkpt><trkpt lat="45.8100232" lon="8.8549726"><ele>347.0</ele><time>2026-03-28T13:28:24.456Z</time></trkpt><trkpt lat="45.8100945" lon="8.8548683"><ele>348.33333333333337</ele><time>2026-03-28T13:28:25.456Z</time></trkpt><trkpt lat="45.8101785" lon="8.8547803"><ele>349.6666666666667</ele><time>2026-03-28T13:28:26.455Z</time></trkpt><trkpt lat="45.8102701" lon="8.8547281"><ele>351.0</ele><time>2026-03-28T13:28:27.456Z</time></trkpt><trkpt lat="45.8103651" lon="8.8546891"><ele>352.3333333333333</ele><time>2026-03-28T13:28:28.456Z</time></trkpt><trkpt lat="45.8104438" lon="8.8546675"><ele>353.66666666666663</ele><time>2026-03-28T13:28:29.455Z</time></trkpt><trkpt lat="45.8105087" lon="8.8546408"><ele>355.0</ele><time>2026-03-28T13:28:30.456Z</time></trkpt><trkpt lat="45.8105773" lon="8.8545959"><ele>355.0</ele><time>2026-03-28T13:28:32.456Z</time></trkpt><trkpt lat="45.8106627" lon="8.8545159"><ele>355.0</ele><time>2026-03-28T13:29:20.456Z</time></trkpt><trkpt lat="45.8107782" lon="8.8544562"><ele>355.0</ele><time>2026-03-28T13:29:22.455Z</time></trkpt><trkpt lat="45.8108461" lon="8.8544245"><ele>355.0</ele><time>2026-03-28T13:29:23.456Z</time></trkpt><trkpt lat="45.8109178" lon="8.854386"><ele>355.0</ele><time>2026-03-28T13:29:24.456Z</time></trkpt><trkpt lat="45.8109961" lon="8.8543457"><ele>355.4</ele><time>2026-03-28T13:29:25.456Z</time></trkpt><trkpt lat="45.8110869" lon="8.8542996"><ele>355.8</ele><time>2026-03-28T13:29:26.456Z</time></trkpt><trkpt lat="45.8111882" lon="8.8542544"><ele>356.20000000000005</ele><time>2026-03-28T13:29:27.455Z</time></trkpt><trkpt lat="45.8112902" lon="8.8541991"><ele>356.6</ele><time>2026-03-28T13:29:28.455Z</time></trkpt><trkpt lat="45.8114023" lon="8.8541347"><ele>357.0</ele><time>2026-03-28T13:29:29.455Z</time></trkpt><trkpt lat="45.8115158" lon="8.854082"><ele>359.0</ele><time>2026-03-28T13:29:30.455Z</time></trkpt><trkpt lat="45.8116318" lon="8.8540317"><ele>361.0</ele><time>2026-03-28T13:29:31.456Z</time></trkpt><trkpt lat="45.8117464" lon="8.8539888"><ele>363.0</ele><time>2026-03-28T13:29:32.455Z</time></trkpt><trkpt lat="45.8118695" lon="8.8539244"><ele>365.0</ele><time>2026-03-28T13:29:33.455Z</time></trkpt><trkpt lat="45.8119749" lon="8.8538472"><ele>365.25</ele><time>2026-03-28T13:29:34.455Z</time></trkpt><trkpt lat="45.8120703" lon="8.8537543"><ele>365.5</ele><time>2026-03-28T13:29:35.455Z</time></trkpt><trkpt lat="45.8121616" lon="8.8536457"><ele>365.75</ele><time>2026-03-28T13:29:36.456Z</time></trkpt><trkpt lat="45.8122557" lon="8.8535269"><ele>366.0</ele><time>2026-03-28T13:29:37.455Z</time></trkpt><trkpt lat="45.8123512" lon="8.8534006"><ele>366.75</ele><time>2026-03-28T13:29:38.456Z</time></trkpt><trkpt lat="45.8124524" lon="8.8532733"><ele>367.5</ele><time>2026-03-28T13:29:39.455Z</time></trkpt><trkpt lat="45.8125584" lon="8.8531413"><ele>368.25</ele><time>2026-03-28T13:29:40.456Z</time></trkpt><trkpt lat="45.8126654" lon="8.8530079"><ele>369.0</ele><time>2026-03-28T13:29:41.455Z</time></trkpt><trkpt lat="45.8127728" lon="8.8528666"><ele>369.6666666666667</ele><time>2026-03-28T13:29:42.456Z</time></trkpt><trkpt lat="45.8128831" lon="8.8527177"><ele>370.33333333333337</ele><time>2026-03-28T13:29:43.455Z</time></trkpt><trkpt lat="45.8129989" lon="8.8525677"><ele>371.0</ele><time>2026-03-28T13:29:44.455Z</time></trkpt><trkpt lat="45.8131143" lon="8.8524208"><ele>371.0</ele><time>2026-03-28T13:29:45.456Z</time></trkpt><trkpt lat="45.813231" lon="8.8522692"><ele>371.0</ele><time>2026-03-28T13:29:46.455Z</time></trkpt><trkpt lat="45.8133512" lon="8.8521256"><ele>371.0</ele><time>2026-03-28T13:29:47.455Z</time></trkpt><trkpt lat="45.8134693" lon="8.8519723"><ele>373.0</ele><time>2026-03-28T13:29:48.455Z</time></trkpt><trkpt lat="45.813588" lon="8.8518303"><ele>375.0</ele><time>2026-03-28T13:29:49.456Z</time></trkpt><trkpt lat="45.8137057" lon="8.8516859"><ele>377.0</ele><time>2026-03-28T13:29:50.456Z</time></trkpt><trkpt lat="45.8138199" lon="8.8515431"><ele>377.0</ele><time>2026-03-28T13:29:51.455Z</time></trkpt><trkpt lat="45.8139129" lon="8.8513846"><ele>377.0</ele><time>2026-03-28T13:29:52.456Z</time></trkpt><trkpt lat="45.8139844" lon="8.8512247"><ele>377.0</ele><time>2026-03-28T13:29:53.455Z</time></trkpt><trkpt lat="45.8140326" lon="8.8510605"><ele>377.0</ele><time>2026-03-28T13:29:54.456Z</time></trkpt><trkpt lat="45.814074" lon="8.850891"><ele>376.0</ele><time>2026-03-28T13:29:55.455Z</time></trkpt><trkpt lat="45.8141257" lon="8.8507272"><ele>375.0</ele><time>2026-03-28T13:29:56.455Z</time></trkpt><trkpt lat="45.8141809" lon="8.8505684"><ele>374.0</ele><time>2026-03-28T13:29:57.456Z</time></trkpt><trkpt lat="45.8142473" lon="8.8504229"><ele>373.0</ele><time>2026-03-28T13:29:58.455Z</time></trkpt><trkpt lat="45.8143283" lon="8.850287"><ele>372.5</ele><time>2026-03-28T13:29:59.455Z</time></trkpt><trkpt lat="45.8144103" lon="8.8501557"><ele>372.0</ele><time>2026-03-28T13:30:00.455Z</time></trkpt><trkpt lat="45.8144971" lon="8.8500236"><ele>371.5</ele><time>2026-03-28T13:30:01.455Z</time></trkpt><trkpt lat="45.8145804" lon="8.8498955"><ele>371.0</ele><time>2026-03-28T13:30:02.456Z</time></trkpt><trkpt lat="45.8146654" lon="8.8497685"><ele>371.0</ele><time>2026-03-28T13:30:03.455Z</time></trkpt><trkpt lat="45.8147495" lon="8.8496356"><ele>371.0</ele><time>2026-03-28T13:30:04.455Z</time></trkpt><trkpt lat="45.8148338" lon="8.8495077"><ele>371.0</ele><time>2026-03-28T13:30:05.456Z</time></trkpt><trkpt lat="45.8149148" lon="8.8493788"><ele>371.0</ele><time>2026-03-28T13:30:06.455Z</time></trkpt><trkpt lat="45.8149892" lon="8.8492514"><ele>371.0</ele><time>2026-03-28T13:30:07.456Z</time></trkpt><trkpt lat="45.8150668" lon="8.8491323"><ele>371.0</ele><time>2026-03-28T13:30:08.455Z</time></trkpt><trkpt lat="45.8151418" lon="8.8490135"><ele>371.0</ele><time>2026-03-28T13:30:09.455Z</time></trkpt><trkpt lat="45.8152167" lon="8.8488894"><ele>371.0</ele><time>2026-03-28T13:30:10.456Z</time></trkpt><trkpt lat="45.8152963" lon="8.8487522"><ele>371.0</ele><time>2026-03-28T13:30:11.455Z</time></trkpt><trkpt lat="45.8153792" lon="8.8486165"><ele>371.0</ele><time>2026-03-28T13:30:12.455Z</time></trkpt><trkpt lat="45.8154667" lon="8.8484791"><ele>371.0</ele><time>2026-03-28T13:30:13.455Z</time></trkpt><trkpt lat="45.8155526" lon="8.8483314"><ele>371.0</ele><time>2026-03-28T13:30:14.456Z</time></trkpt><trkpt lat="45.8156325" lon="8.8481914"><ele>371.20000000000005</ele><time>2026-03-28T13:30:15.456Z</time></trkpt><trkpt lat="45.8157107" lon="8.8480616"><ele>371.40000000000003</ele><time>2026-03-28T13:30:16.455Z</time></trkpt><trkpt lat="45.8157813" lon="8.8479402"><ele>371.6</ele><time>2026-03-28T13:30:17.456Z</time></trkpt><trkpt lat="45.8158438" lon="8.8478374"><ele>371.8</ele><time>2026-03-28T13:30:18.456Z</time></trkpt><trkpt lat="45.8158968" lon="8.8477471"><ele>372.0</ele><time>2026-03-28T13:30:19.455Z</time></trkpt><trkpt lat="45.8159532" lon="8.8476583"><ele>371.8333333333333</ele><time>2026-03-28T13:30:20.456Z</time></trkpt><trkpt lat="45.8160056" lon="8.847571"><ele>371.6666666666667</ele><time>2026-03-28T13:30:21.455Z</time></trkpt><trkpt lat="45.8160602" lon="8.847485"><ele>371.5</ele><time>2026-03-28T13:30:22.455Z</time></trkpt><trkpt lat="45.8161154" lon="8.8473938"><ele>371.33333333333337</ele><time>2026-03-28T13:30:23.456Z</time></trkpt><trkpt lat="45.8161709" lon="8.8473053"><ele>371.1666666666667</ele><time>2026-03-28T13:30:24.455Z</time></trkpt><trkpt lat="45.8162195" lon="8.8472227"><ele>371.0</ele><time>2026-03-28T13:30:25.456Z</time></trkpt><trkpt lat="45.8162821" lon="8.8471243"><ele>371.0</ele><time>2026-03-28T13:30:26.455Z</time></trkpt><trkpt lat="45.8163439" lon="8.8470247"><ele>371.0</ele><time>2026-03-28T13:30:27.455Z</time></trkpt><trkpt lat="45.8164078" lon="8.8469248"><ele>371.0</ele><time>2026-03-28T13:30:28.455Z</time></trkpt><trkpt lat="45.8164741" lon="8.8468177"><ele>371.0</ele><time>2026-03-28T13:30:29.455Z</time></trkpt><trkpt lat="45.8165422" lon="8.8467015"><ele>371.0</ele><time>2026-03-28T13:30:30.456Z</time></trkpt><trkpt lat="45.8166136" lon="8.8465858"><ele>371.20000000000005</ele><time>2026-03-28T13:30:31.455Z</time></trkpt><trkpt lat="45.8166911" lon="8.8464669"><ele>371.40000000000003</ele><time>2026-03-28T13:30:32.456Z</time></trkpt><trkpt lat="45.8167654" lon="8.8463565"><ele>371.6</ele><time>2026-03-28T13:30:33.455Z</time></trkpt><trkpt lat="45.8168315" lon="8.8462556"><ele>371.8</ele><time>2026-03-28T13:30:34.455Z</time></trkpt><trkpt lat="45.8168899" lon="8.8461618"><ele>372.0</ele><time>2026-03-28T13:30:35.455Z</time></trkpt><trkpt lat="45.8169325" lon="8.8460932"><ele>372.1666666666667</ele><time>2026-03-28T13:30:36.456Z</time></trkpt><trkpt lat="45.8169915" lon="8.8460031"><ele>372.3333333333333</ele><time>2026-03-28T13:30:38.455Z</time></trkpt><trkpt lat="45.8170315" lon="8.8459326"><ele>372.5</ele><time>2026-03-28T13:30:40.456Z</time></trkpt><trkpt lat="45.8170819" lon="8.8458546"><ele>372.66666666666663</ele><time>2026-03-28T13:30:42.456Z</time></trkpt><trkpt lat="45.817159" lon="8.8457212"><ele>372.8333333333333</ele><time>2026-03-28T13:30:44.456Z</time></trkpt><trkpt lat="45.8172115" lon="8.8456438"><ele>373.0</ele><time>2026-03-28T13:30:45.455Z</time></trkpt><trkpt lat="45.8172748" lon="8.8455544"><ele>373.16666666666663</ele><time>2026-03-28T13:30:46.456Z</time></trkpt><trkpt lat="45.8173362" lon="8.8454656"><ele>373.3333333333333</ele><time>2026-03-28T13:30:47.455Z</time></trkpt><trkpt lat="45.8173909" lon="8.8453747"><ele>373.5</ele><time>2026-03-28T13:30:48.456Z</time></trkpt><trkpt lat="45.8174496" lon="8.8452833"><ele>373.6666666666667</ele><time>2026-03-28T13:30:49.455Z</time></trkpt><trkpt lat="45.8175051" lon="8.8451944"><ele>373.83333333333337</ele><time>2026-03-28T13:30:50.455Z</time></trkpt><trkpt lat="45.8175607" lon="8.8451013"><ele>374.0</ele><time>2026-03-28T13:30:51.456Z</time></trkpt><trkpt lat="45.8176198" lon="8.8450124"><ele>374.0</ele><time>2026-03-28T13:30:52.455Z</time></trkpt><trkpt lat="45.8176771" lon="8.8449137"><ele>374.0</ele><time>2026-03-28T13:30:53.456Z</time></trkpt><trkpt lat="45.8177393" lon="8.8448165"><ele>374.0</ele><time>2026-03-28T13:30:54.455Z</time></trkpt><trkpt lat="45.8177976" lon="8.8447333"><ele>374.0</ele><time>2026-03-28T13:30:55.456Z</time></trkpt><trkpt lat="45.8178492" lon="8.8446608"><ele>374.0</ele><time>2026-03-28T13:30:56.455Z</time></trkpt><trkpt lat="45.8178964" lon="8.8445812"><ele>374.0</ele><time>2026-03-28T13:30:57.455Z</time></trkpt><trkpt lat="45.817981" lon="8.8444718"><ele>374.0</ele><time>2026-03-28T13:30:59.455Z</time></trkpt><trkpt lat="45.818034" lon="8.8444118"><ele>374.0</ele><time>2026-03-28T13:31:00.456Z</time></trkpt><trkpt lat="45.8180941" lon="8.8443443"><ele>374.0</ele><time>2026-03-28T13:31:01.455Z</time></trkpt><trkpt lat="45.8181594" lon="8.8442528"><ele>374.0</ele><time>2026-03-28T13:31:02.455Z</time></trkpt><trkpt lat="45.8182269" lon="8.8441631"><ele>374.0</ele><time>2026-03-28T13:31:03.456Z</time></trkpt><trkpt lat="45.8182871" lon="8.8440646"><ele>374.0</ele><time>2026-03-28T13:31:04.455Z</time></trkpt><trkpt lat="45.8183362" lon="8.8439642"><ele>374.1666666666667</ele><time>2026-03-28T13:31:05.456Z</time></trkpt><trkpt lat="45.8183798" lon="8.8438548"><ele>374.33333333333337</ele><time>2026-03-28T13:31:06.456Z</time></trkpt><trkpt lat="45.8184242" lon="8.8437562"><ele>374.5</ele><time>2026-03-28T13:31:07.455Z</time></trkpt><trkpt lat="45.818468" lon="8.8436753"><ele>374.6666666666667</ele><time>2026-03-28T13:31:08.456Z</time></trkpt><trkpt lat="45.8185138" lon="8.8435924"><ele>374.8333333333333</ele><time>2026-03-28T13:31:09.455Z</time></trkpt><trkpt lat="45.8185516" lon="8.8435175"><ele>375.0</ele><time>2026-03-28T13:31:10.456Z</time></trkpt><trkpt lat="45.8185972" lon="8.8434399"><ele>375.0</ele><time>2026-03-28T13:31:11.456Z</time></trkpt><trkpt lat="45.8186456" lon="8.8433553"><ele>375.0</ele><time>2026-03-28T13:31:12.455Z</time></trkpt><trkpt lat="45.8186959" lon="8.8432762"><ele>375.0</ele><time>2026-03-28T13:31:13.454Z</time></trkpt><trkpt lat="45.8187491" lon="8.8431903"><ele>375.0</ele><time>2026-03-28T13:31:14.455Z</time></trkpt><trkpt lat="45.8188098" lon="8.843107"><ele>375.0</ele><time>2026-03-28T13:31:15.456Z</time></trkpt><trkpt lat="45.8188661" lon="8.8430116"><ele>375.0</ele><time>2026-03-28T13:31:16.455Z</time></trkpt><trkpt lat="45.8189222" lon="8.8429181"><ele>375.0</ele><time>2026-03-28T13:31:17.455Z</time></trkpt><trkpt lat="45.8189776" lon="8.8428267"><ele>375.0</ele><time>2026-03-28T13:31:18.455Z</time></trkpt><trkpt lat="45.8190284" lon="8.8427461"><ele>375.0</ele><time>2026-03-28T13:31:19.455Z</time></trkpt><trkpt lat="45.8190831" lon="8.8426501"><ele>375.0</ele><time>2026-03-28T13:31:21.456Z</time></trkpt><trkpt lat="45.8191363" lon="8.8425753"><ele>375.0</ele><time>2026-03-28T13:31:23.456Z</time></trkpt><trkpt lat="45.8191954" lon="8.8424799"><ele>375.0</ele><time>2026-03-28T13:31:26.456Z</time></trkpt><trkpt lat="45.8192468" lon="8.8423952"><ele>375.2</ele><time>2026-03-28T13:31:29.455Z</time></trkpt><trkpt lat="45.8193107" lon="8.8422927"><ele>375.4</ele><time>2026-03-28T13:31:32.455Z</time></trkpt><trkpt lat="45.8193686" lon="8.8422036"><ele>375.6</ele><time>2026-03-28T13:31:34.456Z</time></trkpt><trkpt lat="45.8194414" lon="8.8420913"><ele>375.8</ele><time>2026-03-28T13:31:36.455Z</time></trkpt><trkpt lat="45.8195261" lon="8.8419597"><ele>376.0</ele><time>2026-03-28T13:31:38.455Z</time></trkpt><trkpt lat="45.8195711" lon="8.8418795"><ele>376.20000000000005</ele><time>2026-03-28T13:31:39.456Z</time></trkpt><trkpt lat="45.819621" lon="8.8418074"><ele>376.40000000000003</ele><time>2026-03-28T13:31:40.455Z</time></trkpt><trkpt lat="45.8196635" lon="8.8417399"><ele>376.6</ele><time>2026-03-28T13:31:41.456Z</time></trkpt><trkpt lat="45.8197353" lon="8.841617"><ele>376.8</ele><time>2026-03-28T13:31:43.455Z</time></trkpt><trkpt lat="45.8198124" lon="8.8414913"><ele>377.0</ele><time>2026-03-28T13:31:45.456Z</time></trkpt><trkpt lat="45.8198796" lon="8.8413864"><ele>377.0</ele><time>2026-03-28T13:31:47.456Z</time></trkpt><trkpt lat="45.8199122" lon="8.8412962"><ele>377.0</ele><time>2026-03-28T13:32:10.456Z</time></trkpt><trkpt lat="45.8199878" lon="8.8411801"><ele>377.0</ele><time>2026-03-28T13:32:12.455Z</time></trkpt><trkpt lat="45.8200264" lon="8.8410984"><ele>377.0</ele><time>2026-03-28T13:32:13.455Z</time></trkpt><trkpt lat="45.8200703" lon="8.8410121"><ele>377.0</ele><time>2026-03-28T13:32:14.455Z</time></trkpt><trkpt lat="45.8201227" lon="8.8409178"><ele>377.0</ele><time>2026-03-28T13:32:15.456Z</time></trkpt><trkpt lat="45.8201831" lon="8.8408113"><ele>376.6</ele><time>2026-03-28T13:32:16.455Z</time></trkpt><trkpt lat="45.8202497" lon="8.8407061"><ele>376.20000000000005</ele><time>2026-03-28T13:32:17.455Z</time></trkpt><trkpt lat="45.8203209" lon="8.8405933"><ele>375.8</ele><time>2026-03-28T13:32:18.456Z</time></trkpt><trkpt lat="45.820391" lon="8.8404746"><ele>375.4</ele><time>2026-03-28T13:32:19.455Z</time></trkpt><trkpt lat="45.820463" lon="8.8403534"><ele>375.0</ele><time>2026-03-28T13:32:20.456Z</time></trkpt><trkpt lat="45.8205359" lon="8.8402312"><ele>375.25</ele><time>2026-03-28T13:32:21.455Z</time></trkpt><trkpt lat="45.820612" lon="8.8401056"><ele>375.5</ele><time>2026-03-28T13:32:22.456Z</time></trkpt><trkpt lat="45.8206959" lon="8.8399778"><ele>375.75</ele><time>2026-03-28T13:32:23.455Z</time></trkpt><trkpt lat="45.8207778" lon="8.8398509"><ele>376.0</ele><time>2026-03-28T13:32:24.456Z</time></trkpt><trkpt lat="45.8208601" lon="8.8397154"><ele>376.0</ele><time>2026-03-28T13:32:25.455Z</time></trkpt><trkpt lat="45.8209381" lon="8.8395894"><ele>376.0</ele><time>2026-03-28T13:32:26.456Z</time></trkpt><trkpt lat="45.821013" lon="8.8394676"><ele>376.0</ele><time>2026-03-28T13:32:27.456Z</time></trkpt><trkpt lat="45.8210912" lon="8.8393456"><ele>376.0</ele><time>2026-03-28T13:32:28.455Z</time></trkpt><trkpt lat="45.8211689" lon="8.8392192"><ele>376.4</ele><time>2026-03-28T13:32:29.455Z</time></trkpt><trkpt lat="45.8212499" lon="8.8391027"><ele>376.8</ele><time>2026-03-28T13:32:30.455Z</time></trkpt><trkpt lat="45.8213212" lon="8.8389852"><ele>377.2</ele><time>2026-03-28T13:32:31.455Z</time></trkpt><trkpt lat="45.8213934" lon="8.8388691"><ele>377.59999999999997</ele><time>2026-03-28T13:32:32.455Z</time></trkpt><trkpt lat="45.821465" lon="8.8387657"><ele>378.0</ele><time>2026-03-28T13:32:33.456Z</time></trkpt><trkpt lat="45.8215308" lon="8.8386534"><ele>378.0</ele><time>2026-03-28T13:32:34.455Z</time></trkpt><trkpt lat="45.8215916" lon="8.838536"><ele>378.0</ele><time>2026-03-28T13:32:35.455Z</time></trkpt><trkpt lat="45.8216667" lon="8.8384123"><ele>378.0</ele><time>2026-03-28T13:32:36.455Z</time></trkpt><trkpt lat="45.8217472" lon="8.838287"><ele>378.0</ele><time>2026-03-28T13:32:37.456Z</time></trkpt><trkpt lat="45.8218343" lon="8.8381531"><ele>378.25</ele><time>2026-03-28T13:32:38.455Z</time></trkpt><trkpt lat="45.8219117" lon="8.8380231"><ele>378.5</ele><time>2026-03-28T13:32:39.456Z</time></trkpt><trkpt lat="45.8219907" lon="8.8378967"><ele>378.75</ele><time>2026-03-28T13:32:40.455Z</time></trkpt><trkpt lat="45.8220648" lon="8.837779"><ele>379.0</ele><time>2026-03-28T13:32:41.456Z</time></trkpt><trkpt lat="45.822133" lon="8.8376657"><ele>379.16666666666663</ele><time>2026-03-28T13:32:42.455Z</time></trkpt><trkpt lat="45.8221928" lon="8.8375609"><ele>379.3333333333333</ele><time>2026-03-28T13:32:43.455Z</time></trkpt><trkpt lat="45.8222466" lon="8.8374647"><ele>379.5</ele><time>2026-03-28T13:32:44.456Z</time></trkpt><trkpt lat="45.8222964" lon="8.8373773"><ele>379.6666666666667</ele><time>2026-03-28T13:32:45.455Z</time></trkpt><trkpt lat="45.8223472" lon="8.8373065"><ele>379.83333333333337</ele><time>2026-03-28T13:32:46.455Z</time></trkpt><trkpt lat="45.8224002" lon="8.8372298"><ele>380.0</ele><time>2026-03-28T13:32:47.456Z</time></trkpt><trkpt lat="45.8224492" lon="8.8371531"><ele>380.0</ele><time>2026-03-28T13:32:48.456Z</time></trkpt><trkpt lat="45.8225032" lon="8.8370674"><ele>380.0</ele><time>2026-03-28T13:32:49.456Z</time></trkpt><trkpt lat="45.8225509" lon="8.8369785"><ele>380.0</ele><time>2026-03-28T13:32:50.455Z</time></trkpt><trkpt lat="45.8225977" lon="8.8369075"><ele>380.0</ele><time>2026-03-28T13:32:51.456Z</time></trkpt><trkpt lat="45.8226521" lon="8.8367554"><ele>380.0</ele><time>2026-03-28T13:32:53.456Z</time></trkpt><trkpt lat="45.8227077" lon="8.8366282"><ele>380.6</ele><time>2026-03-28T13:32:55.455Z</time></trkpt><trkpt lat="45.8227394" lon="8.8365489"><ele>381.2</ele><time>2026-03-28T13:32:57.455Z</time></trkpt><trkpt lat="45.822771" lon="8.8363917"><ele>381.79999999999995</ele><time>2026-03-28T13:34:13.455Z</time></trkpt><trkpt lat="45.8228403" lon="8.8362648"><ele>382.4</ele><time>2026-03-28T13:34:15.455Z</time></trkpt><trkpt lat="45.8229076" lon="8.8361"><ele>383.0</ele><time>2026-03-28T13:34:17.454Z</time></trkpt><trkpt lat="45.8229322" lon="8.8359969"><ele>383.1666666666667</ele><time>2026-03-28T13:34:18.454Z</time></trkpt><trkpt lat="45.8229513" lon="8.8358912"><ele>383.33333333333337</ele><time>2026-03-28T13:34:19.454Z</time></trkpt><trkpt lat="45.8229877" lon="8.8357836"><ele>383.5</ele><time>2026-03-28T13:34:20.455Z</time></trkpt><trkpt lat="45.8230325" lon="8.8356887"><ele>383.6666666666667</ele><time>2026-03-28T13:34:21.454Z</time></trkpt><trkpt lat="45.8230855" lon="8.8356148"><ele>383.8333333333333</ele><time>2026-03-28T13:34:22.455Z</time></trkpt><trkpt lat="45.8231481" lon="8.8355647"><ele>384.0</ele><time>2026-03-28T13:34:23.455Z</time></trkpt><trkpt lat="45.8232272" lon="8.8355211"><ele>384.0</ele><time>2026-03-28T13:34:24.454Z</time></trkpt><trkpt lat="45.8233121" lon="8.8354904"><ele>384.0</ele><time>2026-03-28T13:34:25.454Z</time></trkpt><trkpt lat="45.8234043" lon="8.8354695"><ele>384.0</ele><time>2026-03-28T13:34:26.454Z</time></trkpt><trkpt lat="45.823498" lon="8.8354566"><ele>384.0</ele><time>2026-03-28T13:34:27.455Z</time></trkpt><trkpt lat="45.8235944" lon="8.8354409"><ele>384.0</ele><time>2026-03-28T13:34:28.455Z</time></trkpt><trkpt lat="45.8236961" lon="8.8354273"><ele>383.79999999999995</ele><time>2026-03-28T13:34:29.455Z</time></trkpt><trkpt lat="45.823806" lon="8.835411"><ele>383.59999999999997</ele><time>2026-03-28T13:34:30.454Z</time></trkpt><trkpt lat="45.8239044" lon="8.8354083"><ele>383.4</ele><time>2026-03-28T13:34:31.454Z</time></trkpt><trkpt lat="45.8239929" lon="8.8354046"><ele>383.2</ele><time>2026-03-28T13:34:32.455Z</time></trkpt><trkpt lat="45.8240769" lon="8.8353956"><ele>383.0</ele><time>2026-03-28T13:34:33.455Z</time></trkpt><trkpt lat="45.8241719" lon="8.8353865"><ele>383.0</ele><time>2026-03-28T13:34:34.454Z</time></trkpt><trkpt lat="45.8242599" lon="8.8353717"><ele>383.0</ele><time>2026-03-28T13:34:35.454Z</time></trkpt><trkpt lat="45.8243519" lon="8.8353609"><ele>383.0</ele><time>2026-03-28T13:34:36.455Z</time></trkpt><trkpt lat="45.8244481" lon="8.8353598"><ele>383.0</ele><time>2026-03-28T13:34:37.455Z</time></trkpt><trkpt lat="45.8245463" lon="8.8353468"><ele>383.0</ele><time>2026-03-28T13:34:38.454Z</time></trkpt><trkpt lat="45.8246473" lon="8.8353348"><ele>383.2</ele><time>2026-03-28T13:34:39.454Z</time></trkpt><trkpt lat="45.8247521" lon="8.8353256"><ele>383.4</ele><time>2026-03-28T13:34:40.455Z</time></trkpt><trkpt lat="45.8248604" lon="8.8353126"><ele>383.59999999999997</ele><time>2026-03-28T13:34:41.454Z</time></trkpt><trkpt lat="45.8249664" lon="8.8352935"><ele>383.79999999999995</ele><time>2026-03-28T13:34:42.454Z</time></trkpt><trkpt lat="45.8250724" lon="8.8352891"><ele>384.0</ele><time>2026-03-28T13:34:43.454Z</time></trkpt><trkpt lat="45.8251773" lon="8.8352817"><ele>383.6</ele><time>2026-03-28T13:34:44.454Z</time></trkpt><trkpt lat="45.8252771" lon="8.8352859"><ele>383.2</ele><time>2026-03-28T13:34:45.455Z</time></trkpt><trkpt lat="45.825378" lon="8.8352847"><ele>382.8</ele><time>2026-03-28T13:34:46.454Z</time></trkpt><trkpt lat="45.8254789" lon="8.8352823"><ele>382.40000000000003</ele><time>2026-03-28T13:34:47.454Z</time></trkpt><trkpt lat="45.8255853" lon="8.8352802"><ele>382.0</ele><time>2026-03-28T13:34:48.454Z</time></trkpt><trkpt lat="45.8256942" lon="8.8352804"><ele>382.0</ele><time>2026-03-28T13:34:49.454Z</time></trkpt><trkpt lat="45.8258093" lon="8.83528"><ele>382.0</ele><time>2026-03-28T13:34:50.455Z</time></trkpt><trkpt lat="45.8259273" lon="8.8352805"><ele>382.0</ele><time>2026-03-28T13:34:51.454Z</time></trkpt><trkpt lat="45.8260486" lon="8.8352647"><ele>382.0</ele><time>2026-03-28T13:34:52.455Z</time></trkpt><trkpt lat="45.8261571" lon="8.8352622"><ele>382.20000000000005</ele><time>2026-03-28T13:34:53.454Z</time></trkpt><trkpt lat="45.8262629" lon="8.8352462"><ele>382.4</ele><time>2026-03-28T13:34:54.455Z</time></trkpt><trkpt lat="45.8263683" lon="8.8352345"><ele>382.6</ele><time>2026-03-28T13:34:55.454Z</time></trkpt><trkpt lat="45.8264798" lon="8.8352131"><ele>382.79999999999995</ele><time>2026-03-28T13:34:56.454Z</time></trkpt><trkpt lat="45.8265878" lon="8.8351978"><ele>383.0</ele><time>2026-03-28T13:34:57.455Z</time></trkpt><trkpt lat="45.8266981" lon="8.8351852"><ele>383.0</ele><time>2026-03-28T13:34:58.455Z</time></trkpt><trkpt lat="45.8267994" lon="8.8351713"><ele>383.0</ele><time>2026-03-28T13:34:59.454Z</time></trkpt><trkpt lat="45.8269005" lon="8.8351637"><ele>383.0</ele><time>2026-03-28T13:35:00.455Z</time></trkpt><trkpt lat="45.8270016" lon="8.8351543"><ele>383.0</ele><time>2026-03-28T13:35:01.454Z</time></trkpt><trkpt lat="45.827104" lon="8.8351417"><ele>383.0</ele><time>2026-03-28T13:35:02.455Z</time></trkpt><trkpt lat="45.8272064" lon="8.8351259"><ele>384.0</ele><time>2026-03-28T13:35:03.454Z</time></trkpt><trkpt lat="45.8273113" lon="8.8351163"><ele>385.0</ele><time>2026-03-28T13:35:04.454Z</time></trkpt><trkpt lat="45.827417" lon="8.8351141"><ele>386.0</ele><time>2026-03-28T13:35:05.455Z</time></trkpt><trkpt lat="45.8275269" lon="8.8351252"><ele>387.0</ele><time>2026-03-28T13:35:06.454Z</time></trkpt><trkpt lat="45.8276285" lon="8.8351251"><ele>388.0</ele><time>2026-03-28T13:35:07.455Z</time></trkpt><trkpt lat="45.8277307" lon="8.835125"><ele>388.2</ele><time>2026-03-28T13:35:08.455Z</time></trkpt><trkpt lat="45.8278329" lon="8.8351204"><ele>388.4</ele><time>2026-03-28T13:35:09.454Z</time></trkpt><trkpt lat="45.8279342" lon="8.835108"><ele>388.59999999999997</ele><time>2026-03-28T13:35:10.455Z</time></trkpt><trkpt lat="45.8280387" lon="8.8350953"><ele>388.79999999999995</ele><time>2026-03-28T13:35:11.454Z</time></trkpt><trkpt lat="45.8281468" lon="8.8350734"><ele>389.0</ele><time>2026-03-28T13:35:12.454Z</time></trkpt><trkpt lat="45.8282536" lon="8.8350502"><ele>389.0</ele><time>2026-03-28T13:35:13.455Z</time></trkpt><trkpt lat="45.8283658" lon="8.8350338"><ele>389.0</ele><time>2026-03-28T13:35:14.455Z</time></trkpt><trkpt lat="45.8284735" lon="8.835023"><ele>389.0</ele><time>2026-03-28T13:35:15.454Z</time></trkpt><trkpt lat="45.8285738" lon="8.8350159"><ele>389.0</ele><time>2026-03-28T13:35:16.455Z</time></trkpt><trkpt lat="45.8286775" lon="8.8350052"><ele>389.0</ele><time>2026-03-28T13:35:17.455Z</time></trkpt><trkpt lat="45.8287825" lon="8.8349917"><ele>389.0</ele><time>2026-03-28T13:35:18.454Z</time></trkpt><trkpt lat="45.8288862" lon="8.8349723"><ele>389.0</ele><time>2026-03-28T13:35:19.455Z</time></trkpt><trkpt lat="45.8289894" lon="8.8349518"><ele>389.0</ele><time>2026-03-28T13:35:20.455Z</time></trkpt><trkpt lat="45.8290908" lon="8.8349352"><ele>389.0</ele><time>2026-03-28T13:35:21.454Z</time></trkpt><trkpt lat="45.8291935" lon="8.834925"><ele>389.0</ele><time>2026-03-28T13:35:22.455Z</time></trkpt><trkpt lat="45.8292991" lon="8.8349102"><ele>389.2</ele><time>2026-03-28T13:35:23.455Z</time></trkpt><trkpt lat="45.8294054" lon="8.8348899"><ele>389.4</ele><time>2026-03-28T13:35:24.454Z</time></trkpt><trkpt lat="45.8295055" lon="8.8348827"><ele>389.6</ele><time>2026-03-28T13:35:25.454Z</time></trkpt><trkpt lat="45.8296093" lon="8.8348705"><ele>389.8</ele><time>2026-03-28T13:35:26.455Z</time></trkpt><trkpt lat="45.8297108" lon="8.8348569"><ele>390.0</ele><time>2026-03-28T13:35:27.455Z</time></trkpt><trkpt lat="45.8298165" lon="8.8348379"><ele>390.0</ele><time>2026-03-28T13:35:28.454Z</time></trkpt><trkpt lat="45.8299156" lon="8.8348291"><ele>390.0</ele><time>2026-03-28T13:35:29.455Z</time></trkpt><trkpt lat="45.8300127" lon="8.8348116"><ele>390.0</ele><time>2026-03-28T13:35:30.455Z</time></trkpt><trkpt lat="45.8301001" lon="8.8348038"><ele>390.0</ele><time>2026-03-28T13:35:31.454Z</time></trkpt><trkpt lat="45.8301853" lon="8.8347869"><ele>390.0</ele><time>2026-03-28T13:35:32.455Z</time></trkpt><trkpt lat="45.8302635" lon="8.8347796"><ele>390.0</ele><time>2026-03-28T13:35:33.455Z</time></trkpt><trkpt lat="45.8303305" lon="8.8347737"><ele>390.0</ele><time>2026-03-28T13:35:34.454Z</time></trkpt><trkpt lat="45.8304313" lon="8.8347736"><ele>390.0</ele><time>2026-03-28T13:35:36.455Z</time></trkpt><trkpt lat="45.8304999" lon="8.8347829"><ele>390.0</ele><time>2026-03-28T13:35:40.454Z</time></trkpt><trkpt lat="45.8305574" lon="8.8348232"><ele>390.0</ele><time>2026-03-28T13:35:42.455Z</time></trkpt><trkpt lat="45.8306626" lon="8.8348109"><ele>390.0</ele><time>2026-03-28T13:35:44.455Z</time></trkpt><trkpt lat="45.830691" lon="8.834666"><ele>390.0</ele><time>2026-03-28T13:35:46.454Z</time></trkpt><trkpt lat="45.8306648" lon="8.8345785"><ele>390.0</ele><time>2026-03-28T13:35:47.455Z</time></trkpt><trkpt lat="45.8306421" lon="8.8344743"><ele>390.0</ele><time>2026-03-28T13:35:48.454Z</time></trkpt><trkpt lat="45.830632" lon="8.8343585"><ele>390.0</ele><time>2026-03-28T13:35:49.454Z</time></trkpt><trkpt lat="45.8306254" lon="8.8342355"><ele>390.0</ele><time>2026-03-28T13:35:50.455Z</time></trkpt><trkpt lat="45.8306182" lon="8.8340952"><ele>390.0</ele><time>2026-03-28T13:35:51.455Z</time></trkpt><trkpt lat="45.8306099" lon="8.8339499"><ele>390.0</ele><time>2026-03-28T13:35:52.454Z</time></trkpt><trkpt lat="45.8306032" lon="8.8338015"><ele>390.0</ele><time>2026-03-28T13:35:53.455Z</time></trkpt><trkpt lat="45.8306085" lon="8.8336502"><ele>390.0</ele><time>2026-03-28T13:35:54.455Z</time></trkpt><trkpt lat="45.8306046" lon="8.8334916"><ele>390.0</ele><time>2026-03-28T13:35:55.454Z</time></trkpt><trkpt lat="45.8305954" lon="8.8333333"><ele>390.0</ele><time>2026-03-28T13:35:56.454Z</time></trkpt><trkpt lat="45.8305917" lon="8.8331617"><ele>390.0</ele><time>2026-03-28T13:35:57.455Z</time></trkpt><trkpt lat="45.8305864" lon="8.8329911"><ele>390.2</ele><time>2026-03-28T13:35:58.454Z</time></trkpt><trkpt lat="45.8305791" lon="8.8328216"><ele>390.4</ele><time>2026-03-28T13:35:59.455Z</time></trkpt><trkpt lat="45.8305731" lon="8.8326567"><ele>390.6</ele><time>2026-03-28T13:36:00.455Z</time></trkpt><trkpt lat="45.8305669" lon="8.8325179"><ele>390.8</ele><time>2026-03-28T13:36:01.455Z</time></trkpt><trkpt lat="45.8305586" lon="8.8323931"><ele>391.0</ele><time>2026-03-28T13:36:02.455Z</time></trkpt><trkpt lat="45.8305504" lon="8.8322863"><ele>391.20000000000005</ele><time>2026-03-28T13:36:03.455Z</time></trkpt><trkpt lat="45.8305488" lon="8.832166"><ele>391.40000000000003</ele><time>2026-03-28T13:36:04.454Z</time></trkpt><trkpt lat="45.8305434" lon="8.8320438"><ele>391.6</ele><time>2026-03-28T13:36:05.454Z</time></trkpt><trkpt lat="45.8305349" lon="8.8319161"><ele>391.8</ele><time>2026-03-28T13:36:06.455Z</time></trkpt><trkpt lat="45.8305279" lon="8.8317795"><ele>392.0</ele><time>2026-03-28T13:36:07.455Z</time></trkpt><trkpt lat="45.8305191" lon="8.8316297"><ele>392.25</ele><time>2026-03-28T13:36:08.454Z</time></trkpt><trkpt lat="45.830517" lon="8.8314656"><ele>392.5</ele><time>2026-03-28T13:36:09.455Z</time></trkpt><trkpt lat="45.8305152" lon="8.8313001"><ele>392.75</ele><time>2026-03-28T13:36:10.454Z</time></trkpt><trkpt lat="45.8305089" lon="8.8311305"><ele>393.0</ele><time>2026-03-28T13:36:11.454Z</time></trkpt><trkpt lat="45.8305076" lon="8.8309573"><ele>393.5</ele><time>2026-03-28T13:36:12.455Z</time></trkpt><trkpt lat="45.830502" lon="8.830782"><ele>394.0</ele><time>2026-03-28T13:36:13.454Z</time></trkpt><trkpt lat="45.8304944" lon="8.8305998"><ele>394.5</ele><time>2026-03-28T13:36:14.455Z</time></trkpt><trkpt lat="45.830487" lon="8.8304119"><ele>395.0</ele><time>2026-03-28T13:36:15.454Z</time></trkpt><trkpt lat="45.8304796" lon="8.8302259"><ele>395.5</ele><time>2026-03-28T13:36:16.455Z</time></trkpt><trkpt lat="45.8304723" lon="8.8300341"><ele>396.0</ele><time>2026-03-28T13:36:17.454Z</time></trkpt><trkpt lat="45.8304688" lon="8.8298412"><ele>396.5</ele><time>2026-03-28T13:36:18.455Z</time></trkpt><trkpt lat="45.8304614" lon="8.8296481"><ele>397.0</ele><time>2026-03-28T13:36:19.455Z</time></trkpt><trkpt lat="45.8304545" lon="8.8294541"><ele>397.25</ele><time>2026-03-28T13:36:20.455Z</time></trkpt><trkpt lat="45.8304463" lon="8.8292606"><ele>397.5</ele><time>2026-03-28T13:36:21.454Z</time></trkpt><trkpt lat="45.8304378" lon="8.8290749"><ele>397.75</ele><time>2026-03-28T13:36:22.455Z</time></trkpt><trkpt lat="45.8304299" lon="8.8288755"><ele>398.0</ele><time>2026-03-28T13:36:23.454Z</time></trkpt><trkpt lat="45.8304192" lon="8.8286778"><ele>398.0</ele><time>2026-03-28T13:36:24.454Z</time></trkpt><trkpt lat="45.8304097" lon="8.8284797"><ele>398.0</ele><time>2026-03-28T13:36:25.455Z</time></trkpt><trkpt lat="45.8304019" lon="8.8282751"><ele>398.0</ele><time>2026-03-28T13:36:26.454Z</time></trkpt><trkpt lat="45.8303945" lon="8.8280697"><ele>398.0</ele><time>2026-03-28T13:36:27.455Z</time></trkpt><trkpt lat="45.8303913" lon="8.827856"><ele>398.75</ele><time>2026-03-28T13:36:28.454Z</time></trkpt><trkpt lat="45.8303848" lon="8.8276526"><ele>399.5</ele><time>2026-03-28T13:36:29.455Z</time></trkpt><trkpt lat="45.8303759" lon="8.8274454"><ele>400.25</ele><time>2026-03-28T13:36:30.455Z</time></trkpt><trkpt lat="45.8303652" lon="8.8272396"><ele>401.0</ele><time>2026-03-28T13:36:31.454Z</time></trkpt><trkpt lat="45.8303589" lon="8.827038"><ele>401.0</ele><time>2026-03-28T13:36:32.455Z</time></trkpt><trkpt lat="45.8303499" lon="8.8268453"><ele>401.0</ele><time>2026-03-28T13:36:33.455Z</time></trkpt><trkpt lat="45.8303414" lon="8.8266411"><ele>401.0</ele><time>2026-03-28T13:36:34.454Z</time></trkpt><trkpt lat="45.8303353" lon="8.826455"><ele>401.0</ele><time>2026-03-28T13:36:35.455Z</time></trkpt><trkpt lat="45.8303274" lon="8.826278"><ele>401.25</ele><time>2026-03-28T13:36:36.454Z</time></trkpt><trkpt lat="45.8303202" lon="8.8261096"><ele>401.5</ele><time>2026-03-28T13:36:37.455Z</time></trkpt><trkpt lat="45.8303109" lon="8.8259432"><ele>401.75</ele><time>2026-03-28T13:36:38.454Z</time></trkpt><trkpt lat="45.8303033" lon="8.8257824"><ele>402.0</ele><time>2026-03-28T13:36:39.455Z</time></trkpt><trkpt lat="45.8302908" lon="8.8256207"><ele>402.0</ele><time>2026-03-28T13:36:40.455Z</time></trkpt><trkpt lat="45.8302841" lon="8.8254611"><ele>402.0</ele><time>2026-03-28T13:36:41.454Z</time></trkpt><trkpt lat="45.8302708" lon="8.8253148"><ele>402.0</ele><time>2026-03-28T13:36:42.455Z</time></trkpt><trkpt lat="45.8302416" lon="8.825186"><ele>402.0</ele><time>2026-03-28T13:36:43.455Z</time></trkpt><trkpt lat="45.830193" lon="8.8250686"><ele>402.0</ele><time>2026-03-28T13:36:44.454Z</time></trkpt><trkpt lat="45.8301311" lon="8.8249615"><ele>402.8333333333333</ele><time>2026-03-28T13:36:45.454Z</time></trkpt><trkpt lat="45.830068" lon="8.8248611"><ele>403.66666666666663</ele><time>2026-03-28T13:36:46.455Z</time></trkpt><trkpt lat="45.8300094" lon="8.8247701"><ele>404.5</ele><time>2026-03-28T13:36:47.455Z</time></trkpt><trkpt lat="45.829958" lon="8.8246823"><ele>405.3333333333333</ele><time>2026-03-28T13:36:48.454Z</time></trkpt><trkpt lat="45.8299117" lon="8.824607"><ele>406.16666666666663</ele><time>2026-03-28T13:36:49.454Z</time></trkpt><trkpt lat="45.8298444" lon="8.8244856"><ele>407.0</ele><time>2026-03-28T13:36:51.453Z</time></trkpt><trkpt lat="45.8297927" lon="8.824404"><ele>406.99999999999994</ele><time>2026-03-28T13:36:53.454Z</time></trkpt><trkpt lat="45.8297465" lon="8.8243344"><ele>407.0</ele><time>2026-03-28T13:36:55.455Z</time></trkpt><trkpt lat="45.829701" lon="8.8242609"><ele>407.0</ele><time>2026-03-28T13:36:58.454Z</time></trkpt><trkpt lat="45.829639" lon="8.8241853"><ele>407.0</ele><time>2026-03-28T13:37:02.454Z</time></trkpt><trkpt lat="45.829589" lon="8.824099"><ele>406.99999999999994</ele><time>2026-03-28T13:37:06.455Z</time></trkpt><trkpt lat="45.8295189" lon="8.8239781"><ele>407.0</ele><time>2026-03-28T13:37:42.454Z</time></trkpt><trkpt lat="45.8294471" lon="8.8238481"><ele>406.99999999999994</ele><time>2026-03-28T13:37:44.454Z</time></trkpt><trkpt lat="45.8293935" lon="8.8237556"><ele>407.0</ele><time>2026-03-28T13:37:46.454Z</time></trkpt><trkpt lat="45.8294278" lon="8.8236586"><ele>407.0</ele><time>2026-03-28T13:37:48.455Z</time></trkpt><trkpt lat="45.8295362" lon="8.8236201"><ele>407.0</ele><time>2026-03-28T13:37:50.454Z</time></trkpt><trkpt lat="45.8295982" lon="8.8236011"><ele>406.99999999999994</ele><time>2026-03-28T13:37:51.455Z</time></trkpt><trkpt lat="45.8296713" lon="8.8235831"><ele>407.0</ele><time>2026-03-28T13:37:52.454Z</time></trkpt><trkpt lat="45.829747" lon="8.8235577"><ele>407.0</ele><time>2026-03-28T13:37:53.454Z</time></trkpt><trkpt lat="45.829831" lon="8.8235378"><ele>407.0</ele><time>2026-03-28T13:37:54.455Z</time></trkpt><trkpt lat="45.8299275" lon="8.8235075"><ele>407.0</ele><time>2026-03-28T13:37:55.454Z</time></trkpt><trkpt lat="45.8300265" lon="8.8234841"><ele>407.0</ele><time>2026-03-28T13:37:56.454Z</time></trkpt><trkpt lat="45.8301203" lon="8.8234619"><ele>407.0</ele><time>2026-03-28T13:37:57.455Z</time></trkpt><trkpt lat="45.8302168" lon="8.8234379"><ele>408.0</ele><time>2026-03-28T13:37:58.453Z</time></trkpt><trkpt lat="45.8303141" lon="8.8234111"><ele>409.0</ele><time>2026-03-28T13:37:59.454Z</time></trkpt><trkpt lat="45.8304115" lon="8.8233896"><ele>410.0</ele><time>2026-03-28T13:38:00.454Z</time></trkpt><trkpt lat="45.83051" lon="8.823369"><ele>411.0</ele><time>2026-03-28T13:38:01.453Z</time></trkpt><trkpt lat="45.8306091" lon="8.8233509"><ele>412.0</ele><time>2026-03-28T13:38:02.454Z</time></trkpt><trkpt lat="45.8307158" lon="8.8233286"><ele>412.0</ele><time>2026-03-28T13:38:03.454Z</time></trkpt><trkpt lat="45.8308323" lon="8.8232986"><ele>412.0</ele><time>2026-03-28T13:38:04.453Z</time></trkpt><trkpt lat="45.8309464" lon="8.8232656"><ele>412.0</ele><time>2026-03-28T13:38:05.454Z</time></trkpt><trkpt lat="45.8310695" lon="8.823232"><ele>412.0</ele><time>2026-03-28T13:38:06.454Z</time></trkpt><trkpt lat="45.8311899" lon="8.8231867"><ele>412.25</ele><time>2026-03-28T13:38:07.453Z</time></trkpt><trkpt lat="45.8312988" lon="8.8231285"><ele>412.5</ele><time>2026-03-28T13:38:08.453Z</time></trkpt><trkpt lat="45.8314097" lon="8.8230609"><ele>412.75</ele><time>2026-03-28T13:38:09.454Z</time></trkpt><trkpt lat="45.8315143" lon="8.8229792"><ele>413.0</ele><time>2026-03-28T13:38:10.453Z</time></trkpt><trkpt lat="45.8316084" lon="8.8228824"><ele>413.0</ele><time>2026-03-28T13:38:11.453Z</time></trkpt><trkpt lat="45.8317026" lon="8.8227812"><ele>413.0</ele><time>2026-03-28T13:38:12.453Z</time></trkpt><trkpt lat="45.8317996" lon="8.8226827"><ele>413.0</ele><time>2026-03-28T13:38:13.453Z</time></trkpt><trkpt lat="45.8318873" lon="8.8225763"><ele>413.0</ele><time>2026-03-28T13:38:14.454Z</time></trkpt><trkpt lat="45.8319843" lon="8.8224725"><ele>412.79999999999995</ele><time>2026-03-28T13:38:15.454Z</time></trkpt><trkpt lat="45.8320785" lon="8.8223678"><ele>412.6</ele><time>2026-03-28T13:38:16.453Z</time></trkpt><trkpt lat="45.832162" lon="8.8222653"><ele>412.4</ele><time>2026-03-28T13:38:17.454Z</time></trkpt><trkpt lat="45.8322463" lon="8.8221701"><ele>412.20000000000005</ele><time>2026-03-28T13:38:18.453Z</time></trkpt><trkpt lat="45.8323288" lon="8.8220757"><ele>412.0</ele><time>2026-03-28T13:38:19.453Z</time></trkpt><trkpt lat="45.8324118" lon="8.8219799"><ele>412.0</ele><time>2026-03-28T13:38:20.453Z</time></trkpt><trkpt lat="45.8324928" lon="8.8218857"><ele>412.0</ele><time>2026-03-28T13:38:21.454Z</time></trkpt><trkpt lat="45.8325701" lon="8.8217905"><ele>412.0</ele><time>2026-03-28T13:38:22.454Z</time></trkpt><trkpt lat="45.8326519" lon="8.8216924"><ele>412.0</ele><time>2026-03-28T13:38:23.453Z</time></trkpt><trkpt lat="45.8327268" lon="8.8216015"><ele>412.0</ele><time>2026-03-28T13:38:24.453Z</time></trkpt><trkpt lat="45.8328086" lon="8.8215031"><ele>412.20000000000005</ele><time>2026-03-28T13:38:25.454Z</time></trkpt><trkpt lat="45.8328927" lon="8.8214144"><ele>412.4</ele><time>2026-03-28T13:38:26.453Z</time></trkpt><trkpt lat="45.8329762" lon="8.8213084"><ele>412.6</ele><time>2026-03-28T13:38:27.453Z</time></trkpt><trkpt lat="45.8330504" lon="8.821213"><ele>412.79999999999995</ele><time>2026-03-28T13:38:28.454Z</time></trkpt><trkpt lat="45.8331223" lon="8.8211303"><ele>413.0</ele><time>2026-03-28T13:38:29.453Z</time></trkpt><trkpt lat="45.8332007" lon="8.8210346"><ele>412.79999999999995</ele><time>2026-03-28T13:38:30.453Z</time></trkpt><trkpt lat="45.8332793" lon="8.8209414"><ele>412.6</ele><time>2026-03-28T13:38:31.454Z</time></trkpt><trkpt lat="45.8333622" lon="8.8208431"><ele>412.4</ele><time>2026-03-28T13:38:32.453Z</time></trkpt><trkpt lat="45.8334456" lon="8.8207457"><ele>412.20000000000005</ele><time>2026-03-28T13:38:33.453Z</time></trkpt><trkpt lat="45.833528" lon="8.8206471"><ele>412.0</ele><time>2026-03-28T13:38:34.453Z</time></trkpt><trkpt lat="45.8336089" lon="8.8205512"><ele>412.0</ele><time>2026-03-28T13:38:35.453Z</time></trkpt><trkpt lat="45.8336899" lon="8.8204593"><ele>412.0</ele><time>2026-03-28T13:38:36.454Z</time></trkpt><trkpt lat="45.8337678" lon="8.8203668"><ele>412.0</ele><time>2026-03-28T13:38:37.453Z</time></trkpt><trkpt lat="45.833843" lon="8.820272"><ele>412.0</ele><time>2026-03-28T13:38:38.454Z</time></trkpt><trkpt lat="45.8339205" lon="8.820183"><ele>412.0</ele><time>2026-03-28T13:38:39.454Z</time></trkpt><trkpt lat="45.8339973" lon="8.8200893"><ele>412.6666666666667</ele><time>2026-03-28T13:38:40.453Z</time></trkpt><trkpt lat="45.8340714" lon="8.8199971"><ele>413.33333333333337</ele><time>2026-03-28T13:38:41.453Z</time></trkpt><trkpt lat="45.8341449" lon="8.8199114"><ele>414.0</ele><time>2026-03-28T13:38:42.453Z</time></trkpt><trkpt lat="45.8342107" lon="8.8198325"><ele>414.66666666666663</ele><time>2026-03-28T13:38:43.453Z</time></trkpt><trkpt lat="45.8342683" lon="8.8197646"><ele>415.3333333333333</ele><time>2026-03-28T13:38:44.454Z</time></trkpt><trkpt lat="45.8343166" lon="8.8197023"><ele>416.0</ele><time>2026-03-28T13:38:45.453Z</time></trkpt><trkpt lat="45.8343939" lon="8.819621"><ele>416.0</ele><time>2026-03-28T13:38:47.454Z</time></trkpt><trkpt lat="45.8344407" lon="8.8195604"><ele>416.0</ele><time>2026-03-28T13:38:49.453Z</time></trkpt><trkpt lat="45.8344962" lon="8.8194962"><ele>416.0</ele><time>2026-03-28T13:38:53.453Z</time></trkpt><trkpt lat="45.8345709" lon="8.8193967"><ele>416.0</ele><time>2026-03-28T13:39:01.453Z</time></trkpt><trkpt lat="45.8346606" lon="8.8192835"><ele>416.0</ele><time>2026-03-28T13:39:03.454Z</time></trkpt><trkpt lat="45.8347632" lon="8.8191702"><ele>416.49999999999994</ele><time>2026-03-28T13:39:05.453Z</time></trkpt><trkpt lat="45.8348159" lon="8.8191029"><ele>417.0</ele><time>2026-03-28T13:39:06.453Z</time></trkpt><trkpt lat="45.8348733" lon="8.8190401"><ele>417.5</ele><time>2026-03-28T13:39:07.453Z</time></trkpt><trkpt lat="45.8349271" lon="8.8189731"><ele>418.0</ele><time>2026-03-28T13:39:08.453Z</time></trkpt><trkpt lat="45.8349839" lon="8.8189111"><ele>418.49999999999994</ele><time>2026-03-28T13:39:09.453Z</time></trkpt><trkpt lat="45.8350333" lon="8.8188533"><ele>419.0</ele><time>2026-03-28T13:39:10.453Z</time></trkpt><trkpt lat="45.835124" lon="8.8187539"><ele>418.99999999999994</ele><time>2026-03-28T13:39:12.454Z</time></trkpt><trkpt lat="45.8351992" lon="8.8186679"><ele>419.0</ele><time>2026-03-28T13:39:14.453Z</time></trkpt><trkpt lat="45.8352635" lon="8.8185845"><ele>419.0</ele><time>2026-03-28T13:39:16.454Z</time></trkpt><trkpt lat="45.8353225" lon="8.8185177"><ele>419.0</ele><time>2026-03-28T13:39:18.454Z</time></trkpt><trkpt lat="45.8353741" lon="8.8184614"><ele>418.99999999999994</ele><time>2026-03-28T13:39:20.454Z</time></trkpt><trkpt lat="45.8354269" lon="8.8183999"><ele>419.0</ele><time>2026-03-28T13:39:22.454Z</time></trkpt><trkpt lat="45.8354961" lon="8.8183249"><ele>419.3333333333333</ele><time>2026-03-28T13:39:24.453Z</time></trkpt><trkpt lat="45.8355754" lon="8.818229"><ele>419.66666666666663</ele><time>2026-03-28T13:39:26.453Z</time></trkpt><trkpt lat="45.8356586" lon="8.8181293"><ele>420.0</ele><time>2026-03-28T13:39:28.454Z</time></trkpt><trkpt lat="45.8357141" lon="8.8180675"><ele>420.33333333333337</ele><time>2026-03-28T13:39:29.454Z</time></trkpt><trkpt lat="45.83577" lon="8.8179904"><ele>420.6666666666667</ele><time>2026-03-28T13:39:30.454Z</time></trkpt><trkpt lat="45.8358363" lon="8.8179125"><ele>421.0</ele><time>2026-03-28T13:39:31.453Z</time></trkpt><trkpt lat="45.835906" lon="8.8178372"><ele>421.0</ele><time>2026-03-28T13:39:32.454Z</time></trkpt><trkpt lat="45.8359751" lon="8.8177536"><ele>421.0</ele><time>2026-03-28T13:39:33.453Z</time></trkpt><trkpt lat="45.8360485" lon="8.8176649"><ele>421.0</ele><time>2026-03-28T13:39:34.453Z</time></trkpt><trkpt lat="45.8361225" lon="8.8175874"><ele>421.0</ele><time>2026-03-28T13:39:35.453Z</time></trkpt><trkpt lat="45.8361888" lon="8.8175099"><ele>421.0</ele><time>2026-03-28T13:39:36.453Z</time></trkpt><trkpt lat="45.8362596" lon="8.8174262"><ele>421.0</ele><time>2026-03-28T13:39:37.453Z</time></trkpt><trkpt lat="45.8363303" lon="8.8173438"><ele>421.0</ele><time>2026-03-28T13:39:38.454Z</time></trkpt><trkpt lat="45.8364023" lon="8.8172571"><ele>421.0</ele><time>2026-03-28T13:39:39.453Z</time></trkpt><trkpt lat="45.8364735" lon="8.8171697"><ele>421.0</ele><time>2026-03-28T13:39:40.453Z</time></trkpt><trkpt lat="45.8365332" lon="8.8170903"><ele>421.0</ele><time>2026-03-28T13:39:41.454Z</time></trkpt><trkpt lat="45.8366129" lon="8.8169927"><ele>421.00000000000006</ele><time>2026-03-28T13:39:43.453Z</time></trkpt><trkpt lat="45.8366711" lon="8.8169332"><ele>421.0</ele><time>2026-03-28T13:39:47.454Z</time></trkpt><trkpt lat="45.8367236" lon="8.8168689"><ele>421.0</ele><time>2026-03-28T13:39:49.454Z</time></trkpt><trkpt lat="45.8368263" lon="8.8167643"><ele>421.0</ele><time>2026-03-28T13:39:51.454Z</time></trkpt><trkpt lat="45.8368895" lon="8.8166964"><ele>421.00000000000006</ele><time>2026-03-28T13:39:52.454Z</time></trkpt><trkpt lat="45.8369608" lon="8.8166203"><ele>421.0</ele><time>2026-03-28T13:39:53.453Z</time></trkpt><trkpt lat="45.8370297" lon="8.8165309"><ele>421.0</ele><time>2026-03-28T13:39:54.453Z</time></trkpt><trkpt lat="45.8371029" lon="8.8164415"><ele>421.0</ele><time>2026-03-28T13:39:55.454Z</time></trkpt><trkpt lat="45.8371724" lon="8.8163665"><ele>421.0</ele><time>2026-03-28T13:39:56.454Z</time></trkpt><trkpt lat="45.8372496" lon="8.8162989"><ele>421.0</ele><time>2026-03-28T13:39:57.453Z</time></trkpt><trkpt lat="45.8373264" lon="8.8162074"><ele>421.0</ele><time>2026-03-28T13:39:58.453Z</time></trkpt><trkpt lat="45.8374061" lon="8.8161093"><ele>421.0</ele><time>2026-03-28T13:39:59.453Z</time></trkpt><trkpt lat="45.8374921" lon="8.8160004"><ele>421.0</ele><time>2026-03-28T13:40:00.454Z</time></trkpt><trkpt lat="45.8375803" lon="8.8158886"><ele>421.0</ele><time>2026-03-28T13:40:01.453Z</time></trkpt><trkpt lat="45.8376696" lon="8.8157787"><ele>421.0</ele><time>2026-03-28T13:40:02.453Z</time></trkpt><trkpt lat="45.8377642" lon="8.8156657"><ele>421.5</ele><time>2026-03-28T13:40:03.453Z</time></trkpt><trkpt lat="45.8378592" lon="8.8155551"><ele>422.0</ele><time>2026-03-28T13:40:04.453Z</time></trkpt><trkpt lat="45.8379542" lon="8.815447"><ele>422.5</ele><time>2026-03-28T13:40:05.454Z</time></trkpt><trkpt lat="45.8380488" lon="8.8153327"><ele>423.0</ele><time>2026-03-28T13:40:06.454Z</time></trkpt><trkpt lat="45.8381426" lon="8.815223"><ele>423.0</ele><time>2026-03-28T13:40:07.453Z</time></trkpt><trkpt lat="45.8382267" lon="8.8151166"><ele>423.0</ele><time>2026-03-28T13:40:08.454Z</time></trkpt><trkpt lat="45.8383085" lon="8.8150198"><ele>423.0</ele><time>2026-03-28T13:40:09.454Z</time></trkpt><trkpt lat="45.8383865" lon="8.8149305"><ele>423.0</ele><time>2026-03-28T13:40:10.453Z</time></trkpt><trkpt lat="45.8384662" lon="8.8148328"><ele>423.0</ele><time>2026-03-28T13:40:11.453Z</time></trkpt><trkpt lat="45.83854" lon="8.814733"><ele>426.4</ele><time>2026-03-28T13:40:12.454Z</time></trkpt><trkpt lat="45.8386073" lon="8.8146188"><ele>429.79999999999995</ele><time>2026-03-28T13:40:13.454Z</time></trkpt><trkpt lat="45.83867" lon="8.8144957"><ele>433.2</ele><time>2026-03-28T13:40:14.453Z</time></trkpt><trkpt lat="45.8387234" lon="8.8143646"><ele>436.6</ele><time>2026-03-28T13:40:15.454Z</time></trkpt><trkpt lat="45.8387575" lon="8.8142074"><ele>440.0</ele><time>2026-03-28T13:40:16.454Z</time></trkpt><trkpt lat="45.8387814" lon="8.8140505"><ele>441.5</ele><time>2026-03-28T13:40:17.453Z</time></trkpt><trkpt lat="45.8388026" lon="8.8138735"><ele>443.0</ele><time>2026-03-28T13:40:18.454Z</time></trkpt><trkpt lat="45.8388223" lon="8.8136916"><ele>444.5</ele><time>2026-03-28T13:40:19.454Z</time></trkpt><trkpt lat="45.8388393" lon="8.8135004"><ele>446.0</ele><time>2026-03-28T13:40:20.454Z</time></trkpt><trkpt lat="45.8388582" lon="8.8133125"><ele>447.5</ele><time>2026-03-28T13:40:21.453Z</time></trkpt><trkpt lat="45.8388712" lon="8.8131181"><ele>449.0</ele><time>2026-03-28T13:40:22.454Z</time></trkpt><trkpt lat="45.8388853" lon="8.8129239"><ele>450.5</ele><time>2026-03-28T13:40:23.454Z</time></trkpt><trkpt lat="45.8389065" lon="8.8127348"><ele>452.0</ele><time>2026-03-28T13:40:24.454Z</time></trkpt><trkpt lat="45.8389305" lon="8.8125469"><ele>452.0</ele><time>2026-03-28T13:40:25.454Z</time></trkpt><trkpt lat="45.838954" lon="8.8123537"><ele>452.0</ele><time>2026-03-28T13:40:26.454Z</time></trkpt><trkpt lat="45.8389698" lon="8.8121737"><ele>452.0</ele><time>2026-03-28T13:40:27.453Z</time></trkpt><trkpt lat="45.8389829" lon="8.8120078"><ele>452.0</ele><time>2026-03-28T13:40:28.453Z</time></trkpt><trkpt lat="45.8389979" lon="8.8118426"><ele>451.8</ele><time>2026-03-28T13:40:29.454Z</time></trkpt><trkpt lat="45.8390145" lon="8.8116685"><ele>451.6</ele><time>2026-03-28T13:40:30.453Z</time></trkpt><trkpt lat="45.8390301" lon="8.8115005"><ele>451.40000000000003</ele><time>2026-03-28T13:40:31.454Z</time></trkpt><trkpt lat="45.839047" lon="8.8113533"><ele>451.20000000000005</ele><time>2026-03-28T13:40:32.454Z</time></trkpt><trkpt lat="45.8390732" lon="8.8112217"><ele>451.0</ele><time>2026-03-28T13:40:33.453Z</time></trkpt><trkpt lat="45.8391056" lon="8.8111332"><ele>451.00000000000006</ele><time>2026-03-28T13:40:34.454Z</time></trkpt><trkpt lat="45.8391484" lon="8.8110524"><ele>451.0</ele><time>2026-03-28T13:40:35.453Z</time></trkpt><trkpt lat="45.8392308" lon="8.8110258"><ele>451.0</ele><time>2026-03-28T13:40:36.453Z</time></trkpt><trkpt lat="45.8393077" lon="8.8110051"><ele>451.0</ele><time>2026-03-28T13:40:37.453Z</time></trkpt><trkpt lat="45.8393926" lon="8.8109846"><ele>451.00000000000006</ele><time>2026-03-28T13:40:38.454Z</time></trkpt><trkpt lat="45.8394838" lon="8.8109618"><ele>451.0</ele><time>2026-03-28T13:40:39.453Z</time></trkpt><trkpt lat="45.8395736" lon="8.8109423"><ele>452.1666666666667</ele><time>2026-03-28T13:40:40.454Z</time></trkpt><trkpt lat="45.8396445" lon="8.810924"><ele>453.33333333333337</ele><time>2026-03-28T13:40:41.453Z</time></trkpt><trkpt lat="45.8397105" lon="8.8109118"><ele>454.5</ele><time>2026-03-28T13:40:42.454Z</time></trkpt><trkpt lat="45.8397875" lon="8.810891"><ele>455.66666666666663</ele><time>2026-03-28T13:40:43.453Z</time></trkpt><trkpt lat="45.8398732" lon="8.8108776"><ele>456.8333333333333</ele><time>2026-03-28T13:40:44.453Z</time></trkpt><trkpt lat="45.8399692" lon="8.8108682"><ele>458.0</ele><time>2026-03-28T13:40:45.453Z</time></trkpt><trkpt lat="45.8400588" lon="8.8108576"><ele>458.66666666666663</ele><time>2026-03-28T13:40:46.454Z</time></trkpt><trkpt lat="45.840141" lon="8.8108486"><ele>459.3333333333333</ele><time>2026-03-28T13:40:47.453Z</time></trkpt><trkpt lat="45.8402191" lon="8.8108389"><ele>460.0</ele><time>2026-03-28T13:40:48.453Z</time></trkpt><trkpt lat="45.8403045" lon="8.8108283"><ele>460.66666666666663</ele><time>2026-03-28T13:40:49.454Z</time></trkpt><trkpt lat="45.8403854" lon="8.8108193"><ele>461.3333333333333</ele><time>2026-03-28T13:40:50.454Z</time></trkpt><trkpt lat="45.8404712" lon="8.8108078"><ele>462.0</ele><time>2026-03-28T13:40:51.453Z</time></trkpt><trkpt lat="45.8405506" lon="8.8108097"><ele>462.0</ele><time>2026-03-28T13:40:52.454Z</time></trkpt><trkpt lat="45.8406343" lon="8.8108063"><ele>462.0</ele><time>2026-03-28T13:40:53.453Z</time></trkpt><trkpt lat="45.8407242" lon="8.8107944"><ele>462.0</ele><time>2026-03-28T13:40:54.454Z</time></trkpt><trkpt lat="45.8408059" lon="8.8107658"><ele>462.0</ele><time>2026-03-28T13:40:55.454Z</time></trkpt><trkpt lat="45.8408865" lon="8.8107231"><ele>462.0</ele><time>2026-03-28T13:40:56.453Z</time></trkpt><trkpt lat="45.8409532" lon="8.8106222"><ele>462.0</ele><time>2026-03-28T13:40:57.454Z</time></trkpt><trkpt lat="45.8410168" lon="8.8105257"><ele>461.8</ele><time>2026-03-28T13:40:58.454Z</time></trkpt><trkpt lat="45.8410778" lon="8.8104271"><ele>461.6</ele><time>2026-03-28T13:40:59.453Z</time></trkpt><trkpt lat="45.8411397" lon="8.8103199"><ele>461.40000000000003</ele><time>2026-03-28T13:41:00.454Z</time></trkpt><trkpt lat="45.8411959" lon="8.8102227"><ele>461.20000000000005</ele><time>2026-03-28T13:41:01.454Z</time></trkpt><trkpt lat="45.8412583" lon="8.8101281"><ele>461.0</ele><time>2026-03-28T13:41:02.453Z</time></trkpt><trkpt lat="45.8413187" lon="8.8100177"><ele>461.6</ele><time>2026-03-28T13:41:03.454Z</time></trkpt><trkpt lat="45.8413822" lon="8.8099071"><ele>462.20000000000005</ele><time>2026-03-28T13:41:04.453Z</time></trkpt><trkpt lat="45.84144" lon="8.8098065"><ele>462.79999999999995</ele><time>2026-03-28T13:41:05.453Z</time></trkpt><trkpt lat="45.8415023" lon="8.8097111"><ele>463.4</ele><time>2026-03-28T13:41:06.453Z</time></trkpt><trkpt lat="45.8415635" lon="8.8096039"><ele>464.0</ele><time>2026-03-28T13:41:07.453Z</time></trkpt><trkpt lat="45.8416187" lon="8.8094935"><ele>463.99999999999994</ele><time>2026-03-28T13:41:08.453Z</time></trkpt><trkpt lat="45.8416546" lon="8.8093861"><ele>464.0</ele><time>2026-03-28T13:41:09.453Z</time></trkpt><trkpt lat="45.8416777" lon="8.8092828"><ele>464.0</ele><time>2026-03-28T13:41:10.454Z</time></trkpt><trkpt lat="45.8416893" lon="8.8091929"><ele>464.0</ele><time>2026-03-28T13:41:11.454Z</time></trkpt><trkpt lat="45.8417265" lon="8.809041"><ele>463.99999999999994</ele><time>2026-03-28T13:41:13.454Z</time></trkpt><trkpt lat="45.8417671" lon="8.8088999"><ele>464.0</ele><time>2026-03-28T13:41:15.453Z</time></trkpt><trkpt lat="45.841803" lon="8.8088114"><ele>463.99999999999994</ele><time>2026-03-28T13:41:17.453Z</time></trkpt><trkpt lat="45.8418419" lon="8.8087352"><ele>464.0</ele><time>2026-03-28T13:41:19.454Z</time></trkpt><trkpt lat="45.8418914" lon="8.8086594"><ele>464.0</ele><time>2026-03-28T13:41:21.454Z</time></trkpt><trkpt lat="45.8419416" lon="8.8085929"><ele>464.0</ele><time>2026-03-28T13:41:23.454Z</time></trkpt><trkpt lat="45.8420059" lon="8.8085231"><ele>463.99999999999994</ele><time>2026-03-28T13:41:28.454Z</time></trkpt><trkpt lat="45.8420747" lon="8.808462"><ele>464.0</ele><time>2026-03-28T13:41:30.453Z</time></trkpt><trkpt lat="45.8421617" lon="8.8083792"><ele>464.79999999999995</ele><time>2026-03-28T13:41:32.453Z</time></trkpt><trkpt lat="45.8422536" lon="8.8082967"><ele>465.59999999999997</ele><time>2026-03-28T13:41:34.453Z</time></trkpt><trkpt lat="45.8423572" lon="8.8082095"><ele>466.4</ele><time>2026-03-28T13:41:36.453Z</time></trkpt><trkpt lat="45.8424295" lon="8.808144"><ele>467.2</ele><time>2026-03-28T13:41:38.454Z</time></trkpt><trkpt lat="45.8425127" lon="8.8080633"><ele>468.0</ele><time>2026-03-28T13:41:41.454Z</time></trkpt><trkpt lat="45.8426024" lon="8.8079901"><ele>468.6666666666667</ele><time>2026-03-28T13:41:43.453Z</time></trkpt><trkpt lat="45.8426564" lon="8.8079411"><ele>469.33333333333337</ele><time>2026-03-28T13:41:44.453Z</time></trkpt><trkpt lat="45.8427217" lon="8.8078807"><ele>470.0</ele><time>2026-03-28T13:41:45.453Z</time></trkpt><trkpt lat="45.8427891" lon="8.8078185"><ele>470.6666666666667</ele><time>2026-03-28T13:41:46.453Z</time></trkpt><trkpt lat="45.84286" lon="8.8077519"><ele>471.33333333333337</ele><time>2026-03-28T13:41:47.454Z</time></trkpt><trkpt lat="45.8429333" lon="8.8076852"><ele>472.0</ele><time>2026-03-28T13:41:48.452Z</time></trkpt><trkpt lat="45.8430177" lon="8.8076088"><ele>472.00000000000006</ele><time>2026-03-28T13:41:49.454Z</time></trkpt><trkpt lat="45.8430913" lon="8.8075391"><ele>472.0</ele><time>2026-03-28T13:41:50.453Z</time></trkpt><trkpt lat="45.8431605" lon="8.8074766"><ele>472.0</ele><time>2026-03-28T13:41:51.454Z</time></trkpt><trkpt lat="45.8432246" lon="8.8074224"><ele>472.0</ele><time>2026-03-28T13:41:53.453Z</time></trkpt><trkpt lat="45.8433136" lon="8.807346"><ele>472.00000000000006</ele><time>2026-03-28T13:42:05.454Z</time></trkpt><trkpt lat="45.8433661" lon="8.8072839"><ele>472.0</ele><time>2026-03-28T13:42:06.454Z</time></trkpt><trkpt lat="45.8434769" lon="8.8071658"><ele>472.8</ele><time>2026-03-28T13:42:08.454Z</time></trkpt><trkpt lat="45.8435442" lon="8.8071079"><ele>473.6</ele><time>2026-03-28T13:42:09.453Z</time></trkpt><trkpt lat="45.8436179" lon="8.8070262"><ele>474.40000000000003</ele><time>2026-03-28T13:42:10.453Z</time></trkpt><trkpt lat="45.8436901" lon="8.8069435"><ele>475.20000000000005</ele><time>2026-03-28T13:42:11.452Z</time></trkpt><trkpt lat="45.8437617" lon="8.8068577"><ele>476.0</ele><time>2026-03-28T13:42:12.453Z</time></trkpt><trkpt lat="45.8438339" lon="8.8067508"><ele>476.0</ele><time>2026-03-28T13:42:13.453Z</time></trkpt><trkpt lat="45.8438928" lon="8.806632"><ele>476.0</ele><time>2026-03-28T13:42:14.453Z</time></trkpt><trkpt lat="45.8439485" lon="8.8064921"><ele>476.0</ele><time>2026-03-28T13:42:15.453Z</time></trkpt><trkpt lat="45.8439991" lon="8.8063263"><ele>476.0</ele><time>2026-03-28T13:42:16.454Z</time></trkpt><trkpt lat="45.8440464" lon="8.8061662"><ele>476.0</ele><time>2026-03-28T13:42:17.454Z</time></trkpt><trkpt lat="45.8440957" lon="8.8059997"><ele>476.0</ele><time>2026-03-28T13:42:18.454Z</time></trkpt><trkpt lat="45.8441547" lon="8.8058401"><ele>476.0</ele><time>2026-03-28T13:42:19.453Z</time></trkpt><trkpt lat="45.8442221" lon="8.8056923"><ele>476.0</ele><time>2026-03-28T13:42:20.453Z</time></trkpt><trkpt lat="45.8443115" lon="8.8055791"><ele>476.0</ele><time>2026-03-28T13:42:21.453Z</time></trkpt><trkpt lat="45.8444038" lon="8.8054699"><ele>476.0</ele><time>2026-03-28T13:42:22.454Z</time></trkpt><trkpt lat="45.8444809" lon="8.8053364"><ele>476.0</ele><time>2026-03-28T13:42:23.453Z</time></trkpt><trkpt lat="45.844529" lon="8.8051776"><ele>476.0</ele><time>2026-03-28T13:42:24.453Z</time></trkpt><trkpt lat="45.8445524" lon="8.8050137"><ele>476.75</ele><time>2026-03-28T13:42:25.454Z</time></trkpt><trkpt lat="45.8445528" lon="8.8048379"><ele>477.5</ele><time>2026-03-28T13:42:26.454Z</time></trkpt><trkpt lat="45.8445381" lon="8.8046539"><ele>478.25</ele><time>2026-03-28T13:42:27.454Z</time></trkpt><trkpt lat="45.8445405" lon="8.8044623"><ele>479.0</ele><time>2026-03-28T13:42:28.453Z</time></trkpt><trkpt lat="45.8445647" lon="8.8042829"><ele>480.25</ele><time>2026-03-28T13:42:29.454Z</time></trkpt><trkpt lat="45.8446105" lon="8.8041144"><ele>481.5</ele><time>2026-03-28T13:42:30.454Z</time></trkpt><trkpt lat="45.8446746" lon="8.8039513"><ele>482.75</ele><time>2026-03-28T13:42:31.454Z</time></trkpt><trkpt lat="45.8447424" lon="8.8037879"><ele>484.0</ele><time>2026-03-28T13:42:32.452Z</time></trkpt><trkpt lat="45.8448165" lon="8.8036173"><ele>484.0</ele><time>2026-03-28T13:42:33.454Z</time></trkpt><trkpt lat="45.8448915" lon="8.8034536"><ele>484.0</ele><time>2026-03-28T13:42:34.454Z</time></trkpt><trkpt lat="45.8449744" lon="8.8032994"><ele>484.0</ele><time>2026-03-28T13:42:35.454Z</time></trkpt><trkpt lat="45.8450736" lon="8.8031555"><ele>484.0</ele><time>2026-03-28T13:42:36.453Z</time></trkpt><trkpt lat="45.8451828" lon="8.8030325"><ele>485.75</ele><time>2026-03-28T13:42:37.453Z</time></trkpt><trkpt lat="45.8452977" lon="8.8029311"><ele>487.5</ele><time>2026-03-28T13:42:38.452Z</time></trkpt><trkpt lat="45.8454177" lon="8.8028464"><ele>489.25</ele><time>2026-03-28T13:42:39.453Z</time></trkpt><trkpt lat="45.8455398" lon="8.8027645"><ele>491.0</ele><time>2026-03-28T13:42:40.453Z</time></trkpt><trkpt lat="45.8456586" lon="8.802701"><ele>491.75</ele><time>2026-03-28T13:42:41.453Z</time></trkpt><trkpt lat="45.845778" lon="8.802656"><ele>492.5</ele><time>2026-03-28T13:42:42.453Z</time></trkpt><trkpt lat="45.8458986" lon="8.8026374"><ele>493.25</ele><time>2026-03-28T13:42:43.453Z</time></trkpt><trkpt lat="45.846014" lon="8.8026371"><ele>494.0</ele><time>2026-03-28T13:42:44.454Z</time></trkpt><trkpt lat="45.8461239" lon="8.8026771"><ele>494.0</ele><time>2026-03-28T13:42:45.453Z</time></trkpt><trkpt lat="45.8462279" lon="8.8027446"><ele>494.0</ele><time>2026-03-28T13:42:46.453Z</time></trkpt><trkpt lat="45.8463224" lon="8.8028359"><ele>494.0</ele><time>2026-03-28T13:42:47.452Z</time></trkpt><trkpt lat="45.8464169" lon="8.8029307"><ele>494.0</ele><time>2026-03-28T13:42:48.452Z</time></trkpt><trkpt lat="45.8464944" lon="8.8030271"><ele>494.0</ele><time>2026-03-28T13:42:49.452Z</time></trkpt><trkpt lat="45.8465635" lon="8.8031145"><ele>494.0</ele><time>2026-03-28T13:42:50.452Z</time></trkpt><trkpt lat="45.8466212" lon="8.8031882"><ele>494.0</ele><time>2026-03-28T13:42:51.452Z</time></trkpt><trkpt lat="45.8467042" lon="8.8032935"><ele>494.0</ele><time>2026-03-28T13:42:53.452Z</time></trkpt><trkpt lat="45.8467881" lon="8.80341"><ele>494.0</ele><time>2026-03-28T13:44:14.452Z</time></trkpt><trkpt lat="45.8468218" lon="8.8035004"><ele>494.0</ele><time>2026-03-28T13:44:15.453Z</time></trkpt><trkpt lat="45.8468717" lon="8.803619"><ele>495.66666666666663</ele><time>2026-03-28T13:44:16.452Z</time></trkpt><trkpt lat="45.8469297" lon="8.8037053"><ele>497.3333333333333</ele><time>2026-03-28T13:44:17.452Z</time></trkpt><trkpt lat="45.8469904" lon="8.8037817"><ele>499.0</ele><time>2026-03-28T13:44:18.453Z</time></trkpt><trkpt lat="45.8470668" lon="8.8038251"><ele>500.66666666666663</ele><time>2026-03-28T13:44:19.452Z</time></trkpt><trkpt lat="45.8471537" lon="8.8038682"><ele>502.3333333333333</ele><time>2026-03-28T13:44:20.453Z</time></trkpt><trkpt lat="45.8472403" lon="8.8039132"><ele>504.0</ele><time>2026-03-28T13:44:21.453Z</time></trkpt><trkpt lat="45.8473588" lon="8.8039428"><ele>504.0</ele><time>2026-03-28T13:44:22.452Z</time></trkpt><trkpt lat="45.8474664" lon="8.8039402"><ele>504.0</ele><time>2026-03-28T13:44:23.453Z</time></trkpt><trkpt lat="45.8475751" lon="8.8039185"><ele>504.0</ele><time>2026-03-28T13:44:24.452Z</time></trkpt><trkpt lat="45.8476965" lon="8.8038726"><ele>504.0</ele><time>2026-03-28T13:44:25.452Z</time></trkpt><trkpt lat="45.8478136" lon="8.8038051"><ele>504.0</ele><time>2026-03-28T13:44:26.453Z</time></trkpt><trkpt lat="45.8479209" lon="8.8037364"><ele>504.0</ele><time>2026-03-28T13:44:27.453Z</time></trkpt><trkpt lat="45.8480266" lon="8.8036544"><ele>504.0</ele><time>2026-03-28T13:44:28.452Z</time></trkpt><trkpt lat="45.8481217" lon="8.8035822"><ele>504.0</ele><time>2026-03-28T13:44:29.452Z</time></trkpt><trkpt lat="45.8482012" lon="8.8035237"><ele>504.0</ele><time>2026-03-28T13:44:30.453Z</time></trkpt><trkpt lat="45.8482767" lon="8.8034684"><ele>504.0</ele><time>2026-03-28T13:44:31.452Z</time></trkpt><trkpt lat="45.8483531" lon="8.8034171"><ele>504.0</ele><time>2026-03-28T13:44:32.452Z</time></trkpt><trkpt lat="45.8484305" lon="8.8033404"><ele>504.0</ele><time>2026-03-28T13:44:33.453Z</time></trkpt><trkpt lat="45.8485229" lon="8.8032533"><ele>504.0</ele><time>2026-03-28T13:44:34.451Z</time></trkpt><trkpt lat="45.8486348" lon="8.8031617"><ele>504.0</ele><time>2026-03-28T13:44:35.452Z</time></trkpt><trkpt lat="45.8487569" lon="8.8030647"><ele>498.0</ele><time>2026-03-28T13:44:36.452Z</time></trkpt><trkpt lat="45.8488832" lon="8.8029598"><ele>492.0</ele><time>2026-03-28T13:44:37.452Z</time></trkpt><trkpt lat="45.8490241" lon="8.8028505"><ele>486.0</ele><time>2026-03-28T13:44:38.453Z</time></trkpt><trkpt lat="45.8491632" lon="8.8027317"><ele>489.33333333333337</ele><time>2026-03-28T13:44:39.452Z</time></trkpt><trkpt lat="45.8493095" lon="8.8026427"><ele>492.6666666666667</ele><time>2026-03-28T13:44:40.452Z</time></trkpt><trkpt lat="45.8494567" lon="8.8025709"><ele>496.0</ele><time>2026-03-28T13:44:41.452Z</time></trkpt><trkpt lat="45.8496051" lon="8.8025255"><ele>496.0</ele><time>2026-03-28T13:44:42.453Z</time></trkpt><trkpt lat="45.8497511" lon="8.8025034"><ele>496.0</ele><time>2026-03-28T13:44:43.453Z</time></trkpt><trkpt lat="45.849897" lon="8.8024787"><ele>496.0</ele><time>2026-03-28T13:44:44.453Z</time></trkpt><trkpt lat="45.850048" lon="8.8024394"><ele>496.0</ele><time>2026-03-28T13:44:45.453Z</time></trkpt><trkpt lat="45.8501995" lon="8.8023878"><ele>495.0</ele><time>2026-03-28T13:44:46.453Z</time></trkpt><trkpt lat="45.8503589" lon="8.8023545"><ele>494.0</ele><time>2026-03-28T13:44:47.453Z</time></trkpt><trkpt lat="45.8505141" lon="8.8023233"><ele>493.0</ele><time>2026-03-28T13:44:48.453Z</time></trkpt><trkpt lat="45.8506735" lon="8.8022989"><ele>493.0</ele><time>2026-03-28T13:44:49.453Z</time></trkpt><trkpt lat="45.8508294" lon="8.8022584"><ele>493.0</ele><time>2026-03-28T13:44:50.452Z</time></trkpt><trkpt lat="45.8509825" lon="8.8021978"><ele>493.0</ele><time>2026-03-28T13:44:51.453Z</time></trkpt><trkpt lat="45.8511324" lon="8.8021252"><ele>491.6666666666667</ele><time>2026-03-28T13:44:52.453Z</time></trkpt><trkpt lat="45.851285" lon="8.8020565"><ele>490.33333333333337</ele><time>2026-03-28T13:44:53.453Z</time></trkpt><trkpt lat="45.8514339" lon="8.802003"><ele>489.0</ele><time>2026-03-28T13:44:54.453Z</time></trkpt><trkpt lat="45.8515836" lon="8.8019943"><ele>489.0</ele><time>2026-03-28T13:44:55.452Z</time></trkpt><trkpt lat="45.8517376" lon="8.8019988"><ele>489.0</ele><time>2026-03-28T13:44:56.452Z</time></trkpt><trkpt lat="45.8518957" lon="8.8020092"><ele>489.0</ele><time>2026-03-28T13:44:57.452Z</time></trkpt><trkpt lat="45.8520542" lon="8.8020314"><ele>490.33333333333337</ele><time>2026-03-28T13:44:58.453Z</time></trkpt><trkpt lat="45.8522192" lon="8.802054"><ele>491.6666666666667</ele><time>2026-03-28T13:44:59.452Z</time></trkpt><trkpt lat="45.8523863" lon="8.8020694"><ele>493.0</ele><time>2026-03-28T13:45:00.453Z</time></trkpt><trkpt lat="45.8525507" lon="8.8020896"><ele>495.33333333333337</ele><time>2026-03-28T13:45:01.453Z</time></trkpt><trkpt lat="45.8527095" lon="8.8021049"><ele>497.66666666666663</ele><time>2026-03-28T13:45:02.452Z</time></trkpt><trkpt lat="45.8528681" lon="8.8020819"><ele>500.0</ele><time>2026-03-28T13:45:03.452Z</time></trkpt><trkpt lat="45.8530222" lon="8.8020387"><ele>500.0</ele><time>2026-03-28T13:45:04.451Z</time></trkpt><trkpt lat="45.8531749" lon="8.8019825"><ele>500.0</ele><time>2026-03-28T13:45:05.452Z</time></trkpt><trkpt lat="45.8533296" lon="8.8019193"><ele>500.0</ele><time>2026-03-28T13:45:06.453Z</time></trkpt><trkpt lat="45.8534881" lon="8.8018542"><ele>505.3333333333333</ele><time>2026-03-28T13:45:07.453Z</time></trkpt><trkpt lat="45.8536428" lon="8.8017896"><ele>510.66666666666663</ele><time>2026-03-28T13:45:08.452Z</time></trkpt><trkpt lat="45.8537976" lon="8.8017267"><ele>516.0</ele><time>2026-03-28T13:45:09.452Z</time></trkpt><trkpt lat="45.8539484" lon="8.8016626"><ele>516.0</ele><time>2026-03-28T13:45:10.453Z</time></trkpt><trkpt lat="45.8540886" lon="8.8016063"><ele>516.0</ele><time>2026-03-28T13:45:11.453Z</time></trkpt><trkpt lat="45.8542146" lon="8.8015807"><ele>516.0</ele><time>2026-03-28T13:45:12.452Z</time></trkpt><trkpt lat="45.8543332" lon="8.8015874"><ele>516.0</ele><time>2026-03-28T13:45:13.451Z</time></trkpt><trkpt lat="45.8544435" lon="8.8016214"><ele>516.2</ele><time>2026-03-28T13:45:14.452Z</time></trkpt><trkpt lat="45.854533" lon="8.8016781"><ele>516.4000000000001</ele><time>2026-03-28T13:45:15.452Z</time></trkpt><trkpt lat="45.8546008" lon="8.8017823"><ele>516.6</ele><time>2026-03-28T13:45:16.453Z</time></trkpt><trkpt lat="45.8546519" lon="8.8019129"><ele>516.8000000000001</ele><time>2026-03-28T13:45:17.453Z</time></trkpt><trkpt lat="45.8546837" lon="8.8020609"><ele>517.0</ele><time>2026-03-28T13:45:18.453Z</time></trkpt><trkpt lat="45.854725" lon="8.8022176"><ele>517.0</ele><time>2026-03-28T13:45:19.452Z</time></trkpt><trkpt lat="45.8547877" lon="8.8023598"><ele>517.0</ele><time>2026-03-28T13:45:20.453Z</time></trkpt><trkpt lat="45.8548788" lon="8.8024901"><ele>517.0</ele><time>2026-03-28T13:45:21.453Z</time></trkpt><trkpt lat="45.8549832" lon="8.8026072"><ele>517.0</ele><time>2026-03-28T13:45:22.452Z</time></trkpt><trkpt lat="45.8551034" lon="8.8027076"><ele>518.0</ele><time>2026-03-28T13:45:23.452Z</time></trkpt><trkpt lat="45.8552309" lon="8.8028058"><ele>519.0</ele><time>2026-03-28T13:45:24.453Z</time></trkpt><trkpt lat="45.8553605" lon="8.8029066"><ele>520.0</ele><time>2026-03-28T13:45:25.453Z</time></trkpt><trkpt lat="45.8554936" lon="8.8030024"><ele>521.0</ele><time>2026-03-28T13:45:26.453Z</time></trkpt><trkpt lat="45.8556247" lon="8.8030946"><ele>521.0</ele><time>2026-03-28T13:45:27.452Z</time></trkpt><trkpt lat="45.8557571" lon="8.80319"><ele>521.0</ele><time>2026-03-28T13:45:28.452Z</time></trkpt><trkpt lat="45.8558901" lon="8.8032884"><ele>521.0</ele><time>2026-03-28T13:45:29.452Z</time></trkpt><trkpt lat="45.8560197" lon="8.8033737"><ele>521.0</ele><time>2026-03-28T13:45:30.452Z</time></trkpt><trkpt lat="45.8561577" lon="8.8034257"><ele>522.25</ele><time>2026-03-28T13:45:31.453Z</time></trkpt><trkpt lat="45.8562955" lon="8.8034513"><ele>523.5</ele><time>2026-03-28T13:45:32.452Z</time></trkpt><trkpt lat="45.8564398" lon="8.8034448"><ele>524.75</ele><time>2026-03-28T13:45:33.452Z</time></trkpt><trkpt lat="45.8565791" lon="8.803444"><ele>526.0</ele><time>2026-03-28T13:45:34.452Z</time></trkpt><trkpt lat="45.8567198" lon="8.8034736"><ele>525.5</ele><time>2026-03-28T13:45:35.452Z</time></trkpt><trkpt lat="45.8568563" lon="8.8035269"><ele>525.0</ele><time>2026-03-28T13:45:36.452Z</time></trkpt><trkpt lat="45.8569859" lon="8.8036028"><ele>524.5</ele><time>2026-03-28T13:45:37.453Z</time></trkpt><trkpt lat="45.8571079" lon="8.8037043"><ele>524.0</ele><time>2026-03-28T13:45:38.453Z</time></trkpt><trkpt lat="45.8572288" lon="8.803816"><ele>524.0</ele><time>2026-03-28T13:45:39.453Z</time></trkpt><trkpt lat="45.8573514" lon="8.8039294"><ele>524.0</ele><time>2026-03-28T13:45:40.452Z</time></trkpt><trkpt lat="45.8574713" lon="8.8040484"><ele>524.0</ele><time>2026-03-28T13:45:41.453Z</time></trkpt><trkpt lat="45.8575965" lon="8.8041627"><ele>524.0</ele><time>2026-03-28T13:45:42.453Z</time></trkpt><trkpt lat="45.857719" lon="8.8042861"><ele>523.0</ele><time>2026-03-28T13:45:43.452Z</time></trkpt><trkpt lat="45.8578424" lon="8.8044111"><ele>522.0</ele><time>2026-03-28T13:45:44.452Z</time></trkpt><trkpt lat="45.8579639" lon="8.8045422"><ele>521.0</ele><time>2026-03-28T13:45:45.452Z</time></trkpt><trkpt lat="45.8580848" lon="8.8046713"><ele>521.0</ele><time>2026-03-28T13:45:46.453Z</time></trkpt><trkpt lat="45.8582134" lon="8.8047812"><ele>521.0</ele><time>2026-03-28T13:45:47.452Z</time></trkpt><trkpt lat="45.8583521" lon="8.8048676"><ele>521.0</ele><time>2026-03-28T13:45:48.452Z</time></trkpt><trkpt lat="45.8584958" lon="8.8049327"><ele>521.5</ele><time>2026-03-28T13:45:49.453Z</time></trkpt><trkpt lat="45.8586452" lon="8.8049804"><ele>522.0</ele><time>2026-03-28T13:45:50.453Z</time></trkpt><trkpt lat="45.8587843" lon="8.8050193"><ele>522.5</ele><time>2026-03-28T13:45:51.452Z</time></trkpt><trkpt lat="45.8589175" lon="8.8050694"><ele>523.0</ele><time>2026-03-28T13:45:52.453Z</time></trkpt><trkpt lat="45.8590369" lon="8.805138"><ele>524.25</ele><time>2026-03-28T13:45:53.453Z</time></trkpt><trkpt lat="45.8591434" lon="8.8052326"><ele>525.5</ele><time>2026-03-28T13:45:54.453Z</time></trkpt><trkpt lat="45.859229" lon="8.8053532"><ele>526.75</ele><time>2026-03-28T13:45:55.452Z</time></trkpt><trkpt lat="45.8593076" lon="8.8054934"><ele>528.0</ele><time>2026-03-28T13:45:56.452Z</time></trkpt><trkpt lat="45.8593879" lon="8.8056185"><ele>528.0</ele><time>2026-03-28T13:45:57.453Z</time></trkpt><trkpt lat="45.8594785" lon="8.8057212"><ele>528.0</ele><time>2026-03-28T13:45:58.453Z</time></trkpt><trkpt lat="45.8595922" lon="8.8058185"><ele>528.0</ele><time>2026-03-28T13:45:59.453Z</time></trkpt><trkpt lat="45.859714" lon="8.8058843"><ele>528.0</ele><time>2026-03-28T13:46:00.452Z</time></trkpt><trkpt lat="45.8598523" lon="8.8059372"><ele>528.0</ele><time>2026-03-28T13:46:01.452Z</time></trkpt><trkpt lat="45.8599991" lon="8.8059871"><ele>528.0</ele><time>2026-03-28T13:46:02.453Z</time></trkpt><trkpt lat="45.8601462" lon="8.806032"><ele>528.0</ele><time>2026-03-28T13:46:03.452Z</time></trkpt><trkpt lat="45.8603033" lon="8.8060736"><ele>525.3333333333334</ele><time>2026-03-28T13:46:04.452Z</time></trkpt><trkpt lat="45.860462" lon="8.8061157"><ele>522.6666666666667</ele><time>2026-03-28T13:46:05.453Z</time></trkpt><trkpt lat="45.8606199" lon="8.8061493"><ele>520.0</ele><time>2026-03-28T13:46:06.453Z</time></trkpt><trkpt lat="45.860777" lon="8.8061836"><ele>520.0</ele><time>2026-03-28T13:46:07.452Z</time></trkpt><trkpt lat="45.8609365" lon="8.8062072"><ele>520.0</ele><time>2026-03-28T13:46:08.452Z</time></trkpt><trkpt lat="45.8610973" lon="8.8062109"><ele>520.0</ele><time>2026-03-28T13:46:09.453Z</time></trkpt><trkpt lat="45.861256" lon="8.8062002"><ele>520.6666666666667</ele><time>2026-03-28T13:46:10.452Z</time></trkpt><trkpt lat="45.8614146" lon="8.8061835"><ele>521.3333333333334</ele><time>2026-03-28T13:46:11.452Z</time></trkpt><trkpt lat="45.8615769" lon="8.8061643"><ele>522.0</ele><time>2026-03-28T13:46:12.452Z</time></trkpt><trkpt lat="45.8617337" lon="8.8061349"><ele>522.75</ele><time>2026-03-28T13:46:13.452Z</time></trkpt><trkpt lat="45.8618882" lon="8.8060797"><ele>523.5</ele><time>2026-03-28T13:46:14.452Z</time></trkpt><trkpt lat="45.8620197" lon="8.8060129"><ele>524.25</ele><time>2026-03-28T13:46:15.452Z</time></trkpt><trkpt lat="45.8621361" lon="8.8059239"><ele>525.0</ele><time>2026-03-28T13:46:16.453Z</time></trkpt><trkpt lat="45.8622434" lon="8.8058202"><ele>525.0</ele><time>2026-03-28T13:46:17.453Z</time></trkpt><trkpt lat="45.8623425" lon="8.8057116"><ele>525.0</ele><time>2026-03-28T13:46:18.452Z</time></trkpt><trkpt lat="45.862435" lon="8.8056108"><ele>525.0</ele><time>2026-03-28T13:46:19.453Z</time></trkpt><trkpt lat="45.8625244" lon="8.8055334"><ele>525.0</ele><time>2026-03-28T13:46:20.453Z</time></trkpt><trkpt lat="45.8626199" lon="8.8054914"><ele>525.0</ele><time>2026-03-28T13:46:21.453Z</time></trkpt><trkpt lat="45.862722" lon="8.8054773"><ele>525.25</ele><time>2026-03-28T13:46:22.452Z</time></trkpt><trkpt lat="45.862829" lon="8.8054768"><ele>525.5</ele><time>2026-03-28T13:46:23.452Z</time></trkpt><trkpt lat="45.8629389" lon="8.8054784"><ele>525.75</ele><time>2026-03-28T13:46:24.452Z</time></trkpt><trkpt lat="45.8630543" lon="8.8054899"><ele>526.0</ele><time>2026-03-28T13:46:25.453Z</time></trkpt><trkpt lat="45.863174" lon="8.805486"><ele>526.0</ele><time>2026-03-28T13:46:26.452Z</time></trkpt><trkpt lat="45.8632963" lon="8.8054749"><ele>526.0</ele><time>2026-03-28T13:46:27.453Z</time></trkpt><trkpt lat="45.8634184" lon="8.8054514"><ele>526.0</ele><time>2026-03-28T13:46:28.453Z</time></trkpt><trkpt lat="45.8635459" lon="8.8054422"><ele>526.0</ele><time>2026-03-28T13:46:29.452Z</time></trkpt><trkpt lat="45.8636739" lon="8.8054387"><ele>528.0</ele><time>2026-03-28T13:46:30.452Z</time></trkpt><trkpt lat="45.8638072" lon="8.8054425"><ele>530.0</ele><time>2026-03-28T13:46:31.453Z</time></trkpt><trkpt lat="45.8639384" lon="8.8054429"><ele>532.0</ele><time>2026-03-28T13:46:32.452Z</time></trkpt><trkpt lat="45.8640767" lon="8.8054438"><ele>534.0</ele><time>2026-03-28T13:46:33.452Z</time></trkpt><trkpt lat="45.8642133" lon="8.8054494"><ele>536.0</ele><time>2026-03-28T13:46:34.453Z</time></trkpt><trkpt lat="45.8643506" lon="8.805455"><ele>538.0</ele><time>2026-03-28T13:46:35.452Z</time></trkpt><trkpt lat="45.8644869" lon="8.8054611"><ele>540.0</ele><time>2026-03-28T13:46:36.453Z</time></trkpt><trkpt lat="45.8646209" lon="8.8054669"><ele>542.0</ele><time>2026-03-28T13:46:37.453Z</time></trkpt><trkpt lat="45.8647575" lon="8.8054709"><ele>542.0</ele><time>2026-03-28T13:46:38.452Z</time></trkpt><trkpt lat="45.864883" lon="8.8054762"><ele>542.0</ele><time>2026-03-28T13:46:39.452Z</time></trkpt><trkpt lat="45.8650003" lon="8.805465"><ele>542.0</ele><time>2026-03-28T13:46:40.452Z</time></trkpt><trkpt lat="45.8651119" lon="8.8054212"><ele>542.0</ele><time>2026-03-28T13:46:41.453Z</time></trkpt><trkpt lat="45.8652159" lon="8.805343"><ele>542.75</ele><time>2026-03-28T13:46:42.453Z</time></trkpt><trkpt lat="45.8653189" lon="8.8052495"><ele>543.5</ele><time>2026-03-28T13:46:43.452Z</time></trkpt><trkpt lat="45.8654144" lon="8.8051448"><ele>544.25</ele><time>2026-03-28T13:46:44.453Z</time></trkpt><trkpt lat="45.865494" lon="8.8050184"><ele>545.0</ele><time>2026-03-28T13:46:45.453Z</time></trkpt><trkpt lat="45.8655507" lon="8.8048839"><ele>545.0</ele><time>2026-03-28T13:46:46.453Z</time></trkpt><trkpt lat="45.8656129" lon="8.8047776"><ele>545.0</ele><time>2026-03-28T13:46:47.452Z</time></trkpt><trkpt lat="45.8656881" lon="8.804698"><ele>545.0</ele><time>2026-03-28T13:46:48.452Z</time></trkpt><trkpt lat="45.8657754" lon="8.804601"><ele>545.0</ele><time>2026-03-28T13:46:49.452Z</time></trkpt><trkpt lat="45.8658596" lon="8.8045785"><ele>545.0</ele><time>2026-03-28T13:46:50.452Z</time></trkpt><trkpt lat="45.8659996" lon="8.8045544"><ele>545.25</ele><time>2026-03-28T13:46:51.453Z</time></trkpt><trkpt lat="45.8661192" lon="8.8045184"><ele>545.5</ele><time>2026-03-28T13:46:52.452Z</time></trkpt><trkpt lat="45.8662524" lon="8.8044807"><ele>545.75</ele><time>2026-03-28T13:46:53.453Z</time></trkpt><trkpt lat="45.8663891" lon="8.804452"><ele>546.0</ele><time>2026-03-28T13:46:54.452Z</time></trkpt><trkpt lat="45.8665256" lon="8.8044298"><ele>546.0</ele><time>2026-03-28T13:46:55.452Z</time></trkpt><trkpt lat="45.8666635" lon="8.8043962"><ele>546.0</ele><time>2026-03-28T13:46:56.453Z</time></trkpt><trkpt lat="45.8668044" lon="8.8043774"><ele>546.0</ele><time>2026-03-28T13:46:57.453Z</time></trkpt><trkpt lat="45.8669508" lon="8.8043558"><ele>546.0</ele><time>2026-03-28T13:46:58.453Z</time></trkpt><trkpt lat="45.8670983" lon="8.8043369"><ele>546.5</ele><time>2026-03-28T13:46:59.452Z</time></trkpt><trkpt lat="45.8672474" lon="8.8043189"><ele>547.0</ele><time>2026-03-28T13:47:00.452Z</time></trkpt><trkpt lat="45.8673906" lon="8.804301"><ele>547.5</ele><time>2026-03-28T13:47:01.452Z</time></trkpt><trkpt lat="45.8675376" lon="8.8042802"><ele>548.0</ele><time>2026-03-28T13:47:02.452Z</time></trkpt><trkpt lat="45.8676853" lon="8.8042575"><ele>548.0</ele><time>2026-03-28T13:47:03.452Z</time></trkpt><trkpt lat="45.867833" lon="8.804235"><ele>548.0</ele><time>2026-03-28T13:47:04.452Z</time></trkpt><trkpt lat="45.8679812" lon="8.8042202"><ele>548.0</ele><time>2026-03-28T13:47:05.453Z</time></trkpt><trkpt lat="45.8681322" lon="8.804211"><ele>548.0</ele><time>2026-03-28T13:47:06.452Z</time></trkpt><trkpt lat="45.8682778" lon="8.8042208"><ele>548.0</ele><time>2026-03-28T13:47:07.453Z</time></trkpt><trkpt lat="45.8684204" lon="8.8042486"><ele>548.0</ele><time>2026-03-28T13:47:08.453Z</time></trkpt><trkpt lat="45.8685605" lon="8.8042938"><ele>548.0</ele><time>2026-03-28T13:47:09.453Z</time></trkpt><trkpt lat="45.8686963" lon="8.8043648"><ele>548.0</ele><time>2026-03-28T13:47:10.453Z</time></trkpt><trkpt lat="45.8688329" lon="8.8044426"><ele>550.5</ele><time>2026-03-28T13:47:11.452Z</time></trkpt><trkpt lat="45.8689718" lon="8.8045153"><ele>553.0</ele><time>2026-03-28T13:47:12.453Z</time></trkpt><trkpt lat="45.8691077" lon="8.804564"><ele>555.5</ele><time>2026-03-28T13:47:13.452Z</time></trkpt><trkpt lat="45.8692541" lon="8.8045936"><ele>558.0</ele><time>2026-03-28T13:47:14.452Z</time></trkpt><trkpt lat="45.8694033" lon="8.8046003"><ele>558.5</ele><time>2026-03-28T13:47:15.452Z</time></trkpt><trkpt lat="45.8695555" lon="8.8045983"><ele>559.0</ele><time>2026-03-28T13:47:16.452Z</time></trkpt><trkpt lat="45.8696999" lon="8.8045921"><ele>559.5</ele><time>2026-03-28T13:47:17.453Z</time></trkpt><trkpt lat="45.8698496" lon="8.8045913"><ele>560.0</ele><time>2026-03-28T13:47:18.453Z</time></trkpt><trkpt lat="45.8700007" lon="8.8045875"><ele>559.5</ele><time>2026-03-28T13:47:19.452Z</time></trkpt><trkpt lat="45.8701519" lon="8.8045841"><ele>559.0</ele><time>2026-03-28T13:47:20.452Z</time></trkpt><trkpt lat="45.8703001" lon="8.8045799"><ele>558.5</ele><time>2026-03-28T13:47:21.452Z</time></trkpt><trkpt lat="45.8704497" lon="8.8045748"><ele>558.0</ele><time>2026-03-28T13:47:22.452Z</time></trkpt><trkpt lat="45.8705957" lon="8.8045677"><ele>558.0</ele><time>2026-03-28T13:47:23.451Z</time></trkpt><trkpt lat="45.8707368" lon="8.8045588"><ele>558.0</ele><time>2026-03-28T13:47:24.451Z</time></trkpt><trkpt lat="45.8708862" lon="8.804557"><ele>558.0</ele><time>2026-03-28T13:47:25.451Z</time></trkpt><trkpt lat="45.8710325" lon="8.8045543"><ele>558.0</ele><time>2026-03-28T13:47:26.451Z</time></trkpt><trkpt lat="45.8711776" lon="8.8045471"><ele>558.5</ele><time>2026-03-28T13:47:27.451Z</time></trkpt><trkpt lat="45.8713214" lon="8.8045463"><ele>559.0</ele><time>2026-03-28T13:47:28.451Z</time></trkpt><trkpt lat="45.8714641" lon="8.8045469"><ele>559.5</ele><time>2026-03-28T13:47:29.451Z</time></trkpt><trkpt lat="45.8716071" lon="8.8045653"><ele>560.0</ele><time>2026-03-28T13:47:30.451Z</time></trkpt><trkpt lat="45.871749" lon="8.8046055"><ele>560.3333333333333</ele><time>2026-03-28T13:47:31.451Z</time></trkpt><trkpt lat="45.8718973" lon="8.8046569"><ele>560.6666666666666</ele><time>2026-03-28T13:47:32.451Z</time></trkpt><trkpt lat="45.8720566" lon="8.804715"><ele>561.0</ele><time>2026-03-28T13:47:33.451Z</time></trkpt><trkpt lat="45.8722119" lon="8.8047908"><ele>561.0</ele><time>2026-03-28T13:47:34.451Z</time></trkpt><trkpt lat="45.8723639" lon="8.8048922"><ele>561.0</ele><time>2026-03-28T13:47:35.452Z</time></trkpt><trkpt lat="45.872512" lon="8.8050256"><ele>561.0</ele><time>2026-03-28T13:47:36.452Z</time></trkpt><trkpt lat="45.8726634" lon="8.805157"><ele>562.6666666666666</ele><time>2026-03-28T13:47:37.451Z</time></trkpt><trkpt lat="45.8728145" lon="8.8052878"><ele>564.3333333333333</ele><time>2026-03-28T13:47:38.451Z</time></trkpt><trkpt lat="45.8729633" lon="8.8054044"><ele>566.0</ele><time>2026-03-28T13:47:39.452Z</time></trkpt><trkpt lat="45.873104" lon="8.8055105"><ele>566.0</ele><time>2026-03-28T13:47:40.452Z</time></trkpt><trkpt lat="45.8732433" lon="8.8055851"><ele>566.0</ele><time>2026-03-28T13:47:41.451Z</time></trkpt><trkpt lat="45.8733839" lon="8.8056166"><ele>566.0</ele><time>2026-03-28T13:47:42.451Z</time></trkpt><trkpt lat="45.8735179" lon="8.805595"><ele>566.0</ele><time>2026-03-28T13:47:43.452Z</time></trkpt><trkpt lat="45.8736579" lon="8.8055292"><ele>568.3333333333333</ele><time>2026-03-28T13:47:44.451Z</time></trkpt><trkpt lat="45.8737946" lon="8.8054477"><ele>570.6666666666666</ele><time>2026-03-28T13:47:45.451Z</time></trkpt><trkpt lat="45.8739355" lon="8.8053601"><ele>573.0</ele><time>2026-03-28T13:47:46.452Z</time></trkpt><trkpt lat="45.87408" lon="8.805262"><ele>573.0</ele><time>2026-03-28T13:47:47.451Z</time></trkpt><trkpt lat="45.8742288" lon="8.8051698"><ele>573.0</ele><time>2026-03-28T13:47:48.451Z</time></trkpt><trkpt lat="45.8743721" lon="8.8050831"><ele>573.0</ele><time>2026-03-28T13:47:49.452Z</time></trkpt><trkpt lat="45.8745125" lon="8.8050043"><ele>571.25</ele><time>2026-03-28T13:47:50.452Z</time></trkpt><trkpt lat="45.8746584" lon="8.8049449"><ele>569.5</ele><time>2026-03-28T13:47:51.452Z</time></trkpt><trkpt lat="45.8748035" lon="8.8049033"><ele>567.75</ele><time>2026-03-28T13:47:52.452Z</time></trkpt><trkpt lat="45.874951" lon="8.8048936"><ele>566.0</ele><time>2026-03-28T13:47:53.451Z</time></trkpt><trkpt lat="45.8751031" lon="8.804893"><ele>566.25</ele><time>2026-03-28T13:47:54.452Z</time></trkpt><trkpt lat="45.8752526" lon="8.8048947"><ele>566.5</ele><time>2026-03-28T13:47:55.451Z</time></trkpt><trkpt lat="45.8753991" lon="8.8048968"><ele>566.75</ele><time>2026-03-28T13:47:56.452Z</time></trkpt><trkpt lat="45.8755395" lon="8.8048914"><ele>567.0</ele><time>2026-03-28T13:47:57.451Z</time></trkpt><trkpt lat="45.8756751" lon="8.8048895"><ele>567.0</ele><time>2026-03-28T13:47:58.452Z</time></trkpt><trkpt lat="45.875816" lon="8.8048465"><ele>567.0</ele><time>2026-03-28T13:47:59.452Z</time></trkpt><trkpt lat="45.8759639" lon="8.8047977"><ele>567.0</ele><time>2026-03-28T13:48:00.452Z</time></trkpt><trkpt lat="45.8761149" lon="8.8047444"><ele>568.3333333333334</ele><time>2026-03-28T13:48:01.451Z</time></trkpt><trkpt lat="45.8762684" lon="8.8046819"><ele>569.6666666666667</ele><time>2026-03-28T13:48:02.452Z</time></trkpt><trkpt lat="45.8764221" lon="8.8046079"><ele>571.0</ele><time>2026-03-28T13:48:03.451Z</time></trkpt><trkpt lat="45.8765637" lon="8.8045004"><ele>571.0</ele><time>2026-03-28T13:48:04.452Z</time></trkpt><trkpt lat="45.8766909" lon="8.8043584"><ele>571.0</ele><time>2026-03-28T13:48:05.452Z</time></trkpt><trkpt lat="45.8768146" lon="8.804196"><ele>571.0</ele><time>2026-03-28T13:48:06.451Z</time></trkpt><trkpt lat="45.8769455" lon="8.8040344"><ele>568.6666666666667</ele><time>2026-03-28T13:48:07.452Z</time></trkpt><trkpt lat="45.8770798" lon="8.8038663"><ele>566.3333333333334</ele><time>2026-03-28T13:48:08.451Z</time></trkpt><trkpt lat="45.8772104" lon="8.8037014"><ele>564.0</ele><time>2026-03-28T13:48:09.452Z</time></trkpt><trkpt lat="45.877337" lon="8.8035343"><ele>561.6666666666666</ele><time>2026-03-28T13:48:10.451Z</time></trkpt><trkpt lat="45.8774694" lon="8.8033794"><ele>559.3333333333333</ele><time>2026-03-28T13:48:11.45Z</time></trkpt><trkpt lat="45.8776038" lon="8.8032149"><ele>557.0</ele><time>2026-03-28T13:48:12.452Z</time></trkpt><trkpt lat="45.8777513" lon="8.8030919"><ele>557.0</ele><time>2026-03-28T13:48:13.451Z</time></trkpt><trkpt lat="45.8779107" lon="8.8029746"><ele>557.0</ele><time>2026-03-28T13:48:14.451Z</time></trkpt><trkpt lat="45.8780699" lon="8.802854"><ele>557.0</ele><time>2026-03-28T13:48:15.452Z</time></trkpt><trkpt lat="45.8782301" lon="8.8027329"><ele>554.3333333333333</ele><time>2026-03-28T13:48:16.452Z</time></trkpt><trkpt lat="45.8783925" lon="8.8026157"><ele>551.6666666666666</ele><time>2026-03-28T13:48:17.452Z</time></trkpt><trkpt lat="45.8785537" lon="8.8024989"><ele>549.0</ele><time>2026-03-28T13:48:18.452Z</time></trkpt><trkpt lat="45.8787047" lon="8.8023795"><ele>549.0</ele><time>2026-03-28T13:48:19.451Z</time></trkpt><trkpt lat="45.878845" lon="8.8022441"><ele>549.0</ele><time>2026-03-28T13:48:20.451Z</time></trkpt><trkpt lat="45.8789816" lon="8.8020837"><ele>549.0</ele><time>2026-03-28T13:48:21.451Z</time></trkpt><trkpt lat="45.8791111" lon="8.8018998"><ele>549.0</ele><time>2026-03-28T13:48:22.451Z</time></trkpt><trkpt lat="45.8792395" lon="8.801719"><ele>549.0</ele><time>2026-03-28T13:48:23.452Z</time></trkpt><trkpt lat="45.8793708" lon="8.8015377"><ele>549.0</ele><time>2026-03-28T13:48:24.451Z</time></trkpt><trkpt lat="45.8795044" lon="8.8013551"><ele>549.0</ele><time>2026-03-28T13:48:25.451Z</time></trkpt><trkpt lat="45.8796435" lon="8.8011695"><ele>549.0</ele><time>2026-03-28T13:48:26.452Z</time></trkpt><trkpt lat="45.8797708" lon="8.8009764"><ele>549.0</ele><time>2026-03-28T13:48:27.451Z</time></trkpt><trkpt lat="45.8798933" lon="8.8007886"><ele>551.3333333333334</ele><time>2026-03-28T13:48:28.452Z</time></trkpt><trkpt lat="45.8800076" lon="8.8005766"><ele>553.6666666666667</ele><time>2026-03-28T13:48:29.451Z</time></trkpt><trkpt lat="45.8801145" lon="8.8003529"><ele>556.0</ele><time>2026-03-28T13:48:30.452Z</time></trkpt><trkpt lat="45.880215" lon="8.8001246"><ele>550.0</ele><time>2026-03-28T13:48:31.451Z</time></trkpt><trkpt lat="45.8803138" lon="8.7999014"><ele>544.0</ele><time>2026-03-28T13:48:32.452Z</time></trkpt><trkpt lat="45.8804136" lon="8.7996932"><ele>538.0</ele><time>2026-03-28T13:48:33.451Z</time></trkpt><trkpt lat="45.8805238" lon="8.7995042"><ele>534.6666666666667</ele><time>2026-03-28T13:48:34.451Z</time></trkpt><trkpt lat="45.8806474" lon="8.7993317"><ele>531.3333333333334</ele><time>2026-03-28T13:48:35.452Z</time></trkpt><trkpt lat="45.8807861" lon="8.7991707"><ele>528.0</ele><time>2026-03-28T13:48:36.451Z</time></trkpt><trkpt lat="45.8809311" lon="8.7990128"><ele>533.6666666666666</ele><time>2026-03-28T13:48:37.452Z</time></trkpt><trkpt lat="45.8810756" lon="8.798848"><ele>539.3333333333333</ele><time>2026-03-28T13:48:38.451Z</time></trkpt><trkpt lat="45.8812263" lon="8.7986739"><ele>545.0</ele><time>2026-03-28T13:48:39.452Z</time></trkpt><trkpt lat="45.8813781" lon="8.7985025"><ele>548.0</ele><time>2026-03-28T13:48:40.451Z</time></trkpt><trkpt lat="45.881534" lon="8.7983278"><ele>551.0</ele><time>2026-03-28T13:48:41.451Z</time></trkpt><trkpt lat="45.8816894" lon="8.7981551"><ele>554.0</ele><time>2026-03-28T13:48:42.452Z</time></trkpt><trkpt lat="45.8818438" lon="8.7979828"><ele>554.0</ele><time>2026-03-28T13:48:43.451Z</time></trkpt><trkpt lat="45.881996" lon="8.797813"><ele>554.0</ele><time>2026-03-28T13:48:44.452Z</time></trkpt><trkpt lat="45.8821433" lon="8.7976489"><ele>554.0</ele><time>2026-03-28T13:48:45.451Z</time></trkpt><trkpt lat="45.8822903" lon="8.7974851"><ele>554.0</ele><time>2026-03-28T13:48:46.452Z</time></trkpt><trkpt lat="45.8824282" lon="8.7973245"><ele>554.0</ele><time>2026-03-28T13:48:47.452Z</time></trkpt><trkpt lat="45.8825685" lon="8.7971708"><ele>554.0</ele><time>2026-03-28T13:48:48.451Z</time></trkpt><trkpt lat="45.8827159" lon="8.7970354"><ele>554.0</ele><time>2026-03-28T13:48:49.451Z</time></trkpt><trkpt lat="45.8828765" lon="8.7969182"><ele>554.0</ele><time>2026-03-28T13:48:50.451Z</time></trkpt><trkpt lat="45.8830407" lon="8.7968148"><ele>554.0</ele><time>2026-03-28T13:48:51.452Z</time></trkpt><trkpt lat="45.8832091" lon="8.7967111"><ele>551.6666666666666</ele><time>2026-03-28T13:48:52.452Z</time></trkpt><trkpt lat="45.8833732" lon="8.7966004"><ele>549.3333333333334</ele><time>2026-03-28T13:48:53.451Z</time></trkpt><trkpt lat="45.8835408" lon="8.7964851"><ele>547.0</ele><time>2026-03-28T13:48:54.452Z</time></trkpt><trkpt lat="45.8837103" lon="8.7963713"><ele>547.0</ele><time>2026-03-28T13:48:55.451Z</time></trkpt><trkpt lat="45.8838786" lon="8.7962584"><ele>547.0</ele><time>2026-03-28T13:48:56.451Z</time></trkpt><trkpt lat="45.8840433" lon="8.7961444"><ele>547.0</ele><time>2026-03-28T13:48:57.452Z</time></trkpt><trkpt lat="45.8842084" lon="8.7960362"><ele>542.3333333333334</ele><time>2026-03-28T13:48:58.452Z</time></trkpt><trkpt lat="45.8843778" lon="8.7959296"><ele>537.6666666666666</ele><time>2026-03-28T13:48:59.451Z</time></trkpt><trkpt lat="45.8845469" lon="8.7958224"><ele>533.0</ele><time>2026-03-28T13:49:00.451Z</time></trkpt><trkpt lat="45.8847191" lon="8.7957247"><ele>533.0</ele><time>2026-03-28T13:49:01.451Z</time></trkpt><trkpt lat="45.8848996" lon="8.79562"><ele>533.0</ele><time>2026-03-28T13:49:02.452Z</time></trkpt><trkpt lat="45.885074" lon="8.7955304"><ele>533.0</ele><time>2026-03-28T13:49:03.451Z</time></trkpt><trkpt lat="45.8852411" lon="8.7954406"><ele>528.0</ele><time>2026-03-28T13:49:04.451Z</time></trkpt><trkpt lat="45.8854044" lon="8.7953438"><ele>523.0</ele><time>2026-03-28T13:49:05.452Z</time></trkpt><trkpt lat="45.8855701" lon="8.7952317"><ele>518.0</ele><time>2026-03-28T13:49:06.451Z</time></trkpt><trkpt lat="45.8857298" lon="8.7951259"><ele>518.0</ele><time>2026-03-28T13:49:07.45Z</time></trkpt><trkpt lat="45.8858922" lon="8.7950121"><ele>518.0</ele><time>2026-03-28T13:49:08.451Z</time></trkpt><trkpt lat="45.8860479" lon="8.7948824"><ele>518.0</ele><time>2026-03-28T13:49:09.451Z</time></trkpt><trkpt lat="45.8861979" lon="8.794754"><ele>524.3333333333333</ele><time>2026-03-28T13:49:10.451Z</time></trkpt><trkpt lat="45.8863432" lon="8.7946179"><ele>530.6666666666666</ele><time>2026-03-28T13:49:11.452Z</time></trkpt><trkpt lat="45.886486" lon="8.7944844"><ele>537.0</ele><time>2026-03-28T13:49:12.452Z</time></trkpt><trkpt lat="45.8866269" lon="8.7943467"><ele>536.6666666666666</ele><time>2026-03-28T13:49:13.451Z</time></trkpt><trkpt lat="45.8867668" lon="8.7942109"><ele>536.3333333333333</ele><time>2026-03-28T13:49:14.452Z</time></trkpt><trkpt lat="45.8869062" lon="8.7940782"><ele>536.0</ele><time>2026-03-28T13:49:15.452Z</time></trkpt><trkpt lat="45.8870427" lon="8.793944"><ele>536.0</ele><time>2026-03-28T13:49:16.451Z</time></trkpt><trkpt lat="45.8871761" lon="8.7938145"><ele>536.0</ele><time>2026-03-28T13:49:17.452Z</time></trkpt><trkpt lat="45.8873025" lon="8.7936912"><ele>536.0</ele><time>2026-03-28T13:49:18.452Z</time></trkpt><trkpt lat="45.8874216" lon="8.7935732"><ele>535.5</ele><time>2026-03-28T13:49:19.451Z</time></trkpt><trkpt lat="45.8875268" lon="8.7934498"><ele>535.0</ele><time>2026-03-28T13:49:20.452Z</time></trkpt><trkpt lat="45.8876185" lon="8.7933023"><ele>534.5</ele><time>2026-03-28T13:49:21.451Z</time></trkpt><trkpt lat="45.8876954" lon="8.7931275"><ele>534.0</ele><time>2026-03-28T13:49:22.452Z</time></trkpt><trkpt lat="45.887755" lon="8.7929526"><ele>534.0</ele><time>2026-03-28T13:49:23.452Z</time></trkpt><trkpt lat="45.8878084" lon="8.792778"><ele>534.0</ele><time>2026-03-28T13:49:24.451Z</time></trkpt><trkpt lat="45.887851" lon="8.7925806"><ele>534.0</ele><time>2026-03-28T13:49:25.45Z</time></trkpt><trkpt lat="45.8878837" lon="8.7923741"><ele>534.0</ele><time>2026-03-28T13:49:26.452Z</time></trkpt><trkpt lat="45.8879056" lon="8.7921622"><ele>529.3333333333334</ele><time>2026-03-28T13:49:27.452Z</time></trkpt><trkpt lat="45.8879281" lon="8.7919413"><ele>524.6666666666667</ele><time>2026-03-28T13:49:28.451Z</time></trkpt><trkpt lat="45.8879513" lon="8.7917316"><ele>520.0</ele><time>2026-03-28T13:49:29.451Z</time></trkpt><trkpt lat="45.8879706" lon="8.7915221"><ele>519.0</ele><time>2026-03-28T13:49:30.452Z</time></trkpt><trkpt lat="45.8879891" lon="8.791319"><ele>518.0</ele><time>2026-03-28T13:49:31.451Z</time></trkpt><trkpt lat="45.888009" lon="8.7911174"><ele>517.0</ele><time>2026-03-28T13:49:32.451Z</time></trkpt><trkpt lat="45.8880287" lon="8.7909159"><ele>516.0</ele><time>2026-03-28T13:49:33.452Z</time></trkpt><trkpt lat="45.8880531" lon="8.7907152"><ele>516.0</ele><time>2026-03-28T13:49:34.451Z</time></trkpt><trkpt lat="45.8880718" lon="8.7905229"><ele>516.0</ele><time>2026-03-28T13:49:35.452Z</time></trkpt><trkpt lat="45.8880918" lon="8.7903294"><ele>516.0</ele><time>2026-03-28T13:49:36.451Z</time></trkpt><trkpt lat="45.8881137" lon="8.7901384"><ele>516.0</ele><time>2026-03-28T13:49:37.451Z</time></trkpt><trkpt lat="45.8881535" lon="8.7899554"><ele>515.0</ele><time>2026-03-28T13:49:38.452Z</time></trkpt><trkpt lat="45.8882105" lon="8.7897777"><ele>514.0</ele><time>2026-03-28T13:49:39.451Z</time></trkpt><trkpt lat="45.8882779" lon="8.789609"><ele>513.0</ele><time>2026-03-28T13:49:40.451Z</time></trkpt><trkpt lat="45.8883632" lon="8.7894556"><ele>512.0</ele><time>2026-03-28T13:49:41.452Z</time></trkpt><trkpt lat="45.8884645" lon="8.7893175"><ele>511.75</ele><time>2026-03-28T13:49:42.452Z</time></trkpt><trkpt lat="45.8885693" lon="8.7891983"><ele>511.5</ele><time>2026-03-28T13:49:43.452Z</time></trkpt><trkpt lat="45.8886959" lon="8.7890944"><ele>511.25</ele><time>2026-03-28T13:49:44.451Z</time></trkpt><trkpt lat="45.8888158" lon="8.7890085"><ele>511.0</ele><time>2026-03-28T13:49:45.452Z</time></trkpt><trkpt lat="45.8889323" lon="8.7889349"><ele>511.0</ele><time>2026-03-28T13:49:46.451Z</time></trkpt><trkpt lat="45.8890387" lon="8.7888607"><ele>511.0</ele><time>2026-03-28T13:49:47.452Z</time></trkpt><trkpt lat="45.889154" lon="8.7887901"><ele>511.0</ele><time>2026-03-28T13:49:48.452Z</time></trkpt><trkpt lat="45.8892603" lon="8.7886976"><ele>511.0</ele><time>2026-03-28T13:49:49.451Z</time></trkpt><trkpt lat="45.8893567" lon="8.7885813"><ele>510.25</ele><time>2026-03-28T13:49:50.452Z</time></trkpt><trkpt lat="45.8894457" lon="8.7884444"><ele>509.5</ele><time>2026-03-28T13:49:51.452Z</time></trkpt><trkpt lat="45.8895373" lon="8.7882941"><ele>508.75</ele><time>2026-03-28T13:49:52.451Z</time></trkpt><trkpt lat="45.8896284" lon="8.7881391"><ele>508.0</ele><time>2026-03-28T13:49:53.452Z</time></trkpt><trkpt lat="45.8897219" lon="8.7879789"><ele>508.0</ele><time>2026-03-28T13:49:54.452Z</time></trkpt><trkpt lat="45.8898131" lon="8.7878114"><ele>508.0</ele><time>2026-03-28T13:49:55.452Z</time></trkpt><trkpt lat="45.8899062" lon="8.7876526"><ele>508.0</ele><time>2026-03-28T13:49:56.451Z</time></trkpt><trkpt lat="45.8899963" lon="8.7874887"><ele>508.0</ele><time>2026-03-28T13:49:57.452Z</time></trkpt><trkpt lat="45.8900923" lon="8.7873266"><ele>509.0</ele><time>2026-03-28T13:49:58.452Z</time></trkpt><trkpt lat="45.89019" lon="8.7871633"><ele>510.0</ele><time>2026-03-28T13:49:59.452Z</time></trkpt><trkpt lat="45.8902712" lon="8.7870015"><ele>511.0</ele><time>2026-03-28T13:50:00.45Z</time></trkpt><trkpt lat="45.8903407" lon="8.7868224"><ele>512.0</ele><time>2026-03-28T13:50:01.452Z</time></trkpt><trkpt lat="45.8903855" lon="8.7866353"><ele>512.0</ele><time>2026-03-28T13:50:02.451Z</time></trkpt><trkpt lat="45.8904168" lon="8.7864385"><ele>512.0</ele><time>2026-03-28T13:50:03.452Z</time></trkpt><trkpt lat="45.8904426" lon="8.7862339"><ele>512.0</ele><time>2026-03-28T13:50:04.452Z</time></trkpt><trkpt lat="45.8904714" lon="8.7860314"><ele>512.0</ele><time>2026-03-28T13:50:05.452Z</time></trkpt><trkpt lat="45.8905" lon="8.7858315"><ele>510.5</ele><time>2026-03-28T13:50:06.451Z</time></trkpt><trkpt lat="45.8905283" lon="8.785636"><ele>509.0</ele><time>2026-03-28T13:50:07.452Z</time></trkpt><trkpt lat="45.8905575" lon="8.7854407"><ele>507.5</ele><time>2026-03-28T13:50:08.451Z</time></trkpt><trkpt lat="45.890581" lon="8.7852402"><ele>506.0</ele><time>2026-03-28T13:50:09.451Z</time></trkpt><trkpt lat="45.8906089" lon="8.7850379"><ele>505.25</ele><time>2026-03-28T13:50:10.452Z</time></trkpt><trkpt lat="45.8906432" lon="8.7848407"><ele>504.5</ele><time>2026-03-28T13:50:11.452Z</time></trkpt><trkpt lat="45.8906746" lon="8.7846409"><ele>503.75</ele><time>2026-03-28T13:50:12.451Z</time></trkpt><trkpt lat="45.8907048" lon="8.7844462"><ele>503.0</ele><time>2026-03-28T13:50:13.452Z</time></trkpt><trkpt lat="45.890729" lon="8.7842548"><ele>503.0</ele><time>2026-03-28T13:50:14.451Z</time></trkpt><trkpt lat="45.8907539" lon="8.7840766"><ele>503.0</ele><time>2026-03-28T13:50:15.452Z</time></trkpt><trkpt lat="45.8907732" lon="8.7839021"><ele>503.0</ele><time>2026-03-28T13:50:16.451Z</time></trkpt><trkpt lat="45.8907762" lon="8.7837182"><ele>503.0</ele><time>2026-03-28T13:50:17.452Z</time></trkpt><trkpt lat="45.8907566" lon="8.7835285"><ele>504.25</ele><time>2026-03-28T13:50:18.452Z</time></trkpt><trkpt lat="45.8907266" lon="8.7833362"><ele>505.5</ele><time>2026-03-28T13:50:19.452Z</time></trkpt><trkpt lat="45.8906858" lon="8.7831424"><ele>506.75</ele><time>2026-03-28T13:50:20.451Z</time></trkpt><trkpt lat="45.8906465" lon="8.7829503"><ele>508.0</ele><time>2026-03-28T13:50:21.452Z</time></trkpt><trkpt lat="45.8906082" lon="8.7827696"><ele>509.25</ele><time>2026-03-28T13:50:22.451Z</time></trkpt><trkpt lat="45.8905882" lon="8.7826006"><ele>510.5</ele><time>2026-03-28T13:50:23.452Z</time></trkpt><trkpt lat="45.890594" lon="8.7824258"><ele>511.75</ele><time>2026-03-28T13:50:24.452Z</time></trkpt><trkpt lat="45.8906061" lon="8.7822589"><ele>513.0</ele><time>2026-03-28T13:50:25.452Z</time></trkpt><trkpt lat="45.8906527" lon="8.7820983"><ele>513.0</ele><time>2026-03-28T13:50:26.451Z</time></trkpt><trkpt lat="45.8907016" lon="8.7819346"><ele>513.0</ele><time>2026-03-28T13:50:27.451Z</time></trkpt><trkpt lat="45.8907615" lon="8.7817789"><ele>513.0</ele><time>2026-03-28T13:50:28.451Z</time></trkpt><trkpt lat="45.8908404" lon="8.7816408"><ele>513.0</ele><time>2026-03-28T13:50:29.452Z</time></trkpt><trkpt lat="45.8909325" lon="8.7815225"><ele>515.0</ele><time>2026-03-28T13:50:30.452Z</time></trkpt><trkpt lat="45.8910441" lon="8.7814257"><ele>517.0</ele><time>2026-03-28T13:50:31.451Z</time></trkpt><trkpt lat="45.8911581" lon="8.7813274"><ele>519.0</ele><time>2026-03-28T13:50:32.452Z</time></trkpt><trkpt lat="45.8912814" lon="8.7812426"><ele>521.0</ele><time>2026-03-28T13:50:33.451Z</time></trkpt><trkpt lat="45.8914075" lon="8.7811547"><ele>521.0</ele><time>2026-03-28T13:50:34.452Z</time></trkpt><trkpt lat="45.8915374" lon="8.7810685"><ele>521.0</ele><time>2026-03-28T13:50:35.451Z</time></trkpt><trkpt lat="45.8916696" lon="8.7809826"><ele>521.0</ele><time>2026-03-28T13:50:36.452Z</time></trkpt><trkpt lat="45.8917971" lon="8.7809015"><ele>521.0</ele><time>2026-03-28T13:50:37.452Z</time></trkpt><trkpt lat="45.8919215" lon="8.7808248"><ele>519.5</ele><time>2026-03-28T13:50:38.452Z</time></trkpt><trkpt lat="45.8920476" lon="8.7807735"><ele>518.0</ele><time>2026-03-28T13:50:39.452Z</time></trkpt><trkpt lat="45.8921787" lon="8.7807523"><ele>516.5</ele><time>2026-03-28T13:50:40.451Z</time></trkpt><trkpt lat="45.8923221" lon="8.7807438"><ele>515.0</ele><time>2026-03-28T13:50:41.451Z</time></trkpt><trkpt lat="45.8924597" lon="8.7807475"><ele>516.0</ele><time>2026-03-28T13:50:42.451Z</time></trkpt><trkpt lat="45.8926011" lon="8.7807439"><ele>517.0</ele><time>2026-03-28T13:50:43.452Z</time></trkpt><trkpt lat="45.8927376" lon="8.7807348"><ele>518.0</ele><time>2026-03-28T13:50:44.452Z</time></trkpt><trkpt lat="45.8928606" lon="8.7806887"><ele>519.0</ele><time>2026-03-28T13:50:45.451Z</time></trkpt><trkpt lat="45.8929809" lon="8.7806101"><ele>519.0</ele><time>2026-03-28T13:50:46.451Z</time></trkpt><trkpt lat="45.8930853" lon="8.7805342"><ele>519.0</ele><time>2026-03-28T13:50:47.451Z</time></trkpt><trkpt lat="45.8931825" lon="8.780447"><ele>519.0</ele><time>2026-03-28T13:50:48.451Z</time></trkpt><trkpt lat="45.8932958" lon="8.7803945"><ele>519.0</ele><time>2026-03-28T13:50:49.452Z</time></trkpt><trkpt lat="45.8934121" lon="8.7803521"><ele>521.0</ele><time>2026-03-28T13:50:50.452Z</time></trkpt><trkpt lat="45.8935276" lon="8.7803515"><ele>523.0</ele><time>2026-03-28T13:50:51.452Z</time></trkpt><trkpt lat="45.8936634" lon="8.7803376"><ele>525.0</ele><time>2026-03-28T13:50:52.45Z</time></trkpt><trkpt lat="45.893776" lon="8.7803122"><ele>527.0</ele><time>2026-03-28T13:50:53.451Z</time></trkpt><trkpt lat="45.8938891" lon="8.7802489"><ele>521.75</ele><time>2026-03-28T13:50:54.451Z</time></trkpt><trkpt lat="45.8939783" lon="8.7801506"><ele>516.5</ele><time>2026-03-28T13:50:55.452Z</time></trkpt><trkpt lat="45.8940575" lon="8.78002"><ele>511.25</ele><time>2026-03-28T13:50:56.452Z</time></trkpt><trkpt lat="45.8941323" lon="8.7798675"><ele>506.0</ele><time>2026-03-28T13:50:57.452Z</time></trkpt><trkpt lat="45.8942087" lon="8.7797141"><ele>507.75</ele><time>2026-03-28T13:50:58.452Z</time></trkpt><trkpt lat="45.8942883" lon="8.7795572"><ele>509.5</ele><time>2026-03-28T13:50:59.451Z</time></trkpt><trkpt lat="45.8943799" lon="8.7793993"><ele>511.25</ele><time>2026-03-28T13:51:00.452Z</time></trkpt><trkpt lat="45.8944794" lon="8.7792462"><ele>513.0</ele><time>2026-03-28T13:51:01.452Z</time></trkpt><trkpt lat="45.8945903" lon="8.7791079"><ele>513.0</ele><time>2026-03-28T13:51:02.451Z</time></trkpt><trkpt lat="45.8947113" lon="8.7789741"><ele>513.0</ele><time>2026-03-28T13:51:03.451Z</time></trkpt><trkpt lat="45.894839" lon="8.7788433"><ele>513.0</ele><time>2026-03-28T13:51:04.451Z</time></trkpt><trkpt lat="45.8949703" lon="8.7787179"><ele>511.66666666666663</ele><time>2026-03-28T13:51:05.452Z</time></trkpt><trkpt lat="45.895107" lon="8.7786001"><ele>510.3333333333333</ele><time>2026-03-28T13:51:06.452Z</time></trkpt><trkpt lat="45.8952437" lon="8.7784822"><ele>509.0</ele><time>2026-03-28T13:51:07.451Z</time></trkpt><trkpt lat="45.8953877" lon="8.7783491"><ele>509.0</ele><time>2026-03-28T13:51:08.451Z</time></trkpt><trkpt lat="45.8955197" lon="8.7782248"><ele>509.0</ele><time>2026-03-28T13:51:09.452Z</time></trkpt><trkpt lat="45.8956447" lon="8.7781085"><ele>509.0</ele><time>2026-03-28T13:51:10.452Z</time></trkpt><trkpt lat="45.895775" lon="8.7780004"><ele>509.0</ele><time>2026-03-28T13:51:11.452Z</time></trkpt><trkpt lat="45.8959037" lon="8.7778887"><ele>509.0</ele><time>2026-03-28T13:51:12.452Z</time></trkpt><trkpt lat="45.8960297" lon="8.7777778"><ele>509.0</ele><time>2026-03-28T13:51:13.452Z</time></trkpt><trkpt lat="45.8961533" lon="8.777664"><ele>509.0</ele><time>2026-03-28T13:51:14.451Z</time></trkpt><trkpt lat="45.8962765" lon="8.7775612"><ele>509.75</ele><time>2026-03-28T13:51:15.452Z</time></trkpt><trkpt lat="45.8963971" lon="8.7774568"><ele>510.5</ele><time>2026-03-28T13:51:16.452Z</time></trkpt><trkpt lat="45.8965225" lon="8.7773742"><ele>511.25</ele><time>2026-03-28T13:51:17.451Z</time></trkpt><trkpt lat="45.8966544" lon="8.7773219"><ele>512.0</ele><time>2026-03-28T13:51:18.452Z</time></trkpt><trkpt lat="45.8967757" lon="8.7772787"><ele>510.8</ele><time>2026-03-28T13:51:19.451Z</time></trkpt><trkpt lat="45.8969035" lon="8.7772734"><ele>509.6</ele><time>2026-03-28T13:51:20.452Z</time></trkpt><trkpt lat="45.8970084" lon="8.7772912"><ele>508.40000000000003</ele><time>2026-03-28T13:51:21.452Z</time></trkpt><trkpt lat="45.8971001" lon="8.7773578"><ele>507.20000000000005</ele><time>2026-03-28T13:51:22.452Z</time></trkpt><trkpt lat="45.8971886" lon="8.7774401"><ele>506.0</ele><time>2026-03-28T13:51:23.452Z</time></trkpt><trkpt lat="45.897296" lon="8.7775611"><ele>506.0</ele><time>2026-03-28T13:51:24.452Z</time></trkpt><trkpt lat="45.8973899" lon="8.7776801"><ele>506.0</ele><time>2026-03-28T13:51:25.452Z</time></trkpt><trkpt lat="45.8974903" lon="8.7777671"><ele>506.0</ele><time>2026-03-28T13:51:26.451Z</time></trkpt><trkpt lat="45.8976069" lon="8.7778523"><ele>506.0</ele><time>2026-03-28T13:51:27.451Z</time></trkpt><trkpt lat="45.8977329" lon="8.7779052"><ele>507.75</ele><time>2026-03-28T13:51:28.451Z</time></trkpt><trkpt lat="45.897852" lon="8.7779322"><ele>509.5</ele><time>2026-03-28T13:51:29.451Z</time></trkpt><trkpt lat="45.8979944" lon="8.7779375"><ele>511.25</ele><time>2026-03-28T13:51:30.452Z</time></trkpt><trkpt lat="45.8981384" lon="8.7779285"><ele>513.0</ele><time>2026-03-28T13:51:31.451Z</time></trkpt><trkpt lat="45.8982724" lon="8.7779104"><ele>513.0</ele><time>2026-03-28T13:51:32.452Z</time></trkpt><trkpt lat="45.8983971" lon="8.7778982"><ele>513.0</ele><time>2026-03-28T13:51:33.451Z</time></trkpt><trkpt lat="45.8985202" lon="8.7778848"><ele>513.0</ele><time>2026-03-28T13:51:34.451Z</time></trkpt><trkpt lat="45.8986245" lon="8.7778739"><ele>513.0</ele><time>2026-03-28T13:51:35.451Z</time></trkpt><trkpt lat="45.8987288" lon="8.7778886"><ele>508.0</ele><time>2026-03-28T13:51:36.452Z</time></trkpt><trkpt lat="45.8988161" lon="8.77793"><ele>502.99999999999994</ele><time>2026-03-28T13:51:37.451Z</time></trkpt><trkpt lat="45.8988859" lon="8.7780236"><ele>497.99999999999994</ele><time>2026-03-28T13:51:38.452Z</time></trkpt><trkpt lat="45.8989308" lon="8.7781687"><ele>493.0</ele><time>2026-03-28T13:51:39.452Z</time></trkpt><trkpt lat="45.8989614" lon="8.7783145"><ele>488.0</ele><time>2026-03-28T13:51:40.452Z</time></trkpt><trkpt lat="45.8990052" lon="8.7784868"><ele>490.75</ele><time>2026-03-28T13:51:41.451Z</time></trkpt><trkpt lat="45.8990496" lon="8.7786553"><ele>493.5</ele><time>2026-03-28T13:51:42.45Z</time></trkpt><trkpt lat="45.8990971" lon="8.7788372"><ele>496.25</ele><time>2026-03-28T13:51:43.451Z</time></trkpt><trkpt lat="45.899158" lon="8.7790116"><ele>499.0</ele><time>2026-03-28T13:51:44.451Z</time></trkpt><trkpt lat="45.8992365" lon="8.7791794"><ele>495.33333333333337</ele><time>2026-03-28T13:51:45.451Z</time></trkpt><trkpt lat="45.8993371" lon="8.7793486"><ele>491.66666666666663</ele><time>2026-03-28T13:51:46.452Z</time></trkpt><trkpt lat="45.8994446" lon="8.7794974"><ele>488.0</ele><time>2026-03-28T13:51:47.452Z</time></trkpt><trkpt lat="45.89955" lon="8.7796683"><ele>488.0</ele><time>2026-03-28T13:51:48.451Z</time></trkpt><trkpt lat="45.8996718" lon="8.7798309"><ele>488.0</ele><time>2026-03-28T13:51:49.451Z</time></trkpt><trkpt lat="45.8997994" lon="8.7799939"><ele>488.0</ele><time>2026-03-28T13:51:50.451Z</time></trkpt><trkpt lat="45.899926" lon="8.7801459"><ele>485.25</ele><time>2026-03-28T13:51:51.452Z</time></trkpt><trkpt lat="45.9000314" lon="8.7802953"><ele>482.5</ele><time>2026-03-28T13:51:52.452Z</time></trkpt><trkpt lat="45.9001251" lon="8.7804528"><ele>479.75</ele><time>2026-03-28T13:51:53.452Z</time></trkpt><trkpt lat="45.900206" lon="8.7806016"><ele>477.0</ele><time>2026-03-28T13:51:54.451Z</time></trkpt><trkpt lat="45.9003094" lon="8.7807353"><ele>477.0</ele><time>2026-03-28T13:51:55.451Z</time></trkpt><trkpt lat="45.9004242" lon="8.7808315"><ele>477.0</ele><time>2026-03-28T13:51:56.451Z</time></trkpt><trkpt lat="45.9005485" lon="8.7809251"><ele>477.0</ele><time>2026-03-28T13:51:57.452Z</time></trkpt><trkpt lat="45.9006644" lon="8.781031"><ele>477.0</ele><time>2026-03-28T13:51:58.452Z</time></trkpt><trkpt lat="45.9007777" lon="8.7811541"><ele>480.40000000000003</ele><time>2026-03-28T13:51:59.452Z</time></trkpt><trkpt lat="45.9008868" lon="8.7812698"><ele>483.80000000000007</ele><time>2026-03-28T13:52:00.452Z</time></trkpt><trkpt lat="45.90098" lon="8.7813864"><ele>487.2</ele><time>2026-03-28T13:52:01.452Z</time></trkpt><trkpt lat="45.9010504" lon="8.7814935"><ele>490.6</ele><time>2026-03-28T13:52:02.452Z</time></trkpt><trkpt lat="45.901089" lon="8.7816054"><ele>494.0</ele><time>2026-03-28T13:52:03.451Z</time></trkpt><trkpt lat="45.9011052" lon="8.7817017"><ele>496.6</ele><time>2026-03-28T13:52:04.451Z</time></trkpt><trkpt lat="45.9010858" lon="8.7818326"><ele>499.2</ele><time>2026-03-28T13:52:05.452Z</time></trkpt><trkpt lat="45.9010243" lon="8.7819636"><ele>501.80000000000007</ele><time>2026-03-28T13:52:06.452Z</time></trkpt><trkpt lat="45.9009602" lon="8.7820919"><ele>504.40000000000003</ele><time>2026-03-28T13:52:07.451Z</time></trkpt><trkpt lat="45.9009129" lon="8.7822221"><ele>507.0</ele><time>2026-03-28T13:52:08.451Z</time></trkpt><trkpt lat="45.9008714" lon="8.7823271"><ele>507.0</ele><time>2026-03-28T13:52:09.451Z</time></trkpt><trkpt lat="45.9008464" lon="8.7824318"><ele>507.00000000000006</ele><time>2026-03-28T13:52:10.451Z</time></trkpt><trkpt lat="45.9008591" lon="8.7825227"><ele>507.00000000000006</ele><time>2026-03-28T13:52:11.451Z</time></trkpt><trkpt lat="45.9009757" lon="8.7826083"><ele>507.0</ele><time>2026-03-28T13:52:13.451Z</time></trkpt><trkpt lat="45.9010746" lon="8.7825983"><ele>507.0</ele><time>2026-03-28T13:52:14.451Z</time></trkpt><trkpt lat="45.9011813" lon="8.7825796"><ele>505.5</ele><time>2026-03-28T13:52:15.451Z</time></trkpt><trkpt lat="45.9013044" lon="8.7825678"><ele>504.0</ele><time>2026-03-28T13:52:16.452Z</time></trkpt><trkpt lat="45.9014176" lon="8.7825878"><ele>502.5</ele><time>2026-03-28T13:52:17.452Z</time></trkpt><trkpt lat="45.9015327" lon="8.7826134"><ele>501.0</ele><time>2026-03-28T13:52:18.451Z</time></trkpt><trkpt lat="45.9016405" lon="8.7826862"><ele>493.0</ele><time>2026-03-28T13:52:19.452Z</time></trkpt><trkpt lat="45.9018012" lon="8.7828392"><ele>485.0</ele><time>2026-03-28T13:52:20.452Z</time></trkpt><trkpt lat="45.9019396" lon="8.7829309"><ele>477.0</ele><time>2026-03-28T13:52:21.452Z</time></trkpt><trkpt lat="45.9020838" lon="8.7830348"><ele>477.0</ele><time>2026-03-28T13:52:22.452Z</time></trkpt><trkpt lat="45.9022372" lon="8.783139"><ele>477.0</ele><time>2026-03-28T13:52:23.451Z</time></trkpt><trkpt lat="45.9024004" lon="8.7832465"><ele>477.0</ele><time>2026-03-28T13:52:24.451Z</time></trkpt><trkpt lat="45.9025519" lon="8.783347"><ele>475.66666666666663</ele><time>2026-03-28T13:52:25.451Z</time></trkpt><trkpt lat="45.90268" lon="8.7834692"><ele>474.3333333333333</ele><time>2026-03-28T13:52:26.452Z</time></trkpt><trkpt lat="45.9027925" lon="8.7836262"><ele>473.0</ele><time>2026-03-28T13:52:27.452Z</time></trkpt><trkpt lat="45.9029202" lon="8.7837888"><ele>473.0</ele><time>2026-03-28T13:52:28.451Z</time></trkpt><trkpt lat="45.903046" lon="8.7839581"><ele>473.0</ele><time>2026-03-28T13:52:29.452Z</time></trkpt><trkpt lat="45.9031776" lon="8.7841278"><ele>473.0</ele><time>2026-03-28T13:52:30.451Z</time></trkpt><trkpt lat="45.9033088" lon="8.7842878"><ele>473.0</ele><time>2026-03-28T13:52:31.451Z</time></trkpt><trkpt lat="45.9034314" lon="8.7844537"><ele>473.0</ele><time>2026-03-28T13:52:32.451Z</time></trkpt><trkpt lat="45.903547" lon="8.784606"><ele>473.0</ele><time>2026-03-28T13:52:33.452Z</time></trkpt><trkpt lat="45.903656" lon="8.7847546"><ele>473.0</ele><time>2026-03-28T13:52:34.452Z</time></trkpt><trkpt lat="45.903759" lon="8.7848859"><ele>473.0</ele><time>2026-03-28T13:52:35.451Z</time></trkpt><trkpt lat="45.9038576" lon="8.7850155"><ele>473.0</ele><time>2026-03-28T13:52:36.452Z</time></trkpt><trkpt lat="45.9039619" lon="8.7851252"><ele>473.0</ele><time>2026-03-28T13:52:37.451Z</time></trkpt><trkpt lat="45.9040698" lon="8.7852025"><ele>474.25</ele><time>2026-03-28T13:52:38.451Z</time></trkpt><trkpt lat="45.9041902" lon="8.7852577"><ele>475.5</ele><time>2026-03-28T13:52:39.451Z</time></trkpt><trkpt lat="45.9043045" lon="8.7852752"><ele>476.75</ele><time>2026-03-28T13:52:40.452Z</time></trkpt><trkpt lat="45.9044178" lon="8.7852863"><ele>478.0</ele><time>2026-03-28T13:52:41.451Z</time></trkpt><trkpt lat="45.9045116" lon="8.7853085"><ele>475.25</ele><time>2026-03-28T13:52:42.451Z</time></trkpt><trkpt lat="45.9045694" lon="8.7853729"><ele>472.5</ele><time>2026-03-28T13:52:43.451Z</time></trkpt><trkpt lat="45.9046172" lon="8.7855649"><ele>469.75</ele><time>2026-03-28T13:52:44.451Z</time></trkpt><trkpt lat="45.9046658" lon="8.7856967"><ele>467.0</ele><time>2026-03-28T13:52:45.451Z</time></trkpt><trkpt lat="45.9047174" lon="8.7858749"><ele>468.5</ele><time>2026-03-28T13:52:46.451Z</time></trkpt><trkpt lat="45.9047728" lon="8.7860425"><ele>470.0</ele><time>2026-03-28T13:52:47.451Z</time></trkpt><trkpt lat="45.9048308" lon="8.7862195"><ele>471.5</ele><time>2026-03-28T13:52:48.451Z</time></trkpt><trkpt lat="45.9048986" lon="8.7863951"><ele>473.0</ele><time>2026-03-28T13:52:49.451Z</time></trkpt><trkpt lat="45.9049717" lon="8.786565"><ele>473.0</ele><time>2026-03-28T13:52:50.451Z</time></trkpt><trkpt lat="45.9050416" lon="8.7867365"><ele>473.0</ele><time>2026-03-28T13:52:51.451Z</time></trkpt><trkpt lat="45.9051188" lon="8.786911"><ele>473.0</ele><time>2026-03-28T13:52:52.451Z</time></trkpt><trkpt lat="45.905202" lon="8.7870863"><ele>473.0</ele><time>2026-03-28T13:52:53.451Z</time></trkpt><trkpt lat="45.9052877" lon="8.7872563"><ele>472.66666666666663</ele><time>2026-03-28T13:52:54.451Z</time></trkpt><trkpt lat="45.9054005" lon="8.7874101"><ele>472.33333333333337</ele><time>2026-03-28T13:52:55.451Z</time></trkpt><trkpt lat="45.9055003" lon="8.7875629"><ele>472.0</ele><time>2026-03-28T13:52:56.451Z</time></trkpt><trkpt lat="45.9056084" lon="8.7877128"><ele>472.25</ele><time>2026-03-28T13:52:57.451Z</time></trkpt><trkpt lat="45.905701" lon="8.7878586"><ele>472.5</ele><time>2026-03-28T13:52:58.451Z</time></trkpt><trkpt lat="45.9058058" lon="8.7879977"><ele>472.75</ele><time>2026-03-28T13:52:59.452Z</time></trkpt><trkpt lat="45.9059067" lon="8.7881403"><ele>473.0</ele><time>2026-03-28T13:53:00.452Z</time></trkpt><trkpt lat="45.9060036" lon="8.7882645"><ele>473.0</ele><time>2026-03-28T13:53:01.452Z</time></trkpt><trkpt lat="45.9061022" lon="8.7883845"><ele>472.99999999999994</ele><time>2026-03-28T13:53:02.452Z</time></trkpt><trkpt lat="45.9061937" lon="8.7884912"><ele>472.99999999999994</ele><time>2026-03-28T13:53:03.452Z</time></trkpt><trkpt lat="45.9062543" lon="8.788592"><ele>473.0</ele><time>2026-03-28T13:53:04.451Z</time></trkpt><trkpt lat="45.9063077" lon="8.7887102"><ele>473.0</ele><time>2026-03-28T13:53:05.451Z</time></trkpt><trkpt lat="45.9063485" lon="8.78883"><ele>472.59999999999997</ele><time>2026-03-28T13:53:06.452Z</time></trkpt><trkpt lat="45.9063713" lon="8.7889519"><ele>472.19999999999993</ele><time>2026-03-28T13:53:07.451Z</time></trkpt><trkpt lat="45.9063714" lon="8.7890977"><ele>471.8</ele><time>2026-03-28T13:53:08.452Z</time></trkpt><trkpt lat="45.9064193" lon="8.7892199"><ele>471.4</ele><time>2026-03-28T13:53:09.452Z</time></trkpt><trkpt lat="45.9064933" lon="8.7893101"><ele>471.0</ele><time>2026-03-28T13:53:10.451Z</time></trkpt><trkpt lat="45.9065658" lon="8.7894052"><ele>472.0</ele><time>2026-03-28T13:53:11.451Z</time></trkpt><trkpt lat="45.9066508" lon="8.7895173"><ele>473.0</ele><time>2026-03-28T13:53:12.452Z</time></trkpt><trkpt lat="45.9067402" lon="8.7896472"><ele>474.0</ele><time>2026-03-28T13:53:13.452Z</time></trkpt><trkpt lat="45.9068275" lon="8.7897819"><ele>475.0</ele><time>2026-03-28T13:53:14.452Z</time></trkpt><trkpt lat="45.9069261" lon="8.7899353"><ele>473.25</ele><time>2026-03-28T13:53:15.452Z</time></trkpt><trkpt lat="45.9070209" lon="8.7900874"><ele>471.5</ele><time>2026-03-28T13:53:16.452Z</time></trkpt><trkpt lat="45.9071354" lon="8.7902273"><ele>469.75</ele><time>2026-03-28T13:53:17.452Z</time></trkpt><trkpt lat="45.9072451" lon="8.7903619"><ele>468.0</ele><time>2026-03-28T13:53:18.451Z</time></trkpt><trkpt lat="45.9073581" lon="8.7904932"><ele>468.0</ele><time>2026-03-28T13:53:19.452Z</time></trkpt><trkpt lat="45.9074699" lon="8.7906232"><ele>468.0</ele><time>2026-03-28T13:53:20.451Z</time></trkpt><trkpt lat="45.9075826" lon="8.7907548"><ele>468.0</ele><time>2026-03-28T13:53:21.451Z</time></trkpt><trkpt lat="45.9076836" lon="8.7908784"><ele>468.0</ele><time>2026-03-28T13:53:22.452Z</time></trkpt><trkpt lat="45.9077913" lon="8.791002"><ele>469.5</ele><time>2026-03-28T13:53:23.452Z</time></trkpt><trkpt lat="45.9078959" lon="8.7911201"><ele>471.0</ele><time>2026-03-28T13:53:24.451Z</time></trkpt><trkpt lat="45.9079885" lon="8.7912243"><ele>472.5</ele><time>2026-03-28T13:53:25.451Z</time></trkpt><trkpt lat="45.9080754" lon="8.7913237"><ele>474.0</ele><time>2026-03-28T13:53:26.452Z</time></trkpt><trkpt lat="45.9081473" lon="8.7914109"><ele>474.0</ele><time>2026-03-28T13:53:27.452Z</time></trkpt><trkpt lat="45.9082164" lon="8.7914868"><ele>474.0</ele><time>2026-03-28T13:53:28.451Z</time></trkpt><trkpt lat="45.9082808" lon="8.7915529"><ele>474.0</ele><time>2026-03-28T13:53:29.451Z</time></trkpt><trkpt lat="45.9083429" lon="8.7916051"><ele>474.0</ele><time>2026-03-28T13:53:30.452Z</time></trkpt><trkpt lat="45.908452" lon="8.7915946"><ele>474.0</ele><time>2026-03-28T13:53:32.451Z</time></trkpt><trkpt lat="45.908489" lon="8.7915128"><ele>474.0</ele><time>2026-03-28T13:53:33.451Z</time></trkpt><trkpt lat="45.9085008" lon="8.7914071"><ele>474.0</ele><time>2026-03-28T13:53:34.452Z</time></trkpt><trkpt lat="45.9084827" lon="8.7913027"><ele>474.0</ele><time>2026-03-28T13:53:35.451Z</time></trkpt><trkpt lat="45.9084273" lon="8.7912258"><ele>474.0</ele><time>2026-03-28T13:53:36.452Z</time></trkpt><trkpt lat="45.9083462" lon="8.7911756"><ele>474.0</ele><time>2026-03-28T13:53:37.451Z</time></trkpt><trkpt lat="45.9082484" lon="8.7911297"><ele>474.0</ele><time>2026-03-28T13:53:38.45Z</time></trkpt><trkpt lat="45.9081426" lon="8.7910748"><ele>474.0</ele><time>2026-03-28T13:53:39.451Z</time></trkpt><trkpt lat="45.9080393" lon="8.7910214"><ele>474.0</ele><time>2026-03-28T13:53:40.45Z</time></trkpt><trkpt lat="45.9079517" lon="8.7909654"><ele>474.0</ele><time>2026-03-28T13:53:41.45Z</time></trkpt><trkpt lat="45.9078955" lon="8.7908977"><ele>474.0</ele><time>2026-03-28T13:53:42.45Z</time></trkpt><trkpt lat="45.9078724" lon="8.7908041"><ele>474.0</ele><time>2026-03-28T13:53:43.45Z</time></trkpt><trkpt lat="45.9079406" lon="8.7906184"><ele>472.6</ele><time>2026-03-28T13:53:45.451Z</time></trkpt><trkpt lat="45.9079999" lon="8.7905073"><ele>471.2</ele><time>2026-03-28T13:53:46.45Z</time></trkpt><trkpt lat="45.9080608" lon="8.7903838"><ele>469.80000000000007</ele><time>2026-03-28T13:53:47.451Z</time></trkpt><trkpt lat="45.9081112" lon="8.7902636"><ele>468.40000000000003</ele><time>2026-03-28T13:53:48.45Z</time></trkpt><trkpt lat="45.9081663" lon="8.7901658"><ele>467.0</ele><time>2026-03-28T13:53:49.45Z</time></trkpt><trkpt lat="45.9082298" lon="8.7900954"><ele>465.6</ele><time>2026-03-28T13:53:50.451Z</time></trkpt><trkpt lat="45.9083126" lon="8.7900778"><ele>464.20000000000005</ele><time>2026-03-28T13:53:51.45Z</time></trkpt><trkpt lat="45.9084101" lon="8.7900685"><ele>462.8</ele><time>2026-03-28T13:53:52.45Z</time></trkpt><trkpt lat="45.9085127" lon="8.7900523"><ele>461.4</ele><time>2026-03-28T13:53:53.45Z</time></trkpt><trkpt lat="45.9086292" lon="8.790042"><ele>460.0</ele><time>2026-03-28T13:53:54.45Z</time></trkpt><trkpt lat="45.9087535" lon="8.79003"><ele>459.5</ele><time>2026-03-28T13:53:55.451Z</time></trkpt><trkpt lat="45.9088869" lon="8.7900174"><ele>459.0</ele><time>2026-03-28T13:53:56.451Z</time></trkpt><trkpt lat="45.9090284" lon="8.790007"><ele>458.5</ele><time>2026-03-28T13:53:57.451Z</time></trkpt><trkpt lat="45.9091647" lon="8.7899909"><ele>458.0</ele><time>2026-03-28T13:53:58.451Z</time></trkpt><trkpt lat="45.9092979" lon="8.7899869"><ele>455.75</ele><time>2026-03-28T13:53:59.45Z</time></trkpt><trkpt lat="45.9094262" lon="8.7899883"><ele>453.5</ele><time>2026-03-28T13:54:00.45Z</time></trkpt><trkpt lat="45.9095488" lon="8.7900361"><ele>451.25</ele><time>2026-03-28T13:54:01.45Z</time></trkpt><trkpt lat="45.9096815" lon="8.7900679"><ele>449.0</ele><time>2026-03-28T13:54:02.45Z</time></trkpt><trkpt lat="45.909792" lon="8.7901384"><ele>451.75</ele><time>2026-03-28T13:54:03.45Z</time></trkpt><trkpt lat="45.9099003" lon="8.7902068"><ele>454.5</ele><time>2026-03-28T13:54:04.45Z</time></trkpt><trkpt lat="45.9100081" lon="8.7902922"><ele>457.25</ele><time>2026-03-28T13:54:05.451Z</time></trkpt><trkpt lat="45.9101102" lon="8.7903879"><ele>460.0</ele><time>2026-03-28T13:54:06.45Z</time></trkpt><trkpt lat="45.9101695" lon="8.7904912"><ele>460.0</ele><time>2026-03-28T13:54:07.451Z</time></trkpt><trkpt lat="45.9102414" lon="8.7905966"><ele>460.0</ele><time>2026-03-28T13:54:08.45Z</time></trkpt><trkpt lat="45.9103297" lon="8.7906596"><ele>460.0</ele><time>2026-03-28T13:54:09.45Z</time></trkpt><trkpt lat="45.9104201" lon="8.7906775"><ele>460.0</ele><time>2026-03-28T13:54:10.45Z</time></trkpt><trkpt lat="45.9104962" lon="8.7906526"><ele>460.0</ele><time>2026-03-28T13:54:11.45Z</time></trkpt><trkpt lat="45.9105669" lon="8.790583"><ele>460.0</ele><time>2026-03-28T13:54:12.451Z</time></trkpt><trkpt lat="45.9106375" lon="8.7904857"><ele>460.0</ele><time>2026-03-28T13:54:13.45Z</time></trkpt><trkpt lat="45.9107213" lon="8.7903725"><ele>460.0</ele><time>2026-03-28T13:54:14.451Z</time></trkpt><trkpt lat="45.9107942" lon="8.7902772"><ele>460.0</ele><time>2026-03-28T13:54:15.45Z</time></trkpt><trkpt lat="45.9108685" lon="8.7902029"><ele>460.0</ele><time>2026-03-28T13:54:16.451Z</time></trkpt><trkpt lat="45.9109357" lon="8.7901332"><ele>459.83333333333337</ele><time>2026-03-28T13:54:17.451Z</time></trkpt><trkpt lat="45.9110029" lon="8.7901207"><ele>459.6666666666667</ele><time>2026-03-28T13:54:18.451Z</time></trkpt><trkpt lat="45.9110718" lon="8.7901175"><ele>459.5</ele><time>2026-03-28T13:54:19.45Z</time></trkpt><trkpt lat="45.9111751" lon="8.790162"><ele>459.33333333333337</ele><time>2026-03-28T13:54:20.45Z</time></trkpt><trkpt lat="45.9112267" lon="8.7902505"><ele>459.1666666666667</ele><time>2026-03-28T13:54:21.45Z</time></trkpt><trkpt lat="45.9113007" lon="8.7902783"><ele>459.0</ele><time>2026-03-28T13:54:22.451Z</time></trkpt><trkpt lat="45.9113944" lon="8.7902737"><ele>459.0</ele><time>2026-03-28T13:54:23.45Z</time></trkpt><trkpt lat="45.9114817" lon="8.790242"><ele>459.0</ele><time>2026-03-28T13:54:24.45Z</time></trkpt><trkpt lat="45.9115615" lon="8.7901716"><ele>459.0</ele><time>2026-03-28T13:54:25.45Z</time></trkpt><trkpt lat="45.9116528" lon="8.7900915"><ele>459.0</ele><time>2026-03-28T13:54:26.45Z</time></trkpt><trkpt lat="45.911757" lon="8.7900004"><ele>459.0</ele><time>2026-03-28T13:54:27.451Z</time></trkpt><trkpt lat="45.911862" lon="8.789913"><ele>456.2</ele><time>2026-03-28T13:54:28.45Z</time></trkpt><trkpt lat="45.9119585" lon="8.7898241"><ele>453.4</ele><time>2026-03-28T13:54:29.45Z</time></trkpt><trkpt lat="45.9120533" lon="8.7897434"><ele>450.6</ele><time>2026-03-28T13:54:30.45Z</time></trkpt><trkpt lat="45.9121327" lon="8.7896613"><ele>447.8</ele><time>2026-03-28T13:54:31.45Z</time></trkpt><trkpt lat="45.9121843" lon="8.7895674"><ele>445.0</ele><time>2026-03-28T13:54:32.45Z</time></trkpt><trkpt lat="45.9122263" lon="8.7894706"><ele>445.00000000000006</ele><time>2026-03-28T13:54:33.45Z</time></trkpt><trkpt lat="45.9122533" lon="8.789359"><ele>445.0</ele><time>2026-03-28T13:54:34.45Z</time></trkpt><trkpt lat="45.9123106" lon="8.7892746"><ele>445.0</ele><time>2026-03-28T13:54:35.45Z</time></trkpt><trkpt lat="45.9123863" lon="8.7892217"><ele>445.0</ele><time>2026-03-28T13:54:36.45Z</time></trkpt><trkpt lat="45.9124776" lon="8.7891906"><ele>445.00000000000006</ele><time>2026-03-28T13:54:37.451Z</time></trkpt><trkpt lat="45.9125782" lon="8.7891696"><ele>445.0</ele><time>2026-03-28T13:54:38.45Z</time></trkpt><trkpt lat="45.912693" lon="8.7891463"><ele>440.75</ele><time>2026-03-28T13:54:39.451Z</time></trkpt><trkpt lat="45.9128093" lon="8.7891182"><ele>436.5</ele><time>2026-03-28T13:54:40.45Z</time></trkpt><trkpt lat="45.9129281" lon="8.7891026"><ele>432.25</ele><time>2026-03-28T13:54:41.45Z</time></trkpt><trkpt lat="45.9130405" lon="8.7890837"><ele>428.0</ele><time>2026-03-28T13:54:42.451Z</time></trkpt><trkpt lat="45.9131403" lon="8.7890583"><ele>428.0</ele><time>2026-03-28T13:54:43.45Z</time></trkpt><trkpt lat="45.9132287" lon="8.7890156"><ele>427.99999999999994</ele><time>2026-03-28T13:54:44.451Z</time></trkpt><trkpt lat="45.9132876" lon="8.788921"><ele>427.99999999999994</ele><time>2026-03-28T13:54:45.45Z</time></trkpt><trkpt lat="45.9133409" lon="8.7888132"><ele>428.0</ele><time>2026-03-28T13:54:46.45Z</time></trkpt><trkpt lat="45.9133726" lon="8.7886739"><ele>428.0</ele><time>2026-03-28T13:54:47.45Z</time></trkpt><trkpt lat="45.9134115" lon="8.7885405"><ele>427.75</ele><time>2026-03-28T13:54:48.45Z</time></trkpt><trkpt lat="45.9134571" lon="8.7883988"><ele>427.5</ele><time>2026-03-28T13:54:49.451Z</time></trkpt><trkpt lat="45.9135046" lon="8.788243"><ele>427.25</ele><time>2026-03-28T13:54:50.45Z</time></trkpt><trkpt lat="45.913538" lon="8.7880892"><ele>427.0</ele><time>2026-03-28T13:54:51.45Z</time></trkpt><trkpt lat="45.9135819" lon="8.7879377"><ele>427.0</ele><time>2026-03-28T13:54:52.45Z</time></trkpt><trkpt lat="45.9136138" lon="8.7877729"><ele>427.0</ele><time>2026-03-28T13:54:53.45Z</time></trkpt><trkpt lat="45.9136429" lon="8.7876115"><ele>427.0</ele><time>2026-03-28T13:54:54.45Z</time></trkpt><trkpt lat="45.913665" lon="8.7874468"><ele>427.0</ele><time>2026-03-28T13:54:55.45Z</time></trkpt><trkpt lat="45.9136816" lon="8.7872691"><ele>424.75</ele><time>2026-03-28T13:54:56.45Z</time></trkpt><trkpt lat="45.9137017" lon="8.7871038"><ele>422.5</ele><time>2026-03-28T13:54:57.451Z</time></trkpt><trkpt lat="45.9137169" lon="8.7869335"><ele>420.25</ele><time>2026-03-28T13:54:58.451Z</time></trkpt><trkpt lat="45.9137361" lon="8.7867642"><ele>418.0</ele><time>2026-03-28T13:54:59.45Z</time></trkpt><trkpt lat="45.9137575" lon="8.7865997"><ele>416.75</ele><time>2026-03-28T13:55:00.451Z</time></trkpt><trkpt lat="45.9137759" lon="8.7864338"><ele>415.5</ele><time>2026-03-28T13:55:01.451Z</time></trkpt><trkpt lat="45.9137981" lon="8.7862729"><ele>414.25</ele><time>2026-03-28T13:55:02.451Z</time></trkpt><trkpt lat="45.9138168" lon="8.786121"><ele>413.0</ele><time>2026-03-28T13:55:03.451Z</time></trkpt><trkpt lat="45.9138389" lon="8.7859526"><ele>412.59999999999997</ele><time>2026-03-28T13:55:04.45Z</time></trkpt><trkpt lat="45.9138582" lon="8.7857933"><ele>412.2</ele><time>2026-03-28T13:55:05.451Z</time></trkpt><trkpt lat="45.9138825" lon="8.7856441"><ele>411.8</ele><time>2026-03-28T13:55:06.45Z</time></trkpt><trkpt lat="45.9139204" lon="8.7855069"><ele>411.4</ele><time>2026-03-28T13:55:07.45Z</time></trkpt><trkpt lat="45.9139814" lon="8.7853964"><ele>411.0</ele><time>2026-03-28T13:55:08.451Z</time></trkpt><trkpt lat="45.9140637" lon="8.7853203"><ele>411.0</ele><time>2026-03-28T13:55:09.45Z</time></trkpt><trkpt lat="45.9141596" lon="8.7852873"><ele>411.0</ele><time>2026-03-28T13:55:10.45Z</time></trkpt><trkpt lat="45.9142618" lon="8.7852828"><ele>411.0</ele><time>2026-03-28T13:55:11.45Z</time></trkpt><trkpt lat="45.9143758" lon="8.7853053"><ele>411.0</ele><time>2026-03-28T13:55:12.451Z</time></trkpt><trkpt lat="45.9144981" lon="8.7853281"><ele>411.0</ele><time>2026-03-28T13:55:13.45Z</time></trkpt><trkpt lat="45.9146198" lon="8.7853534"><ele>410.25</ele><time>2026-03-28T13:55:14.451Z</time></trkpt><trkpt lat="45.9147467" lon="8.7853797"><ele>409.5</ele><time>2026-03-28T13:55:15.451Z</time></trkpt><trkpt lat="45.9148678" lon="8.785406"><ele>408.75</ele><time>2026-03-28T13:55:16.45Z</time></trkpt><trkpt lat="45.9149879" lon="8.7854254"><ele>408.0</ele><time>2026-03-28T13:55:17.45Z</time></trkpt><trkpt lat="45.9151107" lon="8.7854475"><ele>406.59999999999997</ele><time>2026-03-28T13:55:18.451Z</time></trkpt><trkpt lat="45.9152244" lon="8.7854736"><ele>405.2</ele><time>2026-03-28T13:55:19.449Z</time></trkpt><trkpt lat="45.9153291" lon="8.7854897"><ele>403.8</ele><time>2026-03-28T13:55:20.451Z</time></trkpt><trkpt lat="45.9154253" lon="8.7854938"><ele>402.4</ele><time>2026-03-28T13:55:21.45Z</time></trkpt><trkpt lat="45.9155138" lon="8.7854772"><ele>401.0</ele><time>2026-03-28T13:55:22.451Z</time></trkpt><trkpt lat="45.9155861" lon="8.785434"><ele>401.0</ele><time>2026-03-28T13:55:23.45Z</time></trkpt><trkpt lat="45.9156457" lon="8.7853492"><ele>401.0</ele><time>2026-03-28T13:55:24.451Z</time></trkpt><trkpt lat="45.9156736" lon="8.7852312"><ele>401.0</ele><time>2026-03-28T13:55:25.45Z</time></trkpt><trkpt lat="45.915681" lon="8.7850964"><ele>401.0</ele><time>2026-03-28T13:55:26.451Z</time></trkpt><trkpt lat="45.915668" lon="8.7849534"><ele>401.0</ele><time>2026-03-28T13:55:27.451Z</time></trkpt><trkpt lat="45.9156512" lon="8.7848004"><ele>399.20000000000005</ele><time>2026-03-28T13:55:28.451Z</time></trkpt><trkpt lat="45.9156357" lon="8.7846403"><ele>397.40000000000003</ele><time>2026-03-28T13:55:29.451Z</time></trkpt><trkpt lat="45.9156196" lon="8.7844826"><ele>395.6</ele><time>2026-03-28T13:55:30.451Z</time></trkpt><trkpt lat="45.9156048" lon="8.7843391"><ele>393.8</ele><time>2026-03-28T13:55:31.451Z</time></trkpt><trkpt lat="45.9155918" lon="8.7842049"><ele>392.0</ele><time>2026-03-28T13:55:32.45Z</time></trkpt><trkpt lat="45.9155628" lon="8.7840822"><ele>390.16666666666663</ele><time>2026-03-28T13:55:33.45Z</time></trkpt><trkpt lat="45.9155134" lon="8.7839775"><ele>388.3333333333333</ele><time>2026-03-28T13:55:34.451Z</time></trkpt><trkpt lat="45.9154413" lon="8.7839053"><ele>386.5</ele><time>2026-03-28T13:55:35.45Z</time></trkpt><trkpt lat="45.915368" lon="8.7838521"><ele>384.66666666666663</ele><time>2026-03-28T13:55:36.451Z</time></trkpt><trkpt lat="45.9153119" lon="8.7837998"><ele>382.8333333333333</ele><time>2026-03-28T13:55:37.451Z</time></trkpt><trkpt lat="45.9152686" lon="8.7837327"><ele>381.0</ele><time>2026-03-28T13:55:38.451Z</time></trkpt><trkpt lat="45.9152503" lon="8.7836415"><ele>378.4</ele><time>2026-03-28T13:55:39.45Z</time></trkpt><trkpt lat="45.9152983" lon="8.7834608"><ele>375.8</ele><time>2026-03-28T13:55:41.45Z</time></trkpt><trkpt lat="45.9153439" lon="8.7833713"><ele>373.2</ele><time>2026-03-28T13:55:42.451Z</time></trkpt><trkpt lat="45.9153841" lon="8.7832679"><ele>370.59999999999997</ele><time>2026-03-28T13:55:43.451Z</time></trkpt><trkpt lat="45.915402" lon="8.7831548"><ele>368.0</ele><time>2026-03-28T13:55:44.45Z</time></trkpt><trkpt lat="45.9153855" lon="8.7830415"><ele>368.0</ele><time>2026-03-28T13:55:45.45Z</time></trkpt><trkpt lat="45.9153483" lon="8.7829188"><ele>368.0</ele><time>2026-03-28T13:55:46.451Z</time></trkpt><trkpt lat="45.9153038" lon="8.7827936"><ele>368.0</ele><time>2026-03-28T13:55:47.451Z</time></trkpt><trkpt lat="45.9152596" lon="8.7826676"><ele>368.0</ele><time>2026-03-28T13:55:48.451Z</time></trkpt><trkpt lat="45.9152269" lon="8.7825411"><ele>368.0</ele><time>2026-03-28T13:55:49.45Z</time></trkpt><trkpt lat="45.9152116" lon="8.7824061"><ele>365.2</ele><time>2026-03-28T13:55:50.451Z</time></trkpt><trkpt lat="45.9152134" lon="8.782268"><ele>362.4</ele><time>2026-03-28T13:55:51.451Z</time></trkpt><trkpt lat="45.9152309" lon="8.782127"><ele>359.59999999999997</ele><time>2026-03-28T13:55:52.451Z</time></trkpt><trkpt lat="45.9152706" lon="8.7819901"><ele>356.79999999999995</ele><time>2026-03-28T13:55:53.45Z</time></trkpt><trkpt lat="45.915323" lon="8.7818605"><ele>354.0</ele><time>2026-03-28T13:55:54.451Z</time></trkpt><trkpt lat="45.915384" lon="8.7817491"><ele>353.5</ele><time>2026-03-28T13:55:55.451Z</time></trkpt><trkpt lat="45.9154484" lon="8.7816579"><ele>353.0</ele><time>2026-03-28T13:55:56.45Z</time></trkpt><trkpt lat="45.9155225" lon="8.7816008"><ele>352.5</ele><time>2026-03-28T13:55:57.451Z</time></trkpt><trkpt lat="45.9156041" lon="8.7815723"><ele>352.0</ele><time>2026-03-28T13:55:58.451Z</time></trkpt><trkpt lat="45.9156931" lon="8.7815801"><ele>351.5</ele><time>2026-03-28T13:55:59.45Z</time></trkpt><trkpt lat="45.9157886" lon="8.7816079"><ele>351.0</ele><time>2026-03-28T13:56:00.451Z</time></trkpt><trkpt lat="45.9158896" lon="8.7816323"><ele>350.6</ele><time>2026-03-28T13:56:01.45Z</time></trkpt><trkpt lat="45.9159927" lon="8.7816755"><ele>350.20000000000005</ele><time>2026-03-28T13:56:02.45Z</time></trkpt><trkpt lat="45.9160974" lon="8.7817142"><ele>349.79999999999995</ele><time>2026-03-28T13:56:03.451Z</time></trkpt><trkpt lat="45.9162054" lon="8.7817595"><ele>349.4</ele><time>2026-03-28T13:56:04.451Z</time></trkpt><trkpt lat="45.9163108" lon="8.7818077"><ele>349.0</ele><time>2026-03-28T13:56:05.451Z</time></trkpt><trkpt lat="45.9164109" lon="8.7818512"><ele>349.0</ele><time>2026-03-28T13:56:06.45Z</time></trkpt><trkpt lat="45.9165095" lon="8.7818909"><ele>349.0</ele><time>2026-03-28T13:56:07.45Z</time></trkpt><trkpt lat="45.9166067" lon="8.7819255"><ele>349.0</ele><time>2026-03-28T13:56:08.45Z</time></trkpt><trkpt lat="45.9167018" lon="8.781957"><ele>349.0</ele><time>2026-03-28T13:56:09.45Z</time></trkpt><trkpt lat="45.9167933" lon="8.7819839"><ele>349.0</ele><time>2026-03-28T13:56:10.451Z</time></trkpt><trkpt lat="45.9168807" lon="8.7820203"><ele>348.8333333333333</ele><time>2026-03-28T13:56:11.45Z</time></trkpt><trkpt lat="45.9169741" lon="8.7820346"><ele>348.66666666666663</ele><time>2026-03-28T13:56:12.45Z</time></trkpt><trkpt lat="45.9170633" lon="8.782026"><ele>348.5</ele><time>2026-03-28T13:56:13.45Z</time></trkpt><trkpt lat="45.9171421" lon="8.7820069"><ele>348.3333333333333</ele><time>2026-03-28T13:56:14.45Z</time></trkpt><trkpt lat="45.9172108" lon="8.7819554"><ele>348.1666666666667</ele><time>2026-03-28T13:56:15.451Z</time></trkpt><trkpt lat="45.9172534" lon="8.7818642"><ele>348.0</ele><time>2026-03-28T13:56:16.451Z</time></trkpt><trkpt lat="45.9172773" lon="8.7817485"><ele>347.0</ele><time>2026-03-28T13:56:17.45Z</time></trkpt><trkpt lat="45.9172897" lon="8.7816161"><ele>346.0</ele><time>2026-03-28T13:56:18.45Z</time></trkpt><trkpt lat="45.9172965" lon="8.7814828"><ele>345.0</ele><time>2026-03-28T13:56:19.451Z</time></trkpt><trkpt lat="45.9173094" lon="8.7813509"><ele>344.0</ele><time>2026-03-28T13:56:20.451Z</time></trkpt><trkpt lat="45.9173356" lon="8.7812249"><ele>343.0</ele><time>2026-03-28T13:56:21.451Z</time></trkpt><trkpt lat="45.9173746" lon="8.7811045"><ele>342.5</ele><time>2026-03-28T13:56:22.451Z</time></trkpt><trkpt lat="45.917423" lon="8.7810017"><ele>342.0</ele><time>2026-03-28T13:56:23.45Z</time></trkpt><trkpt lat="45.9174847" lon="8.7809251"><ele>341.5</ele><time>2026-03-28T13:56:24.45Z</time></trkpt><trkpt lat="45.9175609" lon="8.7808475"><ele>341.0</ele><time>2026-03-28T13:56:25.45Z</time></trkpt><trkpt lat="45.9176392" lon="8.780776"><ele>340.5</ele><time>2026-03-28T13:56:26.451Z</time></trkpt><trkpt lat="45.9177197" lon="8.7807079"><ele>340.0</ele><time>2026-03-28T13:56:27.451Z</time></trkpt><trkpt lat="45.917806" lon="8.7806282"><ele>339.2</ele><time>2026-03-28T13:56:28.45Z</time></trkpt><trkpt lat="45.9178921" lon="8.7805679"><ele>338.4</ele><time>2026-03-28T13:56:29.451Z</time></trkpt><trkpt lat="45.9179773" lon="8.7804973"><ele>337.6</ele><time>2026-03-28T13:56:30.45Z</time></trkpt><trkpt lat="45.9180632" lon="8.7804239"><ele>336.8</ele><time>2026-03-28T13:56:31.451Z</time></trkpt><trkpt lat="45.9181449" lon="8.7803568"><ele>336.0</ele><time>2026-03-28T13:56:32.451Z</time></trkpt><trkpt lat="45.9182247" lon="8.7802927"><ele>336.0</ele><time>2026-03-28T13:56:33.451Z</time></trkpt><trkpt lat="45.9183024" lon="8.7802297"><ele>336.0</ele><time>2026-03-28T13:56:34.45Z</time></trkpt><trkpt lat="45.9183842" lon="8.7801773"><ele>336.0</ele><time>2026-03-28T13:56:35.45Z</time></trkpt><trkpt lat="45.918454" lon="8.7801465"><ele>336.0</ele><time>2026-03-28T13:56:36.451Z</time></trkpt><trkpt lat="45.9185252" lon="8.7801454"><ele>336.0</ele><time>2026-03-28T13:56:37.451Z</time></trkpt><trkpt lat="45.9186006" lon="8.7801775"><ele>336.0</ele><time>2026-03-28T13:56:38.45Z</time></trkpt><trkpt lat="45.9186801" lon="8.7802334"><ele>335.20000000000005</ele><time>2026-03-28T13:56:39.451Z</time></trkpt><trkpt lat="45.9187692" lon="8.7802929"><ele>334.40000000000003</ele><time>2026-03-28T13:56:40.45Z</time></trkpt><trkpt lat="45.918864" lon="8.7803518"><ele>333.6</ele><time>2026-03-28T13:56:41.451Z</time></trkpt><trkpt lat="45.918958" lon="8.7804185"><ele>332.8</ele><time>2026-03-28T13:56:42.45Z</time></trkpt><trkpt lat="45.9190487" lon="8.7804868"><ele>332.0</ele><time>2026-03-28T13:56:43.451Z</time></trkpt><trkpt lat="45.9191352" lon="8.7805743"><ele>332.0</ele><time>2026-03-28T13:56:44.451Z</time></trkpt><trkpt lat="45.9192106" lon="8.7806794"><ele>332.0</ele><time>2026-03-28T13:56:45.45Z</time></trkpt><trkpt lat="45.9192775" lon="8.780804"><ele>332.0</ele><time>2026-03-28T13:56:46.451Z</time></trkpt><trkpt lat="45.9193383" lon="8.7809341"><ele>332.0</ele><time>2026-03-28T13:56:47.451Z</time></trkpt><trkpt lat="45.9194044" lon="8.7810587"><ele>332.0</ele><time>2026-03-28T13:56:48.451Z</time></trkpt><trkpt lat="45.9194805" lon="8.7811757"><ele>329.40000000000003</ele><time>2026-03-28T13:56:49.451Z</time></trkpt><trkpt lat="45.9195683" lon="8.7812813"><ele>326.8</ele><time>2026-03-28T13:56:50.451Z</time></trkpt><trkpt lat="45.9196612" lon="8.7813744"><ele>324.2</ele><time>2026-03-28T13:56:51.45Z</time></trkpt><trkpt lat="45.9197493" lon="8.7814678"><ele>321.6</ele><time>2026-03-28T13:56:52.45Z</time></trkpt><trkpt lat="45.9198432" lon="8.7815442"><ele>319.0</ele><time>2026-03-28T13:56:53.45Z</time></trkpt><trkpt lat="45.9199438" lon="8.7815814"><ele>319.0</ele><time>2026-03-28T13:56:54.451Z</time></trkpt><trkpt lat="45.9200551" lon="8.7815957"><ele>319.0</ele><time>2026-03-28T13:56:55.451Z</time></trkpt><trkpt lat="45.9201769" lon="8.7816097"><ele>319.0</ele><time>2026-03-28T13:56:56.45Z</time></trkpt><trkpt lat="45.9202933" lon="8.7816181"><ele>319.0</ele><time>2026-03-28T13:56:57.451Z</time></trkpt><trkpt lat="45.9204052" lon="8.7816285"><ele>317.8</ele><time>2026-03-28T13:56:58.451Z</time></trkpt><trkpt lat="45.9205084" lon="8.7816266"><ele>316.59999999999997</ele><time>2026-03-28T13:56:59.451Z</time></trkpt><trkpt lat="45.9206011" lon="8.7815804"><ele>315.4</ele><time>2026-03-28T13:57:00.45Z</time></trkpt><trkpt lat="45.9206964" lon="8.7814975"><ele>314.2</ele><time>2026-03-28T13:57:01.45Z</time></trkpt><trkpt lat="45.9207958" lon="8.781406"><ele>313.0</ele><time>2026-03-28T13:57:02.451Z</time></trkpt><trkpt lat="45.9209002" lon="8.7812998"><ele>311.8</ele><time>2026-03-28T13:57:03.45Z</time></trkpt><trkpt lat="45.9209926" lon="8.7811947"><ele>310.6</ele><time>2026-03-28T13:57:04.45Z</time></trkpt><trkpt lat="45.9210713" lon="8.7810812"><ele>309.4</ele><time>2026-03-28T13:57:05.45Z</time></trkpt><trkpt lat="45.9211358" lon="8.780954"><ele>308.2</ele><time>2026-03-28T13:57:06.451Z</time></trkpt><trkpt lat="45.9211963" lon="8.7808218"><ele>307.0</ele><time>2026-03-28T13:57:07.451Z</time></trkpt><trkpt lat="45.9212483" lon="8.7806811"><ele>307.0</ele><time>2026-03-28T13:57:08.449Z</time></trkpt><trkpt lat="45.9213029" lon="8.7805506"><ele>307.0</ele><time>2026-03-28T13:57:09.451Z</time></trkpt><trkpt lat="45.9213501" lon="8.7804254"><ele>307.0</ele><time>2026-03-28T13:57:10.451Z</time></trkpt><trkpt lat="45.9213852" lon="8.7802872"><ele>307.0</ele><time>2026-03-28T13:57:11.451Z</time></trkpt><trkpt lat="45.9213994" lon="8.7801426"><ele>307.0</ele><time>2026-03-28T13:57:12.451Z</time></trkpt><trkpt lat="45.9213896" lon="8.7799804"><ele>307.0</ele><time>2026-03-28T13:57:13.45Z</time></trkpt><trkpt lat="45.92136" lon="8.7798177"><ele>307.0</ele><time>2026-03-28T13:57:14.45Z</time></trkpt><trkpt lat="45.9213263" lon="8.7796552"><ele>307.0</ele><time>2026-03-28T13:57:15.45Z</time></trkpt><trkpt lat="45.9212931" lon="8.7794983"><ele>307.0</ele><time>2026-03-28T13:57:16.45Z</time></trkpt><trkpt lat="45.921273" lon="8.7793387"><ele>306.6</ele><time>2026-03-28T13:57:17.451Z</time></trkpt><trkpt lat="45.9212786" lon="8.7791733"><ele>306.2</ele><time>2026-03-28T13:57:18.451Z</time></trkpt><trkpt lat="45.9213101" lon="8.7790266"><ele>305.8</ele><time>2026-03-28T13:57:19.451Z</time></trkpt><trkpt lat="45.9213684" lon="8.7789034"><ele>305.4</ele><time>2026-03-28T13:57:20.451Z</time></trkpt><trkpt lat="45.9214473" lon="8.7787974"><ele>305.0</ele><time>2026-03-28T13:57:21.45Z</time></trkpt><trkpt lat="45.9215319" lon="8.7786879"><ele>305.0</ele><time>2026-03-28T13:57:22.45Z</time></trkpt><trkpt lat="45.9216215" lon="8.7785797"><ele>305.0</ele><time>2026-03-28T13:57:23.45Z</time></trkpt><trkpt lat="45.9217182" lon="8.7784661"><ele>305.0</ele><time>2026-03-28T13:57:24.45Z</time></trkpt><trkpt lat="45.921811" lon="8.778353"><ele>305.0</ele><time>2026-03-28T13:57:25.45Z</time></trkpt><trkpt lat="45.9219127" lon="8.7782403"><ele>303.0</ele><time>2026-03-28T13:57:26.45Z</time></trkpt><trkpt lat="45.9220134" lon="8.7781184"><ele>301.0</ele><time>2026-03-28T13:57:27.45Z</time></trkpt><trkpt lat="45.9221123" lon="8.7779967"><ele>299.0</ele><time>2026-03-28T13:57:28.451Z</time></trkpt><trkpt lat="45.9222036" lon="8.777884"><ele>297.0</ele><time>2026-03-28T13:57:29.45Z</time></trkpt><trkpt lat="45.9222868" lon="8.7777856"><ele>297.0</ele><time>2026-03-28T13:57:30.45Z</time></trkpt><trkpt lat="45.9223646" lon="8.7776959"><ele>297.0</ele><time>2026-03-28T13:57:31.45Z</time></trkpt><trkpt lat="45.9224316" lon="8.7776237"><ele>297.0</ele><time>2026-03-28T13:57:32.451Z</time></trkpt><trkpt lat="45.922494" lon="8.7775811"><ele>297.0</ele><time>2026-03-28T13:57:33.451Z</time></trkpt><trkpt lat="45.9225951" lon="8.7776083"><ele>297.0</ele><time>2026-03-28T13:57:35.45Z</time></trkpt><trkpt lat="45.92269" lon="8.7777423"><ele>295.8</ele><time>2026-03-28T13:57:37.451Z</time></trkpt><trkpt lat="45.9227477" lon="8.7778244"><ele>294.6</ele><time>2026-03-28T13:57:38.449Z</time></trkpt><trkpt lat="45.9228078" lon="8.7779154"><ele>293.40000000000003</ele><time>2026-03-28T13:57:39.45Z</time></trkpt><trkpt lat="45.9228657" lon="8.7780155"><ele>292.2</ele><time>2026-03-28T13:57:40.451Z</time></trkpt><trkpt lat="45.9229313" lon="8.7781174"><ele>291.0</ele><time>2026-03-28T13:57:41.451Z</time></trkpt><trkpt lat="45.9229986" lon="8.7782192"><ele>291.0</ele><time>2026-03-28T13:57:42.451Z</time></trkpt><trkpt lat="45.9230735" lon="8.7783187"><ele>291.0</ele><time>2026-03-28T13:57:43.451Z</time></trkpt><trkpt lat="45.9231499" lon="8.7784267"><ele>291.0</ele><time>2026-03-28T13:57:44.45Z</time></trkpt><trkpt lat="45.923225" lon="8.7785396"><ele>291.0</ele><time>2026-03-28T13:57:45.451Z</time></trkpt><trkpt lat="45.9233016" lon="8.7786561"><ele>291.0</ele><time>2026-03-28T13:57:46.451Z</time></trkpt><trkpt lat="45.9233765" lon="8.778766"><ele>291.6</ele><time>2026-03-28T13:57:47.45Z</time></trkpt><trkpt lat="45.9234504" lon="8.7788782"><ele>292.20000000000005</ele><time>2026-03-28T13:57:48.45Z</time></trkpt><trkpt lat="45.923522" lon="8.7789902"><ele>292.79999999999995</ele><time>2026-03-28T13:57:49.451Z</time></trkpt><trkpt lat="45.9235975" lon="8.7790947"><ele>293.4</ele><time>2026-03-28T13:57:50.451Z</time></trkpt><trkpt lat="45.923669" lon="8.7792102"><ele>294.0</ele><time>2026-03-28T13:57:51.451Z</time></trkpt><trkpt lat="45.9237424" lon="8.7793245"><ele>294.4</ele><time>2026-03-28T13:57:52.451Z</time></trkpt><trkpt lat="45.9238183" lon="8.7794436"><ele>294.79999999999995</ele><time>2026-03-28T13:57:53.45Z</time></trkpt><trkpt lat="45.9238986" lon="8.7795527"><ele>295.20000000000005</ele><time>2026-03-28T13:57:54.45Z</time></trkpt><trkpt lat="45.9239653" lon="8.7796561"><ele>295.6</ele><time>2026-03-28T13:57:55.45Z</time></trkpt><trkpt lat="45.9240301" lon="8.7797559"><ele>296.0</ele><time>2026-03-28T13:57:56.451Z</time></trkpt><trkpt lat="45.9240877" lon="8.7798553"><ele>296.0</ele><time>2026-03-28T13:57:57.451Z</time></trkpt><trkpt lat="45.9241409" lon="8.7799753"><ele>296.0</ele><time>2026-03-28T13:57:58.45Z</time></trkpt><trkpt lat="45.9241866" lon="8.7801045"><ele>296.0</ele><time>2026-03-28T13:57:59.451Z</time></trkpt><trkpt lat="45.9242307" lon="8.7802383"><ele>296.0</ele><time>2026-03-28T13:58:00.45Z</time></trkpt><trkpt lat="45.924275" lon="8.7803713"><ele>296.0</ele><time>2026-03-28T13:58:01.45Z</time></trkpt><trkpt lat="45.9243056" lon="8.7804925"><ele>295.83333333333337</ele><time>2026-03-28T13:58:02.451Z</time></trkpt><trkpt lat="45.9243285" lon="8.7806162"><ele>295.6666666666667</ele><time>2026-03-28T13:58:03.451Z</time></trkpt><trkpt lat="45.9243662" lon="8.7807302"><ele>295.5</ele><time>2026-03-28T13:58:04.451Z</time></trkpt><trkpt lat="45.9244146" lon="8.7808351"><ele>295.3333333333333</ele><time>2026-03-28T13:58:05.45Z</time></trkpt><trkpt lat="45.9244728" lon="8.7809369"><ele>295.16666666666663</ele><time>2026-03-28T13:58:06.45Z</time></trkpt><trkpt lat="45.9245271" lon="8.7810187"><ele>295.0</ele><time>2026-03-28T13:58:07.45Z</time></trkpt><trkpt lat="45.924588" lon="8.7810575"><ele>295.0</ele><time>2026-03-28T13:58:08.45Z</time></trkpt><trkpt lat="45.9246675" lon="8.7810651"><ele>295.0</ele><time>2026-03-28T13:58:09.451Z</time></trkpt><trkpt lat="45.9247501" lon="8.7810586"><ele>295.0</ele><time>2026-03-28T13:58:10.451Z</time></trkpt><trkpt lat="45.9248363" lon="8.7810515"><ele>295.0</ele><time>2026-03-28T13:58:11.451Z</time></trkpt><trkpt lat="45.9249206" lon="8.7810434"><ele>295.0</ele><time>2026-03-28T13:58:12.451Z</time></trkpt><trkpt lat="45.9249907" lon="8.7810411"><ele>295.0</ele><time>2026-03-28T13:58:13.451Z</time></trkpt><trkpt lat="45.9250972" lon="8.7810531"><ele>295.0</ele><time>2026-03-28T13:58:15.451Z</time></trkpt><trkpt lat="45.925181" lon="8.7811403"><ele>295.0</ele><time>2026-03-28T13:58:17.451Z</time></trkpt><trkpt lat="45.9252207" lon="8.7812913"><ele>295.0</ele><time>2026-03-28T13:58:19.451Z</time></trkpt><trkpt lat="45.9252254" lon="8.7813921"><ele>295.0</ele><time>2026-03-28T13:58:20.451Z</time></trkpt><trkpt lat="45.925231" lon="8.7814995"><ele>295.0</ele><time>2026-03-28T13:58:21.451Z</time></trkpt><trkpt lat="45.9252363" lon="8.7816036"><ele>295.0</ele><time>2026-03-28T13:58:22.45Z</time></trkpt><trkpt lat="45.9252386" lon="8.7817071"><ele>295.0</ele><time>2026-03-28T13:58:23.451Z</time></trkpt><trkpt lat="45.9252444" lon="8.781818"><ele>295.0</ele><time>2026-03-28T13:58:24.451Z</time></trkpt><trkpt lat="45.9252476" lon="8.7819191"><ele>295.0</ele><time>2026-03-28T13:58:25.45Z</time></trkpt><trkpt lat="45.9252468" lon="8.7820136"><ele>295.0</ele><time>2026-03-28T13:58:26.451Z</time></trkpt><trkpt lat="45.9252629" lon="8.7821714"><ele>295.0</ele><time>2026-03-28T13:58:28.45Z</time></trkpt><trkpt lat="45.9253201" lon="8.7823071"><ele>295.0</ele><time>2026-03-28T13:58:30.451Z</time></trkpt><trkpt lat="45.9253696" lon="8.7823643"><ele>295.28571428571433</ele><time>2026-03-28T13:58:31.45Z</time></trkpt><trkpt lat="45.9254212" lon="8.7824304"><ele>295.57142857142856</ele><time>2026-03-28T13:58:32.45Z</time></trkpt><trkpt lat="45.925475" lon="8.7824981"><ele>295.8571428571429</ele><time>2026-03-28T13:58:33.45Z</time></trkpt><trkpt lat="45.9255333" lon="8.7825597"><ele>296.14285714285717</ele><time>2026-03-28T13:58:34.45Z</time></trkpt><trkpt lat="45.9255944" lon="8.782618"><ele>296.42857142857144</ele><time>2026-03-28T13:58:35.45Z</time></trkpt><trkpt lat="45.925663" lon="8.7826616"><ele>296.7142857142857</ele><time>2026-03-28T13:58:36.45Z</time></trkpt><trkpt lat="45.9257281" lon="8.7826959"><ele>297.0</ele><time>2026-03-28T13:58:37.45Z</time></trkpt><trkpt lat="45.9257927" lon="8.7827143"><ele>297.5</ele><time>2026-03-28T13:58:38.45Z</time></trkpt><trkpt lat="45.9259086" lon="8.7827708"><ele>298.0</ele><time>2026-03-28T13:58:40.451Z</time></trkpt><trkpt lat="45.9259701" lon="8.7828114"><ele>298.5</ele><time>2026-03-28T13:58:41.45Z</time></trkpt><trkpt lat="45.9260322" lon="8.7828571"><ele>299.0</ele><time>2026-03-28T13:58:42.45Z</time></trkpt><trkpt lat="45.9260945" lon="8.7829036"><ele>299.5</ele><time>2026-03-28T13:58:43.451Z</time></trkpt><trkpt lat="45.926157" lon="8.7829527"><ele>300.0</ele><time>2026-03-28T13:58:44.45Z</time></trkpt><trkpt lat="45.9262176" lon="8.7830131"><ele>300.0</ele><time>2026-03-28T13:58:45.45Z</time></trkpt><trkpt lat="45.9262809" lon="8.7830723"><ele>300.0</ele><time>2026-03-28T13:58:46.451Z</time></trkpt><trkpt lat="45.9263375" lon="8.7831414"><ele>300.0</ele><time>2026-03-28T13:58:47.449Z</time></trkpt><trkpt lat="45.9263928" lon="8.7832172"><ele>300.0</ele><time>2026-03-28T13:58:48.451Z</time></trkpt><trkpt lat="45.9264501" lon="8.7832916"><ele>300.0</ele><time>2026-03-28T13:58:49.45Z</time></trkpt><trkpt lat="45.9265091" lon="8.7833709"><ele>300.0</ele><time>2026-03-28T13:58:50.45Z</time></trkpt><trkpt lat="45.9265722" lon="8.7834538"><ele>299.2</ele><time>2026-03-28T13:58:51.451Z</time></trkpt><trkpt lat="45.9266386" lon="8.7835321"><ele>298.4</ele><time>2026-03-28T13:58:52.45Z</time></trkpt><trkpt lat="45.9267119" lon="8.7836177"><ele>297.6</ele><time>2026-03-28T13:58:53.45Z</time></trkpt><trkpt lat="45.9267825" lon="8.7837121"><ele>296.8</ele><time>2026-03-28T13:58:54.451Z</time></trkpt><trkpt lat="45.9268539" lon="8.7838108"><ele>296.0</ele><time>2026-03-28T13:58:55.451Z</time></trkpt><trkpt lat="45.9269242" lon="8.7839156"><ele>296.0</ele><time>2026-03-28T13:58:56.45Z</time></trkpt><trkpt lat="45.9269989" lon="8.7840201"><ele>296.0</ele><time>2026-03-28T13:58:57.45Z</time></trkpt><trkpt lat="45.9270786" lon="8.7841269"><ele>296.0</ele><time>2026-03-28T13:58:58.451Z</time></trkpt><trkpt lat="45.9271594" lon="8.7842348"><ele>296.0</ele><time>2026-03-28T13:58:59.45Z</time></trkpt><trkpt lat="45.9272396" lon="8.7843436"><ele>296.0</ele><time>2026-03-28T13:59:00.451Z</time></trkpt><trkpt lat="45.9273173" lon="8.7844562"><ele>297.0</ele><time>2026-03-28T13:59:01.45Z</time></trkpt><trkpt lat="45.9273954" lon="8.7845641"><ele>298.0</ele><time>2026-03-28T13:59:02.45Z</time></trkpt><trkpt lat="45.9274878" lon="8.784665"><ele>299.0</ele><time>2026-03-28T13:59:03.45Z</time></trkpt><trkpt lat="45.9275824" lon="8.784756"><ele>300.0</ele><time>2026-03-28T13:59:04.45Z</time></trkpt><trkpt lat="45.9276819" lon="8.7848258"><ele>301.0</ele><time>2026-03-28T13:59:05.451Z</time></trkpt><trkpt lat="45.9277931" lon="8.7848774"><ele>301.0</ele><time>2026-03-28T13:59:06.451Z</time></trkpt><trkpt lat="45.9279115" lon="8.7849125"><ele>301.0</ele><time>2026-03-28T13:59:07.451Z</time></trkpt><trkpt lat="45.9280281" lon="8.7849383"><ele>301.0</ele><time>2026-03-28T13:59:08.45Z</time></trkpt><trkpt lat="45.928141" lon="8.7849663"><ele>301.0</ele><time>2026-03-28T13:59:09.45Z</time></trkpt><trkpt lat="45.9282491" lon="8.784985"><ele>301.0</ele><time>2026-03-28T13:59:10.451Z</time></trkpt><trkpt lat="45.9283608" lon="8.7849976"><ele>301.0</ele><time>2026-03-28T13:59:11.451Z</time></trkpt><trkpt lat="45.9284715" lon="8.7850067"><ele>301.0</ele><time>2026-03-28T13:59:12.451Z</time></trkpt><trkpt lat="45.9285851" lon="8.7850074"><ele>301.0</ele><time>2026-03-28T13:59:13.45Z</time></trkpt><trkpt lat="45.9286984" lon="8.784993"><ele>301.0</ele><time>2026-03-28T13:59:14.451Z</time></trkpt><trkpt lat="45.9288171" lon="8.7849715"><ele>301.0</ele><time>2026-03-28T13:59:15.451Z</time></trkpt><trkpt lat="45.9289292" lon="8.784948"><ele>301.0</ele><time>2026-03-28T13:59:16.45Z</time></trkpt><trkpt lat="45.9290321" lon="8.784922"><ele>301.0</ele><time>2026-03-28T13:59:17.45Z</time></trkpt><trkpt lat="45.9291328" lon="8.7849007"><ele>301.0</ele><time>2026-03-28T13:59:18.45Z</time></trkpt><trkpt lat="45.9292312" lon="8.7848741"><ele>301.0</ele><time>2026-03-28T13:59:19.451Z</time></trkpt><trkpt lat="45.9293281" lon="8.7848543"><ele>301.0</ele><time>2026-03-28T13:59:20.451Z</time></trkpt><trkpt lat="45.9294194" lon="8.7848296"><ele>301.0</ele><time>2026-03-28T13:59:21.449Z</time></trkpt><trkpt lat="45.9295009" lon="8.7847902"><ele>301.0</ele><time>2026-03-28T13:59:22.45Z</time></trkpt><trkpt lat="45.92967" lon="8.784689"><ele>301.0</ele><time>2026-03-28T13:59:24.451Z</time></trkpt><trkpt lat="45.9297425" lon="8.7846259"><ele>301.0</ele><time>2026-03-28T13:59:25.451Z</time></trkpt><trkpt lat="45.9298146" lon="8.7845673"><ele>301.0</ele><time>2026-03-28T13:59:26.45Z</time></trkpt><trkpt lat="45.9298838" lon="8.7845044"><ele>301.0</ele><time>2026-03-28T13:59:27.451Z</time></trkpt><trkpt lat="45.9299462" lon="8.7844188"><ele>301.0</ele><time>2026-03-28T13:59:28.45Z</time></trkpt><trkpt lat="45.929997" lon="8.7843264"><ele>301.0</ele><time>2026-03-28T13:59:29.45Z</time></trkpt><trkpt lat="45.9300474" lon="8.784221"><ele>300.3333333333333</ele><time>2026-03-28T13:59:30.45Z</time></trkpt><trkpt lat="45.9300941" lon="8.7841293"><ele>299.66666666666663</ele><time>2026-03-28T13:59:31.45Z</time></trkpt><trkpt lat="45.9301487" lon="8.784059"><ele>299.0</ele><time>2026-03-28T13:59:32.451Z</time></trkpt><trkpt lat="45.9302103" lon="8.7840071"><ele>298.3333333333333</ele><time>2026-03-28T13:59:33.45Z</time></trkpt><trkpt lat="45.9302729" lon="8.7839541"><ele>297.6666666666667</ele><time>2026-03-28T13:59:34.45Z</time></trkpt><trkpt lat="45.9303361" lon="8.7838875"><ele>297.0</ele><time>2026-03-28T13:59:35.45Z</time></trkpt><trkpt lat="45.9304011" lon="8.7838081"><ele>297.0</ele><time>2026-03-28T13:59:36.45Z</time></trkpt><trkpt lat="45.9304716" lon="8.7837268"><ele>297.0</ele><time>2026-03-28T13:59:37.45Z</time></trkpt><trkpt lat="45.9305459" lon="8.7836606"><ele>297.0</ele><time>2026-03-28T13:59:38.451Z</time></trkpt><trkpt lat="45.9306274" lon="8.7836109"><ele>297.0</ele><time>2026-03-28T13:59:39.45Z</time></trkpt><trkpt lat="45.9307124" lon="8.7835929"><ele>297.0</ele><time>2026-03-28T13:59:40.451Z</time></trkpt><trkpt lat="45.9307965" lon="8.7835962"><ele>297.0</ele><time>2026-03-28T13:59:41.45Z</time></trkpt><trkpt lat="45.9308874" lon="8.783609"><ele>297.2</ele><time>2026-03-28T13:59:42.451Z</time></trkpt><trkpt lat="45.9309822" lon="8.7836221"><ele>297.4</ele><time>2026-03-28T13:59:43.45Z</time></trkpt><trkpt lat="45.9310749" lon="8.7836337"><ele>297.6</ele><time>2026-03-28T13:59:44.449Z</time></trkpt><trkpt lat="45.9311657" lon="8.7836409"><ele>297.8</ele><time>2026-03-28T13:59:45.451Z</time></trkpt><trkpt lat="45.9312595" lon="8.7836531"><ele>298.0</ele><time>2026-03-28T13:59:46.45Z</time></trkpt><trkpt lat="45.9313522" lon="8.7836634"><ele>298.0</ele><time>2026-03-28T13:59:47.451Z</time></trkpt><trkpt lat="45.9314409" lon="8.7836775"><ele>298.0</ele><time>2026-03-28T13:59:48.45Z</time></trkpt><trkpt lat="45.931528" lon="8.7836734"><ele>298.0</ele><time>2026-03-28T13:59:49.45Z</time></trkpt><trkpt lat="45.9316011" lon="8.7836617"><ele>298.0</ele><time>2026-03-28T13:59:50.451Z</time></trkpt><trkpt lat="45.9317155" lon="8.783659"><ele>298.0</ele><time>2026-03-28T13:59:52.45Z</time></trkpt><trkpt lat="45.9318297" lon="8.7836724"><ele>297.2857142857143</ele><time>2026-03-28T13:59:54.451Z</time></trkpt><trkpt lat="45.9318954" lon="8.7836844"><ele>296.57142857142856</ele><time>2026-03-28T13:59:55.451Z</time></trkpt><trkpt lat="45.9319644" lon="8.7836955"><ele>295.85714285714283</ele><time>2026-03-28T13:59:56.451Z</time></trkpt><trkpt lat="45.9320368" lon="8.7837125"><ele>295.1428571428571</ele><time>2026-03-28T13:59:57.451Z</time></trkpt><trkpt lat="45.9321152" lon="8.7837375"><ele>294.42857142857144</ele><time>2026-03-28T13:59:58.45Z</time></trkpt><trkpt lat="45.9321865" lon="8.7837883"><ele>293.71428571428567</ele><time>2026-03-28T13:59:59.45Z</time></trkpt><trkpt lat="45.932248" lon="8.7838574"><ele>293.0</ele><time>2026-03-28T14:00:00.451Z</time></trkpt><trkpt lat="45.9322995" lon="8.7839363"><ele>293.0</ele><time>2026-03-28T14:00:01.451Z</time></trkpt><trkpt lat="45.9323478" lon="8.7840251"><ele>293.0</ele><time>2026-03-28T14:00:02.45Z</time></trkpt><trkpt lat="45.932394" lon="8.7841233"><ele>293.0</ele><time>2026-03-28T14:00:03.45Z</time></trkpt><trkpt lat="45.9324368" lon="8.7842293"><ele>293.0</ele><time>2026-03-28T14:00:04.45Z</time></trkpt><trkpt lat="45.9324795" lon="8.7843418"><ele>293.0</ele><time>2026-03-28T14:00:05.451Z</time></trkpt><trkpt lat="45.9325194" lon="8.7844544"><ele>293.0</ele><time>2026-03-28T14:00:06.45Z</time></trkpt><trkpt lat="45.9325641" lon="8.7845558"><ele>293.0</ele><time>2026-03-28T14:00:07.45Z</time></trkpt><trkpt lat="45.9326104" lon="8.7846477"><ele>293.0</ele><time>2026-03-28T14:00:08.45Z</time></trkpt><trkpt lat="45.9326608" lon="8.7847229"><ele>293.0</ele><time>2026-03-28T14:00:09.451Z</time></trkpt><trkpt lat="45.9327136" lon="8.7847843"><ele>293.0</ele><time>2026-03-28T14:00:10.45Z</time></trkpt><trkpt lat="45.9327984" lon="8.784839"><ele>293.0</ele><time>2026-03-28T14:00:12.451Z</time></trkpt><trkpt lat="45.9328578" lon="8.784794"><ele>293.0</ele><time>2026-03-28T14:00:23.45Z</time></trkpt><trkpt lat="45.93282" lon="8.7846775"><ele>293.0</ele><time>2026-03-28T14:00:25.45Z</time></trkpt><trkpt lat="45.9327306" lon="8.784541"><ele>293.0</ele><time>2026-03-28T14:00:27.45Z</time></trkpt><trkpt lat="45.932692" lon="8.7844585"><ele>293.0</ele><time>2026-03-28T14:00:28.45Z</time></trkpt><trkpt lat="45.9326532" lon="8.7843597"><ele>293.0</ele><time>2026-03-28T14:00:29.449Z</time></trkpt><trkpt lat="45.9326217" lon="8.7842752"><ele>293.0</ele><time>2026-03-28T14:00:30.45Z</time></trkpt><trkpt lat="45.9325697" lon="8.784119"><ele>293.0</ele><time>2026-03-28T14:00:32.45Z</time></trkpt><trkpt lat="45.9325539" lon="8.7840254"><ele>293.0</ele><time>2026-03-28T14:00:33.45Z</time></trkpt><trkpt lat="45.9325379" lon="8.7839093"><ele>293.0</ele><time>2026-03-28T14:00:34.449Z</time></trkpt><trkpt lat="45.9325198" lon="8.7837822"><ele>293.0</ele><time>2026-03-28T14:00:35.45Z</time></trkpt><trkpt lat="45.9324986" lon="8.7836507"><ele>293.0</ele><time>2026-03-28T14:00:36.45Z</time></trkpt><trkpt lat="45.9324769" lon="8.7835199"><ele>293.0</ele><time>2026-03-28T14:00:37.45Z</time></trkpt><trkpt lat="45.9324606" lon="8.783394"><ele>290.83333333333337</ele><time>2026-03-28T14:00:38.449Z</time></trkpt><trkpt lat="45.9324413" lon="8.7832857"><ele>288.6666666666667</ele><time>2026-03-28T14:00:39.449Z</time></trkpt><trkpt lat="45.9324022" lon="8.7831947"><ele>286.5</ele><time>2026-03-28T14:00:40.45Z</time></trkpt><trkpt lat="45.932353" lon="8.7831055"><ele>284.3333333333333</ele><time>2026-03-28T14:00:41.449Z</time></trkpt><trkpt lat="45.9322943" lon="8.7830517"><ele>282.16666666666663</ele><time>2026-03-28T14:00:42.449Z</time></trkpt><trkpt lat="45.9322251" lon="8.7830368"><ele>280.0</ele><time>2026-03-28T14:00:43.449Z</time></trkpt><trkpt lat="45.9321452" lon="8.7830516"><ele>280.0</ele><time>2026-03-28T14:00:44.45Z</time></trkpt><trkpt lat="45.9320626" lon="8.7830644"><ele>280.0</ele><time>2026-03-28T14:00:45.45Z</time></trkpt><trkpt lat="45.9319742" lon="8.7830423"><ele>280.0</ele><time>2026-03-28T14:00:46.45Z</time></trkpt><trkpt lat="45.9318858" lon="8.7829892"><ele>280.0</ele><time>2026-03-28T14:00:47.45Z</time></trkpt><trkpt lat="45.9318073" lon="8.7829116"><ele>280.0</ele><time>2026-03-28T14:00:48.449Z</time></trkpt><trkpt lat="45.9317306" lon="8.7828345"><ele>280.8333333333333</ele><time>2026-03-28T14:00:49.449Z</time></trkpt><trkpt lat="45.9316563" lon="8.7827659"><ele>281.66666666666663</ele><time>2026-03-28T14:00:50.449Z</time></trkpt><trkpt lat="45.9315806" lon="8.7827045"><ele>282.5</ele><time>2026-03-28T14:00:51.449Z</time></trkpt><trkpt lat="45.931511" lon="8.7826478"><ele>283.3333333333333</ele><time>2026-03-28T14:00:52.449Z</time></trkpt><trkpt lat="45.9314402" lon="8.7825874"><ele>284.1666666666667</ele><time>2026-03-28T14:00:53.449Z</time></trkpt><trkpt lat="45.9313746" lon="8.7825143"><ele>285.0</ele><time>2026-03-28T14:00:54.449Z</time></trkpt><trkpt lat="45.9313191" lon="8.7824238"><ele>282.0</ele><time>2026-03-28T14:00:55.449Z</time></trkpt><trkpt lat="45.9312768" lon="8.7822993"><ele>279.0</ele><time>2026-03-28T14:00:56.45Z</time></trkpt><trkpt lat="45.9312384" lon="8.7821607"><ele>276.0</ele><time>2026-03-28T14:00:57.45Z</time></trkpt><trkpt lat="45.9312041" lon="8.7820207"><ele>273.0</ele><time>2026-03-28T14:00:58.449Z</time></trkpt><trkpt lat="45.9311676" lon="8.7818982"><ele>270.0</ele><time>2026-03-28T14:00:59.449Z</time></trkpt><trkpt lat="45.9311381" lon="8.7817957"><ele>267.0</ele><time>2026-03-28T14:01:00.45Z</time></trkpt><trkpt lat="45.9311408" lon="8.7816484"><ele>264.0</ele><time>2026-03-28T14:01:02.45Z</time></trkpt><trkpt lat="45.9311873" lon="8.7815826"><ele>261.0</ele><time>2026-03-28T14:01:03.45Z</time></trkpt><trkpt lat="45.9312619" lon="8.7815308"><ele>258.0</ele><time>2026-03-28T14:01:04.449Z</time></trkpt><trkpt lat="45.9313542" lon="8.7814843"><ele>255.0</ele><time>2026-03-28T14:01:05.449Z</time></trkpt><trkpt lat="45.9314557" lon="8.7814299"><ele>255.0</ele><time>2026-03-28T14:01:06.449Z</time></trkpt><trkpt lat="45.9315585" lon="8.7813785"><ele>255.0</ele><time>2026-03-28T14:01:07.449Z</time></trkpt><trkpt lat="45.931662" lon="8.7813327"><ele>255.0</ele><time>2026-03-28T14:01:08.449Z</time></trkpt><trkpt lat="45.9317627" lon="8.7812699"><ele>255.0</ele><time>2026-03-28T14:01:09.45Z</time></trkpt><trkpt lat="45.9318538" lon="8.7811816"><ele>255.0</ele><time>2026-03-28T14:01:10.45Z</time></trkpt><trkpt lat="45.9319254" lon="8.7810706"><ele>254.2</ele><time>2026-03-28T14:01:11.45Z</time></trkpt><trkpt lat="45.9319867" lon="8.7809444"><ele>253.4</ele><time>2026-03-28T14:01:12.45Z</time></trkpt><trkpt lat="45.9320452" lon="8.7808171"><ele>252.60000000000002</ele><time>2026-03-28T14:01:13.449Z</time></trkpt><trkpt lat="45.9320957" lon="8.780676"><ele>251.8</ele><time>2026-03-28T14:01:14.449Z</time></trkpt><trkpt lat="45.9321456" lon="8.7805462"><ele>251.0</ele><time>2026-03-28T14:01:15.449Z</time></trkpt><trkpt lat="45.9321964" lon="8.7804091"><ele>251.0</ele><time>2026-03-28T14:01:16.449Z</time></trkpt><trkpt lat="45.9322547" lon="8.7802822"><ele>251.00000000000003</ele><time>2026-03-28T14:01:17.45Z</time></trkpt><trkpt lat="45.932326" lon="8.7801809"><ele>251.00000000000003</ele><time>2026-03-28T14:01:18.449Z</time></trkpt><trkpt lat="45.9324094" lon="8.7801037"><ele>251.0</ele><time>2026-03-28T14:01:19.449Z</time></trkpt><trkpt lat="45.9324969" lon="8.7800609"><ele>251.0</ele><time>2026-03-28T14:01:20.449Z</time></trkpt><trkpt lat="45.9325891" lon="8.7800382"><ele>251.0</ele><time>2026-03-28T14:01:21.449Z</time></trkpt><trkpt lat="45.9326764" lon="8.7800293"><ele>251.00000000000003</ele><time>2026-03-28T14:01:22.45Z</time></trkpt><trkpt lat="45.9327493" lon="8.78003"><ele>251.00000000000003</ele><time>2026-03-28T14:01:23.45Z</time></trkpt><trkpt lat="45.9328152" lon="8.7800208"><ele>251.0</ele><time>2026-03-28T14:01:24.45Z</time></trkpt><trkpt lat="45.9328946" lon="8.7798921"><ele>251.0</ele><time>2026-03-28T14:01:26.45Z</time></trkpt><trkpt lat="45.9329182" lon="8.7797017"><ele>251.0</ele><time>2026-03-28T14:01:28.449Z</time></trkpt><trkpt lat="45.9329281" lon="8.7795838"><ele>251.00000000000003</ele><time>2026-03-28T14:01:29.449Z</time></trkpt><trkpt lat="45.9329395" lon="8.779459"><ele>251.00000000000003</ele><time>2026-03-28T14:01:30.449Z</time></trkpt><trkpt lat="45.9329537" lon="8.7793251"><ele>251.0</ele><time>2026-03-28T14:01:31.45Z</time></trkpt><trkpt lat="45.9329685" lon="8.7791956"><ele>251.0</ele><time>2026-03-28T14:01:32.45Z</time></trkpt><trkpt lat="45.9329837" lon="8.7790599"><ele>249.8</ele><time>2026-03-28T14:01:33.449Z</time></trkpt><trkpt lat="45.9329955" lon="8.7789261"><ele>248.60000000000002</ele><time>2026-03-28T14:01:34.449Z</time></trkpt><trkpt lat="45.9330071" lon="8.7787929"><ele>247.4</ele><time>2026-03-28T14:01:35.449Z</time></trkpt><trkpt lat="45.9330155" lon="8.7786604"><ele>246.2</ele><time>2026-03-28T14:01:36.45Z</time></trkpt><trkpt lat="45.9330258" lon="8.77853"><ele>245.0</ele><time>2026-03-28T14:01:37.45Z</time></trkpt><trkpt lat="45.9330356" lon="8.7783977"><ele>245.00000000000003</ele><time>2026-03-28T14:01:38.45Z</time></trkpt><trkpt lat="45.9330444" lon="8.778267"><ele>245.0</ele><time>2026-03-28T14:01:39.449Z</time></trkpt><trkpt lat="45.9330558" lon="8.7781444"><ele>245.0</ele><time>2026-03-28T14:01:40.449Z</time></trkpt><trkpt lat="45.9330644" lon="8.7780312"><ele>245.0</ele><time>2026-03-28T14:01:41.449Z</time></trkpt><trkpt lat="45.9330705" lon="8.7779402"><ele>245.00000000000003</ele><time>2026-03-28T14:01:42.449Z</time></trkpt><trkpt lat="45.9330831" lon="8.7777592"><ele>245.0</ele><time>2026-03-28T14:01:44.449Z</time></trkpt><trkpt lat="45.933079" lon="8.777659"><ele>245.00000000000003</ele><time>2026-03-28T14:01:45.45Z</time></trkpt><trkpt lat="45.933072" lon="8.7775524"><ele>245.0</ele><time>2026-03-28T14:01:46.45Z</time></trkpt><trkpt lat="45.9330675" lon="8.7774428"><ele>245.0</ele><time>2026-03-28T14:01:47.45Z</time></trkpt><trkpt lat="45.9330656" lon="8.7773183"><ele>245.0</ele><time>2026-03-28T14:01:48.45Z</time></trkpt><trkpt lat="45.9330585" lon="8.7771921"><ele>245.00000000000003</ele><time>2026-03-28T14:01:49.45Z</time></trkpt><trkpt lat="45.9330534" lon="8.7770539"><ele>245.0</ele><time>2026-03-28T14:01:50.45Z</time></trkpt><trkpt lat="45.9330475" lon="8.776906"><ele>244.8</ele><time>2026-03-28T14:01:51.45Z</time></trkpt><trkpt lat="45.9330453" lon="8.7767535"><ele>244.6</ele><time>2026-03-28T14:01:52.45Z</time></trkpt><trkpt lat="45.9330409" lon="8.7766164"><ele>244.39999999999998</ele><time>2026-03-28T14:01:53.45Z</time></trkpt><trkpt lat="45.9330365" lon="8.7764807"><ele>244.2</ele><time>2026-03-28T14:01:54.449Z</time></trkpt><trkpt lat="45.9330304" lon="8.7763464"><ele>244.0</ele><time>2026-03-28T14:01:55.449Z</time></trkpt><trkpt lat="45.9330264" lon="8.776212"><ele>244.0</ele><time>2026-03-28T14:01:56.449Z</time></trkpt><trkpt lat="45.9330225" lon="8.7760767"><ele>243.99999999999997</ele><time>2026-03-28T14:01:57.45Z</time></trkpt><trkpt lat="45.9330182" lon="8.7759458"><ele>243.99999999999997</ele><time>2026-03-28T14:01:58.45Z</time></trkpt><trkpt lat="45.933014" lon="8.7758242"><ele>244.0</ele><time>2026-03-28T14:01:59.45Z</time></trkpt><trkpt lat="45.9330147" lon="8.7757155"><ele>244.0</ele><time>2026-03-28T14:02:00.449Z</time></trkpt><trkpt lat="45.9330605" lon="8.7755728"><ele>243.83333333333331</ele><time>2026-03-28T14:02:02.45Z</time></trkpt><trkpt lat="45.9331102" lon="8.7754927"><ele>243.66666666666666</ele><time>2026-03-28T14:02:04.449Z</time></trkpt><trkpt lat="45.9331951" lon="8.7754402"><ele>243.5</ele><time>2026-03-28T14:02:06.45Z</time></trkpt><trkpt lat="45.9332569" lon="8.7754226"><ele>243.33333333333331</ele><time>2026-03-28T14:02:07.449Z</time></trkpt><trkpt lat="45.9333367" lon="8.7753866"><ele>243.16666666666666</ele><time>2026-03-28T14:02:08.449Z</time></trkpt><trkpt lat="45.9334232" lon="8.7753513"><ele>243.0</ele><time>2026-03-28T14:02:09.449Z</time></trkpt><trkpt lat="45.9335213" lon="8.7753067"><ele>242.75</ele><time>2026-03-28T14:02:10.45Z</time></trkpt><trkpt lat="45.9336242" lon="8.7752546"><ele>242.5</ele><time>2026-03-28T14:02:11.45Z</time></trkpt><trkpt lat="45.9337385" lon="8.7751985"><ele>242.25</ele><time>2026-03-28T14:02:12.449Z</time></trkpt><trkpt lat="45.9338563" lon="8.7751543"><ele>242.0</ele><time>2026-03-28T14:02:13.45Z</time></trkpt><trkpt lat="45.9339842" lon="8.7751019"><ele>242.0</ele><time>2026-03-28T14:02:14.45Z</time></trkpt><trkpt lat="45.9341104" lon="8.7750574"><ele>242.0</ele><time>2026-03-28T14:02:15.449Z</time></trkpt><trkpt lat="45.9342435" lon="8.7750067"><ele>242.0</ele><time>2026-03-28T14:02:16.45Z</time></trkpt><trkpt lat="45.9343772" lon="8.7749468"><ele>242.0</ele><time>2026-03-28T14:02:17.449Z</time></trkpt><trkpt lat="45.9345151" lon="8.7748877"><ele>242.0</ele><time>2026-03-28T14:02:18.449Z</time></trkpt><trkpt lat="45.9346527" lon="8.774832"><ele>242.0</ele><time>2026-03-28T14:02:19.45Z</time></trkpt><trkpt lat="45.9347818" lon="8.7747659"><ele>242.0</ele><time>2026-03-28T14:02:20.449Z</time></trkpt><trkpt lat="45.9349053" lon="8.7746795"><ele>242.0</ele><time>2026-03-28T14:02:21.45Z</time></trkpt><trkpt lat="45.9350187" lon="8.7745554"><ele>241.66666666666669</ele><time>2026-03-28T14:02:22.449Z</time></trkpt><trkpt lat="45.9351323" lon="8.7744136"><ele>241.33333333333331</ele><time>2026-03-28T14:02:23.449Z</time></trkpt><trkpt lat="45.9352423" lon="8.7742664"><ele>241.0</ele><time>2026-03-28T14:02:24.45Z</time></trkpt><trkpt lat="45.9353494" lon="8.7741065"><ele>241.0</ele><time>2026-03-28T14:02:25.449Z</time></trkpt><trkpt lat="45.9354561" lon="8.7739609"><ele>241.0</ele><time>2026-03-28T14:02:26.45Z</time></trkpt><trkpt lat="45.9355786" lon="8.7738301"><ele>241.0</ele><time>2026-03-28T14:02:27.45Z</time></trkpt><trkpt lat="45.9357104" lon="8.7737222"><ele>241.0</ele><time>2026-03-28T14:02:28.449Z</time></trkpt><trkpt lat="45.9358526" lon="8.7736279"><ele>241.0</ele><time>2026-03-28T14:02:29.449Z</time></trkpt><trkpt lat="45.9359978" lon="8.773547"><ele>241.0</ele><time>2026-03-28T14:02:30.45Z</time></trkpt><trkpt lat="45.9361447" lon="8.7734713"><ele>241.66666666666666</ele><time>2026-03-28T14:02:31.45Z</time></trkpt><trkpt lat="45.9362962" lon="8.77339"><ele>242.33333333333331</ele><time>2026-03-28T14:02:32.449Z</time></trkpt><trkpt lat="45.9364458" lon="8.7733063"><ele>243.0</ele><time>2026-03-28T14:02:33.449Z</time></trkpt><trkpt lat="45.9366017" lon="8.7732322"><ele>242.33333333333331</ele><time>2026-03-28T14:02:34.45Z</time></trkpt><trkpt lat="45.9367564" lon="8.773149"><ele>241.66666666666666</ele><time>2026-03-28T14:02:35.449Z</time></trkpt><trkpt lat="45.9369151" lon="8.7730697"><ele>241.0</ele><time>2026-03-28T14:02:36.45Z</time></trkpt><trkpt lat="45.9370741" lon="8.772984"><ele>241.0</ele><time>2026-03-28T14:02:37.449Z</time></trkpt><trkpt lat="45.937239" lon="8.7729002"><ele>241.0</ele><time>2026-03-28T14:02:38.449Z</time></trkpt><trkpt lat="45.9373984" lon="8.7728132"><ele>241.0</ele><time>2026-03-28T14:02:39.45Z</time></trkpt><trkpt lat="45.9375567" lon="8.7727313"><ele>242.0</ele><time>2026-03-28T14:02:40.45Z</time></trkpt><trkpt lat="45.9377109" lon="8.772651"><ele>243.0</ele><time>2026-03-28T14:02:41.449Z</time></trkpt><trkpt lat="45.9378632" lon="8.7725668"><ele>244.0</ele><time>2026-03-28T14:02:42.448Z</time></trkpt><trkpt lat="45.9380113" lon="8.7724929"><ele>244.0</ele><time>2026-03-28T14:02:43.45Z</time></trkpt><trkpt lat="45.9381587" lon="8.7724157"><ele>244.0</ele><time>2026-03-28T14:02:44.45Z</time></trkpt><trkpt lat="45.9383046" lon="8.7723457"><ele>244.0</ele><time>2026-03-28T14:02:45.449Z</time></trkpt><trkpt lat="45.9384548" lon="8.7722685"><ele>244.0</ele><time>2026-03-28T14:02:46.45Z</time></trkpt><trkpt lat="45.9385967" lon="8.7721829"><ele>244.0</ele><time>2026-03-28T14:02:47.45Z</time></trkpt><trkpt lat="45.9387498" lon="8.772094"><ele>244.0</ele><time>2026-03-28T14:02:48.45Z</time></trkpt><trkpt lat="45.9388977" lon="8.7720081"><ele>244.0</ele><time>2026-03-28T14:02:49.449Z</time></trkpt><trkpt lat="45.939049" lon="8.7719206"><ele>244.0</ele><time>2026-03-28T14:02:50.45Z</time></trkpt><trkpt lat="45.9392083" lon="8.7718373"><ele>244.0</ele><time>2026-03-28T14:02:51.449Z</time></trkpt><trkpt lat="45.9393637" lon="8.7717411"><ele>243.66666666666666</ele><time>2026-03-28T14:02:52.45Z</time></trkpt><trkpt lat="45.9395145" lon="8.7716443"><ele>243.33333333333331</ele><time>2026-03-28T14:02:53.449Z</time></trkpt><trkpt lat="45.9396653" lon="8.7715411"><ele>243.0</ele><time>2026-03-28T14:02:54.45Z</time></trkpt><trkpt lat="45.9398188" lon="8.7714457"><ele>243.0</ele><time>2026-03-28T14:02:55.449Z</time></trkpt><trkpt lat="45.9399688" lon="8.7713455"><ele>243.0</ele><time>2026-03-28T14:02:56.449Z</time></trkpt><trkpt lat="45.9401161" lon="8.7712466"><ele>243.0</ele><time>2026-03-28T14:02:57.449Z</time></trkpt><trkpt lat="45.9402685" lon="8.7711437"><ele>243.33333333333331</ele><time>2026-03-28T14:02:58.45Z</time></trkpt><trkpt lat="45.9404218" lon="8.7710501"><ele>243.66666666666666</ele><time>2026-03-28T14:02:59.45Z</time></trkpt><trkpt lat="45.9405724" lon="8.7709535"><ele>244.0</ele><time>2026-03-28T14:03:00.449Z</time></trkpt><trkpt lat="45.9407248" lon="8.770855"><ele>244.0</ele><time>2026-03-28T14:03:01.449Z</time></trkpt><trkpt lat="45.9408786" lon="8.7707549"><ele>244.0</ele><time>2026-03-28T14:03:02.45Z</time></trkpt><trkpt lat="45.9410284" lon="8.7706532"><ele>244.0</ele><time>2026-03-28T14:03:03.449Z</time></trkpt><trkpt lat="45.9411799" lon="8.7705591"><ele>242.33333333333331</ele><time>2026-03-28T14:03:04.45Z</time></trkpt><trkpt lat="45.9413271" lon="8.7704664"><ele>240.66666666666669</ele><time>2026-03-28T14:03:05.449Z</time></trkpt><trkpt lat="45.9414744" lon="8.7703649"><ele>239.0</ele><time>2026-03-28T14:03:06.45Z</time></trkpt><trkpt lat="45.9416192" lon="8.7702504"><ele>239.33333333333334</ele><time>2026-03-28T14:03:07.449Z</time></trkpt><trkpt lat="45.941762" lon="8.7701348"><ele>239.66666666666669</ele><time>2026-03-28T14:03:08.45Z</time></trkpt><trkpt lat="45.9418938" lon="8.7700066"><ele>240.0</ele><time>2026-03-28T14:03:09.45Z</time></trkpt><trkpt lat="45.9420193" lon="8.7698731"><ele>240.0</ele><time>2026-03-28T14:03:10.449Z</time></trkpt><trkpt lat="45.9421414" lon="8.7697348"><ele>240.0</ele><time>2026-03-28T14:03:11.45Z</time></trkpt><trkpt lat="45.9422627" lon="8.769594"><ele>240.0</ele><time>2026-03-28T14:03:12.448Z</time></trkpt><trkpt lat="45.9423901" lon="8.769454"><ele>240.66666666666669</ele><time>2026-03-28T14:03:13.45Z</time></trkpt><trkpt lat="45.9425094" lon="8.7693013"><ele>241.33333333333334</ele><time>2026-03-28T14:03:14.449Z</time></trkpt><trkpt lat="45.9426351" lon="8.7691516"><ele>242.0</ele><time>2026-03-28T14:03:15.45Z</time></trkpt><trkpt lat="45.9427562" lon="8.7690007"><ele>242.0</ele><time>2026-03-28T14:03:16.449Z</time></trkpt><trkpt lat="45.9428838" lon="8.7688495"><ele>242.0</ele><time>2026-03-28T14:03:17.45Z</time></trkpt><trkpt lat="45.9430127" lon="8.7687043"><ele>242.0</ele><time>2026-03-28T14:03:18.449Z</time></trkpt><trkpt lat="45.9431415" lon="8.7685615"><ele>242.0</ele><time>2026-03-28T14:03:19.45Z</time></trkpt><trkpt lat="45.9432734" lon="8.7684193"><ele>242.0</ele><time>2026-03-28T14:03:20.449Z</time></trkpt><trkpt lat="45.9434118" lon="8.7682886"><ele>242.0</ele><time>2026-03-28T14:03:21.45Z</time></trkpt><trkpt lat="45.9435529" lon="8.7681718"><ele>239.66666666666669</ele><time>2026-03-28T14:03:22.449Z</time></trkpt><trkpt lat="45.9436943" lon="8.7680555"><ele>237.33333333333331</ele><time>2026-03-28T14:03:23.45Z</time></trkpt><trkpt lat="45.9438404" lon="8.7679382"><ele>235.0</ele><time>2026-03-28T14:03:24.45Z</time></trkpt><trkpt lat="45.9439836" lon="8.7678257"><ele>235.0</ele><time>2026-03-28T14:03:25.449Z</time></trkpt><trkpt lat="45.9441231" lon="8.7677288"><ele>235.0</ele><time>2026-03-28T14:03:26.45Z</time></trkpt><trkpt lat="45.9442678" lon="8.7676566"><ele>235.0</ele><time>2026-03-28T14:03:27.45Z</time></trkpt><trkpt lat="45.9444183" lon="8.7676161"><ele>236.33333333333331</ele><time>2026-03-28T14:03:28.45Z</time></trkpt><trkpt lat="45.9445688" lon="8.7676138"><ele>237.66666666666669</ele><time>2026-03-28T14:03:29.449Z</time></trkpt><trkpt lat="45.9447218" lon="8.7676262"><ele>239.0</ele><time>2026-03-28T14:03:30.45Z</time></trkpt><trkpt lat="45.9448789" lon="8.7676543"><ele>239.0</ele><time>2026-03-28T14:03:31.449Z</time></trkpt><trkpt lat="45.9450343" lon="8.767687"><ele>239.0</ele><time>2026-03-28T14:03:32.45Z</time></trkpt><trkpt lat="45.9451898" lon="8.7677107"><ele>239.0</ele><time>2026-03-28T14:03:33.449Z</time></trkpt><trkpt lat="45.9453506" lon="8.767728"><ele>238.33333333333334</ele><time>2026-03-28T14:03:34.45Z</time></trkpt><trkpt lat="45.9455105" lon="8.7677336"><ele>237.66666666666669</ele><time>2026-03-28T14:03:35.449Z</time></trkpt><trkpt lat="45.9456712" lon="8.767731"><ele>237.0</ele><time>2026-03-28T14:03:36.45Z</time></trkpt><trkpt lat="45.9458304" lon="8.7677173"><ele>237.0</ele><time>2026-03-28T14:03:37.449Z</time></trkpt><trkpt lat="45.9459849" lon="8.767707"><ele>237.0</ele><time>2026-03-28T14:03:38.45Z</time></trkpt><trkpt lat="45.9461343" lon="8.767699"><ele>237.0</ele><time>2026-03-28T14:03:39.45Z</time></trkpt><trkpt lat="45.9462704" lon="8.7676906"><ele>237.0</ele><time>2026-03-28T14:03:40.449Z</time></trkpt><trkpt lat="45.9464023" lon="8.7676811"><ele>237.25</ele><time>2026-03-28T14:03:41.449Z</time></trkpt><trkpt lat="45.946528" lon="8.7676716"><ele>237.5</ele><time>2026-03-28T14:03:42.45Z</time></trkpt><trkpt lat="45.9466381" lon="8.7676598"><ele>237.75</ele><time>2026-03-28T14:03:43.449Z</time></trkpt><trkpt lat="45.9467453" lon="8.767652"><ele>238.0</ele><time>2026-03-28T14:03:44.45Z</time></trkpt><trkpt lat="45.9468518" lon="8.7676445"><ele>238.60000000000002</ele><time>2026-03-28T14:03:45.45Z</time></trkpt><trkpt lat="45.9469558" lon="8.7676348"><ele>239.20000000000002</ele><time>2026-03-28T14:03:46.449Z</time></trkpt><trkpt lat="45.947066" lon="8.7676289"><ele>239.8</ele><time>2026-03-28T14:03:47.45Z</time></trkpt><trkpt lat="45.9471776" lon="8.7676215"><ele>240.4</ele><time>2026-03-28T14:03:48.45Z</time></trkpt><trkpt lat="45.9472831" lon="8.767611"><ele>241.0</ele><time>2026-03-28T14:03:49.449Z</time></trkpt><trkpt lat="45.9473788" lon="8.767601"><ele>240.99999999999997</ele><time>2026-03-28T14:03:50.45Z</time></trkpt><trkpt lat="45.9474591" lon="8.7675846"><ele>241.0</ele><time>2026-03-28T14:03:51.45Z</time></trkpt><trkpt lat="45.9475286" lon="8.7675818"><ele>241.0</ele><time>2026-03-28T14:03:52.45Z</time></trkpt><trkpt lat="45.9475978" lon="8.7675797"><ele>241.0</ele><time>2026-03-28T14:03:53.45Z</time></trkpt><trkpt lat="45.9477057" lon="8.7675741"><ele>240.99999999999997</ele><time>2026-03-28T14:03:55.449Z</time></trkpt><trkpt lat="45.9477759" lon="8.7675579"><ele>241.0</ele><time>2026-03-28T14:04:00.449Z</time></trkpt><trkpt lat="45.9478793" lon="8.7675557"><ele>240.99999999999997</ele><time>2026-03-28T14:04:02.45Z</time></trkpt><trkpt lat="45.9479478" lon="8.767532"><ele>241.0</ele><time>2026-03-28T14:04:03.45Z</time></trkpt><trkpt lat="45.9480247" lon="8.7675091"><ele>241.0</ele><time>2026-03-28T14:04:04.45Z</time></trkpt><trkpt lat="45.9481065" lon="8.7674878"><ele>241.0</ele><time>2026-03-28T14:04:05.449Z</time></trkpt><trkpt lat="45.9481857" lon="8.7674435"><ele>240.99999999999997</ele><time>2026-03-28T14:04:06.45Z</time></trkpt><trkpt lat="45.9482526" lon="8.7673576"><ele>241.0</ele><time>2026-03-28T14:04:07.45Z</time></trkpt><trkpt lat="45.9483169" lon="8.7672641"><ele>241.0</ele><time>2026-03-28T14:04:08.449Z</time></trkpt><trkpt lat="45.9483982" lon="8.7671711"><ele>241.00000000000003</ele><time>2026-03-28T14:04:09.449Z</time></trkpt><trkpt lat="45.9484914" lon="8.7670914"><ele>241.00000000000003</ele><time>2026-03-28T14:04:10.45Z</time></trkpt><trkpt lat="45.9485918" lon="8.7670101"><ele>241.0</ele><time>2026-03-28T14:04:11.45Z</time></trkpt><trkpt lat="45.9486922" lon="8.7669175"><ele>241.0</ele><time>2026-03-28T14:04:12.45Z</time></trkpt><trkpt lat="45.9487946" lon="8.7668123"><ele>241.0</ele><time>2026-03-28T14:04:13.45Z</time></trkpt><trkpt lat="45.9489" lon="8.7667067"><ele>241.0</ele><time>2026-03-28T14:04:14.45Z</time></trkpt><trkpt lat="45.9490051" lon="8.7665935"><ele>241.0</ele><time>2026-03-28T14:04:15.45Z</time></trkpt><trkpt lat="45.9491142" lon="8.7664794"><ele>241.0</ele><time>2026-03-28T14:04:16.449Z</time></trkpt><trkpt lat="45.9492258" lon="8.7663661"><ele>241.0</ele><time>2026-03-28T14:04:17.45Z</time></trkpt><trkpt lat="45.9493372" lon="8.7662486"><ele>241.0</ele><time>2026-03-28T14:04:18.45Z</time></trkpt><trkpt lat="45.9494529" lon="8.7661365"><ele>241.0</ele><time>2026-03-28T14:04:19.45Z</time></trkpt><trkpt lat="45.9495712" lon="8.7660383"><ele>241.0</ele><time>2026-03-28T14:04:20.45Z</time></trkpt><trkpt lat="45.9496949" lon="8.7659654"><ele>240.75</ele><time>2026-03-28T14:04:21.449Z</time></trkpt><trkpt lat="45.9498158" lon="8.7659099"><ele>240.5</ele><time>2026-03-28T14:04:22.45Z</time></trkpt><trkpt lat="45.9499407" lon="8.7658671"><ele>240.25</ele><time>2026-03-28T14:04:23.45Z</time></trkpt><trkpt lat="45.9500678" lon="8.7658304"><ele>240.0</ele><time>2026-03-28T14:04:24.449Z</time></trkpt><trkpt lat="45.9501978" lon="8.765804"><ele>240.0</ele><time>2026-03-28T14:04:25.45Z</time></trkpt><trkpt lat="45.9503295" lon="8.7657714"><ele>240.0</ele><time>2026-03-28T14:04:26.45Z</time></trkpt><trkpt lat="45.9504618" lon="8.7657282"><ele>240.0</ele><time>2026-03-28T14:04:27.45Z</time></trkpt><trkpt lat="45.9505937" lon="8.7656786"><ele>240.0</ele><time>2026-03-28T14:04:28.45Z</time></trkpt><trkpt lat="45.9507172" lon="8.7656213"><ele>240.0</ele><time>2026-03-28T14:04:29.449Z</time></trkpt><trkpt lat="45.9508342" lon="8.7655635"><ele>240.0</ele><time>2026-03-28T14:04:30.45Z</time></trkpt><trkpt lat="45.9509504" lon="8.7655118"><ele>240.0</ele><time>2026-03-28T14:04:31.449Z</time></trkpt><trkpt lat="45.9510671" lon="8.7654562"><ele>240.0</ele><time>2026-03-28T14:04:32.449Z</time></trkpt><trkpt lat="45.9511819" lon="8.7654027"><ele>240.0</ele><time>2026-03-28T14:04:33.449Z</time></trkpt><trkpt lat="45.9512986" lon="8.7653466"><ele>240.0</ele><time>2026-03-28T14:04:34.449Z</time></trkpt><trkpt lat="45.9514207" lon="8.7652871"><ele>240.0</ele><time>2026-03-28T14:04:35.449Z</time></trkpt><trkpt lat="45.9515477" lon="8.7652379"><ele>240.0</ele><time>2026-03-28T14:04:36.45Z</time></trkpt><trkpt lat="45.9516757" lon="8.7652057"><ele>239.75</ele><time>2026-03-28T14:04:37.45Z</time></trkpt><trkpt lat="45.9518021" lon="8.7651933"><ele>239.5</ele><time>2026-03-28T14:04:38.449Z</time></trkpt><trkpt lat="45.9519336" lon="8.7651903"><ele>239.25</ele><time>2026-03-28T14:04:39.449Z</time></trkpt><trkpt lat="45.9520655" lon="8.7651994"><ele>239.0</ele><time>2026-03-28T14:04:40.45Z</time></trkpt><trkpt lat="45.9521985" lon="8.765203"><ele>238.5</ele><time>2026-03-28T14:04:41.449Z</time></trkpt><trkpt lat="45.9523337" lon="8.7652128"><ele>238.0</ele><time>2026-03-28T14:04:42.45Z</time></trkpt><trkpt lat="45.9524651" lon="8.7652155"><ele>237.5</ele><time>2026-03-28T14:04:43.45Z</time></trkpt><trkpt lat="45.9525917" lon="8.7652228"><ele>237.0</ele><time>2026-03-28T14:04:44.449Z</time></trkpt><trkpt lat="45.9527158" lon="8.7652265"><ele>236.0</ele><time>2026-03-28T14:04:45.45Z</time></trkpt><trkpt lat="45.9528421" lon="8.7652267"><ele>235.0</ele><time>2026-03-28T14:04:46.449Z</time></trkpt><trkpt lat="45.9529588" lon="8.7652374"><ele>234.0</ele><time>2026-03-28T14:04:47.449Z</time></trkpt><trkpt lat="45.9530701" lon="8.7652341"><ele>233.0</ele><time>2026-03-28T14:04:48.45Z</time></trkpt><trkpt lat="45.9531752" lon="8.7652264"><ele>233.0</ele><time>2026-03-28T14:04:49.45Z</time></trkpt><trkpt lat="45.9532721" lon="8.7652235"><ele>233.0</ele><time>2026-03-28T14:04:50.449Z</time></trkpt><trkpt lat="45.9533693" lon="8.7652209"><ele>233.0</ele><time>2026-03-28T14:04:51.449Z</time></trkpt><trkpt lat="45.9534645" lon="8.7652249"><ele>233.0</ele><time>2026-03-28T14:04:52.45Z</time></trkpt><trkpt lat="45.9535641" lon="8.7652313"><ele>233.0</ele><time>2026-03-28T14:04:53.45Z</time></trkpt><trkpt lat="45.9536721" lon="8.7652515"><ele>232.5</ele><time>2026-03-28T14:04:54.449Z</time></trkpt><trkpt lat="45.9537877" lon="8.7652702"><ele>232.0</ele><time>2026-03-28T14:04:55.449Z</time></trkpt><trkpt lat="45.953906" lon="8.7652828"><ele>231.5</ele><time>2026-03-28T14:04:56.45Z</time></trkpt><trkpt lat="45.9540339" lon="8.7652944"><ele>231.0</ele><time>2026-03-28T14:04:57.449Z</time></trkpt><trkpt lat="45.9541603" lon="8.765307"><ele>230.75</ele><time>2026-03-28T14:04:58.449Z</time></trkpt><trkpt lat="45.9542863" lon="8.7653171"><ele>230.5</ele><time>2026-03-28T14:04:59.45Z</time></trkpt><trkpt lat="45.9544129" lon="8.7653248"><ele>230.25</ele><time>2026-03-28T14:05:00.45Z</time></trkpt><trkpt lat="45.9545391" lon="8.7653334"><ele>230.0</ele><time>2026-03-28T14:05:01.45Z</time></trkpt><trkpt lat="45.9546657" lon="8.7653402"><ele>230.0</ele><time>2026-03-28T14:05:02.449Z</time></trkpt><trkpt lat="45.9547922" lon="8.7653411"><ele>230.0</ele><time>2026-03-28T14:05:03.449Z</time></trkpt><trkpt lat="45.954918" lon="8.7653455"><ele>230.0</ele><time>2026-03-28T14:05:04.45Z</time></trkpt><trkpt lat="45.9550486" lon="8.7653502"><ele>230.0</ele><time>2026-03-28T14:05:05.45Z</time></trkpt><trkpt lat="45.9551824" lon="8.7653573"><ele>232.25</ele><time>2026-03-28T14:05:06.449Z</time></trkpt><trkpt lat="45.9553149" lon="8.7653564"><ele>234.5</ele><time>2026-03-28T14:05:07.45Z</time></trkpt><trkpt lat="45.9554472" lon="8.7653382"><ele>236.75</ele><time>2026-03-28T14:05:08.449Z</time></trkpt><trkpt lat="45.9555816" lon="8.76531"><ele>239.0</ele><time>2026-03-28T14:05:09.449Z</time></trkpt><trkpt lat="45.9557191" lon="8.7652609"><ele>239.0</ele><time>2026-03-28T14:05:10.45Z</time></trkpt><trkpt lat="45.9558508" lon="8.7652059"><ele>239.0</ele><time>2026-03-28T14:05:11.45Z</time></trkpt><trkpt lat="45.9559855" lon="8.7651431"><ele>239.0</ele><time>2026-03-28T14:05:12.449Z</time></trkpt><trkpt lat="45.956112" lon="8.7650787"><ele>239.0</ele><time>2026-03-28T14:05:13.448Z</time></trkpt><trkpt lat="45.9562402" lon="8.7650126"><ele>241.0</ele><time>2026-03-28T14:05:14.449Z</time></trkpt><trkpt lat="45.9563599" lon="8.7649463"><ele>243.0</ele><time>2026-03-28T14:05:15.449Z</time></trkpt><trkpt lat="45.9564811" lon="8.7648795"><ele>245.0</ele><time>2026-03-28T14:05:16.449Z</time></trkpt><trkpt lat="45.956602" lon="8.7648115"><ele>247.0</ele><time>2026-03-28T14:05:17.45Z</time></trkpt><trkpt lat="45.9567294" lon="8.7647414"><ele>252.5</ele><time>2026-03-28T14:05:18.45Z</time></trkpt><trkpt lat="45.9568573" lon="8.7646729"><ele>258.0</ele><time>2026-03-28T14:05:19.449Z</time></trkpt><trkpt lat="45.956989" lon="8.7646014"><ele>263.5</ele><time>2026-03-28T14:05:20.45Z</time></trkpt><trkpt lat="45.9571195" lon="8.7645311"><ele>269.0</ele><time>2026-03-28T14:05:21.45Z</time></trkpt><trkpt lat="45.9572522" lon="8.7644561"><ele>269.0</ele><time>2026-03-28T14:05:22.45Z</time></trkpt><trkpt lat="45.957388" lon="8.7643813"><ele>269.0</ele><time>2026-03-28T14:05:23.45Z</time></trkpt><trkpt lat="45.9575244" lon="8.7643007"><ele>269.0</ele><time>2026-03-28T14:05:24.45Z</time></trkpt><trkpt lat="45.9576601" lon="8.7642222"><ele>269.0</ele><time>2026-03-28T14:05:25.449Z</time></trkpt><trkpt lat="45.9578003" lon="8.7641432"><ele>266.5</ele><time>2026-03-28T14:05:26.449Z</time></trkpt><trkpt lat="45.9579444" lon="8.7640772"><ele>264.0</ele><time>2026-03-28T14:05:27.45Z</time></trkpt><trkpt lat="45.9580876" lon="8.7640366"><ele>261.5</ele><time>2026-03-28T14:05:28.45Z</time></trkpt><trkpt lat="45.9582336" lon="8.7640136"><ele>259.0</ele><time>2026-03-28T14:05:29.45Z</time></trkpt><trkpt lat="45.9583776" lon="8.763996"><ele>259.0</ele><time>2026-03-28T14:05:30.45Z</time></trkpt><trkpt lat="45.9585264" lon="8.7639729"><ele>259.0</ele><time>2026-03-28T14:05:31.45Z</time></trkpt><trkpt lat="45.958676" lon="8.7639501"><ele>259.0</ele><time>2026-03-28T14:05:32.449Z</time></trkpt><trkpt lat="45.9588225" lon="8.7639268"><ele>259.0</ele><time>2026-03-28T14:05:33.449Z</time></trkpt><trkpt lat="45.9589692" lon="8.7639049"><ele>259.0</ele><time>2026-03-28T14:05:34.45Z</time></trkpt><trkpt lat="45.9591186" lon="8.7638776"><ele>259.0</ele><time>2026-03-28T14:05:35.449Z</time></trkpt><trkpt lat="45.9592662" lon="8.7638188"><ele>259.0</ele><time>2026-03-28T14:05:36.448Z</time></trkpt><trkpt lat="45.9594116" lon="8.7637489"><ele>263.0</ele><time>2026-03-28T14:05:37.449Z</time></trkpt><trkpt lat="45.9595519" lon="8.7636563"><ele>267.0</ele><time>2026-03-28T14:05:38.449Z</time></trkpt><trkpt lat="45.9596799" lon="8.7635451"><ele>271.0</ele><time>2026-03-28T14:05:39.449Z</time></trkpt><trkpt lat="45.9597984" lon="8.7634152"><ele>264.25</ele><time>2026-03-28T14:05:40.45Z</time></trkpt><trkpt lat="45.9599075" lon="8.7632853"><ele>257.5</ele><time>2026-03-28T14:05:41.449Z</time></trkpt><trkpt lat="45.9600157" lon="8.7631509"><ele>250.75</ele><time>2026-03-28T14:05:42.45Z</time></trkpt><trkpt lat="45.960111" lon="8.7630006"><ele>244.0</ele><time>2026-03-28T14:05:43.45Z</time></trkpt><trkpt lat="45.9601892" lon="8.7628312"><ele>242.0</ele><time>2026-03-28T14:05:44.449Z</time></trkpt><trkpt lat="45.9602552" lon="8.7626496"><ele>240.0</ele><time>2026-03-28T14:05:45.449Z</time></trkpt><trkpt lat="45.9603169" lon="8.7624779"><ele>238.0</ele><time>2026-03-28T14:05:46.45Z</time></trkpt><trkpt lat="45.9603722" lon="8.762303"><ele>236.0</ele><time>2026-03-28T14:05:47.45Z</time></trkpt><trkpt lat="45.9604313" lon="8.762142"><ele>236.0</ele><time>2026-03-28T14:05:48.449Z</time></trkpt><trkpt lat="45.9604846" lon="8.7619804"><ele>236.0</ele><time>2026-03-28T14:05:49.449Z</time></trkpt><trkpt lat="45.9605353" lon="8.7618167"><ele>236.0</ele><time>2026-03-28T14:05:50.449Z</time></trkpt><trkpt lat="45.9605918" lon="8.7616535"><ele>236.0</ele><time>2026-03-28T14:05:51.45Z</time></trkpt><trkpt lat="45.9606535" lon="8.7614895"><ele>233.75</ele><time>2026-03-28T14:05:52.449Z</time></trkpt><trkpt lat="45.9607216" lon="8.7613189"><ele>231.5</ele><time>2026-03-28T14:05:53.449Z</time></trkpt><trkpt lat="45.960804" lon="8.7611619"><ele>229.25</ele><time>2026-03-28T14:05:54.45Z</time></trkpt><trkpt lat="45.9608949" lon="8.7610172"><ele>227.0</ele><time>2026-03-28T14:05:55.45Z</time></trkpt><trkpt lat="45.9609917" lon="8.7608937"><ele>226.5</ele><time>2026-03-28T14:05:56.449Z</time></trkpt><trkpt lat="45.9611035" lon="8.7607912"><ele>226.0</ele><time>2026-03-28T14:05:57.449Z</time></trkpt><trkpt lat="45.96122" lon="8.760697"><ele>225.5</ele><time>2026-03-28T14:05:58.449Z</time></trkpt><trkpt lat="45.961345" lon="8.7606143"><ele>225.0</ele><time>2026-03-28T14:05:59.45Z</time></trkpt><trkpt lat="45.9614765" lon="8.760532"><ele>225.0</ele><time>2026-03-28T14:06:00.449Z</time></trkpt><trkpt lat="45.9616096" lon="8.7604544"><ele>225.0</ele><time>2026-03-28T14:06:01.45Z</time></trkpt><trkpt lat="45.961744" lon="8.7603744"><ele>225.0</ele><time>2026-03-28T14:06:02.45Z</time></trkpt><trkpt lat="45.9618805" lon="8.7602893"><ele>225.0</ele><time>2026-03-28T14:06:03.449Z</time></trkpt><trkpt lat="45.9620197" lon="8.7602144"><ele>226.0</ele><time>2026-03-28T14:06:04.45Z</time></trkpt><trkpt lat="45.9621514" lon="8.7601381"><ele>227.0</ele><time>2026-03-28T14:06:05.449Z</time></trkpt><trkpt lat="45.9622789" lon="8.7600623"><ele>228.0</ele><time>2026-03-28T14:06:06.449Z</time></trkpt><trkpt lat="45.9624017" lon="8.7599956"><ele>229.0</ele><time>2026-03-28T14:06:07.45Z</time></trkpt><trkpt lat="45.9625252" lon="8.7599247"><ele>233.5</ele><time>2026-03-28T14:06:08.449Z</time></trkpt><trkpt lat="45.9626499" lon="8.7598504"><ele>238.0</ele><time>2026-03-28T14:06:09.449Z</time></trkpt><trkpt lat="45.9627738" lon="8.759776"><ele>242.5</ele><time>2026-03-28T14:06:10.449Z</time></trkpt><trkpt lat="45.962899" lon="8.7596967"><ele>247.0</ele><time>2026-03-28T14:06:11.45Z</time></trkpt><trkpt lat="45.9630253" lon="8.7596185"><ele>247.0</ele><time>2026-03-28T14:06:12.45Z</time></trkpt><trkpt lat="45.9631553" lon="8.7595408"><ele>247.0</ele><time>2026-03-28T14:06:13.449Z</time></trkpt><trkpt lat="45.9632896" lon="8.7594617"><ele>247.0</ele><time>2026-03-28T14:06:14.449Z</time></trkpt><trkpt lat="45.9634262" lon="8.7593787"><ele>247.0</ele><time>2026-03-28T14:06:15.45Z</time></trkpt><trkpt lat="45.9635665" lon="8.7593032"><ele>241.66666666666666</ele><time>2026-03-28T14:06:16.449Z</time></trkpt><trkpt lat="45.9637109" lon="8.7592309"><ele>236.33333333333331</ele><time>2026-03-28T14:06:17.45Z</time></trkpt><trkpt lat="45.9638666" lon="8.7591711"><ele>231.0</ele><time>2026-03-28T14:06:18.45Z</time></trkpt><trkpt lat="45.9640269" lon="8.7591199"><ele>231.0</ele><time>2026-03-28T14:06:19.449Z</time></trkpt><trkpt lat="45.9641934" lon="8.7590772"><ele>231.0</ele><time>2026-03-28T14:06:20.448Z</time></trkpt><trkpt lat="45.9643574" lon="8.7590305"><ele>231.0</ele><time>2026-03-28T14:06:21.449Z</time></trkpt><trkpt lat="45.9645218" lon="8.7589773"><ele>237.0</ele><time>2026-03-28T14:06:22.449Z</time></trkpt><trkpt lat="45.9646833" lon="8.7589154"><ele>243.0</ele><time>2026-03-28T14:06:23.45Z</time></trkpt><trkpt lat="45.9648467" lon="8.7588358"><ele>249.0</ele><time>2026-03-28T14:06:24.449Z</time></trkpt><trkpt lat="45.9650101" lon="8.7587496"><ele>243.33333333333331</ele><time>2026-03-28T14:06:25.449Z</time></trkpt><trkpt lat="45.9651767" lon="8.7586551"><ele>237.66666666666666</ele><time>2026-03-28T14:06:26.45Z</time></trkpt><trkpt lat="45.9653389" lon="8.7585584"><ele>232.0</ele><time>2026-03-28T14:06:27.45Z</time></trkpt><trkpt lat="45.9654994" lon="8.7584652"><ele>232.0</ele><time>2026-03-28T14:06:28.449Z</time></trkpt><trkpt lat="45.9656641" lon="8.7583657"><ele>232.0</ele><time>2026-03-28T14:06:29.45Z</time></trkpt><trkpt lat="45.9658244" lon="8.7582729"><ele>232.0</ele><time>2026-03-28T14:06:30.449Z</time></trkpt><trkpt lat="45.9659829" lon="8.758175"><ele>238.66666666666666</ele><time>2026-03-28T14:06:31.449Z</time></trkpt><trkpt lat="45.9661374" lon="8.7580731"><ele>245.33333333333331</ele><time>2026-03-28T14:06:32.45Z</time></trkpt><trkpt lat="45.9662848" lon="8.7579652"><ele>252.0</ele><time>2026-03-28T14:06:33.449Z</time></trkpt><trkpt lat="45.9664253" lon="8.757864"><ele>252.0</ele><time>2026-03-28T14:06:34.45Z</time></trkpt><trkpt lat="45.9665668" lon="8.7577654"><ele>252.0</ele><time>2026-03-28T14:06:35.449Z</time></trkpt><trkpt lat="45.9666966" lon="8.7576736"><ele>252.0</ele><time>2026-03-28T14:06:36.449Z</time></trkpt><trkpt lat="45.9668238" lon="8.7575822"><ele>252.0</ele><time>2026-03-28T14:06:37.45Z</time></trkpt><trkpt lat="45.9669566" lon="8.7574887"><ele>248.0</ele><time>2026-03-28T14:06:38.449Z</time></trkpt><trkpt lat="45.9670796" lon="8.7573914"><ele>244.0</ele><time>2026-03-28T14:06:39.449Z</time></trkpt><trkpt lat="45.9672011" lon="8.7572987"><ele>240.0</ele><time>2026-03-28T14:06:40.448Z</time></trkpt><trkpt lat="45.9673178" lon="8.7572097"><ele>236.0</ele><time>2026-03-28T14:06:41.448Z</time></trkpt><trkpt lat="45.9674338" lon="8.757118"><ele>232.5</ele><time>2026-03-28T14:06:42.448Z</time></trkpt><trkpt lat="45.9675481" lon="8.7570335"><ele>229.0</ele><time>2026-03-28T14:06:43.448Z</time></trkpt><trkpt lat="45.9676671" lon="8.7569578"><ele>225.5</ele><time>2026-03-28T14:06:44.448Z</time></trkpt><trkpt lat="45.967787" lon="8.7568873"><ele>222.0</ele><time>2026-03-28T14:06:45.448Z</time></trkpt><trkpt lat="45.9679151" lon="8.7568382"><ele>222.0</ele><time>2026-03-28T14:06:46.449Z</time></trkpt><trkpt lat="45.9680432" lon="8.7568108"><ele>222.0</ele><time>2026-03-28T14:06:47.448Z</time></trkpt><trkpt lat="45.9681703" lon="8.7568026"><ele>222.0</ele><time>2026-03-28T14:06:48.448Z</time></trkpt><trkpt lat="45.9683068" lon="8.756787"><ele>222.0</ele><time>2026-03-28T14:06:49.448Z</time></trkpt><trkpt lat="45.9684505" lon="8.756744"><ele>228.66666666666669</ele><time>2026-03-28T14:06:50.448Z</time></trkpt><trkpt lat="45.9685956" lon="8.7566697"><ele>235.33333333333334</ele><time>2026-03-28T14:06:51.448Z</time></trkpt><trkpt lat="45.9687451" lon="8.7565602"><ele>242.0</ele><time>2026-03-28T14:06:52.448Z</time></trkpt><trkpt lat="45.9688951" lon="8.7564319"><ele>242.0</ele><time>2026-03-28T14:06:53.449Z</time></trkpt><trkpt lat="45.969048" lon="8.7562901"><ele>242.0</ele><time>2026-03-28T14:06:54.448Z</time></trkpt><trkpt lat="45.969207" lon="8.7561367"><ele>242.0</ele><time>2026-03-28T14:06:55.448Z</time></trkpt><trkpt lat="45.9693651" lon="8.7559954"><ele>239.0</ele><time>2026-03-28T14:06:56.448Z</time></trkpt><trkpt lat="45.96953" lon="8.7558591"><ele>236.0</ele><time>2026-03-28T14:06:57.449Z</time></trkpt><trkpt lat="45.9696986" lon="8.7557302"><ele>233.0</ele><time>2026-03-28T14:06:58.448Z</time></trkpt><trkpt lat="45.9698652" lon="8.7555951"><ele>237.66666666666669</ele><time>2026-03-28T14:06:59.448Z</time></trkpt><trkpt lat="45.9700267" lon="8.7554668"><ele>242.33333333333331</ele><time>2026-03-28T14:07:00.448Z</time></trkpt><trkpt lat="45.970179" lon="8.7553469"><ele>247.0</ele><time>2026-03-28T14:07:01.448Z</time></trkpt><trkpt lat="45.9703267" lon="8.7552383"><ele>239.33333333333331</ele><time>2026-03-28T14:07:02.448Z</time></trkpt><trkpt lat="45.9704787" lon="8.7551415"><ele>231.66666666666669</ele><time>2026-03-28T14:07:03.449Z</time></trkpt><trkpt lat="45.9706299" lon="8.7551072"><ele>224.0</ele><time>2026-03-28T14:07:04.449Z</time></trkpt><trkpt lat="45.9707915" lon="8.7550842"><ele>223.33333333333334</ele><time>2026-03-28T14:07:05.449Z</time></trkpt><trkpt lat="45.9709574" lon="8.7550795"><ele>222.66666666666669</ele><time>2026-03-28T14:07:06.449Z</time></trkpt><trkpt lat="45.9711268" lon="8.7550689"><ele>222.0</ele><time>2026-03-28T14:07:07.448Z</time></trkpt><trkpt lat="45.971303" lon="8.7550735"><ele>222.0</ele><time>2026-03-28T14:07:08.448Z</time></trkpt><trkpt lat="45.9714735" lon="8.7550739"><ele>222.0</ele><time>2026-03-28T14:07:09.448Z</time></trkpt><trkpt lat="45.9716523" lon="8.75507"><ele>222.0</ele><time>2026-03-28T14:07:10.448Z</time></trkpt><trkpt lat="45.9718281" lon="8.7550685"><ele>220.33333333333331</ele><time>2026-03-28T14:07:11.448Z</time></trkpt><trkpt lat="45.972014" lon="8.7550666"><ele>218.66666666666666</ele><time>2026-03-28T14:07:12.449Z</time></trkpt><trkpt lat="45.9721953" lon="8.7550587"><ele>217.0</ele><time>2026-03-28T14:07:13.449Z</time></trkpt><trkpt lat="45.9723771" lon="8.7550355"><ele>221.66666666666666</ele><time>2026-03-28T14:07:14.449Z</time></trkpt><trkpt lat="45.972561" lon="8.7549954"><ele>226.33333333333331</ele><time>2026-03-28T14:07:15.448Z</time></trkpt><trkpt lat="45.9727495" lon="8.7549463"><ele>231.0</ele><time>2026-03-28T14:07:16.449Z</time></trkpt><trkpt lat="45.9729293" lon="8.7548721"><ele>231.0</ele><time>2026-03-28T14:07:17.449Z</time></trkpt><trkpt lat="45.9731031" lon="8.7547746"><ele>231.0</ele><time>2026-03-28T14:07:18.448Z</time></trkpt><trkpt lat="45.9732772" lon="8.7546625"><ele>231.0</ele><time>2026-03-28T14:07:19.448Z</time></trkpt><trkpt lat="45.9734422" lon="8.7545293"><ele>227.66666666666669</ele><time>2026-03-28T14:07:20.449Z</time></trkpt><trkpt lat="45.9736065" lon="8.7543848"><ele>224.33333333333334</ele><time>2026-03-28T14:07:21.448Z</time></trkpt><trkpt lat="45.9737593" lon="8.7542359"><ele>221.0</ele><time>2026-03-28T14:07:22.448Z</time></trkpt><trkpt lat="45.9738951" lon="8.7540804"><ele>221.0</ele><time>2026-03-28T14:07:23.448Z</time></trkpt><trkpt lat="45.9740224" lon="8.7539209"><ele>221.0</ele><time>2026-03-28T14:07:24.448Z</time></trkpt><trkpt lat="45.9741442" lon="8.7537524"><ele>221.0</ele><time>2026-03-28T14:07:25.448Z</time></trkpt><trkpt lat="45.9742605" lon="8.7535737"><ele>217.33333333333334</ele><time>2026-03-28T14:07:26.448Z</time></trkpt><trkpt lat="45.9743811" lon="8.7533988"><ele>213.66666666666669</ele><time>2026-03-28T14:07:27.448Z</time></trkpt><trkpt lat="45.974499" lon="8.7532228"><ele>210.0</ele><time>2026-03-28T14:07:28.448Z</time></trkpt><trkpt lat="45.9746138" lon="8.7530577"><ele>210.0</ele><time>2026-03-28T14:07:29.448Z</time></trkpt><trkpt lat="45.9747221" lon="8.7528938"><ele>210.0</ele><time>2026-03-28T14:07:30.448Z</time></trkpt><trkpt lat="45.9748334" lon="8.7527424"><ele>210.0</ele><time>2026-03-28T14:07:31.449Z</time></trkpt><trkpt lat="45.9749501" lon="8.7526065"><ele>210.0</ele><time>2026-03-28T14:07:32.448Z</time></trkpt><trkpt lat="45.9750724" lon="8.7524908"><ele>210.0</ele><time>2026-03-28T14:07:33.448Z</time></trkpt><trkpt lat="45.9752014" lon="8.7523826"><ele>210.0</ele><time>2026-03-28T14:07:34.449Z</time></trkpt><trkpt lat="45.9753247" lon="8.7522719"><ele>210.0</ele><time>2026-03-28T14:07:35.449Z</time></trkpt><trkpt lat="45.975444" lon="8.7521577"><ele>210.0</ele><time>2026-03-28T14:07:36.448Z</time></trkpt><trkpt lat="45.975563" lon="8.7520493"><ele>210.0</ele><time>2026-03-28T14:07:37.448Z</time></trkpt><trkpt lat="45.9756869" lon="8.7519398"><ele>210.0</ele><time>2026-03-28T14:07:38.448Z</time></trkpt><trkpt lat="45.9758119" lon="8.751836"><ele>210.0</ele><time>2026-03-28T14:07:39.449Z</time></trkpt><trkpt lat="45.9759283" lon="8.751737"><ele>209.0</ele><time>2026-03-28T14:07:40.448Z</time></trkpt><trkpt lat="45.9760484" lon="8.7516457"><ele>208.0</ele><time>2026-03-28T14:07:41.449Z</time></trkpt><trkpt lat="45.9761826" lon="8.7515718"><ele>207.0</ele><time>2026-03-28T14:07:42.448Z</time></trkpt><trkpt lat="45.9763185" lon="8.7515197"><ele>206.0</ele><time>2026-03-28T14:07:43.449Z</time></trkpt><trkpt lat="45.9764598" lon="8.7514816"><ele>206.0</ele><time>2026-03-28T14:07:44.448Z</time></trkpt><trkpt lat="45.9765998" lon="8.7514569"><ele>206.0</ele><time>2026-03-28T14:07:45.448Z</time></trkpt><trkpt lat="45.9767398" lon="8.7514369"><ele>206.0</ele><time>2026-03-28T14:07:46.449Z</time></trkpt><trkpt lat="45.976884" lon="8.7514301"><ele>206.0</ele><time>2026-03-28T14:07:47.448Z</time></trkpt><trkpt lat="45.9770264" lon="8.7514219"><ele>207.5</ele><time>2026-03-28T14:07:48.449Z</time></trkpt><trkpt lat="45.9771744" lon="8.7514114"><ele>209.0</ele><time>2026-03-28T14:07:49.449Z</time></trkpt><trkpt lat="45.9773202" lon="8.751403"><ele>210.5</ele><time>2026-03-28T14:07:50.449Z</time></trkpt><trkpt lat="45.977469" lon="8.7513959"><ele>212.0</ele><time>2026-03-28T14:07:51.448Z</time></trkpt><trkpt lat="45.9776165" lon="8.7513895"><ele>216.0</ele><time>2026-03-28T14:07:52.449Z</time></trkpt><trkpt lat="45.97777" lon="8.7513784"><ele>220.0</ele><time>2026-03-28T14:07:53.448Z</time></trkpt><trkpt lat="45.977922" lon="8.75137"><ele>224.0</ele><time>2026-03-28T14:07:54.449Z</time></trkpt><trkpt lat="45.9780722" lon="8.7513547"><ele>224.0</ele><time>2026-03-28T14:07:55.448Z</time></trkpt><trkpt lat="45.9782213" lon="8.7513218"><ele>224.0</ele><time>2026-03-28T14:07:56.449Z</time></trkpt><trkpt lat="45.9783699" lon="8.7512682"><ele>224.0</ele><time>2026-03-28T14:07:57.448Z</time></trkpt><trkpt lat="45.978515" lon="8.7511874"><ele>221.0</ele><time>2026-03-28T14:07:58.448Z</time></trkpt><trkpt lat="45.9786551" lon="8.7510854"><ele>218.0</ele><time>2026-03-28T14:07:59.449Z</time></trkpt><trkpt lat="45.9787953" lon="8.7509741"><ele>215.0</ele><time>2026-03-28T14:08:00.448Z</time></trkpt><trkpt lat="45.9789377" lon="8.7508608"><ele>215.0</ele><time>2026-03-28T14:08:01.448Z</time></trkpt><trkpt lat="45.9790775" lon="8.7507503"><ele>215.0</ele><time>2026-03-28T14:08:02.449Z</time></trkpt><trkpt lat="45.9792208" lon="8.7506301"><ele>215.0</ele><time>2026-03-28T14:08:03.448Z</time></trkpt><trkpt lat="45.9793621" lon="8.75051"><ele>213.33333333333334</ele><time>2026-03-28T14:08:04.448Z</time></trkpt><trkpt lat="45.9794977" lon="8.7503908"><ele>211.66666666666669</ele><time>2026-03-28T14:08:05.448Z</time></trkpt><trkpt lat="45.9796439" lon="8.7502699"><ele>210.0</ele><time>2026-03-28T14:08:06.448Z</time></trkpt><trkpt lat="45.9797833" lon="8.7501527"><ele>210.0</ele><time>2026-03-28T14:08:07.448Z</time></trkpt><trkpt lat="45.9799309" lon="8.7500404"><ele>210.0</ele><time>2026-03-28T14:08:08.448Z</time></trkpt><trkpt lat="45.9800738" lon="8.7499325"><ele>210.0</ele><time>2026-03-28T14:08:09.448Z</time></trkpt><trkpt lat="45.9802102" lon="8.7498452"><ele>212.66666666666669</ele><time>2026-03-28T14:08:10.448Z</time></trkpt><trkpt lat="45.9803486" lon="8.7497701"><ele>215.33333333333334</ele><time>2026-03-28T14:08:11.448Z</time></trkpt><trkpt lat="45.980495" lon="8.7497123"><ele>218.0</ele><time>2026-03-28T14:08:12.448Z</time></trkpt><trkpt lat="45.9806439" lon="8.7496683"><ele>218.0</ele><time>2026-03-28T14:08:13.448Z</time></trkpt><trkpt lat="45.980793" lon="8.7496388"><ele>218.0</ele><time>2026-03-28T14:08:14.449Z</time></trkpt><trkpt lat="45.9809424" lon="8.7496232"><ele>218.0</ele><time>2026-03-28T14:08:15.448Z</time></trkpt><trkpt lat="45.9810916" lon="8.7496068"><ele>218.75</ele><time>2026-03-28T14:08:16.448Z</time></trkpt><trkpt lat="45.9812434" lon="8.7495911"><ele>219.5</ele><time>2026-03-28T14:08:17.449Z</time></trkpt><trkpt lat="45.9813901" lon="8.7495749"><ele>220.25</ele><time>2026-03-28T14:08:18.448Z</time></trkpt><trkpt lat="45.981532" lon="8.7495629"><ele>221.0</ele><time>2026-03-28T14:08:19.448Z</time></trkpt><trkpt lat="45.9816721" lon="8.7495516"><ele>220.75</ele><time>2026-03-28T14:08:20.448Z</time></trkpt><trkpt lat="45.9818014" lon="8.7495438"><ele>220.5</ele><time>2026-03-28T14:08:21.448Z</time></trkpt><trkpt lat="45.9819285" lon="8.7495322"><ele>220.25</ele><time>2026-03-28T14:08:22.448Z</time></trkpt><trkpt lat="45.9820529" lon="8.7495282"><ele>220.0</ele><time>2026-03-28T14:08:23.449Z</time></trkpt><trkpt lat="45.9821757" lon="8.749522"><ele>220.0</ele><time>2026-03-28T14:08:24.449Z</time></trkpt><trkpt lat="45.9822975" lon="8.7495198"><ele>220.0</ele><time>2026-03-28T14:08:25.448Z</time></trkpt><trkpt lat="45.9824075" lon="8.7495178"><ele>220.0</ele><time>2026-03-28T14:08:26.448Z</time></trkpt><trkpt lat="45.9825085" lon="8.749508"><ele>220.0</ele><time>2026-03-28T14:08:27.449Z</time></trkpt><trkpt lat="45.9826023" lon="8.7495002"><ele>220.0</ele><time>2026-03-28T14:08:28.448Z</time></trkpt><trkpt lat="45.9826726" lon="8.7495072"><ele>219.0</ele><time>2026-03-28T14:08:29.449Z</time></trkpt><trkpt lat="45.9827619" lon="8.749542"><ele>218.0</ele><time>2026-03-28T14:08:31.449Z</time></trkpt><trkpt lat="45.9828769" lon="8.7495592"><ele>217.0</ele><time>2026-03-28T14:08:33.448Z</time></trkpt><trkpt lat="45.9829489" lon="8.7495376"><ele>216.0</ele><time>2026-03-28T14:08:34.449Z</time></trkpt><trkpt lat="45.9830282" lon="8.7495113"><ele>215.0</ele><time>2026-03-28T14:08:35.449Z</time></trkpt><trkpt lat="45.9831232" lon="8.749495"><ele>215.0</ele><time>2026-03-28T14:08:36.448Z</time></trkpt><trkpt lat="45.9832197" lon="8.7494927"><ele>215.0</ele><time>2026-03-28T14:08:37.448Z</time></trkpt><trkpt lat="45.983324" lon="8.7494909"><ele>215.0</ele><time>2026-03-28T14:08:38.449Z</time></trkpt><trkpt lat="45.9834295" lon="8.7494934"><ele>215.0</ele><time>2026-03-28T14:08:39.449Z</time></trkpt><trkpt lat="45.9835076" lon="8.7494897"><ele>215.0</ele><time>2026-03-28T14:08:40.449Z</time></trkpt><trkpt lat="45.9835906" lon="8.7494843"><ele>214.0</ele><time>2026-03-28T14:08:42.449Z</time></trkpt><trkpt lat="45.9836881" lon="8.7494684"><ele>213.0</ele><time>2026-03-28T14:08:50.448Z</time></trkpt><trkpt lat="45.9838064" lon="8.7494714"><ele>212.0</ele><time>2026-03-28T14:08:52.448Z</time></trkpt><trkpt lat="45.9838826" lon="8.749462"><ele>211.0</ele><time>2026-03-28T14:08:53.449Z</time></trkpt><trkpt lat="45.9839652" lon="8.7494666"><ele>210.0</ele><time>2026-03-28T14:08:54.448Z</time></trkpt><trkpt lat="45.9840526" lon="8.7494875"><ele>210.0</ele><time>2026-03-28T14:08:55.448Z</time></trkpt><trkpt lat="45.9841446" lon="8.7495169"><ele>210.0</ele><time>2026-03-28T14:08:56.449Z</time></trkpt><trkpt lat="45.984234" lon="8.749563"><ele>210.0</ele><time>2026-03-28T14:08:57.449Z</time></trkpt><trkpt lat="45.9843197" lon="8.7496158"><ele>210.0</ele><time>2026-03-28T14:08:58.448Z</time></trkpt><trkpt lat="45.98441" lon="8.7496781"><ele>210.0</ele><time>2026-03-28T14:08:59.448Z</time></trkpt><trkpt lat="45.984505" lon="8.74975"><ele>209.83333333333334</ele><time>2026-03-28T14:09:00.449Z</time></trkpt><trkpt lat="45.9845893" lon="8.7498155"><ele>209.66666666666669</ele><time>2026-03-28T14:09:01.448Z</time></trkpt><trkpt lat="45.9846747" lon="8.7498792"><ele>209.5</ele><time>2026-03-28T14:09:02.449Z</time></trkpt><trkpt lat="45.984745" lon="8.7499278"><ele>209.33333333333334</ele><time>2026-03-28T14:09:03.449Z</time></trkpt><trkpt lat="45.9848094" lon="8.7499749"><ele>209.16666666666669</ele><time>2026-03-28T14:09:04.449Z</time></trkpt><trkpt lat="45.9848706" lon="8.7500233"><ele>209.0</ele><time>2026-03-28T14:09:05.448Z</time></trkpt><trkpt lat="45.9849687" lon="8.7501121"><ele>209.2</ele><time>2026-03-28T14:09:07.449Z</time></trkpt><trkpt lat="45.9850318" lon="8.750249"><ele>209.39999999999998</ele><time>2026-03-28T14:09:09.448Z</time></trkpt><trkpt lat="45.9851238" lon="8.7503369"><ele>209.6</ele><time>2026-03-28T14:09:11.449Z</time></trkpt><trkpt lat="45.9852336" lon="8.7502763"><ele>209.8</ele><time>2026-03-28T14:09:13.449Z</time></trkpt><trkpt lat="45.9852973" lon="8.7502215"><ele>210.0</ele><time>2026-03-28T14:09:14.448Z</time></trkpt><trkpt lat="45.9853775" lon="8.750185"><ele>210.0</ele><time>2026-03-28T14:09:15.448Z</time></trkpt><trkpt lat="45.985459" lon="8.7501419"><ele>210.0</ele><time>2026-03-28T14:09:16.449Z</time></trkpt><trkpt lat="45.9855566" lon="8.7500951"><ele>210.0</ele><time>2026-03-28T14:09:17.449Z</time></trkpt><trkpt lat="45.9856581" lon="8.7500583"><ele>210.0</ele><time>2026-03-28T14:09:18.449Z</time></trkpt><trkpt lat="45.9857672" lon="8.7500116"><ele>210.0</ele><time>2026-03-28T14:09:19.448Z</time></trkpt><trkpt lat="45.985874" lon="8.7499618"><ele>209.5</ele><time>2026-03-28T14:09:20.448Z</time></trkpt><trkpt lat="45.985991" lon="8.7499123"><ele>209.0</ele><time>2026-03-28T14:09:21.448Z</time></trkpt><trkpt lat="45.9861119" lon="8.7498627"><ele>208.5</ele><time>2026-03-28T14:09:22.449Z</time></trkpt><trkpt lat="45.9862344" lon="8.7498175"><ele>208.0</ele><time>2026-03-28T14:09:23.449Z</time></trkpt><trkpt lat="45.9863666" lon="8.7497635"><ele>208.0</ele><time>2026-03-28T14:09:24.449Z</time></trkpt><trkpt lat="45.9864906" lon="8.7497089"><ele>208.0</ele><time>2026-03-28T14:09:25.449Z</time></trkpt><trkpt lat="45.9866081" lon="8.7496606"><ele>208.0</ele><time>2026-03-28T14:09:26.449Z</time></trkpt><trkpt lat="45.9867243" lon="8.7496121"><ele>208.0</ele><time>2026-03-28T14:09:27.449Z</time></trkpt><trkpt lat="45.9868433" lon="8.7495645"><ele>207.75</ele><time>2026-03-28T14:09:28.448Z</time></trkpt><trkpt lat="45.9869614" lon="8.7495179"><ele>207.5</ele><time>2026-03-28T14:09:29.449Z</time></trkpt><trkpt lat="45.9870769" lon="8.7494713"><ele>207.25</ele><time>2026-03-28T14:09:30.449Z</time></trkpt><trkpt lat="45.9871917" lon="8.7494289"><ele>207.0</ele><time>2026-03-28T14:09:31.448Z</time></trkpt><trkpt lat="45.9873132" lon="8.7493858"><ele>206.25</ele><time>2026-03-28T14:09:32.448Z</time></trkpt><trkpt lat="45.987433" lon="8.7493401"><ele>205.5</ele><time>2026-03-28T14:09:33.448Z</time></trkpt><trkpt lat="45.9875618" lon="8.7492861"><ele>204.75</ele><time>2026-03-28T14:09:34.448Z</time></trkpt><trkpt lat="45.9876863" lon="8.7492315"><ele>204.0</ele><time>2026-03-28T14:09:35.448Z</time></trkpt><trkpt lat="45.9878081" lon="8.7491827"><ele>203.75</ele><time>2026-03-28T14:09:36.448Z</time></trkpt><trkpt lat="45.9879378" lon="8.7491263"><ele>203.5</ele><time>2026-03-28T14:09:37.449Z</time></trkpt><trkpt lat="45.9880596" lon="8.749071"><ele>203.25</ele><time>2026-03-28T14:09:38.449Z</time></trkpt><trkpt lat="45.9881894" lon="8.7490155"><ele>203.0</ele><time>2026-03-28T14:09:39.448Z</time></trkpt><trkpt lat="45.9883183" lon="8.7489606"><ele>203.25</ele><time>2026-03-28T14:09:40.448Z</time></trkpt><trkpt lat="45.9884478" lon="8.748904"><ele>203.5</ele><time>2026-03-28T14:09:41.448Z</time></trkpt><trkpt lat="45.9885799" lon="8.7488564"><ele>203.75</ele><time>2026-03-28T14:09:42.449Z</time></trkpt><trkpt lat="45.9887123" lon="8.7488007"><ele>204.0</ele><time>2026-03-28T14:09:43.448Z</time></trkpt><trkpt lat="45.9888502" lon="8.7487475"><ele>204.0</ele><time>2026-03-28T14:09:44.449Z</time></trkpt><trkpt lat="45.9889864" lon="8.7486986"><ele>204.0</ele><time>2026-03-28T14:09:45.448Z</time></trkpt><trkpt lat="45.989115" lon="8.7486443"><ele>204.0</ele><time>2026-03-28T14:09:46.449Z</time></trkpt><trkpt lat="45.9892416" lon="8.7485843"><ele>204.0</ele><time>2026-03-28T14:09:47.449Z</time></trkpt><trkpt lat="45.9893707" lon="8.7485316"><ele>203.5</ele><time>2026-03-28T14:09:48.449Z</time></trkpt><trkpt lat="45.9894952" lon="8.7484792"><ele>203.0</ele><time>2026-03-28T14:09:49.449Z</time></trkpt><trkpt lat="45.9896273" lon="8.7484205"><ele>202.5</ele><time>2026-03-28T14:09:50.448Z</time></trkpt><trkpt lat="45.9897658" lon="8.7483711"><ele>202.0</ele><time>2026-03-28T14:09:51.448Z</time></trkpt><trkpt lat="45.9899022" lon="8.7483255"><ele>203.0</ele><time>2026-03-28T14:09:52.448Z</time></trkpt><trkpt lat="45.9900382" lon="8.7482689"><ele>204.0</ele><time>2026-03-28T14:09:53.448Z</time></trkpt><trkpt lat="45.9901732" lon="8.7482166"><ele>205.0</ele><time>2026-03-28T14:09:54.448Z</time></trkpt><trkpt lat="45.9903073" lon="8.74816"><ele>206.0</ele><time>2026-03-28T14:09:55.449Z</time></trkpt><trkpt lat="45.9904417" lon="8.7481025"><ele>206.0</ele><time>2026-03-28T14:09:56.449Z</time></trkpt><trkpt lat="45.990577" lon="8.7480463"><ele>206.0</ele><time>2026-03-28T14:09:57.449Z</time></trkpt><trkpt lat="45.9907072" lon="8.7479911"><ele>206.0</ele><time>2026-03-28T14:09:58.449Z</time></trkpt><trkpt lat="45.9908285" lon="8.7479386"><ele>206.0</ele><time>2026-03-28T14:09:59.448Z</time></trkpt><trkpt lat="45.9909405" lon="8.7478818"><ele>206.20000000000002</ele><time>2026-03-28T14:10:00.448Z</time></trkpt><trkpt lat="45.991033" lon="8.7478097"><ele>206.4</ele><time>2026-03-28T14:10:01.449Z</time></trkpt><trkpt lat="45.9911148" lon="8.7477285"><ele>206.6</ele><time>2026-03-28T14:10:02.449Z</time></trkpt><trkpt lat="45.9911882" lon="8.7476588"><ele>206.8</ele><time>2026-03-28T14:10:03.449Z</time></trkpt><trkpt lat="45.9912628" lon="8.7475939"><ele>207.0</ele><time>2026-03-28T14:10:04.448Z</time></trkpt><trkpt lat="45.9913308" lon="8.7475009"><ele>207.0</ele><time>2026-03-28T14:10:05.449Z</time></trkpt><trkpt lat="45.9913769" lon="8.747373"><ele>207.0</ele><time>2026-03-28T14:10:06.449Z</time></trkpt><trkpt lat="45.9914141" lon="8.7472423"><ele>207.0</ele><time>2026-03-28T14:10:07.449Z</time></trkpt><trkpt lat="45.9914487" lon="8.7470925"><ele>207.0</ele><time>2026-03-28T14:10:08.449Z</time></trkpt><trkpt lat="45.9914902" lon="8.7469413"><ele>207.0</ele><time>2026-03-28T14:10:09.449Z</time></trkpt><trkpt lat="45.9915335" lon="8.7467848"><ele>206.0</ele><time>2026-03-28T14:10:10.449Z</time></trkpt><trkpt lat="45.9915752" lon="8.7466219"><ele>205.0</ele><time>2026-03-28T14:10:11.449Z</time></trkpt><trkpt lat="45.9916245" lon="8.7464564"><ele>204.0</ele><time>2026-03-28T14:10:12.449Z</time></trkpt><trkpt lat="45.9916714" lon="8.7462877"><ele>203.0</ele><time>2026-03-28T14:10:13.449Z</time></trkpt><trkpt lat="45.9917174" lon="8.746113"><ele>203.5</ele><time>2026-03-28T14:10:14.449Z</time></trkpt><trkpt lat="45.9917699" lon="8.7459395"><ele>204.0</ele><time>2026-03-28T14:10:15.449Z</time></trkpt><trkpt lat="45.9918168" lon="8.7457623"><ele>204.5</ele><time>2026-03-28T14:10:16.449Z</time></trkpt><trkpt lat="45.9918616" lon="8.7455834"><ele>205.0</ele><time>2026-03-28T14:10:17.449Z</time></trkpt><trkpt lat="45.9919019" lon="8.7454161"><ele>205.0</ele><time>2026-03-28T14:10:18.449Z</time></trkpt><trkpt lat="45.9919418" lon="8.7452606"><ele>205.0</ele><time>2026-03-28T14:10:19.449Z</time></trkpt><trkpt lat="45.9919793" lon="8.7451306"><ele>205.0</ele><time>2026-03-28T14:10:20.449Z</time></trkpt><trkpt lat="45.9920147" lon="8.7450258"><ele>205.0</ele><time>2026-03-28T14:10:21.448Z</time></trkpt><trkpt lat="45.9920558" lon="8.7449211"><ele>205.0</ele><time>2026-03-28T14:10:22.449Z</time></trkpt><trkpt lat="45.9921059" lon="8.7448266"><ele>204.8</ele><time>2026-03-28T14:10:23.449Z</time></trkpt><trkpt lat="45.9921692" lon="8.7447405"><ele>204.6</ele><time>2026-03-28T14:10:24.448Z</time></trkpt><trkpt lat="45.9922472" lon="8.7446689"><ele>204.39999999999998</ele><time>2026-03-28T14:10:25.448Z</time></trkpt><trkpt lat="45.992333" lon="8.7446061"><ele>204.2</ele><time>2026-03-28T14:10:26.448Z</time></trkpt><trkpt lat="45.9924309" lon="8.7445366"><ele>204.0</ele><time>2026-03-28T14:10:27.449Z</time></trkpt><trkpt lat="45.9925375" lon="8.7444631"><ele>203.75</ele><time>2026-03-28T14:10:28.449Z</time></trkpt><trkpt lat="45.9926408" lon="8.7443804"><ele>203.5</ele><time>2026-03-28T14:10:29.448Z</time></trkpt><trkpt lat="45.9927506" lon="8.7442997"><ele>203.25</ele><time>2026-03-28T14:10:30.448Z</time></trkpt><trkpt lat="45.9928627" lon="8.7442146"><ele>203.0</ele><time>2026-03-28T14:10:31.449Z</time></trkpt><trkpt lat="45.9929774" lon="8.7441255"><ele>203.0</ele><time>2026-03-28T14:10:32.448Z</time></trkpt><trkpt lat="45.993087" lon="8.7440478"><ele>203.0</ele><time>2026-03-28T14:10:33.448Z</time></trkpt><trkpt lat="45.9931904" lon="8.7439718"><ele>203.0</ele><time>2026-03-28T14:10:34.448Z</time></trkpt><trkpt lat="45.9932867" lon="8.7439088"><ele>203.0</ele><time>2026-03-28T14:10:35.448Z</time></trkpt><trkpt lat="45.9933726" lon="8.7438723"><ele>203.0</ele><time>2026-03-28T14:10:36.449Z</time></trkpt><trkpt lat="45.9934461" lon="8.7438542"><ele>203.0</ele><time>2026-03-28T14:10:37.449Z</time></trkpt><trkpt lat="45.9935492" lon="8.7438227"><ele>203.0</ele><time>2026-03-28T14:10:39.448Z</time></trkpt><trkpt lat="45.9935964" lon="8.7436759"><ele>203.0</ele><time>2026-03-28T14:10:41.449Z</time></trkpt><trkpt lat="45.9935799" lon="8.7434983"><ele>203.0</ele><time>2026-03-28T14:10:43.448Z</time></trkpt><trkpt lat="45.9935655" lon="8.743366"><ele>203.0</ele><time>2026-03-28T14:10:45.447Z</time></trkpt><trkpt lat="45.9935584" lon="8.7432613"><ele>202.8</ele><time>2026-03-28T14:10:47.448Z</time></trkpt><trkpt lat="45.9935768" lon="8.7431089"><ele>202.60000000000002</ele><time>2026-03-28T14:10:49.448Z</time></trkpt><trkpt lat="45.9936298" lon="8.7429767"><ele>202.39999999999998</ele><time>2026-03-28T14:10:51.448Z</time></trkpt><trkpt lat="45.9937058" lon="8.7428724"><ele>202.2</ele><time>2026-03-28T14:10:53.449Z</time></trkpt><trkpt lat="45.993754" lon="8.7428113"><ele>202.0</ele><time>2026-03-28T14:10:54.449Z</time></trkpt><trkpt lat="45.9938096" lon="8.7427401"><ele>201.6</ele><time>2026-03-28T14:10:55.448Z</time></trkpt><trkpt lat="45.9938683" lon="8.7426428"><ele>201.2</ele><time>2026-03-28T14:10:56.448Z</time></trkpt><trkpt lat="45.9939198" lon="8.7425265"><ele>200.8</ele><time>2026-03-28T14:10:57.449Z</time></trkpt><trkpt lat="45.9939614" lon="8.7424071"><ele>200.4</ele><time>2026-03-28T14:10:58.449Z</time></trkpt><trkpt lat="45.993999" lon="8.7422778"><ele>200.0</ele><time>2026-03-28T14:10:59.449Z</time></trkpt><trkpt lat="45.9940478" lon="8.7421517"><ele>200.00000000000003</ele><time>2026-03-28T14:11:00.448Z</time></trkpt><trkpt lat="45.9941065" lon="8.7420371"><ele>200.0</ele><time>2026-03-28T14:11:01.448Z</time></trkpt><trkpt lat="45.994181" lon="8.7419402"><ele>200.0</ele><time>2026-03-28T14:11:02.447Z</time></trkpt><trkpt lat="45.994257" lon="8.7418715"><ele>200.0</ele><time>2026-03-28T14:11:03.449Z</time></trkpt><trkpt lat="45.9943289" lon="8.7418217"><ele>200.00000000000003</ele><time>2026-03-28T14:11:04.449Z</time></trkpt><trkpt lat="45.9943993" lon="8.7417918"><ele>200.0</ele><time>2026-03-28T14:11:05.448Z</time></trkpt><trkpt lat="45.9944762" lon="8.7417665"><ele>199.83333333333334</ele><time>2026-03-28T14:11:06.448Z</time></trkpt><trkpt lat="45.99456" lon="8.7417522"><ele>199.66666666666669</ele><time>2026-03-28T14:11:07.449Z</time></trkpt><trkpt lat="45.9946436" lon="8.7417505"><ele>199.5</ele><time>2026-03-28T14:11:08.449Z</time></trkpt><trkpt lat="45.9947084" lon="8.7417506"><ele>199.33333333333331</ele><time>2026-03-28T14:11:09.449Z</time></trkpt><trkpt lat="45.9947868" lon="8.7417398"><ele>199.16666666666666</ele><time>2026-03-28T14:11:14.448Z</time></trkpt><trkpt lat="45.9948761" lon="8.7417413"><ele>199.0</ele><time>2026-03-28T14:11:16.449Z</time></trkpt><trkpt lat="45.9949357" lon="8.7416349"><ele>199.0</ele><time>2026-03-28T14:11:18.448Z</time></trkpt><trkpt lat="45.9948967" lon="8.7414632"><ele>199.0</ele><time>2026-03-28T14:11:20.449Z</time></trkpt><trkpt lat="45.9948664" lon="8.741358"><ele>199.0</ele><time>2026-03-28T14:11:21.448Z</time></trkpt><trkpt lat="45.9948471" lon="8.7412335"><ele>199.0</ele><time>2026-03-28T14:11:22.449Z</time></trkpt><trkpt lat="45.9948357" lon="8.7410994"><ele>199.0</ele><time>2026-03-28T14:11:23.449Z</time></trkpt><trkpt lat="45.9948332" lon="8.7409614"><ele>199.0</ele><time>2026-03-28T14:11:24.448Z</time></trkpt><trkpt lat="45.9948479" lon="8.7408103"><ele>199.0</ele><time>2026-03-28T14:11:25.448Z</time></trkpt><trkpt lat="45.9948583" lon="8.7406557"><ele>199.0</ele><time>2026-03-28T14:11:26.448Z</time></trkpt><trkpt lat="45.9948707" lon="8.7404913"><ele>199.0</ele><time>2026-03-28T14:11:27.449Z</time></trkpt><trkpt lat="45.9948828" lon="8.7403212"><ele>199.0</ele><time>2026-03-28T14:11:28.448Z</time></trkpt><trkpt lat="45.9948924" lon="8.7401495"><ele>199.0</ele><time>2026-03-28T14:11:29.448Z</time></trkpt><trkpt lat="45.9949039" lon="8.7399772"><ele>199.0</ele><time>2026-03-28T14:11:30.449Z</time></trkpt><trkpt lat="45.9949173" lon="8.7398003"><ele>199.0</ele><time>2026-03-28T14:11:31.448Z</time></trkpt><trkpt lat="45.9949269" lon="8.7396305"><ele>199.0</ele><time>2026-03-28T14:11:32.449Z</time></trkpt><trkpt lat="45.9949262" lon="8.7394706"><ele>199.2</ele><time>2026-03-28T14:11:33.449Z</time></trkpt><trkpt lat="45.9949266" lon="8.7393093"><ele>199.39999999999998</ele><time>2026-03-28T14:11:34.449Z</time></trkpt><trkpt lat="45.9949287" lon="8.739153"><ele>199.6</ele><time>2026-03-28T14:11:35.449Z</time></trkpt><trkpt lat="45.9949218" lon="8.7390024"><ele>199.8</ele><time>2026-03-28T14:11:36.448Z</time></trkpt><trkpt lat="45.9949135" lon="8.7388413"><ele>200.0</ele><time>2026-03-28T14:11:37.449Z</time></trkpt><trkpt lat="45.9948987" lon="8.7386814"><ele>200.25</ele><time>2026-03-28T14:11:38.448Z</time></trkpt><trkpt lat="45.9948806" lon="8.7385208"><ele>200.5</ele><time>2026-03-28T14:11:39.448Z</time></trkpt><trkpt lat="45.9948615" lon="8.7383532"><ele>200.75</ele><time>2026-03-28T14:11:40.448Z</time></trkpt><trkpt lat="45.9948441" lon="8.7381789"><ele>201.0</ele><time>2026-03-28T14:11:41.448Z</time></trkpt><trkpt lat="45.9948257" lon="8.7380007"><ele>201.0</ele><time>2026-03-28T14:11:42.449Z</time></trkpt><trkpt lat="45.9948054" lon="8.7378198"><ele>201.0</ele><time>2026-03-28T14:11:43.448Z</time></trkpt><trkpt lat="45.9947868" lon="8.7376438"><ele>201.0</ele><time>2026-03-28T14:11:44.449Z</time></trkpt><trkpt lat="45.994767" lon="8.7374686"><ele>201.0</ele><time>2026-03-28T14:11:45.448Z</time></trkpt><trkpt lat="45.9947479" lon="8.7373013"><ele>201.0</ele><time>2026-03-28T14:11:46.448Z</time></trkpt><trkpt lat="45.9947186" lon="8.7371347"><ele>201.0</ele><time>2026-03-28T14:11:47.449Z</time></trkpt><trkpt lat="45.9946865" lon="8.7369635"><ele>201.0</ele><time>2026-03-28T14:11:48.448Z</time></trkpt><trkpt lat="45.9946479" lon="8.7367937"><ele>201.0</ele><time>2026-03-28T14:11:49.448Z</time></trkpt><trkpt lat="45.9945988" lon="8.7366233"><ele>201.0</ele><time>2026-03-28T14:11:50.449Z</time></trkpt><trkpt lat="45.9945459" lon="8.7364468"><ele>201.0</ele><time>2026-03-28T14:11:51.448Z</time></trkpt><trkpt lat="45.9944881" lon="8.7362798"><ele>201.0</ele><time>2026-03-28T14:11:52.449Z</time></trkpt><trkpt lat="45.9944215" lon="8.7361134"><ele>201.0</ele><time>2026-03-28T14:11:53.448Z</time></trkpt><trkpt lat="45.9943575" lon="8.7359498"><ele>200.75</ele><time>2026-03-28T14:11:54.449Z</time></trkpt><trkpt lat="45.9942981" lon="8.7357896"><ele>200.5</ele><time>2026-03-28T14:11:55.449Z</time></trkpt><trkpt lat="45.9942353" lon="8.7356305"><ele>200.25</ele><time>2026-03-28T14:11:56.449Z</time></trkpt><trkpt lat="45.9941715" lon="8.7354726"><ele>200.0</ele><time>2026-03-28T14:11:57.449Z</time></trkpt><trkpt lat="45.9941107" lon="8.7353101"><ele>200.0</ele><time>2026-03-28T14:11:58.448Z</time></trkpt><trkpt lat="45.994058" lon="8.7351463"><ele>200.0</ele><time>2026-03-28T14:11:59.448Z</time></trkpt><trkpt lat="45.9940062" lon="8.7349773"><ele>200.0</ele><time>2026-03-28T14:12:00.448Z</time></trkpt><trkpt lat="45.9939733" lon="8.7348121"><ele>200.0</ele><time>2026-03-28T14:12:01.449Z</time></trkpt><trkpt lat="45.9939477" lon="8.7346425"><ele>200.0</ele><time>2026-03-28T14:12:02.449Z</time></trkpt><trkpt lat="45.9939306" lon="8.7344708"><ele>200.0</ele><time>2026-03-28T14:12:03.447Z</time></trkpt><trkpt lat="45.9939254" lon="8.7342954"><ele>200.0</ele><time>2026-03-28T14:12:04.449Z</time></trkpt><trkpt lat="45.9939255" lon="8.734118"><ele>200.0</ele><time>2026-03-28T14:12:05.448Z</time></trkpt><trkpt lat="45.9939223" lon="8.7339449"><ele>199.8</ele><time>2026-03-28T14:12:06.449Z</time></trkpt><trkpt lat="45.9939181" lon="8.7337704"><ele>199.6</ele><time>2026-03-28T14:12:07.449Z</time></trkpt><trkpt lat="45.9939213" lon="8.7336143"><ele>199.39999999999998</ele><time>2026-03-28T14:12:08.448Z</time></trkpt><trkpt lat="45.9939213" lon="8.7334678"><ele>199.2</ele><time>2026-03-28T14:12:09.448Z</time></trkpt><trkpt lat="45.9939212" lon="8.7333247"><ele>199.0</ele><time>2026-03-28T14:12:10.449Z</time></trkpt><trkpt lat="45.9939193" lon="8.7331998"><ele>199.0</ele><time>2026-03-28T14:12:11.449Z</time></trkpt><trkpt lat="45.993913" lon="8.7331015"><ele>199.0</ele><time>2026-03-28T14:12:12.448Z</time></trkpt><trkpt lat="45.9938963" lon="8.7329776"><ele>199.0</ele><time>2026-03-28T14:12:14.449Z</time></trkpt><trkpt lat="45.9938978" lon="8.7328622"><ele>199.0</ele><time>2026-03-28T14:12:17.449Z</time></trkpt><trkpt lat="45.9939643" lon="8.7327578"><ele>199.0</ele><time>2026-03-28T14:12:19.449Z</time></trkpt><trkpt lat="45.9940941" lon="8.732734"><ele>199.6</ele><time>2026-03-28T14:12:21.448Z</time></trkpt><trkpt lat="45.9941744" lon="8.7327391"><ele>200.2</ele><time>2026-03-28T14:12:22.449Z</time></trkpt><trkpt lat="45.9942608" lon="8.7327463"><ele>200.79999999999998</ele><time>2026-03-28T14:12:23.448Z</time></trkpt><trkpt lat="45.9943506" lon="8.7327555"><ele>201.39999999999998</ele><time>2026-03-28T14:12:24.449Z</time></trkpt><trkpt lat="45.9944504" lon="8.7327629"><ele>202.0</ele><time>2026-03-28T14:12:25.449Z</time></trkpt><trkpt lat="45.9945526" lon="8.7327743"><ele>202.0</ele><time>2026-03-28T14:12:26.449Z</time></trkpt><trkpt lat="45.9946562" lon="8.7327815"><ele>202.0</ele><time>2026-03-28T14:12:27.449Z</time></trkpt><trkpt lat="45.9947543" lon="8.7327843"><ele>202.0</ele><time>2026-03-28T14:12:28.448Z</time></trkpt><trkpt lat="45.9948447" lon="8.732769"><ele>202.0</ele><time>2026-03-28T14:12:29.449Z</time></trkpt><trkpt lat="45.9949417" lon="8.7327276"><ele>202.0</ele><time>2026-03-28T14:12:30.449Z</time></trkpt><trkpt lat="45.995039" lon="8.7326782"><ele>201.8</ele><time>2026-03-28T14:12:31.448Z</time></trkpt><trkpt lat="45.9951343" lon="8.7326263"><ele>201.6</ele><time>2026-03-28T14:12:32.448Z</time></trkpt><trkpt lat="45.995215" lon="8.7325991"><ele>201.4</ele><time>2026-03-28T14:12:33.449Z</time></trkpt><trkpt lat="45.9953141" lon="8.7325613"><ele>201.20000000000002</ele><time>2026-03-28T14:12:34.449Z</time></trkpt><trkpt lat="45.9954141" lon="8.7325467"><ele>201.0</ele><time>2026-03-28T14:12:36.448Z</time></trkpt><trkpt lat="45.9954772" lon="8.7325483"><ele>201.0</ele><time>2026-03-28T14:12:40.448Z</time></trkpt><trkpt lat="45.9955835" lon="8.7325374"><ele>201.0</ele><time>2026-03-28T14:12:43.448Z</time></trkpt><trkpt lat="45.995697" lon="8.7325725"><ele>201.0</ele><time>2026-03-28T14:12:45.449Z</time></trkpt><trkpt lat="45.9957686" lon="8.7326023"><ele>201.0</ele><time>2026-03-28T14:12:46.449Z</time></trkpt><trkpt lat="45.9958426" lon="8.7326551"><ele>201.0</ele><time>2026-03-28T14:12:47.448Z</time></trkpt><trkpt lat="45.9959223" lon="8.7327157"><ele>201.4</ele><time>2026-03-28T14:12:48.448Z</time></trkpt><trkpt lat="45.9960076" lon="8.7328029"><ele>201.8</ele><time>2026-03-28T14:12:49.449Z</time></trkpt><trkpt lat="45.9960947" lon="8.7328921"><ele>202.20000000000002</ele><time>2026-03-28T14:12:50.449Z</time></trkpt><trkpt lat="45.9961828" lon="8.7329918"><ele>202.60000000000002</ele><time>2026-03-28T14:12:51.449Z</time></trkpt><trkpt lat="45.9962716" lon="8.7331"><ele>203.0</ele><time>2026-03-28T14:12:52.449Z</time></trkpt><trkpt lat="45.9963741" lon="8.733207"><ele>203.0</ele><time>2026-03-28T14:12:53.448Z</time></trkpt><trkpt lat="45.9964759" lon="8.7333173"><ele>203.0</ele><time>2026-03-28T14:12:54.449Z</time></trkpt><trkpt lat="45.9965831" lon="8.7334326"><ele>203.0</ele><time>2026-03-28T14:12:55.449Z</time></trkpt><trkpt lat="45.9966925" lon="8.7335485"><ele>203.0</ele><time>2026-03-28T14:12:56.448Z</time></trkpt><trkpt lat="45.9968022" lon="8.7336603"><ele>202.0</ele><time>2026-03-28T14:12:57.448Z</time></trkpt><trkpt lat="45.9969061" lon="8.7337623"><ele>201.0</ele><time>2026-03-28T14:12:58.449Z</time></trkpt><trkpt lat="45.997005" lon="8.7338652"><ele>200.0</ele><time>2026-03-28T14:12:59.448Z</time></trkpt><trkpt lat="45.997104" lon="8.7339693"><ele>199.0</ele><time>2026-03-28T14:13:00.448Z</time></trkpt><trkpt lat="45.997207" lon="8.7340714"><ele>199.0</ele><time>2026-03-28T14:13:01.449Z</time></trkpt><trkpt lat="45.9973069" lon="8.7341686"><ele>199.0</ele><time>2026-03-28T14:13:02.449Z</time></trkpt><trkpt lat="45.9974082" lon="8.7342638"><ele>199.0</ele><time>2026-03-28T14:13:03.448Z</time></trkpt><trkpt lat="45.997511" lon="8.7343554"><ele>199.0</ele><time>2026-03-28T14:13:04.448Z</time></trkpt><trkpt lat="45.9976195" lon="8.7344337"><ele>199.25</ele><time>2026-03-28T14:13:05.448Z</time></trkpt><trkpt lat="45.9977382" lon="8.7345006"><ele>199.5</ele><time>2026-03-28T14:13:06.449Z</time></trkpt><trkpt lat="45.9978571" lon="8.7345667"><ele>199.75</ele><time>2026-03-28T14:13:07.448Z</time></trkpt><trkpt lat="45.9979733" lon="8.734626"><ele>200.0</ele><time>2026-03-28T14:13:08.447Z</time></trkpt><trkpt lat="45.9980914" lon="8.7346858"><ele>200.0</ele><time>2026-03-28T14:13:09.448Z</time></trkpt><trkpt lat="45.9982043" lon="8.7347447"><ele>200.0</ele><time>2026-03-28T14:13:10.448Z</time></trkpt><trkpt lat="45.9983163" lon="8.7348027"><ele>200.0</ele><time>2026-03-28T14:13:11.447Z</time></trkpt><trkpt lat="45.9984266" lon="8.7348692"><ele>200.0</ele><time>2026-03-28T14:13:12.447Z</time></trkpt><trkpt lat="45.9985426" lon="8.7349353"><ele>198.5</ele><time>2026-03-28T14:13:13.448Z</time></trkpt><trkpt lat="45.998657" lon="8.7349876"><ele>197.0</ele><time>2026-03-28T14:13:14.447Z</time></trkpt><trkpt lat="45.9987683" lon="8.7350509"><ele>195.5</ele><time>2026-03-28T14:13:15.448Z</time></trkpt><trkpt lat="45.9988739" lon="8.7351265"><ele>194.0</ele><time>2026-03-28T14:13:16.448Z</time></trkpt><trkpt lat="45.998972" lon="8.735213"><ele>194.16666666666669</ele><time>2026-03-28T14:13:17.446Z</time></trkpt><trkpt lat="45.9990505" lon="8.7353051"><ele>194.33333333333334</ele><time>2026-03-28T14:13:18.447Z</time></trkpt><trkpt lat="45.999118" lon="8.7354056"><ele>194.5</ele><time>2026-03-28T14:13:19.448Z</time></trkpt><trkpt lat="45.9991666" lon="8.7354884"><ele>194.66666666666669</ele><time>2026-03-28T14:13:20.448Z</time></trkpt><trkpt lat="45.9991992" lon="8.7355751"><ele>194.83333333333334</ele><time>2026-03-28T14:13:21.447Z</time></trkpt><trkpt lat="45.999222" lon="8.7356782"><ele>195.0</ele><time>2026-03-28T14:13:22.447Z</time></trkpt><trkpt lat="45.9992396" lon="8.7357713"><ele>195.0</ele><time>2026-03-28T14:13:23.447Z</time></trkpt><trkpt lat="45.9993104" lon="8.7358894"><ele>195.0</ele><time>2026-03-28T14:13:25.448Z</time></trkpt><trkpt lat="45.9993963" lon="8.7358435"><ele>195.0</ele><time>2026-03-28T14:13:27.448Z</time></trkpt><trkpt lat="45.9993787" lon="8.7356936"><ele>195.0</ele><time>2026-03-28T14:13:29.448Z</time></trkpt><trkpt lat="45.9993267" lon="8.735625"><ele>195.0</ele><time>2026-03-28T14:13:30.447Z</time></trkpt><trkpt lat="45.9992697" lon="8.735547"><ele>195.0</ele><time>2026-03-28T14:13:31.447Z</time></trkpt><trkpt lat="45.9992159" lon="8.7354587"><ele>195.0</ele><time>2026-03-28T14:13:32.447Z</time></trkpt><trkpt lat="45.9991661" lon="8.735372"><ele>195.0</ele><time>2026-03-28T14:13:33.448Z</time></trkpt><trkpt lat="45.9991176" lon="8.7352943"><ele>195.0</ele><time>2026-03-28T14:13:34.448Z</time></trkpt><trkpt lat="45.9990653" lon="8.7352144"><ele>195.0</ele><time>2026-03-28T14:13:35.447Z</time></trkpt><trkpt lat="45.9990067" lon="8.7351529"><ele>195.0</ele><time>2026-03-28T14:13:36.448Z</time></trkpt><trkpt lat="45.9989356" lon="8.7350901"><ele>194.83333333333334</ele><time>2026-03-28T14:13:37.447Z</time></trkpt><trkpt lat="45.9988752" lon="8.7350465"><ele>194.66666666666669</ele><time>2026-03-28T14:13:38.448Z</time></trkpt><trkpt lat="45.998802" lon="8.7350031"><ele>194.5</ele><time>2026-03-28T14:13:39.448Z</time></trkpt><trkpt lat="45.9987275" lon="8.7349584"><ele>194.33333333333334</ele><time>2026-03-28T14:13:40.447Z</time></trkpt><trkpt lat="45.9986433" lon="8.7349138"><ele>194.16666666666669</ele><time>2026-03-28T14:13:41.448Z</time></trkpt><trkpt lat="45.998561" lon="8.7348721"><ele>194.0</ele><time>2026-03-28T14:13:42.448Z</time></trkpt><trkpt lat="45.9984767" lon="8.7348305"><ele>194.0</ele><time>2026-03-28T14:13:43.446Z</time></trkpt><trkpt lat="45.9983853" lon="8.7347803"><ele>194.0</ele><time>2026-03-28T14:13:44.447Z</time></trkpt><trkpt lat="45.9982981" lon="8.7347335"><ele>194.0</ele><time>2026-03-28T14:13:45.448Z</time></trkpt><trkpt lat="45.9982071" lon="8.7346837"><ele>194.0</ele><time>2026-03-28T14:13:46.448Z</time></trkpt><trkpt lat="45.9981142" lon="8.7346356"><ele>194.0</ele><time>2026-03-28T14:13:47.448Z</time></trkpt><trkpt lat="45.9980221" lon="8.7345896"><ele>194.00000000000003</ele><time>2026-03-28T14:13:48.447Z</time></trkpt><trkpt lat="45.9979357" lon="8.7345497"><ele>194.0</ele><time>2026-03-28T14:13:49.447Z</time></trkpt><trkpt lat="45.9978531" lon="8.7345004"><ele>194.0</ele><time>2026-03-28T14:13:50.447Z</time></trkpt><trkpt lat="45.9977736" lon="8.7344605"><ele>194.0</ele><time>2026-03-28T14:13:51.447Z</time></trkpt><trkpt lat="45.9977015" lon="8.7344162"><ele>194.00000000000003</ele><time>2026-03-28T14:13:52.447Z</time></trkpt><trkpt lat="45.9976335" lon="8.7343704"><ele>194.0</ele><time>2026-03-28T14:13:53.447Z</time></trkpt><trkpt lat="45.9975641" lon="8.7343156"><ele>194.00000000000003</ele><time>2026-03-28T14:13:54.447Z</time></trkpt><trkpt lat="45.9975022" lon="8.7342511"><ele>194.0</ele><time>2026-03-28T14:13:55.448Z</time></trkpt><trkpt lat="45.9974536" lon="8.7341729"><ele>194.0</ele><time>2026-03-28T14:13:56.447Z</time></trkpt><trkpt lat="45.9974015" lon="8.7340501"><ele>194.0</ele><time>2026-03-28T14:13:58.448Z</time></trkpt><trkpt lat="45.9973714" lon="8.7339592"><ele>194.00000000000003</ele><time>2026-03-28T14:14:02.448Z</time></trkpt><trkpt lat="45.9974336" lon="8.7338633"><ele>194.0</ele><time>2026-03-28T14:14:07.448Z</time></trkpt><trkpt lat="45.9975212" lon="8.7338913"><ele>194.00000000000003</ele><time>2026-03-28T14:14:10.447Z</time></trkpt><trkpt lat="45.9976093" lon="8.7339601"><ele>194.0</ele><time>2026-03-28T14:14:13.448Z</time></trkpt><trkpt lat="45.9976773" lon="8.7340313"><ele>194.0</ele><time>2026-03-28T14:14:15.447Z</time></trkpt><trkpt lat="45.9977381" lon="8.7341023"><ele>194.0</ele><time>2026-03-28T14:14:17.447Z</time></trkpt><trkpt lat="45.9977901" lon="8.7341534"><ele>194.00000000000003</ele><time>2026-03-28T14:14:19.447Z</time></trkpt><trkpt lat="45.9978757" lon="8.7342124"><ele>194.0</ele><time>2026-03-28T14:14:22.447Z</time></trkpt><trkpt lat="45.9979839" lon="8.7342706"><ele>194.0</ele><time>2026-03-28T14:14:24.447Z</time></trkpt><trkpt lat="45.9980841" lon="8.7343424"><ele>194.0</ele><time>2026-03-28T14:14:26.448Z</time></trkpt><trkpt lat="45.9981685" lon="8.7344044"><ele>194.0</ele><time>2026-03-28T14:14:28.447Z</time></trkpt><trkpt lat="45.9982456" lon="8.7344575"><ele>194.0</ele><time>2026-03-28T14:14:30.448Z</time></trkpt><trkpt lat="45.998316" lon="8.734479"><ele>194.0</ele><time>2026-03-28T14:14:32.448Z</time></trkpt><trkpt lat="45.99841" lon="8.7344767"><ele>194.0</ele><time>2026-03-28T14:14:42.447Z</time></trkpt><trkpt lat="45.9984959" lon="8.7345544"><ele>194.0</ele><time>2026-03-28T14:14:44.447Z</time></trkpt><trkpt lat="45.9985583" lon="8.7346403"><ele>194.0</ele><time>2026-03-28T14:14:46.448Z</time></trkpt><trkpt lat="45.9986073" lon="8.7347111"><ele>194.0</ele><time>2026-03-28T14:14:49.447Z</time></trkpt></trkseg><trkseg><trkpt lat="45.9985938" lon="8.734651"><ele>194.00000000000003</ele><time>2026-03-28T15:06:48.438Z</time></trkpt><trkpt lat="45.998524" lon="8.7346301"><ele>194.0</ele><time>2026-03-28T15:06:51.438Z</time></trkpt><trkpt lat="45.9984656" lon="8.7345391"><ele>194.0</ele><time>2026-03-28T15:07:12.438Z</time></trkpt><trkpt lat="45.9983659" lon="8.7344526"><ele>194.0</ele><time>2026-03-28T15:07:14.438Z</time></trkpt><trkpt lat="45.9983138" lon="8.7344002"><ele>194.00000000000003</ele><time>2026-03-28T15:07:15.439Z</time></trkpt><trkpt lat="45.9982633" lon="8.7343427"><ele>194.0</ele><time>2026-03-28T15:07:16.439Z</time></trkpt><trkpt lat="45.9982084" lon="8.7342779"><ele>194.00000000000003</ele><time>2026-03-28T15:07:17.438Z</time></trkpt><trkpt lat="45.9981563" lon="8.7342145"><ele>194.0</ele><time>2026-03-28T15:07:18.438Z</time></trkpt><trkpt lat="45.9980981" lon="8.7341569"><ele>194.0</ele><time>2026-03-28T15:07:19.439Z</time></trkpt><trkpt lat="45.9980401" lon="8.7340949"><ele>194.0</ele><time>2026-03-28T15:07:20.438Z</time></trkpt><trkpt lat="45.9979846" lon="8.734034"><ele>194.00000000000003</ele><time>2026-03-28T15:07:21.438Z</time></trkpt><trkpt lat="45.9979302" lon="8.7339785"><ele>194.0</ele><time>2026-03-28T15:07:22.439Z</time></trkpt><trkpt lat="45.9978244" lon="8.7339013"><ele>194.00000000000003</ele><time>2026-03-28T15:07:24.439Z</time></trkpt><trkpt lat="45.9977335" lon="8.7339074"><ele>194.0</ele><time>2026-03-28T15:07:26.438Z</time></trkpt><trkpt lat="45.9976519" lon="8.7339011"><ele>194.0</ele><time>2026-03-28T15:07:28.438Z</time></trkpt><trkpt lat="45.997561" lon="8.7338439"><ele>194.0</ele><time>2026-03-28T15:07:30.437Z</time></trkpt><trkpt lat="45.9974588" lon="8.73382"><ele>194.00000000000003</ele><time>2026-03-28T15:07:32.439Z</time></trkpt><trkpt lat="45.9973965" lon="8.7338427"><ele>194.0</ele><time>2026-03-28T15:07:34.438Z</time></trkpt><trkpt lat="45.9973287" lon="8.7338712"><ele>194.83333333333334</ele><time>2026-03-28T15:07:38.439Z</time></trkpt><trkpt lat="45.9972612" lon="8.7339023"><ele>195.66666666666669</ele><time>2026-03-28T15:07:40.439Z</time></trkpt><trkpt lat="45.9971914" lon="8.7339176"><ele>196.5</ele><time>2026-03-28T15:07:56.438Z</time></trkpt><trkpt lat="45.9970787" lon="8.7338894"><ele>197.33333333333331</ele><time>2026-03-28T15:07:58.438Z</time></trkpt><trkpt lat="45.9970142" lon="8.7338492"><ele>198.16666666666666</ele><time>2026-03-28T15:07:59.439Z</time></trkpt><trkpt lat="45.9969519" lon="8.7337879"><ele>199.0</ele><time>2026-03-28T15:08:00.439Z</time></trkpt><trkpt lat="45.9968798" lon="8.733721"><ele>199.0</ele><time>2026-03-28T15:08:01.438Z</time></trkpt><trkpt lat="45.9968022" lon="8.7336414"><ele>199.0</ele><time>2026-03-28T15:08:02.439Z</time></trkpt><trkpt lat="45.9967241" lon="8.7335557"><ele>199.0</ele><time>2026-03-28T15:08:03.439Z</time></trkpt><trkpt lat="45.9966431" lon="8.7334715"><ele>199.0</ele><time>2026-03-28T15:08:04.438Z</time></trkpt><trkpt lat="45.9965563" lon="8.7333826"><ele>199.0</ele><time>2026-03-28T15:08:05.438Z</time></trkpt><trkpt lat="45.9964845" lon="8.7333049"><ele>199.79999999999998</ele><time>2026-03-28T15:08:06.439Z</time></trkpt><trkpt lat="45.9964" lon="8.7332173"><ele>200.6</ele><time>2026-03-28T15:08:08.438Z</time></trkpt><trkpt lat="45.9963453" lon="8.7331557"><ele>201.4</ele><time>2026-03-28T15:08:11.439Z</time></trkpt><trkpt lat="45.9962882" lon="8.7330859"><ele>202.2</ele><time>2026-03-28T15:08:18.438Z</time></trkpt><trkpt lat="45.9962125" lon="8.7330044"><ele>203.0</ele><time>2026-03-28T15:08:20.438Z</time></trkpt><trkpt lat="45.9961204" lon="8.7328946"><ele>203.0</ele><time>2026-03-28T15:08:22.439Z</time></trkpt><trkpt lat="45.9960377" lon="8.7327935"><ele>203.0</ele><time>2026-03-28T15:08:24.438Z</time></trkpt><trkpt lat="45.995985" lon="8.7327342"><ele>203.0</ele><time>2026-03-28T15:08:27.438Z</time></trkpt><trkpt lat="45.9959229" lon="8.7326491"><ele>203.0</ele><time>2026-03-28T15:08:30.439Z</time></trkpt><trkpt lat="45.9958673" lon="8.7325279"><ele>203.0</ele><time>2026-03-28T15:08:32.437Z</time></trkpt><trkpt lat="45.9958145" lon="8.7323938"><ele>202.66666666666669</ele><time>2026-03-28T15:08:34.437Z</time></trkpt><trkpt lat="45.9957349" lon="8.7323591"><ele>202.33333333333334</ele><time>2026-03-28T15:08:36.438Z</time></trkpt><trkpt lat="45.9956258" lon="8.7324139"><ele>202.0</ele><time>2026-03-28T15:08:38.437Z</time></trkpt><trkpt lat="45.9955619" lon="8.7324409"><ele>201.66666666666669</ele><time>2026-03-28T15:08:39.438Z</time></trkpt><trkpt lat="45.9954867" lon="8.7324567"><ele>201.33333333333334</ele><time>2026-03-28T15:08:40.437Z</time></trkpt><trkpt lat="45.9954138" lon="8.7324767"><ele>201.0</ele><time>2026-03-28T15:08:41.437Z</time></trkpt><trkpt lat="45.9953278" lon="8.7324984"><ele>201.0</ele><time>2026-03-28T15:08:42.438Z</time></trkpt><trkpt lat="45.9952428" lon="8.7325349"><ele>201.0</ele><time>2026-03-28T15:08:43.438Z</time></trkpt><trkpt lat="45.995158" lon="8.7325625"><ele>201.0</ele><time>2026-03-28T15:08:44.438Z</time></trkpt><trkpt lat="45.9950931" lon="8.7326047"><ele>201.0</ele><time>2026-03-28T15:08:45.437Z</time></trkpt><trkpt lat="45.9950298" lon="8.7326435"><ele>201.0</ele><time>2026-03-28T15:08:46.437Z</time></trkpt><trkpt lat="45.9949689" lon="8.7326888"><ele>201.0</ele><time>2026-03-28T15:08:47.437Z</time></trkpt><trkpt lat="45.9948578" lon="8.7327239"><ele>201.20000000000002</ele><time>2026-03-28T15:08:49.438Z</time></trkpt><trkpt lat="45.9947653" lon="8.7327314"><ele>201.4</ele><time>2026-03-28T15:08:51.437Z</time></trkpt><trkpt lat="45.9946418" lon="8.7327285"><ele>201.6</ele><time>2026-03-28T15:08:53.437Z</time></trkpt><trkpt lat="45.994571" lon="8.7327241"><ele>201.8</ele><time>2026-03-28T15:08:54.437Z</time></trkpt><trkpt lat="45.9944901" lon="8.732709"><ele>202.0</ele><time>2026-03-28T15:08:55.437Z</time></trkpt><trkpt lat="45.994409" lon="8.7326974"><ele>201.99999999999997</ele><time>2026-03-28T15:08:56.438Z</time></trkpt><trkpt lat="45.9943332" lon="8.7326948"><ele>202.0</ele><time>2026-03-28T15:08:57.437Z</time></trkpt><trkpt lat="45.9942694" lon="8.7326872"><ele>202.0</ele><time>2026-03-28T15:08:58.438Z</time></trkpt><trkpt lat="45.9941669" lon="8.7326833"><ele>202.0</ele><time>2026-03-28T15:09:00.437Z</time></trkpt><trkpt lat="45.9940944" lon="8.7326761"><ele>201.99999999999997</ele><time>2026-03-28T15:09:02.437Z</time></trkpt><trkpt lat="45.9940297" lon="8.7326793"><ele>202.0</ele><time>2026-03-28T15:09:05.437Z</time></trkpt><trkpt lat="45.9939462" lon="8.7326904"><ele>201.99999999999997</ele><time>2026-03-28T15:09:11.437Z</time></trkpt><trkpt lat="45.9938782" lon="8.7326878"><ele>202.0</ele><time>2026-03-28T15:09:12.438Z</time></trkpt><trkpt lat="45.993804" lon="8.7326863"><ele>202.0</ele><time>2026-03-28T15:09:13.437Z</time></trkpt><trkpt lat="45.9937141" lon="8.7326972"><ele>202.0</ele><time>2026-03-28T15:09:14.438Z</time></trkpt><trkpt lat="45.9936092" lon="8.732715"><ele>201.99999999999997</ele><time>2026-03-28T15:09:15.437Z</time></trkpt><trkpt lat="45.9935069" lon="8.732739"><ele>202.0</ele><time>2026-03-28T15:09:16.438Z</time></trkpt><trkpt lat="45.9933954" lon="8.7327741"><ele>201.0</ele><time>2026-03-28T15:09:17.438Z</time></trkpt><trkpt lat="45.9932783" lon="8.7328094"><ele>200.0</ele><time>2026-03-28T15:09:18.438Z</time></trkpt><trkpt lat="45.9931576" lon="8.7328503"><ele>199.0</ele><time>2026-03-28T15:09:19.437Z</time></trkpt><trkpt lat="45.9930329" lon="8.7328899"><ele>198.0</ele><time>2026-03-28T15:09:20.437Z</time></trkpt><trkpt lat="45.9929058" lon="8.7329305"><ele>198.0</ele><time>2026-03-28T15:09:21.437Z</time></trkpt><trkpt lat="45.9927896" lon="8.7329693"><ele>198.0</ele><time>2026-03-28T15:09:22.438Z</time></trkpt><trkpt lat="45.9926836" lon="8.733005"><ele>198.0</ele><time>2026-03-28T15:09:23.436Z</time></trkpt><trkpt lat="45.9925867" lon="8.7330417"><ele>198.0</ele><time>2026-03-28T15:09:24.437Z</time></trkpt><trkpt lat="45.992488" lon="8.7330812"><ele>198.0</ele><time>2026-03-28T15:09:25.438Z</time></trkpt><trkpt lat="45.9923914" lon="8.7331173"><ele>198.2</ele><time>2026-03-28T15:09:26.438Z</time></trkpt><trkpt lat="45.9923085" lon="8.7331433"><ele>198.4</ele><time>2026-03-28T15:09:27.437Z</time></trkpt><trkpt lat="45.9922047" lon="8.7331649"><ele>198.6</ele><time>2026-03-28T15:09:29.437Z</time></trkpt><trkpt lat="45.9921394" lon="8.7331779"><ele>198.79999999999998</ele><time>2026-03-28T15:10:12.437Z</time></trkpt><trkpt lat="45.9920594" lon="8.7332065"><ele>199.0</ele><time>2026-03-28T15:10:14.438Z</time></trkpt><trkpt lat="45.9919364" lon="8.7332495"><ele>199.0</ele><time>2026-03-28T15:10:16.438Z</time></trkpt><trkpt lat="45.9918581" lon="8.7332839"><ele>199.0</ele><time>2026-03-28T15:10:17.437Z</time></trkpt><trkpt lat="45.9917702" lon="8.7333346"><ele>199.0</ele><time>2026-03-28T15:10:18.437Z</time></trkpt><trkpt lat="45.9916834" lon="8.7334059"><ele>199.0</ele><time>2026-03-28T15:10:19.437Z</time></trkpt><trkpt lat="45.9915973" lon="8.7334942"><ele>199.0</ele><time>2026-03-28T15:10:20.438Z</time></trkpt><trkpt lat="45.9915105" lon="8.7335928"><ele>198.75</ele><time>2026-03-28T15:10:21.438Z</time></trkpt><trkpt lat="45.9914206" lon="8.733698"><ele>198.5</ele><time>2026-03-28T15:10:22.437Z</time></trkpt><trkpt lat="45.9913313" lon="8.7338083"><ele>198.25</ele><time>2026-03-28T15:10:23.437Z</time></trkpt><trkpt lat="45.9912403" lon="8.7339181"><ele>198.0</ele><time>2026-03-28T15:10:24.437Z</time></trkpt><trkpt lat="45.9911442" lon="8.7340367"><ele>198.0</ele><time>2026-03-28T15:10:25.437Z</time></trkpt><trkpt lat="45.991046" lon="8.7341541"><ele>198.0</ele><time>2026-03-28T15:10:26.437Z</time></trkpt><trkpt lat="45.990951" lon="8.7342749"><ele>198.0</ele><time>2026-03-28T15:10:27.437Z</time></trkpt><trkpt lat="45.9908524" lon="8.7343944"><ele>198.0</ele><time>2026-03-28T15:10:28.437Z</time></trkpt><trkpt lat="45.990753" lon="8.7345132"><ele>198.0</ele><time>2026-03-28T15:10:29.437Z</time></trkpt><trkpt lat="45.9906491" lon="8.7346354"><ele>198.0</ele><time>2026-03-28T15:10:30.437Z</time></trkpt><trkpt lat="45.9905492" lon="8.7347592"><ele>198.0</ele><time>2026-03-28T15:10:31.438Z</time></trkpt><trkpt lat="45.9904473" lon="8.7348867"><ele>198.0</ele><time>2026-03-28T15:10:32.437Z</time></trkpt><trkpt lat="45.9903401" lon="8.7350102"><ele>198.0</ele><time>2026-03-28T15:10:33.437Z</time></trkpt><trkpt lat="45.99023" lon="8.735137"><ele>198.0</ele><time>2026-03-28T15:10:34.437Z</time></trkpt><trkpt lat="45.9901137" lon="8.735263"><ele>198.0</ele><time>2026-03-28T15:10:35.438Z</time></trkpt><trkpt lat="45.989993" lon="8.7353736"><ele>198.0</ele><time>2026-03-28T15:10:36.437Z</time></trkpt><trkpt lat="45.989869" lon="8.7354894"><ele>198.5</ele><time>2026-03-28T15:10:37.438Z</time></trkpt><trkpt lat="45.9897464" lon="8.7356042"><ele>199.0</ele><time>2026-03-28T15:10:38.438Z</time></trkpt><trkpt lat="45.9896232" lon="8.7357161"><ele>199.5</ele><time>2026-03-28T15:10:39.438Z</time></trkpt><trkpt lat="45.9894939" lon="8.7358337"><ele>200.0</ele><time>2026-03-28T15:10:40.437Z</time></trkpt><trkpt lat="45.9893635" lon="8.735959"><ele>200.0</ele><time>2026-03-28T15:10:41.437Z</time></trkpt><trkpt lat="45.9892349" lon="8.7360787"><ele>200.0</ele><time>2026-03-28T15:10:42.437Z</time></trkpt><trkpt lat="45.989103" lon="8.7361951"><ele>200.0</ele><time>2026-03-28T15:10:43.437Z</time></trkpt><trkpt lat="45.9889671" lon="8.7363072"><ele>200.0</ele><time>2026-03-28T15:10:44.438Z</time></trkpt><trkpt lat="45.9888265" lon="8.7364014"><ele>200.0</ele><time>2026-03-28T15:10:45.438Z</time></trkpt><trkpt lat="45.9886744" lon="8.736484"><ele>200.0</ele><time>2026-03-28T15:10:46.438Z</time></trkpt><trkpt lat="45.9885246" lon="8.7365464"><ele>200.0</ele><time>2026-03-28T15:10:47.438Z</time></trkpt><trkpt lat="45.9883668" lon="8.7366045"><ele>200.0</ele><time>2026-03-28T15:10:48.438Z</time></trkpt><trkpt lat="45.9882083" lon="8.7366587"><ele>200.0</ele><time>2026-03-28T15:10:49.438Z</time></trkpt><trkpt lat="45.9880479" lon="8.7367123"><ele>200.0</ele><time>2026-03-28T15:10:50.437Z</time></trkpt><trkpt lat="45.9878856" lon="8.7367689"><ele>200.0</ele><time>2026-03-28T15:10:51.438Z</time></trkpt><trkpt lat="45.9877218" lon="8.73683"><ele>200.0</ele><time>2026-03-28T15:10:52.438Z</time></trkpt><trkpt lat="45.9875601" lon="8.7368889"><ele>200.33333333333334</ele><time>2026-03-28T15:10:53.437Z</time></trkpt><trkpt lat="45.9873961" lon="8.7369484"><ele>200.66666666666669</ele><time>2026-03-28T15:10:54.437Z</time></trkpt><trkpt lat="45.9872265" lon="8.7370034"><ele>201.0</ele><time>2026-03-28T15:10:55.438Z</time></trkpt><trkpt lat="45.9870544" lon="8.7370532"><ele>201.0</ele><time>2026-03-28T15:10:56.438Z</time></trkpt><trkpt lat="45.9868847" lon="8.7370937"><ele>201.0</ele><time>2026-03-28T15:10:57.438Z</time></trkpt><trkpt lat="45.9867105" lon="8.7371339"><ele>201.0</ele><time>2026-03-28T15:10:58.438Z</time></trkpt><trkpt lat="45.9865377" lon="8.7371823"><ele>201.66666666666669</ele><time>2026-03-28T15:10:59.437Z</time></trkpt><trkpt lat="45.986366" lon="8.7372484"><ele>202.33333333333334</ele><time>2026-03-28T15:11:00.437Z</time></trkpt><trkpt lat="45.9861962" lon="8.7373363"><ele>203.0</ele><time>2026-03-28T15:11:01.438Z</time></trkpt><trkpt lat="45.9860331" lon="8.7374438"><ele>203.0</ele><time>2026-03-28T15:11:02.437Z</time></trkpt><trkpt lat="45.9858719" lon="8.7375616"><ele>203.0</ele><time>2026-03-28T15:11:03.438Z</time></trkpt><trkpt lat="45.985713" lon="8.7376818"><ele>203.0</ele><time>2026-03-28T15:11:04.437Z</time></trkpt><trkpt lat="45.9855473" lon="8.7377886"><ele>203.0</ele><time>2026-03-28T15:11:05.438Z</time></trkpt><trkpt lat="45.9853777" lon="8.7378853"><ele>203.0</ele><time>2026-03-28T15:11:06.437Z</time></trkpt><trkpt lat="45.9852006" lon="8.7379797"><ele>203.0</ele><time>2026-03-28T15:11:07.438Z</time></trkpt><trkpt lat="45.9850271" lon="8.7380673"><ele>206.0</ele><time>2026-03-28T15:11:08.437Z</time></trkpt><trkpt lat="45.9848517" lon="8.7381539"><ele>209.0</ele><time>2026-03-28T15:11:09.437Z</time></trkpt><trkpt lat="45.9846726" lon="8.7382441"><ele>212.0</ele><time>2026-03-28T15:11:10.438Z</time></trkpt><trkpt lat="45.9844983" lon="8.7383394"><ele>212.0</ele><time>2026-03-28T15:11:11.436Z</time></trkpt><trkpt lat="45.9843275" lon="8.7384521"><ele>212.0</ele><time>2026-03-28T15:11:12.437Z</time></trkpt><trkpt lat="45.9841643" lon="8.7385822"><ele>212.0</ele><time>2026-03-28T15:11:13.438Z</time></trkpt><trkpt lat="45.984009" lon="8.738718"><ele>210.0</ele><time>2026-03-28T15:11:14.437Z</time></trkpt><trkpt lat="45.983857" lon="8.7388445"><ele>208.0</ele><time>2026-03-28T15:11:15.438Z</time></trkpt><trkpt lat="45.9836983" lon="8.7389608"><ele>206.0</ele><time>2026-03-28T15:11:16.437Z</time></trkpt><trkpt lat="45.9835328" lon="8.7390535"><ele>206.0</ele><time>2026-03-28T15:11:17.437Z</time></trkpt><trkpt lat="45.9833642" lon="8.7391359"><ele>206.0</ele><time>2026-03-28T15:11:18.437Z</time></trkpt><trkpt lat="45.9831935" lon="8.7392141"><ele>206.0</ele><time>2026-03-28T15:11:19.437Z</time></trkpt><trkpt lat="45.9830312" lon="8.7393171"><ele>204.0</ele><time>2026-03-28T15:11:20.438Z</time></trkpt><trkpt lat="45.9828826" lon="8.7394407"><ele>202.0</ele><time>2026-03-28T15:11:21.437Z</time></trkpt><trkpt lat="45.9827468" lon="8.7395935"><ele>200.0</ele><time>2026-03-28T15:11:22.437Z</time></trkpt><trkpt lat="45.9826237" lon="8.739769"><ele>201.0</ele><time>2026-03-28T15:11:23.438Z</time></trkpt><trkpt lat="45.9825087" lon="8.7399509"><ele>202.0</ele><time>2026-03-28T15:11:24.438Z</time></trkpt><trkpt lat="45.9823953" lon="8.7401329"><ele>203.0</ele><time>2026-03-28T15:11:25.437Z</time></trkpt><trkpt lat="45.9822817" lon="8.7403233"><ele>203.0</ele><time>2026-03-28T15:11:26.437Z</time></trkpt><trkpt lat="45.9821696" lon="8.740502"><ele>203.0</ele><time>2026-03-28T15:11:27.438Z</time></trkpt><trkpt lat="45.9820641" lon="8.7406605"><ele>203.0</ele><time>2026-03-28T15:11:28.438Z</time></trkpt><trkpt lat="45.9819668" lon="8.7408115"><ele>203.0</ele><time>2026-03-28T15:11:29.438Z</time></trkpt><trkpt lat="45.981874" lon="8.740936"><ele>203.0</ele><time>2026-03-28T15:11:30.437Z</time></trkpt><trkpt lat="45.9817812" lon="8.741046"><ele>203.0</ele><time>2026-03-28T15:11:31.437Z</time></trkpt><trkpt lat="45.9816857" lon="8.7411287"><ele>203.0</ele><time>2026-03-28T15:11:32.437Z</time></trkpt><trkpt lat="45.9815845" lon="8.7411814"><ele>203.5</ele><time>2026-03-28T15:11:33.437Z</time></trkpt><trkpt lat="45.9814762" lon="8.7412014"><ele>204.0</ele><time>2026-03-28T15:11:34.438Z</time></trkpt><trkpt lat="45.9813677" lon="8.7412163"><ele>204.5</ele><time>2026-03-28T15:11:35.437Z</time></trkpt><trkpt lat="45.981257" lon="8.7412685"><ele>205.0</ele><time>2026-03-28T15:11:36.438Z</time></trkpt><trkpt lat="45.9811468" lon="8.7413417"><ele>205.0</ele><time>2026-03-28T15:11:37.438Z</time></trkpt><trkpt lat="45.9810325" lon="8.7414151"><ele>205.0</ele><time>2026-03-28T15:11:38.438Z</time></trkpt><trkpt lat="45.9809068" lon="8.7414677"><ele>205.0</ele><time>2026-03-28T15:11:39.438Z</time></trkpt><trkpt lat="45.9807714" lon="8.7415006"><ele>205.0</ele><time>2026-03-28T15:11:40.437Z</time></trkpt><trkpt lat="45.9806306" lon="8.7415139"><ele>205.66666666666666</ele><time>2026-03-28T15:11:41.437Z</time></trkpt><trkpt lat="45.9804849" lon="8.7415297"><ele>206.33333333333331</ele><time>2026-03-28T15:11:42.438Z</time></trkpt><trkpt lat="45.9803382" lon="8.7415634"><ele>207.0</ele><time>2026-03-28T15:11:43.438Z</time></trkpt><trkpt lat="45.9801838" lon="8.7416038"><ele>207.0</ele><time>2026-03-28T15:11:44.437Z</time></trkpt><trkpt lat="45.9800335" lon="8.7416432"><ele>207.0</ele><time>2026-03-28T15:11:45.437Z</time></trkpt><trkpt lat="45.9798806" lon="8.741688"><ele>207.0</ele><time>2026-03-28T15:11:46.437Z</time></trkpt><trkpt lat="45.9797278" lon="8.7417423"><ele>205.33333333333331</ele><time>2026-03-28T15:11:47.438Z</time></trkpt><trkpt lat="45.9795755" lon="8.7418036"><ele>203.66666666666666</ele><time>2026-03-28T15:11:48.437Z</time></trkpt><trkpt lat="45.9794257" lon="8.7418793"><ele>202.0</ele><time>2026-03-28T15:11:49.438Z</time></trkpt><trkpt lat="45.9792692" lon="8.741964"><ele>203.66666666666666</ele><time>2026-03-28T15:11:50.438Z</time></trkpt><trkpt lat="45.9791133" lon="8.7420504"><ele>205.33333333333331</ele><time>2026-03-28T15:11:51.438Z</time></trkpt><trkpt lat="45.9789598" lon="8.742145"><ele>207.0</ele><time>2026-03-28T15:11:52.438Z</time></trkpt><trkpt lat="45.9788082" lon="8.7422549"><ele>207.0</ele><time>2026-03-28T15:11:53.438Z</time></trkpt><trkpt lat="45.9786592" lon="8.7423795"><ele>207.0</ele><time>2026-03-28T15:11:54.438Z</time></trkpt><trkpt lat="45.9785127" lon="8.7425184"><ele>207.0</ele><time>2026-03-28T15:11:55.437Z</time></trkpt><trkpt lat="45.9783669" lon="8.74266"><ele>207.33333333333331</ele><time>2026-03-28T15:11:56.437Z</time></trkpt><trkpt lat="45.9782249" lon="8.7428082"><ele>207.66666666666666</ele><time>2026-03-28T15:11:57.437Z</time></trkpt><trkpt lat="45.9780792" lon="8.7429562"><ele>208.0</ele><time>2026-03-28T15:11:58.438Z</time></trkpt><trkpt lat="45.9779271" lon="8.7431039"><ele>208.0</ele><time>2026-03-28T15:11:59.438Z</time></trkpt><trkpt lat="45.977769" lon="8.7432385"><ele>208.0</ele><time>2026-03-28T15:12:00.437Z</time></trkpt><trkpt lat="45.9776006" lon="8.7433654"><ele>208.0</ele><time>2026-03-28T15:12:01.437Z</time></trkpt><trkpt lat="45.977432" lon="8.7434883"><ele>207.33333333333331</ele><time>2026-03-28T15:12:02.437Z</time></trkpt><trkpt lat="45.9772664" lon="8.7436124"><ele>206.66666666666669</ele><time>2026-03-28T15:12:03.438Z</time></trkpt><trkpt lat="45.9770986" lon="8.7437404"><ele>206.0</ele><time>2026-03-28T15:12:04.438Z</time></trkpt><trkpt lat="45.9769373" lon="8.7438798"><ele>206.0</ele><time>2026-03-28T15:12:05.437Z</time></trkpt><trkpt lat="45.976779" lon="8.7440294"><ele>206.0</ele><time>2026-03-28T15:12:06.438Z</time></trkpt><trkpt lat="45.9766267" lon="8.7441912"><ele>206.0</ele><time>2026-03-28T15:12:07.438Z</time></trkpt><trkpt lat="45.9764796" lon="8.7443546"><ele>205.66666666666669</ele><time>2026-03-28T15:12:08.437Z</time></trkpt><trkpt lat="45.9763306" lon="8.7445251"><ele>205.33333333333331</ele><time>2026-03-28T15:12:09.438Z</time></trkpt><trkpt lat="45.9761841" lon="8.7446912"><ele>205.0</ele><time>2026-03-28T15:12:10.438Z</time></trkpt><trkpt lat="45.9760429" lon="8.7448588"><ele>205.0</ele><time>2026-03-28T15:12:11.437Z</time></trkpt><trkpt lat="45.975902" lon="8.7450175"><ele>205.0</ele><time>2026-03-28T15:12:12.438Z</time></trkpt><trkpt lat="45.9757625" lon="8.7451758"><ele>205.0</ele><time>2026-03-28T15:12:13.437Z</time></trkpt><trkpt lat="45.9756186" lon="8.7453272"><ele>206.33333333333331</ele><time>2026-03-28T15:12:14.438Z</time></trkpt><trkpt lat="45.9754706" lon="8.7454711"><ele>207.66666666666669</ele><time>2026-03-28T15:12:15.437Z</time></trkpt><trkpt lat="45.9753161" lon="8.7456021"><ele>209.0</ele><time>2026-03-28T15:12:16.438Z</time></trkpt><trkpt lat="45.9751586" lon="8.7457277"><ele>207.66666666666669</ele><time>2026-03-28T15:12:17.438Z</time></trkpt><trkpt lat="45.9749918" lon="8.7458421"><ele>206.33333333333331</ele><time>2026-03-28T15:12:18.437Z</time></trkpt><trkpt lat="45.9748273" lon="8.7459528"><ele>205.0</ele><time>2026-03-28T15:12:19.438Z</time></trkpt><trkpt lat="45.9746534" lon="8.7460631"><ele>205.0</ele><time>2026-03-28T15:12:20.438Z</time></trkpt><trkpt lat="45.9744816" lon="8.7461771"><ele>205.0</ele><time>2026-03-28T15:12:21.437Z</time></trkpt><trkpt lat="45.9743099" lon="8.7462937"><ele>205.0</ele><time>2026-03-28T15:12:22.438Z</time></trkpt><trkpt lat="45.9741459" lon="8.7464166"><ele>208.0</ele><time>2026-03-28T15:12:23.437Z</time></trkpt><trkpt lat="45.9739922" lon="8.7465536"><ele>211.0</ele><time>2026-03-28T15:12:24.437Z</time></trkpt><trkpt lat="45.9738453" lon="8.7467042"><ele>214.0</ele><time>2026-03-28T15:12:25.438Z</time></trkpt><trkpt lat="45.9736979" lon="8.7468582"><ele>214.66666666666666</ele><time>2026-03-28T15:12:26.438Z</time></trkpt><trkpt lat="45.9735527" lon="8.7470037"><ele>215.33333333333331</ele><time>2026-03-28T15:12:27.437Z</time></trkpt><trkpt lat="45.9734022" lon="8.747138"><ele>216.0</ele><time>2026-03-28T15:12:28.437Z</time></trkpt><trkpt lat="45.9732417" lon="8.7472609"><ele>216.0</ele><time>2026-03-28T15:12:29.438Z</time></trkpt><trkpt lat="45.9730806" lon="8.7473872"><ele>216.0</ele><time>2026-03-28T15:12:30.437Z</time></trkpt><trkpt lat="45.972922" lon="8.7475158"><ele>216.0</ele><time>2026-03-28T15:12:31.437Z</time></trkpt><trkpt lat="45.9727629" lon="8.7476461"><ele>214.66666666666669</ele><time>2026-03-28T15:12:32.438Z</time></trkpt><trkpt lat="45.9725997" lon="8.7477707"><ele>213.33333333333334</ele><time>2026-03-28T15:12:33.437Z</time></trkpt><trkpt lat="45.9724302" lon="8.7478811"><ele>212.0</ele><time>2026-03-28T15:12:34.438Z</time></trkpt><trkpt lat="45.9722582" lon="8.7479817"><ele>212.0</ele><time>2026-03-28T15:12:35.438Z</time></trkpt><trkpt lat="45.9720782" lon="8.7480647"><ele>212.0</ele><time>2026-03-28T15:12:36.437Z</time></trkpt><trkpt lat="45.9718985" lon="8.7481333"><ele>212.0</ele><time>2026-03-28T15:12:37.438Z</time></trkpt><trkpt lat="45.9717169" lon="8.7481815"><ele>214.0</ele><time>2026-03-28T15:12:38.438Z</time></trkpt><trkpt lat="45.9715334" lon="8.7482128"><ele>216.0</ele><time>2026-03-28T15:12:39.437Z</time></trkpt><trkpt lat="45.9713474" lon="8.7482417"><ele>218.0</ele><time>2026-03-28T15:12:40.438Z</time></trkpt><trkpt lat="45.9711639" lon="8.7482764"><ele>218.0</ele><time>2026-03-28T15:12:41.437Z</time></trkpt><trkpt lat="45.970985" lon="8.7483339"><ele>218.0</ele><time>2026-03-28T15:12:42.438Z</time></trkpt><trkpt lat="45.9708106" lon="8.7484135"><ele>218.0</ele><time>2026-03-28T15:12:43.438Z</time></trkpt><trkpt lat="45.9706432" lon="8.7485056"><ele>214.33333333333334</ele><time>2026-03-28T15:12:44.437Z</time></trkpt><trkpt lat="45.9704791" lon="8.7486031"><ele>210.66666666666669</ele><time>2026-03-28T15:12:45.437Z</time></trkpt><trkpt lat="45.9703195" lon="8.7486924"><ele>207.0</ele><time>2026-03-28T15:12:46.438Z</time></trkpt><trkpt lat="45.9701635" lon="8.7487826"><ele>208.33333333333331</ele><time>2026-03-28T15:12:47.438Z</time></trkpt><trkpt lat="45.9700081" lon="8.7488739"><ele>209.66666666666666</ele><time>2026-03-28T15:12:48.437Z</time></trkpt><trkpt lat="45.9698537" lon="8.7489658"><ele>211.0</ele><time>2026-03-28T15:12:49.437Z</time></trkpt><trkpt lat="45.9697042" lon="8.7490553"><ele>211.0</ele><time>2026-03-28T15:12:50.438Z</time></trkpt><trkpt lat="45.9695514" lon="8.7491493"><ele>211.0</ele><time>2026-03-28T15:12:51.438Z</time></trkpt><trkpt lat="45.9694013" lon="8.7492488"><ele>211.0</ele><time>2026-03-28T15:12:52.437Z</time></trkpt><trkpt lat="45.9692506" lon="8.7493517"><ele>210.33333333333331</ele><time>2026-03-28T15:12:53.438Z</time></trkpt><trkpt lat="45.9691016" lon="8.7494505"><ele>209.66666666666669</ele><time>2026-03-28T15:12:54.438Z</time></trkpt><trkpt lat="45.968956" lon="8.7495476"><ele>209.0</ele><time>2026-03-28T15:12:55.437Z</time></trkpt><trkpt lat="45.9688121" lon="8.7496508"><ele>209.0</ele><time>2026-03-28T15:12:56.438Z</time></trkpt><trkpt lat="45.9686719" lon="8.7497475"><ele>209.0</ele><time>2026-03-28T15:12:57.438Z</time></trkpt><trkpt lat="45.9685307" lon="8.7498465"><ele>209.0</ele><time>2026-03-28T15:12:58.437Z</time></trkpt><trkpt lat="45.9683919" lon="8.7499431"><ele>209.33333333333334</ele><time>2026-03-28T15:12:59.438Z</time></trkpt><trkpt lat="45.9682569" lon="8.7500384"><ele>209.66666666666669</ele><time>2026-03-28T15:13:00.438Z</time></trkpt><trkpt lat="45.9681217" lon="8.750137"><ele>210.0</ele><time>2026-03-28T15:13:01.437Z</time></trkpt><trkpt lat="45.9679865" lon="8.750235"><ele>210.33333333333331</ele><time>2026-03-28T15:13:02.438Z</time></trkpt><trkpt lat="45.9678509" lon="8.7503318"><ele>210.66666666666666</ele><time>2026-03-28T15:13:03.437Z</time></trkpt><trkpt lat="45.9677148" lon="8.7504265"><ele>211.0</ele><time>2026-03-28T15:13:04.437Z</time></trkpt><trkpt lat="45.9675771" lon="8.7505227"><ele>210.66666666666666</ele><time>2026-03-28T15:13:05.437Z</time></trkpt><trkpt lat="45.9674425" lon="8.7506227"><ele>210.33333333333331</ele><time>2026-03-28T15:13:06.438Z</time></trkpt><trkpt lat="45.9673086" lon="8.7507207"><ele>210.0</ele><time>2026-03-28T15:13:07.437Z</time></trkpt><trkpt lat="45.9671732" lon="8.7508255"><ele>210.0</ele><time>2026-03-28T15:13:08.437Z</time></trkpt><trkpt lat="45.9670369" lon="8.7509214"><ele>210.0</ele><time>2026-03-28T15:13:09.437Z</time></trkpt><trkpt lat="45.9668988" lon="8.7510168"><ele>210.0</ele><time>2026-03-28T15:13:10.437Z</time></trkpt><trkpt lat="45.9667605" lon="8.7511142"><ele>210.66666666666669</ele><time>2026-03-28T15:13:11.438Z</time></trkpt><trkpt lat="45.9666189" lon="8.7512137"><ele>211.33333333333334</ele><time>2026-03-28T15:13:12.438Z</time></trkpt><trkpt lat="45.9664801" lon="8.751312"><ele>212.0</ele><time>2026-03-28T15:13:13.437Z</time></trkpt><trkpt lat="45.9663422" lon="8.7514087"><ele>212.0</ele><time>2026-03-28T15:13:14.437Z</time></trkpt><trkpt lat="45.9662034" lon="8.7515199"><ele>212.0</ele><time>2026-03-28T15:13:15.437Z</time></trkpt><trkpt lat="45.9660706" lon="8.7516359"><ele>212.0</ele><time>2026-03-28T15:13:16.438Z</time></trkpt><trkpt lat="45.9659389" lon="8.7517676"><ele>213.0</ele><time>2026-03-28T15:13:17.438Z</time></trkpt><trkpt lat="45.9658102" lon="8.7518963"><ele>214.0</ele><time>2026-03-28T15:13:18.438Z</time></trkpt><trkpt lat="45.96568" lon="8.7520264"><ele>215.0</ele><time>2026-03-28T15:13:19.438Z</time></trkpt><trkpt lat="45.9655512" lon="8.752158"><ele>215.0</ele><time>2026-03-28T15:13:20.437Z</time></trkpt><trkpt lat="45.9654243" lon="8.752287"><ele>215.0</ele><time>2026-03-28T15:13:21.437Z</time></trkpt><trkpt lat="45.9652964" lon="8.7524174"><ele>215.0</ele><time>2026-03-28T15:13:22.437Z</time></trkpt><trkpt lat="45.9651687" lon="8.7525441"><ele>215.0</ele><time>2026-03-28T15:13:23.438Z</time></trkpt><trkpt lat="45.9650391" lon="8.7526685"><ele>215.0</ele><time>2026-03-28T15:13:24.438Z</time></trkpt><trkpt lat="45.9649095" lon="8.7527929"><ele>215.0</ele><time>2026-03-28T15:13:25.437Z</time></trkpt><trkpt lat="45.964781" lon="8.7529195"><ele>215.33333333333334</ele><time>2026-03-28T15:13:26.437Z</time></trkpt><trkpt lat="45.9646513" lon="8.7530415"><ele>215.66666666666669</ele><time>2026-03-28T15:13:27.438Z</time></trkpt><trkpt lat="45.9645242" lon="8.7531604"><ele>216.0</ele><time>2026-03-28T15:13:28.438Z</time></trkpt><trkpt lat="45.9643969" lon="8.7532785"><ele>216.0</ele><time>2026-03-28T15:13:29.437Z</time></trkpt><trkpt lat="45.9642669" lon="8.7533952"><ele>216.0</ele><time>2026-03-28T15:13:30.438Z</time></trkpt><trkpt lat="45.9641404" lon="8.7535055"><ele>216.0</ele><time>2026-03-28T15:13:31.437Z</time></trkpt><trkpt lat="45.9640073" lon="8.7536181"><ele>216.5</ele><time>2026-03-28T15:13:32.437Z</time></trkpt><trkpt lat="45.963878" lon="8.7537284"><ele>217.0</ele><time>2026-03-28T15:13:33.438Z</time></trkpt><trkpt lat="45.9637481" lon="8.7538336"><ele>217.5</ele><time>2026-03-28T15:13:34.437Z</time></trkpt><trkpt lat="45.9636166" lon="8.7539313"><ele>218.0</ele><time>2026-03-28T15:13:35.437Z</time></trkpt><trkpt lat="45.9634873" lon="8.754037"><ele>218.75</ele><time>2026-03-28T15:13:36.438Z</time></trkpt><trkpt lat="45.9633562" lon="8.7541383"><ele>219.5</ele><time>2026-03-28T15:13:37.438Z</time></trkpt><trkpt lat="45.9632333" lon="8.7542349"><ele>220.25</ele><time>2026-03-28T15:13:38.437Z</time></trkpt><trkpt lat="45.9631186" lon="8.7543219"><ele>221.0</ele><time>2026-03-28T15:13:39.438Z</time></trkpt><trkpt lat="45.9630133" lon="8.7544071"><ele>221.00000000000003</ele><time>2026-03-28T15:13:40.437Z</time></trkpt><trkpt lat="45.9629245" lon="8.7544785"><ele>221.0</ele><time>2026-03-28T15:13:41.438Z</time></trkpt><trkpt lat="45.9628483" lon="8.7545367"><ele>221.0</ele><time>2026-03-28T15:13:42.437Z</time></trkpt><trkpt lat="45.9627829" lon="8.7545707"><ele>221.0</ele><time>2026-03-28T15:13:43.438Z</time></trkpt><trkpt lat="45.9627191" lon="8.7545906"><ele>221.00000000000003</ele><time>2026-03-28T15:13:44.437Z</time></trkpt><trkpt lat="45.9626522" lon="8.7546036"><ele>221.0</ele><time>2026-03-28T15:13:45.438Z</time></trkpt><trkpt lat="45.9625457" lon="8.754706"><ele>221.4</ele><time>2026-03-28T15:13:47.437Z</time></trkpt><trkpt lat="45.962487" lon="8.7547855"><ele>221.8</ele><time>2026-03-28T15:13:48.438Z</time></trkpt><trkpt lat="45.9624107" lon="8.7548569"><ele>222.20000000000002</ele><time>2026-03-28T15:13:49.437Z</time></trkpt><trkpt lat="45.9623217" lon="8.7549329"><ele>222.60000000000002</ele><time>2026-03-28T15:13:50.438Z</time></trkpt><trkpt lat="45.9622267" lon="8.7550087"><ele>223.0</ele><time>2026-03-28T15:13:51.438Z</time></trkpt><trkpt lat="45.9621254" lon="8.7550836"><ele>223.0</ele><time>2026-03-28T15:13:52.438Z</time></trkpt><trkpt lat="45.9620239" lon="8.7551713"><ele>223.0</ele><time>2026-03-28T15:13:53.437Z</time></trkpt><trkpt lat="45.9619181" lon="8.7552555"><ele>223.0</ele><time>2026-03-28T15:13:54.438Z</time></trkpt><trkpt lat="45.9618094" lon="8.7553448"><ele>223.0</ele><time>2026-03-28T15:13:55.438Z</time></trkpt><trkpt lat="45.9616935" lon="8.7554346"><ele>223.0</ele><time>2026-03-28T15:13:56.437Z</time></trkpt><trkpt lat="45.961572" lon="8.7555217"><ele>223.0</ele><time>2026-03-28T15:13:57.437Z</time></trkpt><trkpt lat="45.9614515" lon="8.7556155"><ele>223.0</ele><time>2026-03-28T15:13:58.438Z</time></trkpt><trkpt lat="45.9613242" lon="8.7557153"><ele>223.0</ele><time>2026-03-28T15:13:59.437Z</time></trkpt><trkpt lat="45.9611952" lon="8.7558193"><ele>223.0</ele><time>2026-03-28T15:14:00.438Z</time></trkpt><trkpt lat="45.9610638" lon="8.7559193"><ele>223.0</ele><time>2026-03-28T15:14:01.438Z</time></trkpt><trkpt lat="45.9609428" lon="8.7560225"><ele>223.0</ele><time>2026-03-28T15:14:02.437Z</time></trkpt><trkpt lat="45.9608327" lon="8.7561301"><ele>223.0</ele><time>2026-03-28T15:14:03.438Z</time></trkpt><trkpt lat="45.9607323" lon="8.7562447"><ele>222.5</ele><time>2026-03-28T15:14:04.437Z</time></trkpt><trkpt lat="45.960642" lon="8.7563667"><ele>222.0</ele><time>2026-03-28T15:14:05.438Z</time></trkpt><trkpt lat="45.9605602" lon="8.7564805"><ele>221.5</ele><time>2026-03-28T15:14:06.437Z</time></trkpt><trkpt lat="45.960482" lon="8.7565962"><ele>221.0</ele><time>2026-03-28T15:14:07.437Z</time></trkpt><trkpt lat="45.9604056" lon="8.7567112"><ele>221.0</ele><time>2026-03-28T15:14:08.437Z</time></trkpt><trkpt lat="45.9603239" lon="8.756828"><ele>221.0</ele><time>2026-03-28T15:14:09.438Z</time></trkpt><trkpt lat="45.9602423" lon="8.7569441"><ele>221.0</ele><time>2026-03-28T15:14:10.438Z</time></trkpt><trkpt lat="45.9601559" lon="8.7570728"><ele>221.0</ele><time>2026-03-28T15:14:11.437Z</time></trkpt><trkpt lat="45.9600695" lon="8.7572035"><ele>221.0</ele><time>2026-03-28T15:14:12.438Z</time></trkpt><trkpt lat="45.9599776" lon="8.7573304"><ele>221.0</ele><time>2026-03-28T15:14:13.438Z</time></trkpt><trkpt lat="45.9598897" lon="8.757453"><ele>221.0</ele><time>2026-03-28T15:14:14.437Z</time></trkpt><trkpt lat="45.9598065" lon="8.7575665"><ele>221.0</ele><time>2026-03-28T15:14:15.437Z</time></trkpt><trkpt lat="45.9597273" lon="8.7576805"><ele>220.5</ele><time>2026-03-28T15:14:16.438Z</time></trkpt><trkpt lat="45.9596481" lon="8.7577916"><ele>220.0</ele><time>2026-03-28T15:14:17.437Z</time></trkpt><trkpt lat="45.9595689" lon="8.7579065"><ele>219.5</ele><time>2026-03-28T15:14:18.437Z</time></trkpt><trkpt lat="45.9594909" lon="8.7580248"><ele>219.0</ele><time>2026-03-28T15:14:19.437Z</time></trkpt><trkpt lat="45.9594073" lon="8.7581445"><ele>219.0</ele><time>2026-03-28T15:14:20.438Z</time></trkpt><trkpt lat="45.9593213" lon="8.7582655"><ele>219.0</ele><time>2026-03-28T15:14:21.437Z</time></trkpt><trkpt lat="45.959235" lon="8.7583884"><ele>219.0</ele><time>2026-03-28T15:14:22.437Z</time></trkpt><trkpt lat="45.9591489" lon="8.7585057"><ele>219.0</ele><time>2026-03-28T15:14:23.437Z</time></trkpt><trkpt lat="45.9590648" lon="8.7586251"><ele>220.0</ele><time>2026-03-28T15:14:24.438Z</time></trkpt><trkpt lat="45.9589831" lon="8.7587396"><ele>220.99999999999997</ele><time>2026-03-28T15:14:25.438Z</time></trkpt><trkpt lat="45.9589057" lon="8.7588498"><ele>221.99999999999997</ele><time>2026-03-28T15:14:26.436Z</time></trkpt><trkpt lat="45.958835" lon="8.7589556"><ele>223.0</ele><time>2026-03-28T15:14:27.436Z</time></trkpt><trkpt lat="45.9587654" lon="8.7590492"><ele>224.0</ele><time>2026-03-28T15:14:28.436Z</time></trkpt><trkpt lat="45.9587018" lon="8.7591354"><ele>224.0</ele><time>2026-03-28T15:14:29.437Z</time></trkpt><trkpt lat="45.958641" lon="8.7592228"><ele>223.99999999999997</ele><time>2026-03-28T15:14:30.436Z</time></trkpt><trkpt lat="45.9585785" lon="8.7593061"><ele>223.99999999999997</ele><time>2026-03-28T15:14:31.437Z</time></trkpt><trkpt lat="45.9585129" lon="8.7593965"><ele>224.0</ele><time>2026-03-28T15:14:32.436Z</time></trkpt><trkpt lat="45.9584436" lon="8.759487"><ele>224.0</ele><time>2026-03-28T15:14:33.436Z</time></trkpt><trkpt lat="45.9583694" lon="8.7595806"><ele>223.6</ele><time>2026-03-28T15:14:34.437Z</time></trkpt><trkpt lat="45.9582875" lon="8.7596812"><ele>223.2</ele><time>2026-03-28T15:14:35.437Z</time></trkpt><trkpt lat="45.9582038" lon="8.7597879"><ele>222.79999999999998</ele><time>2026-03-28T15:14:36.436Z</time></trkpt><trkpt lat="45.9581173" lon="8.759895"><ele>222.39999999999998</ele><time>2026-03-28T15:14:37.437Z</time></trkpt><trkpt lat="45.9580445" lon="8.7599896"><ele>222.0</ele><time>2026-03-28T15:14:38.436Z</time></trkpt><trkpt lat="45.9579806" lon="8.7600675"><ele>222.0</ele><time>2026-03-28T15:14:39.437Z</time></trkpt><trkpt lat="45.9579316" lon="8.7601319"><ele>222.0</ele><time>2026-03-28T15:14:40.436Z</time></trkpt><trkpt lat="45.9578552" lon="8.7602234"><ele>222.0</ele><time>2026-03-28T15:14:42.437Z</time></trkpt><trkpt lat="45.9577814" lon="8.7603078"><ele>222.0</ele><time>2026-03-28T15:14:44.437Z</time></trkpt><trkpt lat="45.9577213" lon="8.760379"><ele>222.0</ele><time>2026-03-28T15:14:46.437Z</time></trkpt><trkpt lat="45.9576688" lon="8.7604583"><ele>222.0</ele><time>2026-03-28T15:14:48.436Z</time></trkpt><trkpt lat="45.9575986" lon="8.7605461"><ele>222.33333333333334</ele><time>2026-03-28T15:14:50.437Z</time></trkpt><trkpt lat="45.9575271" lon="8.7606203"><ele>222.66666666666669</ele><time>2026-03-28T15:14:52.437Z</time></trkpt><trkpt lat="45.9574735" lon="8.7606874"><ele>223.0</ele><time>2026-03-28T15:14:54.437Z</time></trkpt><trkpt lat="45.9573973" lon="8.7607379"><ele>223.33333333333334</ele><time>2026-03-28T15:14:56.436Z</time></trkpt><trkpt lat="45.9573256" lon="8.7607605"><ele>223.66666666666669</ele><time>2026-03-28T15:15:01.436Z</time></trkpt><trkpt lat="45.9572616" lon="8.7607765"><ele>224.0</ele><time>2026-03-28T15:15:05.437Z</time></trkpt><trkpt lat="45.9571947" lon="8.7608069"><ele>224.0</ele><time>2026-03-28T15:15:07.436Z</time></trkpt><trkpt lat="45.9571152" lon="8.760901"><ele>223.99999999999997</ele><time>2026-03-28T15:15:09.437Z</time></trkpt><trkpt lat="45.957062" lon="8.7610282"><ele>223.99999999999997</ele><time>2026-03-28T15:15:11.436Z</time></trkpt><trkpt lat="45.9570218" lon="8.7611589"><ele>224.0</ele><time>2026-03-28T15:15:13.437Z</time></trkpt><trkpt lat="45.9569633" lon="8.7612514"><ele>224.0</ele><time>2026-03-28T15:15:15.436Z</time></trkpt><trkpt lat="45.9568713" lon="8.7613494"><ele>224.14285714285714</ele><time>2026-03-28T15:15:17.436Z</time></trkpt><trkpt lat="45.956816" lon="8.7613988"><ele>224.28571428571428</ele><time>2026-03-28T15:15:18.437Z</time></trkpt><trkpt lat="45.956757" lon="8.7614497"><ele>224.42857142857144</ele><time>2026-03-28T15:15:19.437Z</time></trkpt><trkpt lat="45.9566962" lon="8.7614983"><ele>224.57142857142858</ele><time>2026-03-28T15:15:20.437Z</time></trkpt><trkpt lat="45.9566367" lon="8.7615527"><ele>224.71428571428572</ele><time>2026-03-28T15:15:21.436Z</time></trkpt><trkpt lat="45.956581" lon="8.7615991"><ele>224.8571428571429</ele><time>2026-03-28T15:15:22.436Z</time></trkpt><trkpt lat="45.9565227" lon="8.7616436"><ele>225.00000000000003</ele><time>2026-03-28T15:15:23.437Z</time></trkpt><trkpt lat="45.9564679" lon="8.761693"><ele>225.0</ele><time>2026-03-28T15:15:24.436Z</time></trkpt><trkpt lat="45.9564039" lon="8.7617422"><ele>225.0</ele><time>2026-03-28T15:15:25.436Z</time></trkpt><trkpt lat="45.9563426" lon="8.7617922"><ele>225.0</ele><time>2026-03-28T15:15:26.436Z</time></trkpt><trkpt lat="45.9562707" lon="8.761855"><ele>225.0</ele><time>2026-03-28T15:15:28.436Z</time></trkpt><trkpt lat="45.9562108" lon="8.7619071"><ele>225.0</ele><time>2026-03-28T15:15:36.436Z</time></trkpt><trkpt lat="45.9560927" lon="8.7620171"><ele>225.0</ele><time>2026-03-28T15:15:38.435Z</time></trkpt><trkpt lat="45.9560039" lon="8.7620934"><ele>225.25</ele><time>2026-03-28T15:15:39.436Z</time></trkpt><trkpt lat="45.9559088" lon="8.7621778"><ele>225.5</ele><time>2026-03-28T15:15:40.436Z</time></trkpt><trkpt lat="45.9558045" lon="8.7622579"><ele>225.75</ele><time>2026-03-28T15:15:41.436Z</time></trkpt><trkpt lat="45.9556799" lon="8.7623508"><ele>226.0</ele><time>2026-03-28T15:15:42.436Z</time></trkpt><trkpt lat="45.955552" lon="8.7624578"><ele>226.5</ele><time>2026-03-28T15:15:43.436Z</time></trkpt><trkpt lat="45.955427" lon="8.7625647"><ele>227.0</ele><time>2026-03-28T15:15:44.437Z</time></trkpt><trkpt lat="45.9553012" lon="8.7626786"><ele>227.5</ele><time>2026-03-28T15:15:45.436Z</time></trkpt><trkpt lat="45.9551779" lon="8.762792"><ele>228.0</ele><time>2026-03-28T15:15:46.436Z</time></trkpt><trkpt lat="45.9550535" lon="8.7629292"><ele>228.33333333333331</ele><time>2026-03-28T15:15:47.436Z</time></trkpt><trkpt lat="45.9549436" lon="8.76309"><ele>228.66666666666666</ele><time>2026-03-28T15:15:48.436Z</time></trkpt><trkpt lat="45.9548376" lon="8.7632644"><ele>229.0</ele><time>2026-03-28T15:15:49.437Z</time></trkpt><trkpt lat="45.9547349" lon="8.7634439"><ele>228.33333333333331</ele><time>2026-03-28T15:15:50.437Z</time></trkpt><trkpt lat="45.9546346" lon="8.7636222"><ele>227.66666666666669</ele><time>2026-03-28T15:15:51.435Z</time></trkpt><trkpt lat="45.9545318" lon="8.7637969"><ele>227.0</ele><time>2026-03-28T15:15:52.437Z</time></trkpt><trkpt lat="45.9544352" lon="8.7639652"><ele>227.0</ele><time>2026-03-28T15:15:53.437Z</time></trkpt><trkpt lat="45.9543445" lon="8.7641209"><ele>227.0</ele><time>2026-03-28T15:15:54.436Z</time></trkpt><trkpt lat="45.9542632" lon="8.7642688"><ele>227.0</ele><time>2026-03-28T15:15:55.436Z</time></trkpt><trkpt lat="45.9541872" lon="8.7644051"><ele>227.0</ele><time>2026-03-28T15:15:56.437Z</time></trkpt><trkpt lat="45.9541136" lon="8.7645256"><ele>227.8</ele><time>2026-03-28T15:15:57.436Z</time></trkpt><trkpt lat="45.9540324" lon="8.7646026"><ele>228.6</ele><time>2026-03-28T15:15:58.437Z</time></trkpt><trkpt lat="45.9539507" lon="8.7646619"><ele>229.40000000000003</ele><time>2026-03-28T15:15:59.437Z</time></trkpt><trkpt lat="45.9538644" lon="8.7646901"><ele>230.20000000000002</ele><time>2026-03-28T15:16:00.437Z</time></trkpt><trkpt lat="45.9537664" lon="8.7647073"><ele>231.0</ele><time>2026-03-28T15:16:01.436Z</time></trkpt><trkpt lat="45.95366" lon="8.7647533"><ele>231.0</ele><time>2026-03-28T15:16:02.436Z</time></trkpt><trkpt lat="45.9535619" lon="8.7648227"><ele>231.00000000000003</ele><time>2026-03-28T15:16:03.436Z</time></trkpt><trkpt lat="45.9534699" lon="8.7649156"><ele>231.00000000000003</ele><time>2026-03-28T15:16:04.436Z</time></trkpt><trkpt lat="45.953385" lon="8.7649953"><ele>231.0</ele><time>2026-03-28T15:16:05.436Z</time></trkpt><trkpt lat="45.9532936" lon="8.7650662"><ele>231.0</ele><time>2026-03-28T15:16:06.436Z</time></trkpt><trkpt lat="45.9531931" lon="8.7651219"><ele>231.75</ele><time>2026-03-28T15:16:07.437Z</time></trkpt><trkpt lat="45.9530838" lon="8.7651549"><ele>232.5</ele><time>2026-03-28T15:16:08.437Z</time></trkpt><trkpt lat="45.9529727" lon="8.7651766"><ele>233.25</ele><time>2026-03-28T15:16:09.436Z</time></trkpt><trkpt lat="45.9528576" lon="8.7651791"><ele>234.0</ele><time>2026-03-28T15:16:10.436Z</time></trkpt><trkpt lat="45.9527454" lon="8.7651742"><ele>234.0</ele><time>2026-03-28T15:16:11.436Z</time></trkpt><trkpt lat="45.9526448" lon="8.7651688"><ele>233.99999999999997</ele><time>2026-03-28T15:16:12.436Z</time></trkpt><trkpt lat="45.9525441" lon="8.7651646"><ele>233.99999999999997</ele><time>2026-03-28T15:16:13.436Z</time></trkpt><trkpt lat="45.9524433" lon="8.7651617"><ele>234.0</ele><time>2026-03-28T15:16:14.436Z</time></trkpt><trkpt lat="45.95234" lon="8.7651568"><ele>234.0</ele><time>2026-03-28T15:16:15.437Z</time></trkpt><trkpt lat="45.9522356" lon="8.76515"><ele>235.0</ele><time>2026-03-28T15:16:16.437Z</time></trkpt><trkpt lat="45.9521321" lon="8.7651417"><ele>235.99999999999997</ele><time>2026-03-28T15:16:17.436Z</time></trkpt><trkpt lat="45.9520246" lon="8.7651385"><ele>236.99999999999997</ele><time>2026-03-28T15:16:18.436Z</time></trkpt><trkpt lat="45.951918" lon="8.765129"><ele>238.0</ele><time>2026-03-28T15:16:19.436Z</time></trkpt><trkpt lat="45.9518102" lon="8.7651276"><ele>239.0</ele><time>2026-03-28T15:16:20.437Z</time></trkpt><trkpt lat="45.9517027" lon="8.7651303"><ele>239.25</ele><time>2026-03-28T15:16:21.436Z</time></trkpt><trkpt lat="45.9515903" lon="8.7651581"><ele>239.5</ele><time>2026-03-28T15:16:22.436Z</time></trkpt><trkpt lat="45.9514681" lon="8.7651988"><ele>239.75</ele><time>2026-03-28T15:16:23.437Z</time></trkpt><trkpt lat="45.9513489" lon="8.7652521"><ele>240.0</ele><time>2026-03-28T15:16:24.436Z</time></trkpt><trkpt lat="45.9512308" lon="8.7653081"><ele>240.0</ele><time>2026-03-28T15:16:25.436Z</time></trkpt><trkpt lat="45.9511206" lon="8.7653601"><ele>240.0</ele><time>2026-03-28T15:16:26.436Z</time></trkpt><trkpt lat="45.9510111" lon="8.7654178"><ele>240.0</ele><time>2026-03-28T15:16:27.437Z</time></trkpt><trkpt lat="45.9509057" lon="8.7654717"><ele>240.0</ele><time>2026-03-28T15:16:28.437Z</time></trkpt><trkpt lat="45.9508109" lon="8.7655186"><ele>240.0</ele><time>2026-03-28T15:16:29.436Z</time></trkpt><trkpt lat="45.9507121" lon="8.7655617"><ele>240.0</ele><time>2026-03-28T15:16:30.437Z</time></trkpt><trkpt lat="45.9506223" lon="8.7656059"><ele>240.0</ele><time>2026-03-28T15:16:31.437Z</time></trkpt><trkpt lat="45.9505303" lon="8.7656456"><ele>240.0</ele><time>2026-03-28T15:16:32.436Z</time></trkpt><trkpt lat="45.9504298" lon="8.7656778"><ele>240.0</ele><time>2026-03-28T15:16:33.437Z</time></trkpt><trkpt lat="45.9503285" lon="8.7657079"><ele>240.0</ele><time>2026-03-28T15:16:34.437Z</time></trkpt><trkpt lat="45.9502263" lon="8.7657341"><ele>240.0</ele><time>2026-03-28T15:16:35.436Z</time></trkpt><trkpt lat="45.950122" lon="8.765759"><ele>240.0</ele><time>2026-03-28T15:16:36.436Z</time></trkpt><trkpt lat="45.9500159" lon="8.7657904"><ele>240.0</ele><time>2026-03-28T15:16:37.436Z</time></trkpt><trkpt lat="45.9499071" lon="8.7658203"><ele>240.0</ele><time>2026-03-28T15:16:38.436Z</time></trkpt><trkpt lat="45.9497955" lon="8.7658528"><ele>240.0</ele><time>2026-03-28T15:16:39.437Z</time></trkpt><trkpt lat="45.9496863" lon="8.7659011"><ele>240.25</ele><time>2026-03-28T15:16:40.437Z</time></trkpt><trkpt lat="45.949577" lon="8.7659667"><ele>240.5</ele><time>2026-03-28T15:16:41.436Z</time></trkpt><trkpt lat="45.9494728" lon="8.7660435"><ele>240.75</ele><time>2026-03-28T15:16:42.437Z</time></trkpt><trkpt lat="45.9493755" lon="8.7661365"><ele>241.0</ele><time>2026-03-28T15:16:43.437Z</time></trkpt><trkpt lat="45.9492826" lon="8.7662293"><ele>241.4</ele><time>2026-03-28T15:16:44.436Z</time></trkpt><trkpt lat="45.9491984" lon="8.7663199"><ele>241.8</ele><time>2026-03-28T15:16:45.437Z</time></trkpt><trkpt lat="45.9491107" lon="8.7664095"><ele>242.20000000000002</ele><time>2026-03-28T15:16:46.436Z</time></trkpt><trkpt lat="45.9490318" lon="8.766495"><ele>242.60000000000002</ele><time>2026-03-28T15:16:47.436Z</time></trkpt><trkpt lat="45.948949" lon="8.7665805"><ele>243.0</ele><time>2026-03-28T15:16:48.436Z</time></trkpt><trkpt lat="45.9488695" lon="8.7666645"><ele>243.0</ele><time>2026-03-28T15:16:49.437Z</time></trkpt><trkpt lat="45.9487899" lon="8.7667424"><ele>243.0</ele><time>2026-03-28T15:16:50.436Z</time></trkpt><trkpt lat="45.9487179" lon="8.766809"><ele>243.0</ele><time>2026-03-28T15:16:51.436Z</time></trkpt><trkpt lat="45.948647" lon="8.766869"><ele>243.0</ele><time>2026-03-28T15:16:52.436Z</time></trkpt><trkpt lat="45.9485773" lon="8.7669217"><ele>243.0</ele><time>2026-03-28T15:16:53.436Z</time></trkpt><trkpt lat="45.9485156" lon="8.76697"><ele>243.0</ele><time>2026-03-28T15:16:54.436Z</time></trkpt><trkpt lat="45.948416" lon="8.7670376"><ele>242.66666666666666</ele><time>2026-03-28T15:16:56.437Z</time></trkpt><trkpt lat="45.9483424" lon="8.7670982"><ele>242.33333333333331</ele><time>2026-03-28T15:16:58.437Z</time></trkpt><trkpt lat="45.9482509" lon="8.7671627"><ele>242.0</ele><time>2026-03-28T15:17:00.437Z</time></trkpt><trkpt lat="45.9481861" lon="8.7672043"><ele>241.66666666666666</ele><time>2026-03-28T15:17:01.437Z</time></trkpt><trkpt lat="45.9481138" lon="8.7672429"><ele>241.33333333333331</ele><time>2026-03-28T15:17:02.437Z</time></trkpt><trkpt lat="45.9480397" lon="8.7672758"><ele>241.0</ele><time>2026-03-28T15:17:03.436Z</time></trkpt><trkpt lat="45.9479675" lon="8.7672884"><ele>240.99999999999997</ele><time>2026-03-28T15:17:04.437Z</time></trkpt><trkpt lat="45.947852" lon="8.7673134"><ele>241.0</ele><time>2026-03-28T15:17:06.436Z</time></trkpt><trkpt lat="45.9478134" lon="8.7674343"><ele>241.0</ele><time>2026-03-28T15:17:08.437Z</time></trkpt><trkpt lat="45.9478761" lon="8.7675381"><ele>241.0</ele><time>2026-03-28T15:17:10.437Z</time></trkpt><trkpt lat="45.9479395" lon="8.7675557"><ele>240.99999999999997</ele><time>2026-03-28T15:17:11.436Z</time></trkpt><trkpt lat="45.9480087" lon="8.767565"><ele>241.0</ele><time>2026-03-28T15:17:12.436Z</time></trkpt><trkpt lat="45.9480767" lon="8.7675963"><ele>240.99999999999997</ele><time>2026-03-28T15:17:13.437Z</time></trkpt><trkpt lat="45.9481277" lon="8.7676617"><ele>241.0</ele><time>2026-03-28T15:17:14.437Z</time></trkpt><trkpt lat="45.9481628" lon="8.7677523"><ele>241.0</ele><time>2026-03-28T15:17:15.437Z</time></trkpt><trkpt lat="45.9481836" lon="8.7678723"><ele>241.0</ele><time>2026-03-28T15:17:16.437Z</time></trkpt><trkpt lat="45.9481989" lon="8.7680069"><ele>240.99999999999997</ele><time>2026-03-28T15:17:17.436Z</time></trkpt><trkpt lat="45.948208" lon="8.7681585"><ele>241.0</ele><time>2026-03-28T15:17:18.435Z</time></trkpt><trkpt lat="45.9482177" lon="8.7683251"><ele>240.0</ele><time>2026-03-28T15:17:19.436Z</time></trkpt><trkpt lat="45.9482269" lon="8.7685011"><ele>239.0</ele><time>2026-03-28T15:17:20.436Z</time></trkpt><trkpt lat="45.9482398" lon="8.7686904"><ele>238.0</ele><time>2026-03-28T15:17:21.436Z</time></trkpt><trkpt lat="45.9482516" lon="8.7688815"><ele>237.0</ele><time>2026-03-28T15:17:22.437Z</time></trkpt><trkpt lat="45.9482619" lon="8.7690838"><ele>236.5</ele><time>2026-03-28T15:17:23.437Z</time></trkpt><trkpt lat="45.9482699" lon="8.7692855"><ele>236.0</ele><time>2026-03-28T15:17:24.437Z</time></trkpt><trkpt lat="45.9482841" lon="8.7694906"><ele>235.5</ele><time>2026-03-28T15:17:25.437Z</time></trkpt><trkpt lat="45.9482967" lon="8.7696953"><ele>235.0</ele><time>2026-03-28T15:17:26.437Z</time></trkpt><trkpt lat="45.9483093" lon="8.7698928"><ele>235.0</ele><time>2026-03-28T15:17:27.436Z</time></trkpt><trkpt lat="45.9483195" lon="8.7700813"><ele>235.0</ele><time>2026-03-28T15:17:28.437Z</time></trkpt><trkpt lat="45.9483305" lon="8.7702615"><ele>235.0</ele><time>2026-03-28T15:17:29.436Z</time></trkpt><trkpt lat="45.9483415" lon="8.7704495"><ele>235.0</ele><time>2026-03-28T15:17:30.436Z</time></trkpt><trkpt lat="45.9483476" lon="8.7706341"><ele>235.75</ele><time>2026-03-28T15:17:31.436Z</time></trkpt><trkpt lat="45.9483572" lon="8.7708235"><ele>236.5</ele><time>2026-03-28T15:17:32.437Z</time></trkpt><trkpt lat="45.9483642" lon="8.7710097"><ele>237.25</ele><time>2026-03-28T15:17:33.437Z</time></trkpt><trkpt lat="45.9483733" lon="8.7711884"><ele>238.0</ele><time>2026-03-28T15:17:34.436Z</time></trkpt><trkpt lat="45.9483823" lon="8.7713599"><ele>238.75</ele><time>2026-03-28T15:17:35.436Z</time></trkpt><trkpt lat="45.9483908" lon="8.7715219"><ele>239.5</ele><time>2026-03-28T15:17:36.437Z</time></trkpt><trkpt lat="45.9484017" lon="8.7716873"><ele>240.25</ele><time>2026-03-28T15:17:37.436Z</time></trkpt><trkpt lat="45.9484086" lon="8.7718505"><ele>241.0</ele><time>2026-03-28T15:17:38.437Z</time></trkpt><trkpt lat="45.9484178" lon="8.7720181"><ele>241.25</ele><time>2026-03-28T15:17:39.437Z</time></trkpt><trkpt lat="45.9484266" lon="8.7721888"><ele>241.5</ele><time>2026-03-28T15:17:40.437Z</time></trkpt><trkpt lat="45.9484362" lon="8.7723616"><ele>241.75</ele><time>2026-03-28T15:17:41.436Z</time></trkpt><trkpt lat="45.948444" lon="8.7725296"><ele>242.0</ele><time>2026-03-28T15:17:42.437Z</time></trkpt><trkpt lat="45.9484538" lon="8.772704"><ele>243.0</ele><time>2026-03-28T15:17:43.437Z</time></trkpt><trkpt lat="45.948465" lon="8.7728767"><ele>244.0</ele><time>2026-03-28T15:17:44.436Z</time></trkpt><trkpt lat="45.9484724" lon="8.7730495"><ele>245.0</ele><time>2026-03-28T15:17:45.436Z</time></trkpt><trkpt lat="45.9484784" lon="8.7732216"><ele>246.0</ele><time>2026-03-28T15:17:46.436Z</time></trkpt><trkpt lat="45.948484" lon="8.7733939"><ele>246.60000000000002</ele><time>2026-03-28T15:17:47.436Z</time></trkpt><trkpt lat="45.9484919" lon="8.7735604"><ele>247.20000000000002</ele><time>2026-03-28T15:17:48.436Z</time></trkpt><trkpt lat="45.9484994" lon="8.7737189"><ele>247.79999999999998</ele><time>2026-03-28T15:17:49.437Z</time></trkpt><trkpt lat="45.9485076" lon="8.7738716"><ele>248.39999999999998</ele><time>2026-03-28T15:17:50.437Z</time></trkpt><trkpt lat="45.9485174" lon="8.7740264"><ele>249.0</ele><time>2026-03-28T15:17:51.437Z</time></trkpt><trkpt lat="45.9485241" lon="8.7741766"><ele>249.0</ele><time>2026-03-28T15:17:52.436Z</time></trkpt><trkpt lat="45.9485285" lon="8.7743278"><ele>248.99999999999997</ele><time>2026-03-28T15:17:53.437Z</time></trkpt><trkpt lat="45.9485354" lon="8.7744719"><ele>248.99999999999997</ele><time>2026-03-28T15:17:54.436Z</time></trkpt><trkpt lat="45.9485433" lon="8.7746113"><ele>249.0</ele><time>2026-03-28T15:17:55.437Z</time></trkpt><trkpt lat="45.948551" lon="8.7747448"><ele>249.0</ele><time>2026-03-28T15:17:56.436Z</time></trkpt><trkpt lat="45.9485596" lon="8.7748882"><ele>249.39999999999998</ele><time>2026-03-28T15:17:57.437Z</time></trkpt><trkpt lat="45.9485727" lon="8.7750302"><ele>249.79999999999998</ele><time>2026-03-28T15:17:58.436Z</time></trkpt><trkpt lat="45.9485996" lon="8.775187"><ele>250.20000000000002</ele><time>2026-03-28T15:17:59.437Z</time></trkpt><trkpt lat="45.9486325" lon="8.7753434"><ele>250.60000000000002</ele><time>2026-03-28T15:18:00.437Z</time></trkpt><trkpt lat="45.9486718" lon="8.7754958"><ele>251.0</ele><time>2026-03-28T15:18:01.436Z</time></trkpt><trkpt lat="45.9487095" lon="8.7756458"><ele>251.20000000000002</ele><time>2026-03-28T15:18:02.437Z</time></trkpt><trkpt lat="45.9487526" lon="8.7757881"><ele>251.40000000000003</ele><time>2026-03-28T15:18:03.437Z</time></trkpt><trkpt lat="45.9488107" lon="8.7759199"><ele>251.6</ele><time>2026-03-28T15:18:04.437Z</time></trkpt><trkpt lat="45.9488833" lon="8.7760446"><ele>251.8</ele><time>2026-03-28T15:18:05.437Z</time></trkpt><trkpt lat="45.948955" lon="8.7761454"><ele>252.0</ele><time>2026-03-28T15:18:06.436Z</time></trkpt><trkpt lat="45.9490088" lon="8.776243"><ele>252.66666666666666</ele><time>2026-03-28T15:18:07.436Z</time></trkpt><trkpt lat="45.9490335" lon="8.7763338"><ele>253.33333333333331</ele><time>2026-03-28T15:18:08.436Z</time></trkpt><trkpt lat="45.9490416" lon="8.7764777"><ele>254.0</ele><time>2026-03-28T15:18:10.436Z</time></trkpt><trkpt lat="45.9490314" lon="8.7765711"><ele>254.66666666666666</ele><time>2026-03-28T15:18:12.436Z</time></trkpt><trkpt lat="45.9490004" lon="8.7767165"><ele>255.33333333333331</ele><time>2026-03-28T15:18:14.436Z</time></trkpt><trkpt lat="45.9489757" lon="8.7768092"><ele>256.0</ele><time>2026-03-28T15:18:15.437Z</time></trkpt><trkpt lat="45.9489431" lon="8.776913"><ele>259.75</ele><time>2026-03-28T15:18:16.437Z</time></trkpt><trkpt lat="45.948893" lon="8.7770365"><ele>263.5</ele><time>2026-03-28T15:18:17.437Z</time></trkpt><trkpt lat="45.9488198" lon="8.7771711"><ele>267.25</ele><time>2026-03-28T15:18:18.436Z</time></trkpt><trkpt lat="45.9487395" lon="8.7773091"><ele>271.0</ele><time>2026-03-28T15:18:19.437Z</time></trkpt><trkpt lat="45.9486509" lon="8.7774475"><ele>271.0</ele><time>2026-03-28T15:18:20.437Z</time></trkpt><trkpt lat="45.9485657" lon="8.7775927"><ele>271.0</ele><time>2026-03-28T15:18:21.437Z</time></trkpt><trkpt lat="45.9484921" lon="8.7777232"><ele>271.0</ele><time>2026-03-28T15:18:22.437Z</time></trkpt><trkpt lat="45.9484306" lon="8.7778409"><ele>271.0</ele><time>2026-03-28T15:18:23.436Z</time></trkpt><trkpt lat="45.9483751" lon="8.7779489"><ele>271.0</ele><time>2026-03-28T15:18:24.437Z</time></trkpt><trkpt lat="45.9483193" lon="8.7780474"><ele>270.2</ele><time>2026-03-28T15:18:25.437Z</time></trkpt><trkpt lat="45.9482566" lon="8.7781281"><ele>269.40000000000003</ele><time>2026-03-28T15:18:26.437Z</time></trkpt><trkpt lat="45.9481873" lon="8.7782079"><ele>268.6</ele><time>2026-03-28T15:18:27.437Z</time></trkpt><trkpt lat="45.9481082" lon="8.7782825"><ele>267.8</ele><time>2026-03-28T15:18:28.436Z</time></trkpt><trkpt lat="45.9480198" lon="8.7783514"><ele>267.0</ele><time>2026-03-28T15:18:29.436Z</time></trkpt><trkpt lat="45.9479231" lon="8.7784059"><ele>267.0</ele><time>2026-03-28T15:18:30.437Z</time></trkpt><trkpt lat="45.9478181" lon="8.7784423"><ele>267.0</ele><time>2026-03-28T15:18:31.436Z</time></trkpt><trkpt lat="45.9477027" lon="8.7784723"><ele>267.0</ele><time>2026-03-28T15:18:32.437Z</time></trkpt><trkpt lat="45.9475775" lon="8.7785016"><ele>267.0</ele><time>2026-03-28T15:18:33.436Z</time></trkpt><trkpt lat="45.9474428" lon="8.7785358"><ele>270.75</ele><time>2026-03-28T15:18:34.437Z</time></trkpt><trkpt lat="45.9473165" lon="8.7785803"><ele>274.5</ele><time>2026-03-28T15:18:35.436Z</time></trkpt><trkpt lat="45.9471862" lon="8.7786197"><ele>278.25</ele><time>2026-03-28T15:18:36.436Z</time></trkpt><trkpt lat="45.9470665" lon="8.7786331"><ele>282.0</ele><time>2026-03-28T15:18:37.436Z</time></trkpt><trkpt lat="45.9469464" lon="8.778624"><ele>282.0</ele><time>2026-03-28T15:18:38.437Z</time></trkpt><trkpt lat="45.9468218" lon="8.7786342"><ele>282.0</ele><time>2026-03-28T15:18:39.437Z</time></trkpt><trkpt lat="45.9467014" lon="8.7786744"><ele>282.0</ele><time>2026-03-28T15:18:40.437Z</time></trkpt><trkpt lat="45.9465844" lon="8.7787302"><ele>282.0</ele><time>2026-03-28T15:18:41.437Z</time></trkpt><trkpt lat="45.9464657" lon="8.7787928"><ele>282.75</ele><time>2026-03-28T15:18:42.436Z</time></trkpt><trkpt lat="45.9463442" lon="8.7788579"><ele>283.5</ele><time>2026-03-28T15:18:43.436Z</time></trkpt><trkpt lat="45.946232" lon="8.7789179"><ele>284.25</ele><time>2026-03-28T15:18:44.436Z</time></trkpt><trkpt lat="45.9461344" lon="8.7789759"><ele>285.0</ele><time>2026-03-28T15:18:45.436Z</time></trkpt><trkpt lat="45.9460376" lon="8.7790323"><ele>285.0</ele><time>2026-03-28T15:18:46.436Z</time></trkpt><trkpt lat="45.9459483" lon="8.7790832"><ele>285.0</ele><time>2026-03-28T15:18:47.436Z</time></trkpt><trkpt lat="45.9458704" lon="8.7791305"><ele>285.0</ele><time>2026-03-28T15:18:48.435Z</time></trkpt><trkpt lat="45.9458045" lon="8.7791645"><ele>285.0</ele><time>2026-03-28T15:18:49.436Z</time></trkpt><trkpt lat="45.9456868" lon="8.7792071"><ele>285.0</ele><time>2026-03-28T15:18:51.437Z</time></trkpt><trkpt lat="45.9455816" lon="8.7792599"><ele>290.8</ele><time>2026-03-28T15:18:53.436Z</time></trkpt><trkpt lat="45.9455552" lon="8.7793922"><ele>296.6</ele><time>2026-03-28T15:18:55.437Z</time></trkpt><trkpt lat="45.945643" lon="8.7794624"><ele>302.4</ele><time>2026-03-28T15:18:57.437Z</time></trkpt><trkpt lat="45.9457159" lon="8.7794408"><ele>308.2</ele><time>2026-03-28T15:18:58.436Z</time></trkpt><trkpt lat="45.9458027" lon="8.7793995"><ele>314.0</ele><time>2026-03-28T15:18:59.437Z</time></trkpt><trkpt lat="45.9459059" lon="8.7793551"><ele>306.75</ele><time>2026-03-28T15:19:00.437Z</time></trkpt><trkpt lat="45.9460205" lon="8.7793135"><ele>299.5</ele><time>2026-03-28T15:19:01.437Z</time></trkpt><trkpt lat="45.9461361" lon="8.7792739"><ele>292.25</ele><time>2026-03-28T15:19:02.436Z</time></trkpt><trkpt lat="45.9462534" lon="8.7792528"><ele>285.0</ele><time>2026-03-28T15:19:03.436Z</time></trkpt><trkpt lat="45.9463698" lon="8.7792704"><ele>285.0</ele><time>2026-03-28T15:19:04.437Z</time></trkpt><trkpt lat="45.9464931" lon="8.779292"><ele>285.0</ele><time>2026-03-28T15:19:05.437Z</time></trkpt><trkpt lat="45.9466246" lon="8.7793301"><ele>285.0</ele><time>2026-03-28T15:19:06.436Z</time></trkpt><trkpt lat="45.9467539" lon="8.7793575"><ele>285.0</ele><time>2026-03-28T15:19:07.436Z</time></trkpt><trkpt lat="45.9468781" lon="8.7793811"><ele>289.6</ele><time>2026-03-28T15:19:08.437Z</time></trkpt><trkpt lat="45.9469947" lon="8.7793999"><ele>294.2</ele><time>2026-03-28T15:19:09.437Z</time></trkpt><trkpt lat="45.9471028" lon="8.7794265"><ele>298.8</ele><time>2026-03-28T15:19:10.436Z</time></trkpt><trkpt lat="45.947202" lon="8.7794728"><ele>303.4</ele><time>2026-03-28T15:19:11.437Z</time></trkpt><trkpt lat="45.9473036" lon="8.7795488"><ele>308.0</ele><time>2026-03-28T15:19:12.436Z</time></trkpt><trkpt lat="45.9474123" lon="8.7796196"><ele>308.0</ele><time>2026-03-28T15:19:13.436Z</time></trkpt><trkpt lat="45.9475287" lon="8.7796744"><ele>308.0</ele><time>2026-03-28T15:19:14.437Z</time></trkpt><trkpt lat="45.9476388" lon="8.7797239"><ele>308.0</ele><time>2026-03-28T15:19:15.437Z</time></trkpt><trkpt lat="45.9477403" lon="8.7797706"><ele>308.0</ele><time>2026-03-28T15:19:16.437Z</time></trkpt><trkpt lat="45.9478316" lon="8.7798078"><ele>308.0</ele><time>2026-03-28T15:19:17.437Z</time></trkpt><trkpt lat="45.9479079" lon="8.7798383"><ele>307.2857142857143</ele><time>2026-03-28T15:19:18.436Z</time></trkpt><trkpt lat="45.9479691" lon="8.7798639"><ele>306.57142857142856</ele><time>2026-03-28T15:19:19.436Z</time></trkpt><trkpt lat="45.9480605" lon="8.779876"><ele>305.8571428571429</ele><time>2026-03-28T15:19:21.437Z</time></trkpt><trkpt lat="45.9481413" lon="8.7798927"><ele>305.1428571428571</ele><time>2026-03-28T15:19:23.436Z</time></trkpt><trkpt lat="45.9482036" lon="8.7799113"><ele>304.42857142857144</ele><time>2026-03-28T15:19:25.436Z</time></trkpt><trkpt lat="45.9482548" lon="8.7799724"><ele>303.7142857142857</ele><time>2026-03-28T15:19:27.437Z</time></trkpt><trkpt lat="45.9482105" lon="8.7800558"><ele>303.0</ele><time>2026-03-28T15:19:29.436Z</time></trkpt><trkpt lat="45.9481163" lon="8.7800272"><ele>303.0</ele><time>2026-03-28T15:19:30.437Z</time></trkpt><trkpt lat="45.9480292" lon="8.7800206"><ele>303.0</ele><time>2026-03-28T15:19:31.437Z</time></trkpt><trkpt lat="45.9479219" lon="8.7800071"><ele>303.0</ele><time>2026-03-28T15:19:32.436Z</time></trkpt><trkpt lat="45.9478028" lon="8.7799935"><ele>303.0</ele><time>2026-03-28T15:19:33.437Z</time></trkpt><trkpt lat="45.9476722" lon="8.779979"><ele>303.0</ele><time>2026-03-28T15:19:34.437Z</time></trkpt><trkpt lat="45.9475418" lon="8.77995"><ele>304.25</ele><time>2026-03-28T15:19:35.436Z</time></trkpt><trkpt lat="45.9474135" lon="8.7799039"><ele>305.5</ele><time>2026-03-28T15:19:36.437Z</time></trkpt><trkpt lat="45.9472937" lon="8.7798394"><ele>306.75</ele><time>2026-03-28T15:19:37.436Z</time></trkpt><trkpt lat="45.947175" lon="8.7797706"><ele>308.0</ele><time>2026-03-28T15:19:38.436Z</time></trkpt><trkpt lat="45.9470572" lon="8.7797335"><ele>308.0</ele><time>2026-03-28T15:19:39.437Z</time></trkpt><trkpt lat="45.946937" lon="8.7797246"><ele>308.0</ele><time>2026-03-28T15:19:40.437Z</time></trkpt><trkpt lat="45.9468201" lon="8.7797427"><ele>308.0</ele><time>2026-03-28T15:19:41.436Z</time></trkpt><trkpt lat="45.9467031" lon="8.7797851"><ele>308.0</ele><time>2026-03-28T15:19:42.436Z</time></trkpt><trkpt lat="45.9465926" lon="8.7798311"><ele>309.33333333333337</ele><time>2026-03-28T15:19:43.436Z</time></trkpt><trkpt lat="45.9464952" lon="8.7798726"><ele>310.6666666666667</ele><time>2026-03-28T15:19:44.437Z</time></trkpt><trkpt lat="45.9464106" lon="8.7799114"><ele>312.0</ele><time>2026-03-28T15:19:45.436Z</time></trkpt><trkpt lat="45.9463307" lon="8.7799327"><ele>313.3333333333333</ele><time>2026-03-28T15:19:46.436Z</time></trkpt><trkpt lat="45.9462641" lon="8.7799426"><ele>314.66666666666663</ele><time>2026-03-28T15:19:47.437Z</time></trkpt><trkpt lat="45.9461582" lon="8.7799739"><ele>316.0</ele><time>2026-03-28T15:19:49.437Z</time></trkpt><trkpt lat="45.9460707" lon="8.7800428"><ele>316.0</ele><time>2026-03-28T15:19:51.437Z</time></trkpt><trkpt lat="45.9460585" lon="8.7801794"><ele>316.0</ele><time>2026-03-28T15:19:53.437Z</time></trkpt><trkpt lat="45.9461604" lon="8.7802204"><ele>316.0</ele><time>2026-03-28T15:19:55.436Z</time></trkpt><trkpt lat="45.9462438" lon="8.7801814"><ele>316.0</ele><time>2026-03-28T15:19:56.436Z</time></trkpt><trkpt lat="45.9463378" lon="8.7801445"><ele>316.0</ele><time>2026-03-28T15:19:57.436Z</time></trkpt><trkpt lat="45.9464577" lon="8.780096"><ele>316.0</ele><time>2026-03-28T15:19:58.437Z</time></trkpt><trkpt lat="45.9465707" lon="8.7800694"><ele>316.0</ele><time>2026-03-28T15:19:59.437Z</time></trkpt><trkpt lat="45.9466745" lon="8.7800537"><ele>316.0</ele><time>2026-03-28T15:20:00.437Z</time></trkpt><trkpt lat="45.9467691" lon="8.7800431"><ele>316.0</ele><time>2026-03-28T15:20:01.437Z</time></trkpt><trkpt lat="45.9468474" lon="8.7800603"><ele>316.0</ele><time>2026-03-28T15:20:02.436Z</time></trkpt><trkpt lat="45.9469217" lon="8.7801049"><ele>314.40000000000003</ele><time>2026-03-28T15:20:03.436Z</time></trkpt><trkpt lat="45.946998" lon="8.7801831"><ele>312.8</ele><time>2026-03-28T15:20:04.436Z</time></trkpt><trkpt lat="45.947065" lon="8.7802914"><ele>311.20000000000005</ele><time>2026-03-28T15:20:05.436Z</time></trkpt><trkpt lat="45.9471352" lon="8.7804051"><ele>309.6</ele><time>2026-03-28T15:20:06.437Z</time></trkpt><trkpt lat="45.9472253" lon="8.7805005"><ele>308.0</ele><time>2026-03-28T15:20:07.436Z</time></trkpt><trkpt lat="45.9473156" lon="8.7805931"><ele>309.4</ele><time>2026-03-28T15:20:08.437Z</time></trkpt><trkpt lat="45.9474127" lon="8.7806812"><ele>310.8</ele><time>2026-03-28T15:20:09.436Z</time></trkpt><trkpt lat="45.9475048" lon="8.7807591"><ele>312.2</ele><time>2026-03-28T15:20:10.436Z</time></trkpt><trkpt lat="45.9475905" lon="8.7808411"><ele>313.6</ele><time>2026-03-28T15:20:11.436Z</time></trkpt><trkpt lat="45.9476677" lon="8.7809141"><ele>315.0</ele><time>2026-03-28T15:20:12.437Z</time></trkpt><trkpt lat="45.9477352" lon="8.7809752"><ele>318.3333333333333</ele><time>2026-03-28T15:20:13.437Z</time></trkpt><trkpt lat="45.9477985" lon="8.7810302"><ele>321.6666666666667</ele><time>2026-03-28T15:20:14.436Z</time></trkpt><trkpt lat="45.947855" lon="8.7810789"><ele>325.0</ele><time>2026-03-28T15:20:15.436Z</time></trkpt><trkpt lat="45.9479492" lon="8.7811552"><ele>328.33333333333337</ele><time>2026-03-28T15:20:17.437Z</time></trkpt><trkpt lat="45.9480345" lon="8.7812291"><ele>331.6666666666667</ele><time>2026-03-28T15:20:19.436Z</time></trkpt><trkpt lat="45.9481135" lon="8.7812997"><ele>335.0</ele><time>2026-03-28T15:20:21.436Z</time></trkpt><trkpt lat="45.9482196" lon="8.7813792"><ele>335.0</ele><time>2026-03-28T15:20:23.436Z</time></trkpt><trkpt lat="45.9482478" lon="8.7815053"><ele>335.0</ele><time>2026-03-28T15:20:25.436Z</time></trkpt><trkpt lat="45.9481323" lon="8.7814655"><ele>335.0</ele><time>2026-03-28T15:20:28.436Z</time></trkpt><trkpt lat="45.9480497" lon="8.7813901"><ele>335.0</ele><time>2026-03-28T15:20:29.436Z</time></trkpt><trkpt lat="45.9479404" lon="8.7813095"><ele>335.0</ele><time>2026-03-28T15:20:30.436Z</time></trkpt><trkpt lat="45.9478171" lon="8.7812207"><ele>335.0</ele><time>2026-03-28T15:20:31.436Z</time></trkpt><trkpt lat="45.9476757" lon="8.7811595"><ele>335.0</ele><time>2026-03-28T15:20:32.437Z</time></trkpt><trkpt lat="45.9475211" lon="8.7811348"><ele>335.0</ele><time>2026-03-28T15:20:33.437Z</time></trkpt><trkpt lat="45.9473552" lon="8.7811426"><ele>339.25</ele><time>2026-03-28T15:20:34.437Z</time></trkpt><trkpt lat="45.9472066" lon="8.7811406"><ele>343.5</ele><time>2026-03-28T15:20:35.437Z</time></trkpt><trkpt lat="45.9470756" lon="8.7811437"><ele>347.75</ele><time>2026-03-28T15:20:36.437Z</time></trkpt><trkpt lat="45.9469649" lon="8.7811748"><ele>352.0</ele><time>2026-03-28T15:20:37.436Z</time></trkpt><trkpt lat="45.9468684" lon="8.7812351"><ele>352.0</ele><time>2026-03-28T15:20:38.436Z</time></trkpt><trkpt lat="45.9467738" lon="8.7813331"><ele>352.0</ele><time>2026-03-28T15:20:39.437Z</time></trkpt><trkpt lat="45.946685" lon="8.7814494"><ele>352.0</ele><time>2026-03-28T15:20:40.437Z</time></trkpt><trkpt lat="45.946595" lon="8.7815708"><ele>352.0</ele><time>2026-03-28T15:20:41.437Z</time></trkpt><trkpt lat="45.9465096" lon="8.7816895"><ele>351.6</ele><time>2026-03-28T15:20:42.437Z</time></trkpt><trkpt lat="45.9464337" lon="8.7817983"><ele>351.20000000000005</ele><time>2026-03-28T15:20:43.436Z</time></trkpt><trkpt lat="45.946367" lon="8.781907"><ele>350.8</ele><time>2026-03-28T15:20:44.436Z</time></trkpt><trkpt lat="45.9463141" lon="8.7820209"><ele>350.4</ele><time>2026-03-28T15:20:45.437Z</time></trkpt><trkpt lat="45.9462732" lon="8.7821493"><ele>350.0</ele><time>2026-03-28T15:20:46.436Z</time></trkpt><trkpt lat="45.9462642" lon="8.7822914"><ele>352.0</ele><time>2026-03-28T15:20:47.436Z</time></trkpt><trkpt lat="45.9462778" lon="8.7824543"><ele>354.0</ele><time>2026-03-28T15:20:48.437Z</time></trkpt><trkpt lat="45.9463002" lon="8.7826065"><ele>356.0</ele><time>2026-03-28T15:20:49.437Z</time></trkpt><trkpt lat="45.9463244" lon="8.7827461"><ele>358.0</ele><time>2026-03-28T15:20:50.437Z</time></trkpt><trkpt lat="45.9463454" lon="8.7828762"><ele>360.0</ele><time>2026-03-28T15:20:51.437Z</time></trkpt><trkpt lat="45.946348" lon="8.7829932"><ele>360.4</ele><time>2026-03-28T15:20:52.436Z</time></trkpt><trkpt lat="45.9463236" lon="8.7831142"><ele>360.8</ele><time>2026-03-28T15:20:53.437Z</time></trkpt><trkpt lat="45.9462764" lon="8.7832244"><ele>361.20000000000005</ele><time>2026-03-28T15:20:54.437Z</time></trkpt><trkpt lat="45.9462099" lon="8.783318"><ele>361.6</ele><time>2026-03-28T15:20:55.436Z</time></trkpt><trkpt lat="45.946128" lon="8.7833925"><ele>362.0</ele><time>2026-03-28T15:20:56.437Z</time></trkpt><trkpt lat="45.9460343" lon="8.7834488"><ele>362.0</ele><time>2026-03-28T15:20:57.437Z</time></trkpt><trkpt lat="45.9459349" lon="8.7834851"><ele>362.0</ele><time>2026-03-28T15:20:58.437Z</time></trkpt><trkpt lat="45.9458331" lon="8.7835396"><ele>362.0</ele><time>2026-03-28T15:20:59.437Z</time></trkpt><trkpt lat="45.94574" lon="8.7836189"><ele>362.0</ele><time>2026-03-28T15:21:00.437Z</time></trkpt><trkpt lat="45.9456638" lon="8.7837201"><ele>362.0</ele><time>2026-03-28T15:21:01.436Z</time></trkpt><trkpt lat="45.9455944" lon="8.783827"><ele>364.6</ele><time>2026-03-28T15:21:02.436Z</time></trkpt><trkpt lat="45.9455071" lon="8.7838957"><ele>367.20000000000005</ele><time>2026-03-28T15:21:03.436Z</time></trkpt><trkpt lat="45.9454112" lon="8.783935"><ele>369.8</ele><time>2026-03-28T15:21:04.436Z</time></trkpt><trkpt lat="45.9453083" lon="8.7839486"><ele>372.4</ele><time>2026-03-28T15:21:05.437Z</time></trkpt><trkpt lat="45.9451985" lon="8.7839399"><ele>375.0</ele><time>2026-03-28T15:21:06.437Z</time></trkpt><trkpt lat="45.9450831" lon="8.7839218"><ele>374.0</ele><time>2026-03-28T15:21:07.437Z</time></trkpt><trkpt lat="45.9449698" lon="8.7839149"><ele>373.0</ele><time>2026-03-28T15:21:08.437Z</time></trkpt><trkpt lat="45.9448518" lon="8.7839174"><ele>372.0</ele><time>2026-03-28T15:21:09.436Z</time></trkpt><trkpt lat="45.9447471" lon="8.7839527"><ele>371.0</ele><time>2026-03-28T15:21:10.437Z</time></trkpt><trkpt lat="45.9446529" lon="8.7840182"><ele>370.0</ele><time>2026-03-28T15:21:11.436Z</time></trkpt><trkpt lat="45.9445641" lon="8.7841014"><ele>370.0</ele><time>2026-03-28T15:21:12.436Z</time></trkpt><trkpt lat="45.9444705" lon="8.7841916"><ele>370.0</ele><time>2026-03-28T15:21:13.437Z</time></trkpt><trkpt lat="45.9443731" lon="8.7842875"><ele>370.0</ele><time>2026-03-28T15:21:14.437Z</time></trkpt><trkpt lat="45.9442757" lon="8.7843917"><ele>370.0</ele><time>2026-03-28T15:21:15.436Z</time></trkpt><trkpt lat="45.9441942" lon="8.7844976"><ele>371.6</ele><time>2026-03-28T15:21:16.436Z</time></trkpt><trkpt lat="45.9441268" lon="8.7846098"><ele>373.2</ele><time>2026-03-28T15:21:17.436Z</time></trkpt><trkpt lat="45.9440765" lon="8.7847362"><ele>374.79999999999995</ele><time>2026-03-28T15:21:18.436Z</time></trkpt><trkpt lat="45.9440372" lon="8.7848704"><ele>376.4</ele><time>2026-03-28T15:21:19.436Z</time></trkpt><trkpt lat="45.9440176" lon="8.7850208"><ele>378.0</ele><time>2026-03-28T15:21:20.437Z</time></trkpt><trkpt lat="45.9440161" lon="8.7851792"><ele>379.0</ele><time>2026-03-28T15:21:21.436Z</time></trkpt><trkpt lat="45.9440331" lon="8.7853374"><ele>380.0</ele><time>2026-03-28T15:21:22.436Z</time></trkpt><trkpt lat="45.9440525" lon="8.7855053"><ele>381.0</ele><time>2026-03-28T15:21:23.436Z</time></trkpt><trkpt lat="45.9440754" lon="8.7856775"><ele>382.0</ele><time>2026-03-28T15:21:24.436Z</time></trkpt><trkpt lat="45.9440957" lon="8.7858509"><ele>382.75</ele><time>2026-03-28T15:21:25.436Z</time></trkpt><trkpt lat="45.9441038" lon="8.7860287"><ele>383.5</ele><time>2026-03-28T15:21:26.436Z</time></trkpt><trkpt lat="45.9440967" lon="8.7862047"><ele>384.25</ele><time>2026-03-28T15:21:27.436Z</time></trkpt><trkpt lat="45.9440751" lon="8.786383"><ele>385.0</ele><time>2026-03-28T15:21:28.436Z</time></trkpt><trkpt lat="45.9440547" lon="8.7865599"><ele>385.0</ele><time>2026-03-28T15:21:29.436Z</time></trkpt><trkpt lat="45.9440342" lon="8.7867324"><ele>385.0</ele><time>2026-03-28T15:21:30.435Z</time></trkpt><trkpt lat="45.9440115" lon="8.7869173"><ele>385.0</ele><time>2026-03-28T15:21:31.435Z</time></trkpt><trkpt lat="45.943991" lon="8.7871073"><ele>385.0</ele><time>2026-03-28T15:21:32.436Z</time></trkpt><trkpt lat="45.9439701" lon="8.7872978"><ele>387.25</ele><time>2026-03-28T15:21:33.435Z</time></trkpt><trkpt lat="45.9439472" lon="8.7874815"><ele>389.5</ele><time>2026-03-28T15:21:34.435Z</time></trkpt><trkpt lat="45.9439319" lon="8.7876697"><ele>391.75</ele><time>2026-03-28T15:21:35.435Z</time></trkpt><trkpt lat="45.9439424" lon="8.7878564"><ele>394.0</ele><time>2026-03-28T15:21:36.435Z</time></trkpt><trkpt lat="45.9439585" lon="8.7880399"><ele>395.0</ele><time>2026-03-28T15:21:37.435Z</time></trkpt><trkpt lat="45.9439756" lon="8.7882301"><ele>396.0</ele><time>2026-03-28T15:21:38.436Z</time></trkpt><trkpt lat="45.9439915" lon="8.7884217"><ele>397.0</ele><time>2026-03-28T15:21:39.436Z</time></trkpt><trkpt lat="45.9439934" lon="8.788619"><ele>398.0</ele><time>2026-03-28T15:21:40.435Z</time></trkpt><trkpt lat="45.9439868" lon="8.7888056"><ele>398.25</ele><time>2026-03-28T15:21:41.436Z</time></trkpt><trkpt lat="45.9439706" lon="8.7889952"><ele>398.5</ele><time>2026-03-28T15:21:42.436Z</time></trkpt><trkpt lat="45.9439527" lon="8.7891851"><ele>398.75</ele><time>2026-03-28T15:21:43.436Z</time></trkpt><trkpt lat="45.9439337" lon="8.7893717"><ele>399.0</ele><time>2026-03-28T15:21:44.436Z</time></trkpt><trkpt lat="45.9439123" lon="8.789555"><ele>400.5</ele><time>2026-03-28T15:21:45.435Z</time></trkpt><trkpt lat="45.9438895" lon="8.7897436"><ele>402.0</ele><time>2026-03-28T15:21:46.435Z</time></trkpt><trkpt lat="45.9438679" lon="8.7899284"><ele>403.5</ele><time>2026-03-28T15:21:47.436Z</time></trkpt><trkpt lat="45.9438466" lon="8.7901009"><ele>405.0</ele><time>2026-03-28T15:21:48.436Z</time></trkpt><trkpt lat="45.9438185" lon="8.7902681"><ele>406.75</ele><time>2026-03-28T15:21:49.436Z</time></trkpt><trkpt lat="45.9437711" lon="8.790426"><ele>408.5</ele><time>2026-03-28T15:21:50.436Z</time></trkpt><trkpt lat="45.9437133" lon="8.7905731"><ele>410.25</ele><time>2026-03-28T15:21:51.436Z</time></trkpt><trkpt lat="45.9436425" lon="8.7907091"><ele>412.0</ele><time>2026-03-28T15:21:52.435Z</time></trkpt><trkpt lat="45.9435536" lon="8.7908435"><ele>412.0</ele><time>2026-03-28T15:21:53.435Z</time></trkpt><trkpt lat="45.9434549" lon="8.7909674"><ele>412.0</ele><time>2026-03-28T15:21:54.435Z</time></trkpt><trkpt lat="45.9433514" lon="8.7910948"><ele>412.0</ele><time>2026-03-28T15:21:55.436Z</time></trkpt><trkpt lat="45.9432447" lon="8.7912242"><ele>412.0</ele><time>2026-03-28T15:21:56.436Z</time></trkpt><trkpt lat="45.9431391" lon="8.7913492"><ele>411.25</ele><time>2026-03-28T15:21:57.434Z</time></trkpt><trkpt lat="45.9430308" lon="8.7914716"><ele>410.5</ele><time>2026-03-28T15:21:58.435Z</time></trkpt><trkpt lat="45.9429267" lon="8.7915853"><ele>409.75</ele><time>2026-03-28T15:21:59.435Z</time></trkpt><trkpt lat="45.9428267" lon="8.7917024"><ele>409.0</ele><time>2026-03-28T15:22:00.436Z</time></trkpt><trkpt lat="45.9427248" lon="8.791828"><ele>409.75</ele><time>2026-03-28T15:22:01.436Z</time></trkpt><trkpt lat="45.9426276" lon="8.791959"><ele>410.5</ele><time>2026-03-28T15:22:02.436Z</time></trkpt><trkpt lat="45.9425375" lon="8.7921093"><ele>411.25</ele><time>2026-03-28T15:22:03.435Z</time></trkpt><trkpt lat="45.9424489" lon="8.7922669"><ele>412.0</ele><time>2026-03-28T15:22:04.436Z</time></trkpt><trkpt lat="45.9423662" lon="8.79243"><ele>412.0</ele><time>2026-03-28T15:22:05.435Z</time></trkpt><trkpt lat="45.9422812" lon="8.7925924"><ele>412.0</ele><time>2026-03-28T15:22:06.435Z</time></trkpt><trkpt lat="45.9421979" lon="8.7927523"><ele>412.0</ele><time>2026-03-28T15:22:07.436Z</time></trkpt><trkpt lat="45.9421166" lon="8.7929016"><ele>412.0</ele><time>2026-03-28T15:22:08.436Z</time></trkpt><trkpt lat="45.9420371" lon="8.7930433"><ele>414.5</ele><time>2026-03-28T15:22:09.435Z</time></trkpt><trkpt lat="45.9419601" lon="8.7931706"><ele>417.0</ele><time>2026-03-28T15:22:10.435Z</time></trkpt><trkpt lat="45.9418854" lon="8.7933025"><ele>419.5</ele><time>2026-03-28T15:22:11.436Z</time></trkpt><trkpt lat="45.9418155" lon="8.7934392"><ele>422.0</ele><time>2026-03-28T15:22:12.435Z</time></trkpt><trkpt lat="45.9417349" lon="8.793591"><ele>420.75</ele><time>2026-03-28T15:22:13.435Z</time></trkpt><trkpt lat="45.9416594" lon="8.7937287"><ele>419.5</ele><time>2026-03-28T15:22:14.436Z</time></trkpt><trkpt lat="45.9415811" lon="8.7938815"><ele>418.25</ele><time>2026-03-28T15:22:15.436Z</time></trkpt><trkpt lat="45.9415107" lon="8.7940501"><ele>417.0</ele><time>2026-03-28T15:22:16.435Z</time></trkpt><trkpt lat="45.9414413" lon="8.7942249"><ele>420.0</ele><time>2026-03-28T15:22:17.435Z</time></trkpt><trkpt lat="45.9413802" lon="8.7943959"><ele>423.0</ele><time>2026-03-28T15:22:18.435Z</time></trkpt><trkpt lat="45.9413226" lon="8.7945593"><ele>426.0</ele><time>2026-03-28T15:22:19.436Z</time></trkpt><trkpt lat="45.9412674" lon="8.7947096"><ele>429.0</ele><time>2026-03-28T15:22:20.435Z</time></trkpt><trkpt lat="45.9412142" lon="8.7948707"><ele>429.0</ele><time>2026-03-28T15:22:21.436Z</time></trkpt><trkpt lat="45.9411563" lon="8.7950167"><ele>429.0</ele><time>2026-03-28T15:22:22.436Z</time></trkpt><trkpt lat="45.941067" lon="8.7951538"><ele>429.0</ele><time>2026-03-28T15:22:23.435Z</time></trkpt><trkpt lat="45.9409579" lon="8.7952824"><ele>429.0</ele><time>2026-03-28T15:22:24.435Z</time></trkpt><trkpt lat="45.9408361" lon="8.7954057"><ele>429.33333333333337</ele><time>2026-03-28T15:22:25.436Z</time></trkpt><trkpt lat="45.9407057" lon="8.7955302"><ele>429.6666666666667</ele><time>2026-03-28T15:22:26.435Z</time></trkpt><trkpt lat="45.9405737" lon="8.7956391"><ele>430.0</ele><time>2026-03-28T15:22:27.435Z</time></trkpt><trkpt lat="45.9404428" lon="8.7957383"><ele>430.0</ele><time>2026-03-28T15:22:28.435Z</time></trkpt><trkpt lat="45.9403202" lon="8.7958223"><ele>430.0</ele><time>2026-03-28T15:22:29.435Z</time></trkpt><trkpt lat="45.9402" lon="8.7958976"><ele>430.0</ele><time>2026-03-28T15:22:30.435Z</time></trkpt><trkpt lat="45.9400791" lon="8.7959653"><ele>430.0</ele><time>2026-03-28T15:22:31.436Z</time></trkpt><trkpt lat="45.9399572" lon="8.7960342"><ele>431.0</ele><time>2026-03-28T15:22:32.435Z</time></trkpt><trkpt lat="45.9398387" lon="8.7961093"><ele>432.0</ele><time>2026-03-28T15:22:33.435Z</time></trkpt><trkpt lat="45.9397192" lon="8.7962002"><ele>433.0</ele><time>2026-03-28T15:22:34.436Z</time></trkpt><trkpt lat="45.9396002" lon="8.7963093"><ele>434.0</ele><time>2026-03-28T15:22:35.436Z</time></trkpt><trkpt lat="45.9394896" lon="8.7964394"><ele>434.0</ele><time>2026-03-28T15:22:36.436Z</time></trkpt><trkpt lat="45.9393809" lon="8.7965834"><ele>434.0</ele><time>2026-03-28T15:22:37.435Z</time></trkpt><trkpt lat="45.9392749" lon="8.7967253"><ele>434.0</ele><time>2026-03-28T15:22:38.435Z</time></trkpt><trkpt lat="45.9391788" lon="8.796859"><ele>434.0</ele><time>2026-03-28T15:22:39.435Z</time></trkpt><trkpt lat="45.9390862" lon="8.7969862"><ele>433.75</ele><time>2026-03-28T15:22:40.435Z</time></trkpt><trkpt lat="45.9389957" lon="8.7971209"><ele>433.5</ele><time>2026-03-28T15:22:41.436Z</time></trkpt><trkpt lat="45.9389135" lon="8.7972663"><ele>433.25</ele><time>2026-03-28T15:22:42.436Z</time></trkpt><trkpt lat="45.9388392" lon="8.7974373"><ele>433.0</ele><time>2026-03-28T15:22:43.436Z</time></trkpt><trkpt lat="45.938771" lon="8.797603"><ele>433.5</ele><time>2026-03-28T15:22:44.435Z</time></trkpt><trkpt lat="45.9387058" lon="8.7977598"><ele>434.0</ele><time>2026-03-28T15:22:45.436Z</time></trkpt><trkpt lat="45.9386488" lon="8.7979067"><ele>434.5</ele><time>2026-03-28T15:22:46.436Z</time></trkpt><trkpt lat="45.9386058" lon="8.7980571"><ele>435.0</ele><time>2026-03-28T15:22:47.435Z</time></trkpt><trkpt lat="45.9385775" lon="8.7982245"><ele>435.0</ele><time>2026-03-28T15:22:48.436Z</time></trkpt><trkpt lat="45.9385552" lon="8.7983916"><ele>435.0</ele><time>2026-03-28T15:22:49.435Z</time></trkpt><trkpt lat="45.9385228" lon="8.7985487"><ele>435.0</ele><time>2026-03-28T15:22:50.436Z</time></trkpt><trkpt lat="45.9384815" lon="8.798693"><ele>435.0</ele><time>2026-03-28T15:22:51.435Z</time></trkpt><trkpt lat="45.9384253" lon="8.7988291"><ele>433.25</ele><time>2026-03-28T15:22:52.435Z</time></trkpt><trkpt lat="45.9383531" lon="8.7989502"><ele>431.5</ele><time>2026-03-28T15:22:53.436Z</time></trkpt><trkpt lat="45.9382671" lon="8.7990577"><ele>429.75</ele><time>2026-03-28T15:22:54.436Z</time></trkpt><trkpt lat="45.9381653" lon="8.7991441"><ele>428.0</ele><time>2026-03-28T15:22:55.435Z</time></trkpt><trkpt lat="45.9380617" lon="8.7992219"><ele>428.0</ele><time>2026-03-28T15:22:56.435Z</time></trkpt><trkpt lat="45.9379442" lon="8.7993041"><ele>428.0</ele><time>2026-03-28T15:22:57.436Z</time></trkpt><trkpt lat="45.9378298" lon="8.7993775"><ele>428.0</ele><time>2026-03-28T15:22:58.435Z</time></trkpt><trkpt lat="45.9377208" lon="8.7994532"><ele>428.0</ele><time>2026-03-28T15:22:59.436Z</time></trkpt><trkpt lat="45.9376204" lon="8.7995274"><ele>428.59999999999997</ele><time>2026-03-28T15:23:00.435Z</time></trkpt><trkpt lat="45.9375198" lon="8.7996055"><ele>429.19999999999993</ele><time>2026-03-28T15:23:01.436Z</time></trkpt><trkpt lat="45.9374271" lon="8.7996818"><ele>429.8</ele><time>2026-03-28T15:23:02.435Z</time></trkpt><trkpt lat="45.9373402" lon="8.7997472"><ele>430.4</ele><time>2026-03-28T15:23:03.435Z</time></trkpt><trkpt lat="45.9372495" lon="8.7998145"><ele>431.0</ele><time>2026-03-28T15:23:04.435Z</time></trkpt><trkpt lat="45.9371551" lon="8.7998889"><ele>431.0</ele><time>2026-03-28T15:23:05.435Z</time></trkpt><trkpt lat="45.937055" lon="8.7999636"><ele>431.0</ele><time>2026-03-28T15:23:06.436Z</time></trkpt><trkpt lat="45.9369475" lon="8.8000441"><ele>431.0</ele><time>2026-03-28T15:23:07.435Z</time></trkpt><trkpt lat="45.936835" lon="8.8001236"><ele>431.0</ele><time>2026-03-28T15:23:08.435Z</time></trkpt><trkpt lat="45.9367377" lon="8.8001953"><ele>431.20000000000005</ele><time>2026-03-28T15:23:09.435Z</time></trkpt><trkpt lat="45.9366453" lon="8.8002663"><ele>431.40000000000003</ele><time>2026-03-28T15:23:10.436Z</time></trkpt><trkpt lat="45.9365569" lon="8.8003286"><ele>431.6</ele><time>2026-03-28T15:23:11.435Z</time></trkpt><trkpt lat="45.9364734" lon="8.8003821"><ele>431.8</ele><time>2026-03-28T15:23:12.435Z</time></trkpt><trkpt lat="45.9363926" lon="8.8004385"><ele>432.0</ele><time>2026-03-28T15:23:13.436Z</time></trkpt><trkpt lat="45.9363065" lon="8.8005006"><ele>432.0</ele><time>2026-03-28T15:23:14.435Z</time></trkpt><trkpt lat="45.9362164" lon="8.8005627"><ele>432.00000000000006</ele><time>2026-03-28T15:23:15.435Z</time></trkpt><trkpt lat="45.9361294" lon="8.8006336"><ele>432.00000000000006</ele><time>2026-03-28T15:23:16.436Z</time></trkpt><trkpt lat="45.9360418" lon="8.8007065"><ele>432.0</ele><time>2026-03-28T15:23:17.436Z</time></trkpt><trkpt lat="45.9359523" lon="8.8007699"><ele>432.0</ele><time>2026-03-28T15:23:18.436Z</time></trkpt><trkpt lat="45.9358682" lon="8.8008307"><ele>432.0</ele><time>2026-03-28T15:23:19.435Z</time></trkpt><trkpt lat="45.9357887" lon="8.8008868"><ele>432.00000000000006</ele><time>2026-03-28T15:23:20.435Z</time></trkpt><trkpt lat="45.9357082" lon="8.8009415"><ele>432.00000000000006</ele><time>2026-03-28T15:23:21.436Z</time></trkpt><trkpt lat="45.9356241" lon="8.8010008"><ele>432.0</ele><time>2026-03-28T15:23:22.435Z</time></trkpt><trkpt lat="45.9355388" lon="8.8010657"><ele>432.0</ele><time>2026-03-28T15:23:23.435Z</time></trkpt><trkpt lat="45.9354536" lon="8.8011357"><ele>432.0</ele><time>2026-03-28T15:23:24.436Z</time></trkpt><trkpt lat="45.9353648" lon="8.8012079"><ele>432.00000000000006</ele><time>2026-03-28T15:23:25.435Z</time></trkpt><trkpt lat="45.9352817" lon="8.8012758"><ele>432.00000000000006</ele><time>2026-03-28T15:23:26.436Z</time></trkpt><trkpt lat="45.9352016" lon="8.801361"><ele>432.0</ele><time>2026-03-28T15:23:27.435Z</time></trkpt><trkpt lat="45.9351282" lon="8.8014487"><ele>432.0</ele><time>2026-03-28T15:23:28.436Z</time></trkpt><trkpt lat="45.9350586" lon="8.8015423"><ele>431.8333333333333</ele><time>2026-03-28T15:23:29.436Z</time></trkpt><trkpt lat="45.9350005" lon="8.8016418"><ele>431.66666666666663</ele><time>2026-03-28T15:23:30.435Z</time></trkpt><trkpt lat="45.9349489" lon="8.8017496"><ele>431.5</ele><time>2026-03-28T15:23:31.436Z</time></trkpt><trkpt lat="45.9349058" lon="8.8018519"><ele>431.3333333333333</ele><time>2026-03-28T15:23:32.435Z</time></trkpt><trkpt lat="45.9348643" lon="8.8019528"><ele>431.16666666666663</ele><time>2026-03-28T15:23:33.436Z</time></trkpt><trkpt lat="45.934834" lon="8.802057"><ele>431.0</ele><time>2026-03-28T15:23:34.436Z</time></trkpt><trkpt lat="45.9348026" lon="8.8021603"><ele>431.0</ele><time>2026-03-28T15:23:35.435Z</time></trkpt><trkpt lat="45.9347767" lon="8.8022621"><ele>431.0</ele><time>2026-03-28T15:23:36.436Z</time></trkpt><trkpt lat="45.9347571" lon="8.8023561"><ele>431.0</ele><time>2026-03-28T15:23:37.436Z</time></trkpt><trkpt lat="45.9347147" lon="8.8025094"><ele>431.0</ele><time>2026-03-28T15:23:39.436Z</time></trkpt><trkpt lat="45.9346323" lon="8.8025872"><ele>431.0</ele><time>2026-03-28T15:23:41.435Z</time></trkpt><trkpt lat="45.9345334" lon="8.8026615"><ele>431.49999999999994</ele><time>2026-03-28T15:23:43.435Z</time></trkpt><trkpt lat="45.9345003" lon="8.8027395"><ele>432.0</ele><time>2026-03-28T15:23:44.436Z</time></trkpt><trkpt lat="45.9344861" lon="8.8028331"><ele>432.5</ele><time>2026-03-28T15:23:45.435Z</time></trkpt><trkpt lat="45.9344777" lon="8.8029494"><ele>433.0</ele><time>2026-03-28T15:23:46.435Z</time></trkpt><trkpt lat="45.9344657" lon="8.8030828"><ele>433.49999999999994</ele><time>2026-03-28T15:23:47.435Z</time></trkpt><trkpt lat="45.934455" lon="8.8032237"><ele>434.0</ele><time>2026-03-28T15:23:48.435Z</time></trkpt><trkpt lat="45.9344425" lon="8.8033799"><ele>435.0</ele><time>2026-03-28T15:23:49.436Z</time></trkpt><trkpt lat="45.9344239" lon="8.8035438"><ele>436.0</ele><time>2026-03-28T15:23:50.435Z</time></trkpt><trkpt lat="45.9343966" lon="8.8037129"><ele>437.0</ele><time>2026-03-28T15:23:51.436Z</time></trkpt><trkpt lat="45.9343669" lon="8.8038804"><ele>438.0</ele><time>2026-03-28T15:23:52.435Z</time></trkpt><trkpt lat="45.934336" lon="8.8040322"><ele>438.0</ele><time>2026-03-28T15:23:53.435Z</time></trkpt><trkpt lat="45.934307" lon="8.8041816"><ele>438.0</ele><time>2026-03-28T15:23:54.436Z</time></trkpt><trkpt lat="45.9342727" lon="8.8043412"><ele>438.0</ele><time>2026-03-28T15:23:55.435Z</time></trkpt><trkpt lat="45.9342348" lon="8.8045052"><ele>438.0</ele><time>2026-03-28T15:23:56.436Z</time></trkpt><trkpt lat="45.9341967" lon="8.8046688"><ele>437.0</ele><time>2026-03-28T15:23:57.436Z</time></trkpt><trkpt lat="45.9341559" lon="8.8048372"><ele>436.0</ele><time>2026-03-28T15:23:58.435Z</time></trkpt><trkpt lat="45.9341153" lon="8.8050103"><ele>435.0</ele><time>2026-03-28T15:23:59.435Z</time></trkpt><trkpt lat="45.9340753" lon="8.8051751"><ele>434.0</ele><time>2026-03-28T15:24:00.435Z</time></trkpt><trkpt lat="45.9340384" lon="8.8053386"><ele>434.0</ele><time>2026-03-28T15:24:01.435Z</time></trkpt><trkpt lat="45.9340017" lon="8.8054904"><ele>434.0</ele><time>2026-03-28T15:24:02.436Z</time></trkpt><trkpt lat="45.933967" lon="8.8056456"><ele>434.0</ele><time>2026-03-28T15:24:03.436Z</time></trkpt><trkpt lat="45.9339273" lon="8.8058081"><ele>434.0</ele><time>2026-03-28T15:24:04.435Z</time></trkpt><trkpt lat="45.9338808" lon="8.8059662"><ele>434.5</ele><time>2026-03-28T15:24:05.436Z</time></trkpt><trkpt lat="45.9338419" lon="8.8061324"><ele>435.0</ele><time>2026-03-28T15:24:06.435Z</time></trkpt><trkpt lat="45.9338081" lon="8.8062883"><ele>435.5</ele><time>2026-03-28T15:24:07.436Z</time></trkpt><trkpt lat="45.9337695" lon="8.8064521"><ele>436.0</ele><time>2026-03-28T15:24:08.436Z</time></trkpt><trkpt lat="45.9337316" lon="8.806617"><ele>436.0</ele><time>2026-03-28T15:24:09.435Z</time></trkpt><trkpt lat="45.9336915" lon="8.8067855"><ele>436.0</ele><time>2026-03-28T15:24:10.435Z</time></trkpt><trkpt lat="45.9336466" lon="8.8069576"><ele>436.0</ele><time>2026-03-28T15:24:11.435Z</time></trkpt><trkpt lat="45.9336049" lon="8.8071386"><ele>436.0</ele><time>2026-03-28T15:24:12.436Z</time></trkpt><trkpt lat="45.9335643" lon="8.8073123"><ele>436.25</ele><time>2026-03-28T15:24:13.435Z</time></trkpt><trkpt lat="45.9335249" lon="8.8074907"><ele>436.5</ele><time>2026-03-28T15:24:14.435Z</time></trkpt><trkpt lat="45.9334862" lon="8.807673"><ele>436.75</ele><time>2026-03-28T15:24:15.435Z</time></trkpt><trkpt lat="45.9334433" lon="8.8078567"><ele>437.0</ele><time>2026-03-28T15:24:16.435Z</time></trkpt><trkpt lat="45.9333995" lon="8.8080368"><ele>435.5</ele><time>2026-03-28T15:24:17.436Z</time></trkpt><trkpt lat="45.933348" lon="8.8082243"><ele>434.0</ele><time>2026-03-28T15:24:18.436Z</time></trkpt><trkpt lat="45.9333022" lon="8.8084208"><ele>432.5</ele><time>2026-03-28T15:24:19.435Z</time></trkpt><trkpt lat="45.9332569" lon="8.8086162"><ele>431.0</ele><time>2026-03-28T15:24:20.435Z</time></trkpt><trkpt lat="45.9332129" lon="8.8088057"><ele>430.5</ele><time>2026-03-28T15:24:21.436Z</time></trkpt><trkpt lat="45.9331676" lon="8.8089927"><ele>430.0</ele><time>2026-03-28T15:24:22.436Z</time></trkpt><trkpt lat="45.9331277" lon="8.8091679"><ele>429.5</ele><time>2026-03-28T15:24:23.436Z</time></trkpt><trkpt lat="45.9330918" lon="8.8093325"><ele>429.0</ele><time>2026-03-28T15:24:24.435Z</time></trkpt><trkpt lat="45.9330504" lon="8.809498"><ele>429.0</ele><time>2026-03-28T15:24:25.435Z</time></trkpt><trkpt lat="45.9330115" lon="8.8096663"><ele>429.0</ele><time>2026-03-28T15:24:26.436Z</time></trkpt><trkpt lat="45.9329758" lon="8.809834"><ele>429.0</ele><time>2026-03-28T15:24:27.435Z</time></trkpt><trkpt lat="45.9329382" lon="8.8100015"><ele>429.0</ele><time>2026-03-28T15:24:28.435Z</time></trkpt><trkpt lat="45.9328982" lon="8.8101721"><ele>429.5</ele><time>2026-03-28T15:24:29.436Z</time></trkpt><trkpt lat="45.9328583" lon="8.8103401"><ele>430.0</ele><time>2026-03-28T15:24:30.435Z</time></trkpt><trkpt lat="45.932817" lon="8.8105009"><ele>430.5</ele><time>2026-03-28T15:24:31.436Z</time></trkpt><trkpt lat="45.932781" lon="8.8106672"><ele>431.0</ele><time>2026-03-28T15:24:32.435Z</time></trkpt><trkpt lat="45.9327393" lon="8.8108266"><ele>432.25</ele><time>2026-03-28T15:24:33.436Z</time></trkpt><trkpt lat="45.9327003" lon="8.8109914"><ele>433.5</ele><time>2026-03-28T15:24:34.435Z</time></trkpt><trkpt lat="45.9326566" lon="8.8111484"><ele>434.75</ele><time>2026-03-28T15:24:35.435Z</time></trkpt><trkpt lat="45.9326171" lon="8.8113068"><ele>436.0</ele><time>2026-03-28T15:24:36.436Z</time></trkpt><trkpt lat="45.9325758" lon="8.8114683"><ele>435.0</ele><time>2026-03-28T15:24:37.435Z</time></trkpt><trkpt lat="45.9325365" lon="8.8116329"><ele>434.0</ele><time>2026-03-28T15:24:38.435Z</time></trkpt><trkpt lat="45.9324971" lon="8.8117994"><ele>433.0</ele><time>2026-03-28T15:24:39.436Z</time></trkpt><trkpt lat="45.9324587" lon="8.8119761"><ele>432.0</ele><time>2026-03-28T15:24:40.435Z</time></trkpt><trkpt lat="45.9324134" lon="8.8121534"><ele>432.0</ele><time>2026-03-28T15:24:41.435Z</time></trkpt><trkpt lat="45.9323686" lon="8.8123326"><ele>432.0</ele><time>2026-03-28T15:24:42.436Z</time></trkpt><trkpt lat="45.9323217" lon="8.8125209"><ele>432.0</ele><time>2026-03-28T15:24:43.436Z</time></trkpt><trkpt lat="45.9322788" lon="8.8127153"><ele>432.0</ele><time>2026-03-28T15:24:44.436Z</time></trkpt><trkpt lat="45.9322311" lon="8.8129143"><ele>434.0</ele><time>2026-03-28T15:24:45.436Z</time></trkpt><trkpt lat="45.9321807" lon="8.813123"><ele>436.0</ele><time>2026-03-28T15:24:46.435Z</time></trkpt><trkpt lat="45.9321227" lon="8.8133295"><ele>438.0</ele><time>2026-03-28T15:24:47.436Z</time></trkpt><trkpt lat="45.9320746" lon="8.8135537"><ele>438.25</ele><time>2026-03-28T15:24:48.436Z</time></trkpt><trkpt lat="45.9320237" lon="8.8137594"><ele>438.5</ele><time>2026-03-28T15:24:49.436Z</time></trkpt><trkpt lat="45.9319773" lon="8.8139597"><ele>438.75</ele><time>2026-03-28T15:24:50.436Z</time></trkpt><trkpt lat="45.9319344" lon="8.8141522"><ele>439.0</ele><time>2026-03-28T15:24:51.436Z</time></trkpt><trkpt lat="45.9318873" lon="8.8143414"><ele>439.0</ele><time>2026-03-28T15:24:52.436Z</time></trkpt><trkpt lat="45.9318438" lon="8.814532"><ele>439.0</ele><time>2026-03-28T15:24:53.435Z</time></trkpt><trkpt lat="45.9318009" lon="8.8147204"><ele>439.0</ele><time>2026-03-28T15:24:54.436Z</time></trkpt><trkpt lat="45.9317659" lon="8.8149077"><ele>439.0</ele><time>2026-03-28T15:24:55.435Z</time></trkpt><trkpt lat="45.931727" lon="8.8150921"><ele>436.5</ele><time>2026-03-28T15:24:56.435Z</time></trkpt><trkpt lat="45.9316822" lon="8.8152783"><ele>434.0</ele><time>2026-03-28T15:24:57.435Z</time></trkpt><trkpt lat="45.9316376" lon="8.8154629"><ele>431.5</ele><time>2026-03-28T15:24:58.435Z</time></trkpt><trkpt lat="45.9315926" lon="8.8156486"><ele>429.0</ele><time>2026-03-28T15:24:59.436Z</time></trkpt><trkpt lat="45.9315406" lon="8.8158299"><ele>429.75</ele><time>2026-03-28T15:25:00.435Z</time></trkpt><trkpt lat="45.9314732" lon="8.8160057"><ele>430.5</ele><time>2026-03-28T15:25:01.436Z</time></trkpt><trkpt lat="45.9313962" lon="8.8161727"><ele>431.25</ele><time>2026-03-28T15:25:02.435Z</time></trkpt><trkpt lat="45.9313062" lon="8.8163325"><ele>432.0</ele><time>2026-03-28T15:25:03.435Z</time></trkpt><trkpt lat="45.9312015" lon="8.8164758"><ele>432.0</ele><time>2026-03-28T15:25:04.436Z</time></trkpt><trkpt lat="45.9310817" lon="8.816607"><ele>432.0</ele><time>2026-03-28T15:25:05.436Z</time></trkpt><trkpt lat="45.9309613" lon="8.8167311"><ele>432.0</ele><time>2026-03-28T15:25:06.436Z</time></trkpt><trkpt lat="45.9308359" lon="8.8168554"><ele>432.0</ele><time>2026-03-28T15:25:07.435Z</time></trkpt><trkpt lat="45.9307249" lon="8.8169795"><ele>432.0</ele><time>2026-03-28T15:25:08.435Z</time></trkpt><trkpt lat="45.9306163" lon="8.8170988"><ele>432.0</ele><time>2026-03-28T15:25:09.436Z</time></trkpt><trkpt lat="45.9305066" lon="8.8172136"><ele>432.0</ele><time>2026-03-28T15:25:10.435Z</time></trkpt><trkpt lat="45.9303945" lon="8.8173288"><ele>432.0</ele><time>2026-03-28T15:25:11.436Z</time></trkpt><trkpt lat="45.9302888" lon="8.8174387"><ele>432.0</ele><time>2026-03-28T15:25:12.435Z</time></trkpt><trkpt lat="45.9301835" lon="8.8175461"><ele>432.0</ele><time>2026-03-28T15:25:13.435Z</time></trkpt><trkpt lat="45.9300772" lon="8.8176512"><ele>432.0</ele><time>2026-03-28T15:25:14.435Z</time></trkpt><trkpt lat="45.9299696" lon="8.8177534"><ele>432.0</ele><time>2026-03-28T15:25:15.436Z</time></trkpt><trkpt lat="45.9298616" lon="8.8178653"><ele>432.0</ele><time>2026-03-28T15:25:16.435Z</time></trkpt><trkpt lat="45.9297509" lon="8.8179843"><ele>432.0</ele><time>2026-03-28T15:25:17.435Z</time></trkpt><trkpt lat="45.9296385" lon="8.8181024"><ele>432.0</ele><time>2026-03-28T15:25:18.436Z</time></trkpt><trkpt lat="45.929524" lon="8.818224"><ele>432.0</ele><time>2026-03-28T15:25:19.436Z</time></trkpt><trkpt lat="45.9294119" lon="8.8183405"><ele>432.0</ele><time>2026-03-28T15:25:20.435Z</time></trkpt><trkpt lat="45.9293073" lon="8.8184522"><ele>432.0</ele><time>2026-03-28T15:25:21.436Z</time></trkpt><trkpt lat="45.9292053" lon="8.8185599"><ele>432.0</ele><time>2026-03-28T15:25:22.436Z</time></trkpt><trkpt lat="45.9291054" lon="8.8186616"><ele>432.0</ele><time>2026-03-28T15:25:23.435Z</time></trkpt><trkpt lat="45.9290029" lon="8.8187615"><ele>432.0</ele><time>2026-03-28T15:25:24.436Z</time></trkpt><trkpt lat="45.9289005" lon="8.8188665"><ele>432.0</ele><time>2026-03-28T15:25:25.435Z</time></trkpt><trkpt lat="45.9287979" lon="8.8189701"><ele>432.0</ele><time>2026-03-28T15:25:26.436Z</time></trkpt><trkpt lat="45.9286937" lon="8.8190787"><ele>432.0</ele><time>2026-03-28T15:25:27.436Z</time></trkpt><trkpt lat="45.9285876" lon="8.8191878"><ele>432.0</ele><time>2026-03-28T15:25:28.436Z</time></trkpt><trkpt lat="45.9284837" lon="8.8192929"><ele>432.0</ele><time>2026-03-28T15:25:29.435Z</time></trkpt><trkpt lat="45.9283764" lon="8.819403"><ele>432.0</ele><time>2026-03-28T15:25:30.436Z</time></trkpt><trkpt lat="45.9282687" lon="8.8195141"><ele>432.5</ele><time>2026-03-28T15:25:31.436Z</time></trkpt><trkpt lat="45.9281657" lon="8.8196197"><ele>433.0</ele><time>2026-03-28T15:25:32.435Z</time></trkpt><trkpt lat="45.9280689" lon="8.8197225"><ele>433.5</ele><time>2026-03-28T15:25:33.435Z</time></trkpt><trkpt lat="45.927974" lon="8.8198251"><ele>434.0</ele><time>2026-03-28T15:25:34.436Z</time></trkpt><trkpt lat="45.9278766" lon="8.8199233"><ele>434.0</ele><time>2026-03-28T15:25:35.435Z</time></trkpt><trkpt lat="45.9277793" lon="8.820013"><ele>434.0</ele><time>2026-03-28T15:25:36.436Z</time></trkpt><trkpt lat="45.9276783" lon="8.820099"><ele>434.0</ele><time>2026-03-28T15:25:37.436Z</time></trkpt><trkpt lat="45.9275769" lon="8.8201713"><ele>434.0</ele><time>2026-03-28T15:25:38.435Z</time></trkpt><trkpt lat="45.9274841" lon="8.8202389"><ele>434.3333333333333</ele><time>2026-03-28T15:25:39.436Z</time></trkpt><trkpt lat="45.9274058" lon="8.8202917"><ele>434.66666666666663</ele><time>2026-03-28T15:25:40.436Z</time></trkpt><trkpt lat="45.9273383" lon="8.8203421"><ele>435.0</ele><time>2026-03-28T15:25:41.435Z</time></trkpt><trkpt lat="45.9272404" lon="8.8204278"><ele>435.33333333333337</ele><time>2026-03-28T15:25:43.436Z</time></trkpt><trkpt lat="45.9271854" lon="8.8204776"><ele>435.6666666666667</ele><time>2026-03-28T15:25:45.436Z</time></trkpt><trkpt lat="45.9271305" lon="8.8205396"><ele>436.0</ele><time>2026-03-28T15:25:48.435Z</time></trkpt><trkpt lat="45.9270554" lon="8.8205987"><ele>436.0</ele><time>2026-03-28T15:25:50.436Z</time></trkpt><trkpt lat="45.9269405" lon="8.8206637"><ele>436.0</ele><time>2026-03-28T15:25:52.435Z</time></trkpt><trkpt lat="45.9268641" lon="8.8207052"><ele>436.0</ele><time>2026-03-28T15:25:53.436Z</time></trkpt><trkpt lat="45.9267793" lon="8.8207473"><ele>436.0</ele><time>2026-03-28T15:25:54.435Z</time></trkpt><trkpt lat="45.9266912" lon="8.8207761"><ele>436.0</ele><time>2026-03-28T15:25:55.435Z</time></trkpt><trkpt lat="45.9265962" lon="8.8207948"><ele>437.20000000000005</ele><time>2026-03-28T15:25:56.436Z</time></trkpt><trkpt lat="45.926497" lon="8.8208003"><ele>438.40000000000003</ele><time>2026-03-28T15:25:57.436Z</time></trkpt><trkpt lat="45.9263922" lon="8.8208008"><ele>439.6</ele><time>2026-03-28T15:25:58.435Z</time></trkpt><trkpt lat="45.926278" lon="8.8208059"><ele>440.8</ele><time>2026-03-28T15:25:59.435Z</time></trkpt><trkpt lat="45.92617" lon="8.82081"><ele>442.0</ele><time>2026-03-28T15:26:00.436Z</time></trkpt><trkpt lat="45.9260632" lon="8.8208156"><ele>442.0</ele><time>2026-03-28T15:26:01.435Z</time></trkpt><trkpt lat="45.9259522" lon="8.8208271"><ele>442.00000000000006</ele><time>2026-03-28T15:26:02.435Z</time></trkpt><trkpt lat="45.9258534" lon="8.820842"><ele>442.00000000000006</ele><time>2026-03-28T15:26:03.436Z</time></trkpt><trkpt lat="45.9257526" lon="8.8208585"><ele>442.0</ele><time>2026-03-28T15:26:04.436Z</time></trkpt><trkpt lat="45.9256532" lon="8.8208878"><ele>442.0</ele><time>2026-03-28T15:26:05.435Z</time></trkpt><trkpt lat="45.9255605" lon="8.8209139"><ele>442.6666666666667</ele><time>2026-03-28T15:26:06.436Z</time></trkpt><trkpt lat="45.9254779" lon="8.8209424"><ele>443.33333333333337</ele><time>2026-03-28T15:26:07.436Z</time></trkpt><trkpt lat="45.925401" lon="8.8209653"><ele>444.0</ele><time>2026-03-28T15:26:08.435Z</time></trkpt><trkpt lat="45.9253261" lon="8.8209895"><ele>444.66666666666663</ele><time>2026-03-28T15:26:09.436Z</time></trkpt><trkpt lat="45.9252489" lon="8.8210226"><ele>445.3333333333333</ele><time>2026-03-28T15:26:10.435Z</time></trkpt><trkpt lat="45.9251776" lon="8.8210455"><ele>446.0</ele><time>2026-03-28T15:26:11.436Z</time></trkpt><trkpt lat="45.9251104" lon="8.8210693"><ele>446.8333333333333</ele><time>2026-03-28T15:26:12.436Z</time></trkpt><trkpt lat="45.925039" lon="8.8210929"><ele>447.66666666666663</ele><time>2026-03-28T15:26:13.435Z</time></trkpt><trkpt lat="45.9249672" lon="8.8211161"><ele>448.5</ele><time>2026-03-28T15:26:14.436Z</time></trkpt><trkpt lat="45.9248824" lon="8.8211427"><ele>449.33333333333337</ele><time>2026-03-28T15:26:15.436Z</time></trkpt><trkpt lat="45.9247951" lon="8.8211639"><ele>450.1666666666667</ele><time>2026-03-28T15:26:16.435Z</time></trkpt><trkpt lat="45.9247019" lon="8.8211765"><ele>451.0</ele><time>2026-03-28T15:26:17.436Z</time></trkpt><trkpt lat="45.9246036" lon="8.8211829"><ele>451.0</ele><time>2026-03-28T15:26:18.435Z</time></trkpt><trkpt lat="45.9245072" lon="8.8211742"><ele>451.0</ele><time>2026-03-28T15:26:19.435Z</time></trkpt><trkpt lat="45.924411" lon="8.821162"><ele>451.0</ele><time>2026-03-28T15:26:20.436Z</time></trkpt><trkpt lat="45.9243126" lon="8.8211481"><ele>451.0</ele><time>2026-03-28T15:26:21.435Z</time></trkpt><trkpt lat="45.9242087" lon="8.8211333"><ele>451.0</ele><time>2026-03-28T15:26:22.436Z</time></trkpt><trkpt lat="45.9241029" lon="8.8211236"><ele>452.0</ele><time>2026-03-28T15:26:23.435Z</time></trkpt><trkpt lat="45.9239946" lon="8.8211163"><ele>453.0</ele><time>2026-03-28T15:26:24.435Z</time></trkpt><trkpt lat="45.9238805" lon="8.8211284"><ele>454.0</ele><time>2026-03-28T15:26:25.436Z</time></trkpt><trkpt lat="45.923762" lon="8.8211624"><ele>455.0</ele><time>2026-03-28T15:26:26.435Z</time></trkpt><trkpt lat="45.9236456" lon="8.8212141"><ele>455.0</ele><time>2026-03-28T15:26:27.435Z</time></trkpt><trkpt lat="45.9235211" lon="8.8212717"><ele>455.0</ele><time>2026-03-28T15:26:28.436Z</time></trkpt><trkpt lat="45.9233962" lon="8.8213288"><ele>455.0</ele><time>2026-03-28T15:26:29.436Z</time></trkpt><trkpt lat="45.923271" lon="8.8213867"><ele>455.0</ele><time>2026-03-28T15:26:30.434Z</time></trkpt><trkpt lat="45.9231513" lon="8.8214405"><ele>455.0</ele><time>2026-03-28T15:26:31.435Z</time></trkpt><trkpt lat="45.9230344" lon="8.8214974"><ele>455.0</ele><time>2026-03-28T15:26:32.435Z</time></trkpt><trkpt lat="45.9229202" lon="8.8215489"><ele>455.0</ele><time>2026-03-28T15:26:33.436Z</time></trkpt><trkpt lat="45.9228068" lon="8.8215993"><ele>455.0</ele><time>2026-03-28T15:26:34.435Z</time></trkpt><trkpt lat="45.9226875" lon="8.8216562"><ele>455.0</ele><time>2026-03-28T15:26:35.436Z</time></trkpt><trkpt lat="45.9225671" lon="8.8217086"><ele>455.0</ele><time>2026-03-28T15:26:36.436Z</time></trkpt><trkpt lat="45.9224418" lon="8.8217546"><ele>455.0</ele><time>2026-03-28T15:26:37.436Z</time></trkpt><trkpt lat="45.9223181" lon="8.8218038"><ele>455.0</ele><time>2026-03-28T15:26:38.435Z</time></trkpt><trkpt lat="45.9221936" lon="8.8218479"><ele>455.0</ele><time>2026-03-28T15:26:39.435Z</time></trkpt><trkpt lat="45.9220634" lon="8.8218983"><ele>455.0</ele><time>2026-03-28T15:26:40.436Z</time></trkpt><trkpt lat="45.9219315" lon="8.8219592"><ele>455.0</ele><time>2026-03-28T15:26:41.436Z</time></trkpt><trkpt lat="45.9217974" lon="8.8220311"><ele>455.0</ele><time>2026-03-28T15:26:42.436Z</time></trkpt><trkpt lat="45.9216597" lon="8.8221105"><ele>454.5</ele><time>2026-03-28T15:26:43.435Z</time></trkpt><trkpt lat="45.9215304" lon="8.8221979"><ele>454.0</ele><time>2026-03-28T15:26:44.436Z</time></trkpt><trkpt lat="45.92141" lon="8.8222879"><ele>453.5</ele><time>2026-03-28T15:26:45.435Z</time></trkpt><trkpt lat="45.9212825" lon="8.8223732"><ele>453.0</ele><time>2026-03-28T15:26:46.435Z</time></trkpt><trkpt lat="45.921152" lon="8.822456"><ele>453.0</ele><time>2026-03-28T15:26:47.436Z</time></trkpt><trkpt lat="45.9210147" lon="8.8225305"><ele>453.0</ele><time>2026-03-28T15:26:48.436Z</time></trkpt><trkpt lat="45.9208802" lon="8.8225843"><ele>453.0</ele><time>2026-03-28T15:26:49.435Z</time></trkpt><trkpt lat="45.920748" lon="8.8226183"><ele>453.0</ele><time>2026-03-28T15:26:50.434Z</time></trkpt><trkpt lat="45.9206132" lon="8.8226263"><ele>452.75</ele><time>2026-03-28T15:26:51.436Z</time></trkpt><trkpt lat="45.9204702" lon="8.822615"><ele>452.5</ele><time>2026-03-28T15:26:52.435Z</time></trkpt><trkpt lat="45.9203223" lon="8.8225955"><ele>452.25</ele><time>2026-03-28T15:26:53.435Z</time></trkpt><trkpt lat="45.9201761" lon="8.8225827"><ele>452.0</ele><time>2026-03-28T15:26:54.436Z</time></trkpt><trkpt lat="45.9200392" lon="8.8225835"><ele>452.0</ele><time>2026-03-28T15:26:55.435Z</time></trkpt><trkpt lat="45.9199031" lon="8.8226094"><ele>452.0</ele><time>2026-03-28T15:26:56.435Z</time></trkpt><trkpt lat="45.9197674" lon="8.8226666"><ele>452.0</ele><time>2026-03-28T15:26:57.435Z</time></trkpt><trkpt lat="45.9196322" lon="8.822746"><ele>452.0</ele><time>2026-03-28T15:26:58.436Z</time></trkpt><trkpt lat="45.9195095" lon="8.8228665"><ele>451.0</ele><time>2026-03-28T15:26:59.435Z</time></trkpt><trkpt lat="45.9194038" lon="8.8229978"><ele>450.0</ele><time>2026-03-28T15:27:00.435Z</time></trkpt><trkpt lat="45.9193023" lon="8.8231369"><ele>449.0</ele><time>2026-03-28T15:27:01.435Z</time></trkpt><trkpt lat="45.9192074" lon="8.8232836"><ele>448.0</ele><time>2026-03-28T15:27:02.436Z</time></trkpt><trkpt lat="45.9191123" lon="8.8234338"><ele>452.0</ele><time>2026-03-28T15:27:03.436Z</time></trkpt><trkpt lat="45.9190146" lon="8.8235848"><ele>456.0</ele><time>2026-03-28T15:27:04.435Z</time></trkpt><trkpt lat="45.9189219" lon="8.8237302"><ele>460.0</ele><time>2026-03-28T15:27:05.436Z</time></trkpt><trkpt lat="45.918824" lon="8.8238824"><ele>464.0</ele><time>2026-03-28T15:27:06.436Z</time></trkpt><trkpt lat="45.9187262" lon="8.8240257"><ele>464.0</ele><time>2026-03-28T15:27:07.435Z</time></trkpt><trkpt lat="45.9186249" lon="8.8241594"><ele>464.0</ele><time>2026-03-28T15:27:08.435Z</time></trkpt><trkpt lat="45.9185106" lon="8.8242881"><ele>464.0</ele><time>2026-03-28T15:27:09.436Z</time></trkpt><trkpt lat="45.9183831" lon="8.8243902"><ele>464.0</ele><time>2026-03-28T15:27:10.436Z</time></trkpt><trkpt lat="45.9182386" lon="8.8244731"><ele>470.66666666666663</ele><time>2026-03-28T15:27:11.436Z</time></trkpt><trkpt lat="45.9180816" lon="8.8245346"><ele>477.33333333333337</ele><time>2026-03-28T15:27:12.435Z</time></trkpt><trkpt lat="45.917928" lon="8.8245851"><ele>484.0</ele><time>2026-03-28T15:27:13.436Z</time></trkpt><trkpt lat="45.9177849" lon="8.8246318"><ele>484.0</ele><time>2026-03-28T15:27:14.435Z</time></trkpt><trkpt lat="45.9176454" lon="8.8246749"><ele>484.0</ele><time>2026-03-28T15:27:15.436Z</time></trkpt><trkpt lat="45.9175031" lon="8.8247249"><ele>484.0</ele><time>2026-03-28T15:27:16.436Z</time></trkpt><trkpt lat="45.917362" lon="8.8247764"><ele>484.0</ele><time>2026-03-28T15:27:17.436Z</time></trkpt><trkpt lat="45.9172147" lon="8.8248249"><ele>479.75</ele><time>2026-03-28T15:27:18.436Z</time></trkpt><trkpt lat="45.9170648" lon="8.8248743"><ele>475.5</ele><time>2026-03-28T15:27:19.435Z</time></trkpt><trkpt lat="45.9169225" lon="8.8249186"><ele>471.25</ele><time>2026-03-28T15:27:20.435Z</time></trkpt><trkpt lat="45.9167834" lon="8.8249558"><ele>467.0</ele><time>2026-03-28T15:27:21.435Z</time></trkpt><trkpt lat="45.916645" lon="8.8249734"><ele>464.5</ele><time>2026-03-28T15:27:22.435Z</time></trkpt><trkpt lat="45.9165015" lon="8.8249658"><ele>462.0</ele><time>2026-03-28T15:27:23.435Z</time></trkpt><trkpt lat="45.9163574" lon="8.8249337"><ele>459.5</ele><time>2026-03-28T15:27:24.435Z</time></trkpt><trkpt lat="45.916217" lon="8.8248805"><ele>457.0</ele><time>2026-03-28T15:27:25.435Z</time></trkpt><trkpt lat="45.9160653" lon="8.8248281"><ele>457.0</ele><time>2026-03-28T15:27:26.435Z</time></trkpt><trkpt lat="45.9159203" lon="8.8247682"><ele>457.0</ele><time>2026-03-28T15:27:27.435Z</time></trkpt><trkpt lat="45.9157735" lon="8.8247136"><ele>457.0</ele><time>2026-03-28T15:27:28.435Z</time></trkpt><trkpt lat="45.9156322" lon="8.8246644"><ele>457.0</ele><time>2026-03-28T15:27:29.435Z</time></trkpt><trkpt lat="45.9154878" lon="8.8246239"><ele>456.5</ele><time>2026-03-28T15:27:30.436Z</time></trkpt><trkpt lat="45.915337" lon="8.824609"><ele>456.0</ele><time>2026-03-28T15:27:31.435Z</time></trkpt><trkpt lat="45.9151925" lon="8.8246153"><ele>455.5</ele><time>2026-03-28T15:27:32.436Z</time></trkpt><trkpt lat="45.9150474" lon="8.8246451"><ele>455.0</ele><time>2026-03-28T15:27:33.435Z</time></trkpt><trkpt lat="45.9149103" lon="8.8247028"><ele>455.0</ele><time>2026-03-28T15:27:34.436Z</time></trkpt><trkpt lat="45.9147843" lon="8.82478"><ele>455.0</ele><time>2026-03-28T15:27:35.436Z</time></trkpt><trkpt lat="45.914666" lon="8.8248872"><ele>455.0</ele><time>2026-03-28T15:27:36.436Z</time></trkpt><trkpt lat="45.91456" lon="8.8250114"><ele>455.0</ele><time>2026-03-28T15:27:37.436Z</time></trkpt><trkpt lat="45.9144561" lon="8.8251528"><ele>457.25</ele><time>2026-03-28T15:27:38.435Z</time></trkpt><trkpt lat="45.9143536" lon="8.8252981"><ele>459.5</ele><time>2026-03-28T15:27:39.436Z</time></trkpt><trkpt lat="45.9142547" lon="8.825441"><ele>461.75</ele><time>2026-03-28T15:27:40.436Z</time></trkpt><trkpt lat="45.9141511" lon="8.8255727"><ele>464.0</ele><time>2026-03-28T15:27:41.436Z</time></trkpt><trkpt lat="45.9140326" lon="8.8256892"><ele>464.0</ele><time>2026-03-28T15:27:42.436Z</time></trkpt><trkpt lat="45.9138931" lon="8.8257814"><ele>464.0</ele><time>2026-03-28T15:27:43.435Z</time></trkpt><trkpt lat="45.9137396" lon="8.8258441"><ele>464.0</ele><time>2026-03-28T15:27:44.436Z</time></trkpt><trkpt lat="45.9135857" lon="8.8258702"><ele>464.0</ele><time>2026-03-28T15:27:45.436Z</time></trkpt><trkpt lat="45.9134269" lon="8.8258645"><ele>464.0</ele><time>2026-03-28T15:27:46.435Z</time></trkpt><trkpt lat="45.9132721" lon="8.8258262"><ele>464.0</ele><time>2026-03-28T15:27:47.435Z</time></trkpt><trkpt lat="45.9131176" lon="8.8257811"><ele>461.5</ele><time>2026-03-28T15:27:48.435Z</time></trkpt><trkpt lat="45.9129703" lon="8.8257452"><ele>459.0</ele><time>2026-03-28T15:27:49.435Z</time></trkpt><trkpt lat="45.9128207" lon="8.8257146"><ele>456.5</ele><time>2026-03-28T15:27:50.435Z</time></trkpt><trkpt lat="45.9126805" lon="8.8256938"><ele>454.0</ele><time>2026-03-28T15:27:51.435Z</time></trkpt><trkpt lat="45.9125383" lon="8.8256961"><ele>453.5</ele><time>2026-03-28T15:27:52.435Z</time></trkpt><trkpt lat="45.9123945" lon="8.825732"><ele>453.0</ele><time>2026-03-28T15:27:53.436Z</time></trkpt><trkpt lat="45.9122604" lon="8.8258001"><ele>452.5</ele><time>2026-03-28T15:27:54.435Z</time></trkpt><trkpt lat="45.9121311" lon="8.8259021"><ele>452.0</ele><time>2026-03-28T15:27:55.436Z</time></trkpt><trkpt lat="45.9120044" lon="8.8260286"><ele>453.3333333333333</ele><time>2026-03-28T15:27:56.436Z</time></trkpt><trkpt lat="45.9118828" lon="8.8261678"><ele>454.66666666666663</ele><time>2026-03-28T15:27:57.435Z</time></trkpt><trkpt lat="45.9117587" lon="8.8263091"><ele>456.0</ele><time>2026-03-28T15:27:58.435Z</time></trkpt><trkpt lat="45.9116345" lon="8.8264469"><ele>456.0</ele><time>2026-03-28T15:27:59.436Z</time></trkpt><trkpt lat="45.9115072" lon="8.82658"><ele>456.0</ele><time>2026-03-28T15:28:00.435Z</time></trkpt><trkpt lat="45.9113758" lon="8.8267063"><ele>456.0</ele><time>2026-03-28T15:28:01.435Z</time></trkpt><trkpt lat="45.9112358" lon="8.8268271"><ele>457.66666666666663</ele><time>2026-03-28T15:28:02.435Z</time></trkpt><trkpt lat="45.9110918" lon="8.8269367"><ele>459.3333333333333</ele><time>2026-03-28T15:28:03.435Z</time></trkpt><trkpt lat="45.9109421" lon="8.8270357"><ele>461.0</ele><time>2026-03-28T15:28:04.435Z</time></trkpt><trkpt lat="45.9107834" lon="8.8271232"><ele>461.0</ele><time>2026-03-28T15:28:05.436Z</time></trkpt><trkpt lat="45.9106268" lon="8.8271925"><ele>461.0</ele><time>2026-03-28T15:28:06.435Z</time></trkpt><trkpt lat="45.9104716" lon="8.8272413"><ele>461.0</ele><time>2026-03-28T15:28:07.435Z</time></trkpt><trkpt lat="45.9103103" lon="8.8272729"><ele>461.0</ele><time>2026-03-28T15:28:08.436Z</time></trkpt><trkpt lat="45.9101455" lon="8.8272905"><ele>461.0</ele><time>2026-03-28T15:28:09.436Z</time></trkpt><trkpt lat="45.9099785" lon="8.8272957"><ele>461.0</ele><time>2026-03-28T15:28:10.435Z</time></trkpt><trkpt lat="45.9098185" lon="8.8273023"><ele>459.3333333333333</ele><time>2026-03-28T15:28:11.436Z</time></trkpt><trkpt lat="45.9096319" lon="8.8273123"><ele>457.66666666666663</ele><time>2026-03-28T15:28:12.436Z</time></trkpt><trkpt lat="45.9094262" lon="8.8273176"><ele>456.0</ele><time>2026-03-28T15:28:13.435Z</time></trkpt><trkpt lat="45.9092067" lon="8.8273144"><ele>455.0</ele><time>2026-03-28T15:28:14.435Z</time></trkpt><trkpt lat="45.9089791" lon="8.8273137"><ele>454.0</ele><time>2026-03-28T15:28:15.435Z</time></trkpt><trkpt lat="45.9087505" lon="8.8273037"><ele>454.0</ele><time>2026-03-28T15:28:16.435Z</time></trkpt><trkpt lat="45.908511" lon="8.827296"><ele>454.0</ele><time>2026-03-28T15:28:17.435Z</time></trkpt><trkpt lat="45.9082814" lon="8.8272861"><ele>454.6666666666667</ele><time>2026-03-28T15:28:18.435Z</time></trkpt><trkpt lat="45.9080617" lon="8.8272728"><ele>455.33333333333337</ele><time>2026-03-28T15:28:19.436Z</time></trkpt><trkpt lat="45.9078536" lon="8.8272655"><ele>456.0</ele><time>2026-03-28T15:28:20.436Z</time></trkpt><trkpt lat="45.9076573" lon="8.8272552"><ele>457.33333333333337</ele><time>2026-03-28T15:28:21.436Z</time></trkpt><trkpt lat="45.9074674" lon="8.8272421"><ele>458.6666666666667</ele><time>2026-03-28T15:28:22.436Z</time></trkpt><trkpt lat="45.9072791" lon="8.8272275"><ele>460.0</ele><time>2026-03-28T15:28:23.435Z</time></trkpt><trkpt lat="45.9070988" lon="8.8272033"><ele>460.0</ele><time>2026-03-28T15:28:24.435Z</time></trkpt><trkpt lat="45.9069193" lon="8.8271614"><ele>460.0</ele><time>2026-03-28T15:28:25.435Z</time></trkpt><trkpt lat="45.9067436" lon="8.8271162"><ele>460.0</ele><time>2026-03-28T15:28:26.436Z</time></trkpt><trkpt lat="45.906572" lon="8.8270735"><ele>460.6666666666667</ele><time>2026-03-28T15:28:27.435Z</time></trkpt><trkpt lat="45.9064025" lon="8.827031"><ele>461.33333333333337</ele><time>2026-03-28T15:28:28.436Z</time></trkpt><trkpt lat="45.9062339" lon="8.8269971"><ele>462.0</ele><time>2026-03-28T15:28:29.436Z</time></trkpt><trkpt lat="45.9060699" lon="8.8269537"><ele>461.0</ele><time>2026-03-28T15:28:30.435Z</time></trkpt><trkpt lat="45.9059081" lon="8.8269056"><ele>460.0</ele><time>2026-03-28T15:28:31.435Z</time></trkpt><trkpt lat="45.9057489" lon="8.826854"><ele>459.0</ele><time>2026-03-28T15:28:32.436Z</time></trkpt><trkpt lat="45.9055864" lon="8.8268076"><ele>459.0</ele><time>2026-03-28T15:28:33.436Z</time></trkpt><trkpt lat="45.9054287" lon="8.8267558"><ele>459.0</ele><time>2026-03-28T15:28:34.435Z</time></trkpt><trkpt lat="45.9052751" lon="8.8266913"><ele>459.0</ele><time>2026-03-28T15:28:35.435Z</time></trkpt><trkpt lat="45.9051205" lon="8.8266193"><ele>460.66666666666663</ele><time>2026-03-28T15:28:36.435Z</time></trkpt><trkpt lat="45.9049688" lon="8.8265464"><ele>462.3333333333333</ele><time>2026-03-28T15:28:37.435Z</time></trkpt><trkpt lat="45.9048168" lon="8.8264741"><ele>464.0</ele><time>2026-03-28T15:28:38.435Z</time></trkpt><trkpt lat="45.9046708" lon="8.8264014"><ele>464.0</ele><time>2026-03-28T15:28:39.435Z</time></trkpt><trkpt lat="45.9045412" lon="8.8263456"><ele>464.0</ele><time>2026-03-28T15:28:40.435Z</time></trkpt><trkpt lat="45.9044116" lon="8.8263049"><ele>464.0</ele><time>2026-03-28T15:28:41.435Z</time></trkpt><trkpt lat="45.9042787" lon="8.8262812"><ele>464.0</ele><time>2026-03-28T15:28:42.435Z</time></trkpt><trkpt lat="45.9041416" lon="8.826281"><ele>465.5</ele><time>2026-03-28T15:28:43.436Z</time></trkpt><trkpt lat="45.9040131" lon="8.8262929"><ele>467.0</ele><time>2026-03-28T15:28:44.435Z</time></trkpt><trkpt lat="45.9038847" lon="8.8263182"><ele>468.5</ele><time>2026-03-28T15:28:45.435Z</time></trkpt><trkpt lat="45.9037582" lon="8.826336"><ele>470.0</ele><time>2026-03-28T15:28:46.436Z</time></trkpt><trkpt lat="45.9036331" lon="8.8263334"><ele>470.0</ele><time>2026-03-28T15:28:47.435Z</time></trkpt><trkpt lat="45.9035125" lon="8.8262998"><ele>470.0</ele><time>2026-03-28T15:28:48.435Z</time></trkpt><trkpt lat="45.9033937" lon="8.8262505"><ele>470.0</ele><time>2026-03-28T15:28:49.436Z</time></trkpt><trkpt lat="45.9032816" lon="8.826189"><ele>470.0</ele><time>2026-03-28T15:28:50.435Z</time></trkpt><trkpt lat="45.903169" lon="8.8261207"><ele>470.0</ele><time>2026-03-28T15:28:51.436Z</time></trkpt><trkpt lat="45.9030628" lon="8.8260612"><ele>470.0</ele><time>2026-03-28T15:28:52.435Z</time></trkpt><trkpt lat="45.9029556" lon="8.8260061"><ele>470.0</ele><time>2026-03-28T15:28:53.435Z</time></trkpt><trkpt lat="45.9028568" lon="8.8259469"><ele>470.0</ele><time>2026-03-28T15:28:54.435Z</time></trkpt><trkpt lat="45.9027561" lon="8.8258782"><ele>470.0</ele><time>2026-03-28T15:28:55.435Z</time></trkpt><trkpt lat="45.9026525" lon="8.8258203"><ele>469.6</ele><time>2026-03-28T15:28:56.435Z</time></trkpt><trkpt lat="45.9025536" lon="8.8257638"><ele>469.2</ele><time>2026-03-28T15:28:57.436Z</time></trkpt><trkpt lat="45.9024545" lon="8.8257171"><ele>468.79999999999995</ele><time>2026-03-28T15:28:58.436Z</time></trkpt><trkpt lat="45.9023672" lon="8.825674"><ele>468.4</ele><time>2026-03-28T15:28:59.436Z</time></trkpt><trkpt lat="45.9022775" lon="8.8256286"><ele>468.0</ele><time>2026-03-28T15:29:00.435Z</time></trkpt><trkpt lat="45.9021863" lon="8.8255926"><ele>468.0</ele><time>2026-03-28T15:29:01.435Z</time></trkpt><trkpt lat="45.9020862" lon="8.825582"><ele>467.99999999999994</ele><time>2026-03-28T15:29:02.435Z</time></trkpt><trkpt lat="45.9019833" lon="8.8256014"><ele>467.99999999999994</ele><time>2026-03-28T15:29:03.434Z</time></trkpt><trkpt lat="45.9018708" lon="8.8256353"><ele>468.0</ele><time>2026-03-28T15:29:04.435Z</time></trkpt><trkpt lat="45.9017604" lon="8.8256852"><ele>468.0</ele><time>2026-03-28T15:29:05.435Z</time></trkpt><trkpt lat="45.9016452" lon="8.8257442"><ele>468.5</ele><time>2026-03-28T15:29:06.434Z</time></trkpt><trkpt lat="45.9015241" lon="8.8258193"><ele>469.0</ele><time>2026-03-28T15:29:07.435Z</time></trkpt><trkpt lat="45.9014049" lon="8.8259041"><ele>469.5</ele><time>2026-03-28T15:29:08.435Z</time></trkpt><trkpt lat="45.9012884" lon="8.8259788"><ele>470.0</ele><time>2026-03-28T15:29:09.434Z</time></trkpt><trkpt lat="45.9011794" lon="8.8260342"><ele>470.0</ele><time>2026-03-28T15:29:10.435Z</time></trkpt><trkpt lat="45.9010736" lon="8.8260583"><ele>470.0</ele><time>2026-03-28T15:29:11.434Z</time></trkpt><trkpt lat="45.9009749" lon="8.826045"><ele>470.0</ele><time>2026-03-28T15:29:12.435Z</time></trkpt><trkpt lat="45.9008856" lon="8.8260011"><ele>470.0</ele><time>2026-03-28T15:29:13.434Z</time></trkpt><trkpt lat="45.900801" lon="8.8259699"><ele>470.0</ele><time>2026-03-28T15:29:14.435Z</time></trkpt><trkpt lat="45.9007198" lon="8.8259911"><ele>469.0</ele><time>2026-03-28T15:29:15.434Z</time></trkpt><trkpt lat="45.9006427" lon="8.8260583"><ele>468.0</ele><time>2026-03-28T15:29:16.435Z</time></trkpt><trkpt lat="45.9005525" lon="8.8261396"><ele>467.0</ele><time>2026-03-28T15:29:17.434Z</time></trkpt><trkpt lat="45.9004461" lon="8.8262303"><ele>466.0</ele><time>2026-03-28T15:29:18.434Z</time></trkpt><trkpt lat="45.9003121" lon="8.8263276"><ele>466.0</ele><time>2026-03-28T15:29:19.435Z</time></trkpt><trkpt lat="45.9001638" lon="8.8264299"><ele>466.0</ele><time>2026-03-28T15:29:20.435Z</time></trkpt><trkpt lat="45.9000014" lon="8.8265337"><ele>466.0</ele><time>2026-03-28T15:29:21.434Z</time></trkpt><trkpt lat="45.8998298" lon="8.8266403"><ele>465.0</ele><time>2026-03-28T15:29:22.435Z</time></trkpt><trkpt lat="45.8996617" lon="8.8267493"><ele>464.0</ele><time>2026-03-28T15:29:23.435Z</time></trkpt><trkpt lat="45.8994907" lon="8.8268547"><ele>463.0</ele><time>2026-03-28T15:29:24.434Z</time></trkpt><trkpt lat="45.8993263" lon="8.8269573"><ele>463.0</ele><time>2026-03-28T15:29:25.434Z</time></trkpt><trkpt lat="45.8991697" lon="8.8270553"><ele>463.0</ele><time>2026-03-28T15:29:26.434Z</time></trkpt><trkpt lat="45.8990185" lon="8.8271495"><ele>463.0</ele><time>2026-03-28T15:29:27.434Z</time></trkpt><trkpt lat="45.8988715" lon="8.8272428"><ele>463.0</ele><time>2026-03-28T15:29:28.434Z</time></trkpt><trkpt lat="45.8987318" lon="8.8273338"><ele>463.0</ele><time>2026-03-28T15:29:29.435Z</time></trkpt><trkpt lat="45.8985958" lon="8.8274196"><ele>463.0</ele><time>2026-03-28T15:29:30.435Z</time></trkpt><trkpt lat="45.8984646" lon="8.8275038"><ele>463.0</ele><time>2026-03-28T15:29:31.434Z</time></trkpt><trkpt lat="45.898333" lon="8.8275887"><ele>463.75</ele><time>2026-03-28T15:29:32.435Z</time></trkpt><trkpt lat="45.8981981" lon="8.8276732"><ele>464.5</ele><time>2026-03-28T15:29:33.434Z</time></trkpt><trkpt lat="45.8980627" lon="8.8277609"><ele>465.25</ele><time>2026-03-28T15:29:34.434Z</time></trkpt><trkpt lat="45.8979227" lon="8.8278423"><ele>466.0</ele><time>2026-03-28T15:29:35.435Z</time></trkpt><trkpt lat="45.8977759" lon="8.8279196"><ele>466.0</ele><time>2026-03-28T15:29:36.434Z</time></trkpt><trkpt lat="45.8976219" lon="8.8279906"><ele>466.0</ele><time>2026-03-28T15:29:37.435Z</time></trkpt><trkpt lat="45.8974631" lon="8.8280533"><ele>466.0</ele><time>2026-03-28T15:29:38.435Z</time></trkpt><trkpt lat="45.8972931" lon="8.8281031"><ele>465.6666666666667</ele><time>2026-03-28T15:29:39.435Z</time></trkpt><trkpt lat="45.8971201" lon="8.8281471"><ele>465.33333333333337</ele><time>2026-03-28T15:29:40.434Z</time></trkpt><trkpt lat="45.8969399" lon="8.828188"><ele>465.0</ele><time>2026-03-28T15:29:41.435Z</time></trkpt><trkpt lat="45.8967599" lon="8.8282386"><ele>464.66666666666663</ele><time>2026-03-28T15:29:42.435Z</time></trkpt><trkpt lat="45.8965842" lon="8.8283125"><ele>464.3333333333333</ele><time>2026-03-28T15:29:43.435Z</time></trkpt><trkpt lat="45.8964117" lon="8.8284089"><ele>464.0</ele><time>2026-03-28T15:29:44.435Z</time></trkpt><trkpt lat="45.8962472" lon="8.8285359"><ele>464.66666666666663</ele><time>2026-03-28T15:29:45.434Z</time></trkpt><trkpt lat="45.8960957" lon="8.8286927"><ele>465.33333333333337</ele><time>2026-03-28T15:29:46.435Z</time></trkpt><trkpt lat="45.8959449" lon="8.8288463"><ele>466.0</ele><time>2026-03-28T15:29:47.435Z</time></trkpt><trkpt lat="45.8957722" lon="8.8289766"><ele>466.0</ele><time>2026-03-28T15:29:48.435Z</time></trkpt><trkpt lat="45.8955844" lon="8.8290693"><ele>466.0</ele><time>2026-03-28T15:29:49.435Z</time></trkpt><trkpt lat="45.895396" lon="8.8291309"><ele>466.0</ele><time>2026-03-28T15:29:50.435Z</time></trkpt><trkpt lat="45.8952061" lon="8.8291768"><ele>464.6666666666667</ele><time>2026-03-28T15:29:51.434Z</time></trkpt><trkpt lat="45.8950251" lon="8.8292084"><ele>463.33333333333337</ele><time>2026-03-28T15:29:52.434Z</time></trkpt><trkpt lat="45.8948559" lon="8.8292499"><ele>462.0</ele><time>2026-03-28T15:29:53.435Z</time></trkpt><trkpt lat="45.8946956" lon="8.8293083"><ele>465.0</ele><time>2026-03-28T15:29:54.434Z</time></trkpt><trkpt lat="45.8945403" lon="8.8293918"><ele>468.0</ele><time>2026-03-28T15:29:55.434Z</time></trkpt><trkpt lat="45.8943868" lon="8.8294965"><ele>471.0</ele><time>2026-03-28T15:29:56.435Z</time></trkpt><trkpt lat="45.8942386" lon="8.8296154"><ele>471.0</ele><time>2026-03-28T15:29:57.434Z</time></trkpt><trkpt lat="45.89408" lon="8.8297174"><ele>471.0</ele><time>2026-03-28T15:29:58.434Z</time></trkpt><trkpt lat="45.8939194" lon="8.8298194"><ele>471.0</ele><time>2026-03-28T15:29:59.435Z</time></trkpt><trkpt lat="45.8937485" lon="8.8298964"><ele>471.0</ele><time>2026-03-28T15:30:00.435Z</time></trkpt><trkpt lat="45.8935787" lon="8.8299654"><ele>471.0</ele><time>2026-03-28T15:30:01.435Z</time></trkpt><trkpt lat="45.893409" lon="8.8300308"><ele>471.0</ele><time>2026-03-28T15:30:02.434Z</time></trkpt><trkpt lat="45.8932338" lon="8.8300984"><ele>473.66666666666663</ele><time>2026-03-28T15:30:03.434Z</time></trkpt><trkpt lat="45.8930641" lon="8.8301524"><ele>476.3333333333333</ele><time>2026-03-28T15:30:04.435Z</time></trkpt><trkpt lat="45.8928924" lon="8.8301937"><ele>479.0</ele><time>2026-03-28T15:30:05.434Z</time></trkpt><trkpt lat="45.8927142" lon="8.8302304"><ele>477.3333333333333</ele><time>2026-03-28T15:30:06.435Z</time></trkpt><trkpt lat="45.8925449" lon="8.8302551"><ele>475.66666666666663</ele><time>2026-03-28T15:30:07.435Z</time></trkpt><trkpt lat="45.8923753" lon="8.8302749"><ele>474.0</ele><time>2026-03-28T15:30:08.435Z</time></trkpt><trkpt lat="45.8921993" lon="8.8303002"><ele>474.0</ele><time>2026-03-28T15:30:09.434Z</time></trkpt><trkpt lat="45.8920261" lon="8.8303243"><ele>474.0</ele><time>2026-03-28T15:30:10.435Z</time></trkpt><trkpt lat="45.8918535" lon="8.8303476"><ele>474.0</ele><time>2026-03-28T15:30:11.435Z</time></trkpt><trkpt lat="45.8916836" lon="8.8303672"><ele>474.0</ele><time>2026-03-28T15:30:12.435Z</time></trkpt><trkpt lat="45.8915093" lon="8.8303931"><ele>474.0</ele><time>2026-03-28T15:30:13.434Z</time></trkpt><trkpt lat="45.8913439" lon="8.8304104"><ele>474.0</ele><time>2026-03-28T15:30:14.434Z</time></trkpt><trkpt lat="45.8911797" lon="8.8304329"><ele>474.0</ele><time>2026-03-28T15:30:15.435Z</time></trkpt><trkpt lat="45.8910098" lon="8.8304529"><ele>474.0</ele><time>2026-03-28T15:30:16.435Z</time></trkpt><trkpt lat="45.8908474" lon="8.8304778"><ele>474.0</ele><time>2026-03-28T15:30:17.434Z</time></trkpt><trkpt lat="45.8906828" lon="8.8305225"><ele>474.0</ele><time>2026-03-28T15:30:18.434Z</time></trkpt><trkpt lat="45.8905172" lon="8.830584"><ele>474.0</ele><time>2026-03-28T15:30:19.434Z</time></trkpt><trkpt lat="45.890355" lon="8.8306635"><ele>474.0</ele><time>2026-03-28T15:30:20.434Z</time></trkpt><trkpt lat="45.8901951" lon="8.8307503"><ele>474.66666666666663</ele><time>2026-03-28T15:30:21.435Z</time></trkpt><trkpt lat="45.8900325" lon="8.8308671"><ele>475.3333333333333</ele><time>2026-03-28T15:30:22.435Z</time></trkpt><trkpt lat="45.8898723" lon="8.8309954"><ele>476.0</ele><time>2026-03-28T15:30:23.434Z</time></trkpt><trkpt lat="45.8897107" lon="8.8311228"><ele>476.0</ele><time>2026-03-28T15:30:24.435Z</time></trkpt><trkpt lat="45.8895507" lon="8.831244"><ele>476.0</ele><time>2026-03-28T15:30:25.435Z</time></trkpt><trkpt lat="45.8893907" lon="8.8313726"><ele>476.0</ele><time>2026-03-28T15:30:26.434Z</time></trkpt><trkpt lat="45.8892319" lon="8.8314995"><ele>473.3333333333333</ele><time>2026-03-28T15:30:27.435Z</time></trkpt><trkpt lat="45.8890739" lon="8.8316252"><ele>470.66666666666663</ele><time>2026-03-28T15:30:28.435Z</time></trkpt><trkpt lat="45.8889206" lon="8.8317497"><ele>468.0</ele><time>2026-03-28T15:30:29.435Z</time></trkpt><trkpt lat="45.888765" lon="8.8318739"><ele>468.0</ele><time>2026-03-28T15:30:30.434Z</time></trkpt><trkpt lat="45.8886093" lon="8.832"><ele>468.0</ele><time>2026-03-28T15:30:31.435Z</time></trkpt><trkpt lat="45.888454" lon="8.8321269"><ele>468.0</ele><time>2026-03-28T15:30:32.434Z</time></trkpt><trkpt lat="45.8882977" lon="8.8322524"><ele>467.66666666666663</ele><time>2026-03-28T15:30:33.435Z</time></trkpt><trkpt lat="45.8881406" lon="8.8323775"><ele>467.3333333333333</ele><time>2026-03-28T15:30:34.434Z</time></trkpt><trkpt lat="45.8879923" lon="8.8324996"><ele>467.0</ele><time>2026-03-28T15:30:35.434Z</time></trkpt><trkpt lat="45.8878352" lon="8.8326269"><ele>469.66666666666663</ele><time>2026-03-28T15:30:36.435Z</time></trkpt><trkpt lat="45.8876807" lon="8.8327545"><ele>472.33333333333337</ele><time>2026-03-28T15:30:37.434Z</time></trkpt><trkpt lat="45.887523" lon="8.8328842"><ele>475.0</ele><time>2026-03-28T15:30:38.434Z</time></trkpt><trkpt lat="45.8873616" lon="8.8330103"><ele>475.0</ele><time>2026-03-28T15:30:39.435Z</time></trkpt><trkpt lat="45.8872003" lon="8.8331379"><ele>475.0</ele><time>2026-03-28T15:30:40.434Z</time></trkpt><trkpt lat="45.8870357" lon="8.833274"><ele>475.0</ele><time>2026-03-28T15:30:41.434Z</time></trkpt><trkpt lat="45.8868709" lon="8.8334069"><ele>476.0</ele><time>2026-03-28T15:30:42.434Z</time></trkpt><trkpt lat="45.8867095" lon="8.8335366"><ele>477.0</ele><time>2026-03-28T15:30:43.434Z</time></trkpt><trkpt lat="45.8865534" lon="8.8336614"><ele>478.0</ele><time>2026-03-28T15:30:44.435Z</time></trkpt><trkpt lat="45.8863992" lon="8.8337754"><ele>478.0</ele><time>2026-03-28T15:30:45.435Z</time></trkpt><trkpt lat="45.8862442" lon="8.8338871"><ele>478.0</ele><time>2026-03-28T15:30:46.434Z</time></trkpt><trkpt lat="45.8860829" lon="8.8340022"><ele>478.0</ele><time>2026-03-28T15:30:47.434Z</time></trkpt><trkpt lat="45.8859226" lon="8.8340988"><ele>480.33333333333337</ele><time>2026-03-28T15:30:48.434Z</time></trkpt><trkpt lat="45.8857578" lon="8.8341852"><ele>482.66666666666663</ele><time>2026-03-28T15:30:49.435Z</time></trkpt><trkpt lat="45.8855853" lon="8.834255"><ele>485.0</ele><time>2026-03-28T15:30:50.434Z</time></trkpt><trkpt lat="45.8854084" lon="8.8343053"><ele>485.0</ele><time>2026-03-28T15:30:51.434Z</time></trkpt><trkpt lat="45.8852248" lon="8.8343487"><ele>485.0</ele><time>2026-03-28T15:30:52.434Z</time></trkpt><trkpt lat="45.8850384" lon="8.8343847"><ele>485.0</ele><time>2026-03-28T15:30:53.434Z</time></trkpt><trkpt lat="45.8848503" lon="8.8344198"><ele>483.0</ele><time>2026-03-28T15:30:54.434Z</time></trkpt><trkpt lat="45.8846629" lon="8.83446"><ele>481.0</ele><time>2026-03-28T15:30:55.434Z</time></trkpt><trkpt lat="45.8844842" lon="8.834502"><ele>479.0</ele><time>2026-03-28T15:30:56.435Z</time></trkpt><trkpt lat="45.884312" lon="8.8345493"><ele>475.66666666666663</ele><time>2026-03-28T15:30:57.434Z</time></trkpt><trkpt lat="45.8841463" lon="8.8346054"><ele>472.33333333333337</ele><time>2026-03-28T15:30:58.435Z</time></trkpt><trkpt lat="45.8839806" lon="8.8346758"><ele>469.0</ele><time>2026-03-28T15:30:59.435Z</time></trkpt><trkpt lat="45.8838214" lon="8.8347678"><ele>469.0</ele><time>2026-03-28T15:31:00.434Z</time></trkpt><trkpt lat="45.8836482" lon="8.8348659"><ele>469.0</ele><time>2026-03-28T15:31:01.434Z</time></trkpt><trkpt lat="45.8834775" lon="8.8349583"><ele>469.0</ele><time>2026-03-28T15:31:02.435Z</time></trkpt><trkpt lat="45.8833092" lon="8.8350521"><ele>468.6666666666667</ele><time>2026-03-28T15:31:03.435Z</time></trkpt><trkpt lat="45.8831381" lon="8.8351458"><ele>468.33333333333337</ele><time>2026-03-28T15:31:04.435Z</time></trkpt><trkpt lat="45.8829675" lon="8.835244"><ele>468.0</ele><time>2026-03-28T15:31:05.435Z</time></trkpt><trkpt lat="45.8827943" lon="8.835349"><ele>468.0</ele><time>2026-03-28T15:31:06.435Z</time></trkpt><trkpt lat="45.88262" lon="8.8354563"><ele>468.0</ele><time>2026-03-28T15:31:07.435Z</time></trkpt><trkpt lat="45.882444" lon="8.8355621"><ele>468.0</ele><time>2026-03-28T15:31:08.434Z</time></trkpt><trkpt lat="45.8822638" lon="8.8356712"><ele>467.66666666666663</ele><time>2026-03-28T15:31:09.435Z</time></trkpt><trkpt lat="45.8820839" lon="8.8357791"><ele>467.3333333333333</ele><time>2026-03-28T15:31:10.434Z</time></trkpt><trkpt lat="45.881909" lon="8.8358878"><ele>467.0</ele><time>2026-03-28T15:31:11.435Z</time></trkpt><trkpt lat="45.8817353" lon="8.835995"><ele>469.3333333333333</ele><time>2026-03-28T15:31:12.435Z</time></trkpt><trkpt lat="45.8815675" lon="8.8360943"><ele>471.66666666666663</ele><time>2026-03-28T15:31:13.435Z</time></trkpt><trkpt lat="45.8814051" lon="8.8361856"><ele>474.0</ele><time>2026-03-28T15:31:14.435Z</time></trkpt><trkpt lat="45.8812425" lon="8.8362787"><ele>474.0</ele><time>2026-03-28T15:31:15.435Z</time></trkpt><trkpt lat="45.8810833" lon="8.8363725"><ele>474.0</ele><time>2026-03-28T15:31:16.435Z</time></trkpt><trkpt lat="45.8809273" lon="8.8364648"><ele>474.0</ele><time>2026-03-28T15:31:17.435Z</time></trkpt><trkpt lat="45.8807698" lon="8.8365555"><ele>471.33333333333337</ele><time>2026-03-28T15:31:18.435Z</time></trkpt><trkpt lat="45.8806118" lon="8.8366383"><ele>468.6666666666667</ele><time>2026-03-28T15:31:19.435Z</time></trkpt><trkpt lat="45.8804489" lon="8.8367124"><ele>466.0</ele><time>2026-03-28T15:31:20.435Z</time></trkpt><trkpt lat="45.8802887" lon="8.8367579"><ele>466.0</ele><time>2026-03-28T15:31:21.435Z</time></trkpt><trkpt lat="45.8801281" lon="8.8367943"><ele>466.0</ele><time>2026-03-28T15:31:22.434Z</time></trkpt><trkpt lat="45.8799693" lon="8.8368147"><ele>466.0</ele><time>2026-03-28T15:31:23.434Z</time></trkpt><trkpt lat="45.8798027" lon="8.8368187"><ele>465.6666666666667</ele><time>2026-03-28T15:31:24.434Z</time></trkpt><trkpt lat="45.8796331" lon="8.8368128"><ele>465.33333333333337</ele><time>2026-03-28T15:31:25.434Z</time></trkpt><trkpt lat="45.8794662" lon="8.8367967"><ele>465.0</ele><time>2026-03-28T15:31:26.434Z</time></trkpt><trkpt lat="45.8792907" lon="8.8367667"><ele>467.0</ele><time>2026-03-28T15:31:27.434Z</time></trkpt><trkpt lat="45.8791176" lon="8.8367393"><ele>469.0</ele><time>2026-03-28T15:31:28.434Z</time></trkpt><trkpt lat="45.8789404" lon="8.8367119"><ele>471.0</ele><time>2026-03-28T15:31:29.434Z</time></trkpt><trkpt lat="45.8787644" lon="8.8366813"><ele>471.0</ele><time>2026-03-28T15:31:30.435Z</time></trkpt><trkpt lat="45.8785967" lon="8.8366597"><ele>471.0</ele><time>2026-03-28T15:31:31.434Z</time></trkpt><trkpt lat="45.8784393" lon="8.836639"><ele>471.0</ele><time>2026-03-28T15:31:32.435Z</time></trkpt><trkpt lat="45.8782804" lon="8.8366064"><ele>470.0</ele><time>2026-03-28T15:31:33.435Z</time></trkpt><trkpt lat="45.8781248" lon="8.8365761"><ele>469.0</ele><time>2026-03-28T15:31:34.434Z</time></trkpt><trkpt lat="45.8779708" lon="8.8365512"><ele>468.0</ele><time>2026-03-28T15:31:35.434Z</time></trkpt><trkpt lat="45.8778179" lon="8.8365241"><ele>468.0</ele><time>2026-03-28T15:31:36.434Z</time></trkpt><trkpt lat="45.8776562" lon="8.8364989"><ele>468.0</ele><time>2026-03-28T15:31:37.434Z</time></trkpt><trkpt lat="45.8774944" lon="8.8364707"><ele>468.0</ele><time>2026-03-28T15:31:38.435Z</time></trkpt><trkpt lat="45.8773313" lon="8.8364432"><ele>468.33333333333337</ele><time>2026-03-28T15:31:39.435Z</time></trkpt><trkpt lat="45.8771654" lon="8.8364177"><ele>468.6666666666667</ele><time>2026-03-28T15:31:40.435Z</time></trkpt><trkpt lat="45.8769995" lon="8.8363882"><ele>469.0</ele><time>2026-03-28T15:31:41.435Z</time></trkpt><trkpt lat="45.8768386" lon="8.8363592"><ele>469.0</ele><time>2026-03-28T15:31:42.435Z</time></trkpt><trkpt lat="45.8766796" lon="8.8363295"><ele>469.0</ele><time>2026-03-28T15:31:43.435Z</time></trkpt><trkpt lat="45.876522" lon="8.8363001"><ele>469.0</ele><time>2026-03-28T15:31:44.434Z</time></trkpt><trkpt lat="45.8763644" lon="8.8362803"><ele>469.0</ele><time>2026-03-28T15:31:45.434Z</time></trkpt><trkpt lat="45.8762033" lon="8.8362513"><ele>469.0</ele><time>2026-03-28T15:31:46.434Z</time></trkpt><trkpt lat="45.8760536" lon="8.8362299"><ele>469.0</ele><time>2026-03-28T15:31:47.434Z</time></trkpt><trkpt lat="45.8759037" lon="8.8362037"><ele>470.25</ele><time>2026-03-28T15:31:48.435Z</time></trkpt><trkpt lat="45.8757579" lon="8.8361791"><ele>471.5</ele><time>2026-03-28T15:31:49.435Z</time></trkpt><trkpt lat="45.8756195" lon="8.8361551"><ele>472.75</ele><time>2026-03-28T15:31:50.435Z</time></trkpt><trkpt lat="45.8754787" lon="8.8361294"><ele>474.0</ele><time>2026-03-28T15:31:51.435Z</time></trkpt><trkpt lat="45.8753328" lon="8.8361073"><ele>474.0</ele><time>2026-03-28T15:31:52.434Z</time></trkpt><trkpt lat="45.8751813" lon="8.8360839"><ele>474.0</ele><time>2026-03-28T15:31:53.434Z</time></trkpt><trkpt lat="45.8750233" lon="8.8360559"><ele>474.0</ele><time>2026-03-28T15:31:54.435Z</time></trkpt><trkpt lat="45.8748603" lon="8.8360242"><ele>476.0</ele><time>2026-03-28T15:31:55.435Z</time></trkpt><trkpt lat="45.8746919" lon="8.8359955"><ele>478.0</ele><time>2026-03-28T15:31:56.434Z</time></trkpt><trkpt lat="45.8745237" lon="8.8359635"><ele>480.0</ele><time>2026-03-28T15:31:57.434Z</time></trkpt><trkpt lat="45.8743429" lon="8.8359391"><ele>481.0</ele><time>2026-03-28T15:31:58.434Z</time></trkpt><trkpt lat="45.8741636" lon="8.8359126"><ele>482.0</ele><time>2026-03-28T15:31:59.435Z</time></trkpt><trkpt lat="45.8739846" lon="8.8358828"><ele>483.0</ele><time>2026-03-28T15:32:00.435Z</time></trkpt><trkpt lat="45.8738121" lon="8.8358514"><ele>483.0</ele><time>2026-03-28T15:32:01.434Z</time></trkpt><trkpt lat="45.8736514" lon="8.8358233"><ele>483.0</ele><time>2026-03-28T15:32:02.435Z</time></trkpt><trkpt lat="45.8734944" lon="8.8358021"><ele>483.0</ele><time>2026-03-28T15:32:03.434Z</time></trkpt><trkpt lat="45.8733413" lon="8.8357694"><ele>482.66666666666663</ele><time>2026-03-28T15:32:04.435Z</time></trkpt><trkpt lat="45.8731865" lon="8.8357383"><ele>482.3333333333333</ele><time>2026-03-28T15:32:05.434Z</time></trkpt><trkpt lat="45.8730337" lon="8.8356969"><ele>482.0</ele><time>2026-03-28T15:32:06.435Z</time></trkpt><trkpt lat="45.87288" lon="8.8356438"><ele>482.0</ele><time>2026-03-28T15:32:07.434Z</time></trkpt><trkpt lat="45.8727261" lon="8.8355704"><ele>482.0</ele><time>2026-03-28T15:32:08.434Z</time></trkpt><trkpt lat="45.872569" lon="8.8354855"><ele>482.0</ele><time>2026-03-28T15:32:09.435Z</time></trkpt><trkpt lat="45.8724026" lon="8.8353781"><ele>482.66666666666663</ele><time>2026-03-28T15:32:10.435Z</time></trkpt><trkpt lat="45.8722433" lon="8.8352461"><ele>483.33333333333337</ele><time>2026-03-28T15:32:11.435Z</time></trkpt><trkpt lat="45.8720867" lon="8.8351036"><ele>484.0</ele><time>2026-03-28T15:32:12.434Z</time></trkpt><trkpt lat="45.8719402" lon="8.8349443"><ele>484.0</ele><time>2026-03-28T15:32:13.434Z</time></trkpt><trkpt lat="45.8717996" lon="8.8347703"><ele>484.0</ele><time>2026-03-28T15:32:14.434Z</time></trkpt><trkpt lat="45.8716735" lon="8.8345904"><ele>484.0</ele><time>2026-03-28T15:32:15.435Z</time></trkpt><trkpt lat="45.87156" lon="8.8344063"><ele>484.6666666666667</ele><time>2026-03-28T15:32:16.434Z</time></trkpt><trkpt lat="45.8714484" lon="8.8342376"><ele>485.33333333333337</ele><time>2026-03-28T15:32:17.434Z</time></trkpt><trkpt lat="45.8713369" lon="8.8340723"><ele>486.0</ele><time>2026-03-28T15:32:18.434Z</time></trkpt><trkpt lat="45.8712233" lon="8.8339051"><ele>486.0</ele><time>2026-03-28T15:32:19.434Z</time></trkpt><trkpt lat="45.8711022" lon="8.8337519"><ele>486.0</ele><time>2026-03-28T15:32:20.435Z</time></trkpt><trkpt lat="45.8709667" lon="8.8336133"><ele>486.0</ele><time>2026-03-28T15:32:21.434Z</time></trkpt><trkpt lat="45.8708169" lon="8.8334952"><ele>484.33333333333337</ele><time>2026-03-28T15:32:22.435Z</time></trkpt><trkpt lat="45.8706521" lon="8.8334003"><ele>482.6666666666667</ele><time>2026-03-28T15:32:23.435Z</time></trkpt><trkpt lat="45.8704728" lon="8.8333384"><ele>481.0</ele><time>2026-03-28T15:32:24.435Z</time></trkpt><trkpt lat="45.8702808" lon="8.8332992"><ele>480.0</ele><time>2026-03-28T15:32:25.434Z</time></trkpt><trkpt lat="45.870084" lon="8.8332642"><ele>479.0</ele><time>2026-03-28T15:32:26.435Z</time></trkpt><trkpt lat="45.8698876" lon="8.8332275"><ele>478.0</ele><time>2026-03-28T15:32:27.434Z</time></trkpt><trkpt lat="45.8696919" lon="8.8331903"><ele>478.0</ele><time>2026-03-28T15:32:28.435Z</time></trkpt><trkpt lat="45.8695072" lon="8.8331532"><ele>478.0</ele><time>2026-03-28T15:32:29.434Z</time></trkpt><trkpt lat="45.8693265" lon="8.8331175"><ele>478.0</ele><time>2026-03-28T15:32:30.434Z</time></trkpt><trkpt lat="45.8691441" lon="8.8330833"><ele>478.0</ele><time>2026-03-28T15:32:31.433Z</time></trkpt><trkpt lat="45.8689649" lon="8.833049"><ele>478.0</ele><time>2026-03-28T15:32:32.435Z</time></trkpt><trkpt lat="45.8687802" lon="8.8330107"><ele>478.0</ele><time>2026-03-28T15:32:33.434Z</time></trkpt><trkpt lat="45.8685936" lon="8.8329717"><ele>477.33333333333337</ele><time>2026-03-28T15:32:34.434Z</time></trkpt><trkpt lat="45.8684034" lon="8.8329342"><ele>476.66666666666663</ele><time>2026-03-28T15:32:35.434Z</time></trkpt><trkpt lat="45.8682102" lon="8.8328952"><ele>476.0</ele><time>2026-03-28T15:32:36.434Z</time></trkpt><trkpt lat="45.8680155" lon="8.832861"><ele>476.0</ele><time>2026-03-28T15:32:37.434Z</time></trkpt><trkpt lat="45.8678181" lon="8.8328268"><ele>476.0</ele><time>2026-03-28T15:32:38.434Z</time></trkpt><trkpt lat="45.8676294" lon="8.8327948"><ele>476.0</ele><time>2026-03-28T15:32:39.434Z</time></trkpt><trkpt lat="45.8674433" lon="8.8327617"><ele>475.66666666666663</ele><time>2026-03-28T15:32:40.435Z</time></trkpt><trkpt lat="45.8672607" lon="8.8327328"><ele>475.33333333333337</ele><time>2026-03-28T15:32:41.435Z</time></trkpt><trkpt lat="45.8670751" lon="8.8326966"><ele>475.0</ele><time>2026-03-28T15:32:42.435Z</time></trkpt><trkpt lat="45.8668914" lon="8.8326641"><ele>476.33333333333337</ele><time>2026-03-28T15:32:43.435Z</time></trkpt><trkpt lat="45.866705" lon="8.8326324"><ele>477.66666666666663</ele><time>2026-03-28T15:32:44.435Z</time></trkpt><trkpt lat="45.8665188" lon="8.8326009"><ele>479.0</ele><time>2026-03-28T15:32:45.434Z</time></trkpt><trkpt lat="45.8663298" lon="8.8325674"><ele>479.0</ele><time>2026-03-28T15:32:46.435Z</time></trkpt><trkpt lat="45.8661454" lon="8.8325295"><ele>479.0</ele><time>2026-03-28T15:32:47.434Z</time></trkpt><trkpt lat="45.8659592" lon="8.8324952"><ele>479.0</ele><time>2026-03-28T15:32:48.435Z</time></trkpt><trkpt lat="45.8657729" lon="8.8324666"><ele>477.3333333333333</ele><time>2026-03-28T15:32:49.434Z</time></trkpt><trkpt lat="45.8655906" lon="8.8324387"><ele>475.66666666666663</ele><time>2026-03-28T15:32:50.435Z</time></trkpt><trkpt lat="45.8654147" lon="8.8324021"><ele>474.0</ele><time>2026-03-28T15:32:51.435Z</time></trkpt><trkpt lat="45.8652445" lon="8.8323644"><ele>473.33333333333337</ele><time>2026-03-28T15:32:52.435Z</time></trkpt><trkpt lat="45.8650777" lon="8.8323319"><ele>472.6666666666667</ele><time>2026-03-28T15:32:53.435Z</time></trkpt><trkpt lat="45.8649102" lon="8.8323"><ele>472.0</ele><time>2026-03-28T15:32:54.435Z</time></trkpt><trkpt lat="45.8647436" lon="8.8322705"><ele>472.0</ele><time>2026-03-28T15:32:55.434Z</time></trkpt><trkpt lat="45.8645796" lon="8.8322463"><ele>472.0</ele><time>2026-03-28T15:32:56.434Z</time></trkpt><trkpt lat="45.8644116" lon="8.8322488"><ele>472.0</ele><time>2026-03-28T15:32:57.434Z</time></trkpt><trkpt lat="45.8642414" lon="8.8322766"><ele>472.0</ele><time>2026-03-28T15:32:58.435Z</time></trkpt><trkpt lat="45.864069" lon="8.8323137"><ele>472.0</ele><time>2026-03-28T15:32:59.434Z</time></trkpt><trkpt lat="45.8638971" lon="8.8323525"><ele>472.0</ele><time>2026-03-28T15:33:00.435Z</time></trkpt><trkpt lat="45.8637305" lon="8.8323909"><ele>472.0</ele><time>2026-03-28T15:33:01.434Z</time></trkpt><trkpt lat="45.863568" lon="8.8324251"><ele>472.0</ele><time>2026-03-28T15:33:02.435Z</time></trkpt><trkpt lat="45.8634112" lon="8.8324527"><ele>472.0</ele><time>2026-03-28T15:33:03.434Z</time></trkpt><trkpt lat="45.8632605" lon="8.8324631"><ele>472.25</ele><time>2026-03-28T15:33:04.435Z</time></trkpt><trkpt lat="45.8631163" lon="8.832444"><ele>472.5</ele><time>2026-03-28T15:33:05.434Z</time></trkpt><trkpt lat="45.8629706" lon="8.832386"><ele>472.75</ele><time>2026-03-28T15:33:06.434Z</time></trkpt><trkpt lat="45.8628328" lon="8.8322898"><ele>473.0</ele><time>2026-03-28T15:33:07.434Z</time></trkpt><trkpt lat="45.8626979" lon="8.8321728"><ele>472.0</ele><time>2026-03-28T15:33:08.434Z</time></trkpt><trkpt lat="45.8625978" lon="8.8320045"><ele>471.0</ele><time>2026-03-28T15:33:09.435Z</time></trkpt><trkpt lat="45.8625102" lon="8.8318163"><ele>470.0</ele><time>2026-03-28T15:33:10.434Z</time></trkpt><trkpt lat="45.862435" lon="8.8316036"><ele>469.3333333333333</ele><time>2026-03-28T15:33:11.435Z</time></trkpt><trkpt lat="45.8623771" lon="8.8313872"><ele>468.66666666666663</ele><time>2026-03-28T15:33:12.434Z</time></trkpt><trkpt lat="45.86232" lon="8.8311605"><ele>468.0</ele><time>2026-03-28T15:33:13.435Z</time></trkpt><trkpt lat="45.8622687" lon="8.8309341"><ele>471.33333333333337</ele><time>2026-03-28T15:33:14.434Z</time></trkpt><trkpt lat="45.8622107" lon="8.8307015"><ele>474.6666666666667</ele><time>2026-03-28T15:33:15.435Z</time></trkpt><trkpt lat="45.8621537" lon="8.8304666"><ele>478.0</ele><time>2026-03-28T15:33:16.435Z</time></trkpt><trkpt lat="45.8620908" lon="8.8302362"><ele>485.33333333333337</ele><time>2026-03-28T15:33:17.434Z</time></trkpt><trkpt lat="45.8620133" lon="8.8300154"><ele>492.66666666666663</ele><time>2026-03-28T15:33:18.435Z</time></trkpt><trkpt lat="45.8619217" lon="8.8298078"><ele>500.0</ele><time>2026-03-28T15:33:19.434Z</time></trkpt><trkpt lat="45.8618098" lon="8.8296183"><ele>494.3333333333333</ele><time>2026-03-28T15:33:20.435Z</time></trkpt><trkpt lat="45.8616757" lon="8.8294465"><ele>488.66666666666663</ele><time>2026-03-28T15:33:21.434Z</time></trkpt><trkpt lat="45.8615395" lon="8.8292796"><ele>483.0</ele><time>2026-03-28T15:33:22.434Z</time></trkpt><trkpt lat="45.8613994" lon="8.8291176"><ele>483.0</ele><time>2026-03-28T15:33:23.435Z</time></trkpt><trkpt lat="45.8612566" lon="8.8289511"><ele>483.0</ele><time>2026-03-28T15:33:24.435Z</time></trkpt><trkpt lat="45.8611188" lon="8.8287822"><ele>483.0</ele><time>2026-03-28T15:33:25.434Z</time></trkpt><trkpt lat="45.8609801" lon="8.8286188"><ele>478.0</ele><time>2026-03-28T15:33:26.435Z</time></trkpt><trkpt lat="45.860846" lon="8.8284595"><ele>473.0</ele><time>2026-03-28T15:33:27.435Z</time></trkpt><trkpt lat="45.8607206" lon="8.8283102"><ele>468.0</ele><time>2026-03-28T15:33:28.434Z</time></trkpt><trkpt lat="45.8605959" lon="8.8281673"><ele>468.0</ele><time>2026-03-28T15:33:29.435Z</time></trkpt><trkpt lat="45.8604683" lon="8.8280255"><ele>468.0</ele><time>2026-03-28T15:33:30.434Z</time></trkpt><trkpt lat="45.860337" lon="8.8278899"><ele>468.0</ele><time>2026-03-28T15:33:31.435Z</time></trkpt><trkpt lat="45.8601919" lon="8.8277826"><ele>467.0</ele><time>2026-03-28T15:33:32.434Z</time></trkpt><trkpt lat="45.8600381" lon="8.8276879"><ele>466.0</ele><time>2026-03-28T15:33:33.434Z</time></trkpt><trkpt lat="45.8598784" lon="8.8276036"><ele>465.0</ele><time>2026-03-28T15:33:34.434Z</time></trkpt><trkpt lat="45.8597284" lon="8.8275206"><ele>464.66666666666663</ele><time>2026-03-28T15:33:35.435Z</time></trkpt><trkpt lat="45.8595858" lon="8.8274183"><ele>464.3333333333333</ele><time>2026-03-28T15:33:36.435Z</time></trkpt><trkpt lat="45.8594572" lon="8.8272926"><ele>464.0</ele><time>2026-03-28T15:33:37.434Z</time></trkpt><trkpt lat="45.8593395" lon="8.8271403"><ele>464.3333333333333</ele><time>2026-03-28T15:33:38.435Z</time></trkpt><trkpt lat="45.8592263" lon="8.8269732"><ele>464.66666666666663</ele><time>2026-03-28T15:33:39.435Z</time></trkpt><trkpt lat="45.8591217" lon="8.8267936"><ele>465.0</ele><time>2026-03-28T15:33:40.434Z</time></trkpt><trkpt lat="45.8590198" lon="8.8266148"><ele>465.0</ele><time>2026-03-28T15:33:41.435Z</time></trkpt><trkpt lat="45.8589157" lon="8.8264334"><ele>465.0</ele><time>2026-03-28T15:33:42.434Z</time></trkpt><trkpt lat="45.8588145" lon="8.8262639"><ele>465.0</ele><time>2026-03-28T15:33:43.434Z</time></trkpt><trkpt lat="45.8587188" lon="8.8260935"><ele>467.75</ele><time>2026-03-28T15:33:44.434Z</time></trkpt><trkpt lat="45.8586279" lon="8.8259306"><ele>470.5</ele><time>2026-03-28T15:33:45.435Z</time></trkpt><trkpt lat="45.8585286" lon="8.8257811"><ele>473.25</ele><time>2026-03-28T15:33:46.435Z</time></trkpt><trkpt lat="45.8584164" lon="8.8256418"><ele>476.0</ele><time>2026-03-28T15:33:47.435Z</time></trkpt><trkpt lat="45.8582943" lon="8.8255143"><ele>476.0</ele><time>2026-03-28T15:33:48.435Z</time></trkpt><trkpt lat="45.8581556" lon="8.8254051"><ele>476.0</ele><time>2026-03-28T15:33:49.435Z</time></trkpt><trkpt lat="45.8580277" lon="8.8252963"><ele>476.0</ele><time>2026-03-28T15:33:50.434Z</time></trkpt><trkpt lat="45.8578883" lon="8.8252032"><ele>478.5</ele><time>2026-03-28T15:33:51.434Z</time></trkpt><trkpt lat="45.8577472" lon="8.8251208"><ele>481.0</ele><time>2026-03-28T15:33:52.434Z</time></trkpt><trkpt lat="45.8571641" lon="8.8249413"><ele>477.25</ele><time>2026-03-28T15:33:56.434Z</time></trkpt><trkpt lat="45.8570316" lon="8.824931"><ele>473.5</ele><time>2026-03-28T15:33:57.435Z</time></trkpt><trkpt lat="45.8568905" lon="8.8249085"><ele>469.75</ele><time>2026-03-28T15:33:58.434Z</time></trkpt><trkpt lat="45.8567496" lon="8.8248732"><ele>466.0</ele><time>2026-03-28T15:33:59.434Z</time></trkpt><trkpt lat="45.8566159" lon="8.824804"><ele>462.0</ele><time>2026-03-28T15:34:00.435Z</time></trkpt><trkpt lat="45.8564827" lon="8.8247027"><ele>458.0</ele><time>2026-03-28T15:34:01.434Z</time></trkpt><trkpt lat="45.8563581" lon="8.824569"><ele>454.0</ele><time>2026-03-28T15:34:02.435Z</time></trkpt><trkpt lat="45.8562415" lon="8.8244113"><ele>454.6666666666667</ele><time>2026-03-28T15:34:03.435Z</time></trkpt><trkpt lat="45.8561415" lon="8.824244"><ele>455.33333333333337</ele><time>2026-03-28T15:34:04.434Z</time></trkpt><trkpt lat="45.8560527" lon="8.8240765"><ele>456.0</ele><time>2026-03-28T15:34:05.434Z</time></trkpt><trkpt lat="45.8559579" lon="8.8239098"><ele>456.75</ele><time>2026-03-28T15:34:06.435Z</time></trkpt><trkpt lat="45.8558683" lon="8.8237486"><ele>457.5</ele><time>2026-03-28T15:34:07.435Z</time></trkpt><trkpt lat="45.8557811" lon="8.8236001"><ele>458.25</ele><time>2026-03-28T15:34:08.435Z</time></trkpt><trkpt lat="45.8556931" lon="8.8234655"><ele>459.0</ele><time>2026-03-28T15:34:09.434Z</time></trkpt><trkpt lat="45.8555991" lon="8.8233368"><ele>456.25</ele><time>2026-03-28T15:34:10.434Z</time></trkpt><trkpt lat="45.855495" lon="8.8232277"><ele>453.5</ele><time>2026-03-28T15:34:11.434Z</time></trkpt><trkpt lat="45.8553759" lon="8.8231407"><ele>450.75</ele><time>2026-03-28T15:34:12.435Z</time></trkpt><trkpt lat="45.8552483" lon="8.8230812"><ele>448.0</ele><time>2026-03-28T15:34:13.435Z</time></trkpt><trkpt lat="45.8551125" lon="8.823041"><ele>447.6666666666667</ele><time>2026-03-28T15:34:14.434Z</time></trkpt><trkpt lat="45.8549546" lon="8.8230335"><ele>447.33333333333337</ele><time>2026-03-28T15:34:15.434Z</time></trkpt><trkpt lat="45.8547933" lon="8.82306"><ele>447.0</ele><time>2026-03-28T15:34:16.435Z</time></trkpt><trkpt lat="45.8546328" lon="8.8231048"><ele>447.0</ele><time>2026-03-28T15:34:17.434Z</time></trkpt><trkpt lat="45.8544754" lon="8.8231602"><ele>447.0</ele><time>2026-03-28T15:34:18.434Z</time></trkpt><trkpt lat="45.8543171" lon="8.823208"><ele>447.0</ele><time>2026-03-28T15:34:19.435Z</time></trkpt><trkpt lat="45.8541623" lon="8.8232371"><ele>443.66666666666663</ele><time>2026-03-28T15:34:20.434Z</time></trkpt><trkpt lat="45.8540087" lon="8.8232479"><ele>440.3333333333333</ele><time>2026-03-28T15:34:21.434Z</time></trkpt><trkpt lat="45.8538548" lon="8.8232449"><ele>437.0</ele><time>2026-03-28T15:34:22.434Z</time></trkpt><trkpt lat="45.8536924" lon="8.8232322"><ele>437.0</ele><time>2026-03-28T15:34:23.434Z</time></trkpt><trkpt lat="45.8535265" lon="8.8232192"><ele>437.0</ele><time>2026-03-28T15:34:24.434Z</time></trkpt><trkpt lat="45.853359" lon="8.8232088"><ele>437.0</ele><time>2026-03-28T15:34:25.435Z</time></trkpt><trkpt lat="45.8531895" lon="8.823196"><ele>436.3333333333333</ele><time>2026-03-28T15:34:26.434Z</time></trkpt><trkpt lat="45.8530255" lon="8.8231827"><ele>435.66666666666663</ele><time>2026-03-28T15:34:27.435Z</time></trkpt><trkpt lat="45.8528648" lon="8.8231646"><ele>435.0</ele><time>2026-03-28T15:34:28.434Z</time></trkpt><trkpt lat="45.8527098" lon="8.8231429"><ele>438.33333333333337</ele><time>2026-03-28T15:34:29.435Z</time></trkpt><trkpt lat="45.8525591" lon="8.8231134"><ele>441.6666666666667</ele><time>2026-03-28T15:34:30.434Z</time></trkpt><trkpt lat="45.8524027" lon="8.8230732"><ele>445.0</ele><time>2026-03-28T15:34:31.435Z</time></trkpt><trkpt lat="45.8522595" lon="8.8230276"><ele>445.0</ele><time>2026-03-28T15:34:32.435Z</time></trkpt><trkpt lat="45.8521278" lon="8.8229783"><ele>445.0</ele><time>2026-03-28T15:34:33.435Z</time></trkpt><trkpt lat="45.8520075" lon="8.8229362"><ele>445.0</ele><time>2026-03-28T15:34:34.435Z</time></trkpt><trkpt lat="45.8518887" lon="8.8228955"><ele>445.0</ele><time>2026-03-28T15:34:35.435Z</time></trkpt><trkpt lat="45.8517801" lon="8.8228615"><ele>442.25</ele><time>2026-03-28T15:34:36.435Z</time></trkpt><trkpt lat="45.8516683" lon="8.8228511"><ele>439.5</ele><time>2026-03-28T15:34:37.435Z</time></trkpt><trkpt lat="45.8515576" lon="8.8228605"><ele>436.75</ele><time>2026-03-28T15:34:38.435Z</time></trkpt><trkpt lat="45.8514587" lon="8.82293"><ele>434.0</ele><time>2026-03-28T15:34:39.435Z</time></trkpt><trkpt lat="45.8513637" lon="8.8230888"><ele>434.0</ele><time>2026-03-28T15:34:40.435Z</time></trkpt><trkpt lat="45.8512794" lon="8.8232349"><ele>434.0</ele><time>2026-03-28T15:34:41.435Z</time></trkpt><trkpt lat="45.8512034" lon="8.8233749"><ele>434.0</ele><time>2026-03-28T15:34:42.434Z</time></trkpt><trkpt lat="45.8511357" lon="8.823536"><ele>434.0</ele><time>2026-03-28T15:34:43.434Z</time></trkpt><trkpt lat="45.8510851" lon="8.8237125"><ele>432.5</ele><time>2026-03-28T15:34:44.434Z</time></trkpt><trkpt lat="45.8510471" lon="8.8238999"><ele>431.0</ele><time>2026-03-28T15:34:45.434Z</time></trkpt><trkpt lat="45.8510091" lon="8.8240937"><ele>429.5</ele><time>2026-03-28T15:34:46.434Z</time></trkpt><trkpt lat="45.8509745" lon="8.824292"><ele>428.0</ele><time>2026-03-28T15:34:47.435Z</time></trkpt><trkpt lat="45.8509375" lon="8.8244886"><ele>428.0</ele><time>2026-03-28T15:34:48.435Z</time></trkpt><trkpt lat="45.8508943" lon="8.8247016"><ele>428.0</ele><time>2026-03-28T15:34:49.434Z</time></trkpt><trkpt lat="45.8508573" lon="8.8249066"><ele>428.0</ele><time>2026-03-28T15:34:50.435Z</time></trkpt><trkpt lat="45.8508168" lon="8.8251225"><ele>433.0</ele><time>2026-03-28T15:34:51.435Z</time></trkpt><trkpt lat="45.8507773" lon="8.8253358"><ele>438.0</ele><time>2026-03-28T15:34:52.434Z</time></trkpt><trkpt lat="45.85074" lon="8.8255498"><ele>443.0</ele><time>2026-03-28T15:34:53.434Z</time></trkpt><trkpt lat="45.8505151" lon="8.8265543"><ele>443.75</ele><time>2026-03-28T15:34:58.434Z</time></trkpt><trkpt lat="45.8504327" lon="8.8265666"><ele>444.5</ele><time>2026-03-28T15:34:59.434Z</time></trkpt><trkpt lat="45.8503237" lon="8.8266449"><ele>445.25</ele><time>2026-03-28T15:35:00.434Z</time></trkpt><trkpt lat="45.8501998" lon="8.8266724"><ele>446.0</ele><time>2026-03-28T15:35:01.435Z</time></trkpt><trkpt lat="45.8500713" lon="8.8266966"><ele>437.75</ele><time>2026-03-28T15:35:02.434Z</time></trkpt><trkpt lat="45.8499306" lon="8.826669"><ele>429.5</ele><time>2026-03-28T15:35:03.434Z</time></trkpt><trkpt lat="45.8497866" lon="8.8266507"><ele>421.25</ele><time>2026-03-28T15:35:04.435Z</time></trkpt><trkpt lat="45.8496499" lon="8.8266358"><ele>413.0</ele><time>2026-03-28T15:35:05.434Z</time></trkpt><trkpt lat="45.8495184" lon="8.8266198"><ele>413.0</ele><time>2026-03-28T15:35:06.434Z</time></trkpt><trkpt lat="45.8493874" lon="8.8266034"><ele>413.0</ele><time>2026-03-28T15:35:07.435Z</time></trkpt><trkpt lat="45.8492629" lon="8.8265902"><ele>413.0</ele><time>2026-03-28T15:35:08.435Z</time></trkpt><trkpt lat="45.8491263" lon="8.826548"><ele>413.0</ele><time>2026-03-28T15:35:09.435Z</time></trkpt><trkpt lat="45.8489935" lon="8.826481"><ele>414.0</ele><time>2026-03-28T15:35:10.434Z</time></trkpt><trkpt lat="45.8488722" lon="8.8264071"><ele>415.0</ele><time>2026-03-28T15:35:11.435Z</time></trkpt><trkpt lat="45.8487372" lon="8.8263061"><ele>416.0</ele><time>2026-03-28T15:35:12.434Z</time></trkpt><trkpt lat="45.8486051" lon="8.8262002"><ele>417.0</ele><time>2026-03-28T15:35:13.435Z</time></trkpt><trkpt lat="45.8484754" lon="8.8260842"><ele>413.33333333333337</ele><time>2026-03-28T15:35:14.434Z</time></trkpt><trkpt lat="45.8483454" lon="8.8259573"><ele>409.6666666666667</ele><time>2026-03-28T15:35:15.435Z</time></trkpt><trkpt lat="45.8482237" lon="8.825818"><ele>406.0</ele><time>2026-03-28T15:35:16.435Z</time></trkpt><trkpt lat="45.8481061" lon="8.8256749"><ele>406.0</ele><time>2026-03-28T15:35:17.433Z</time></trkpt><trkpt lat="45.8479888" lon="8.8255367"><ele>406.0</ele><time>2026-03-28T15:35:18.435Z</time></trkpt><trkpt lat="45.8478808" lon="8.8254134"><ele>406.0</ele><time>2026-03-28T15:35:19.434Z</time></trkpt><trkpt lat="45.8477719" lon="8.8253004"><ele>406.0</ele><time>2026-03-28T15:35:20.435Z</time></trkpt><trkpt lat="45.847662" lon="8.8252155"><ele>408.25</ele><time>2026-03-28T15:35:21.435Z</time></trkpt><trkpt lat="45.8475415" lon="8.8251723"><ele>410.5</ele><time>2026-03-28T15:35:22.434Z</time></trkpt><trkpt lat="45.8474226" lon="8.8251594"><ele>412.75</ele><time>2026-03-28T15:35:23.435Z</time></trkpt><trkpt lat="45.84731" lon="8.8251979"><ele>415.0</ele><time>2026-03-28T15:35:24.435Z</time></trkpt><trkpt lat="45.8472098" lon="8.8252904"><ele>415.0</ele><time>2026-03-28T15:35:25.435Z</time></trkpt><trkpt lat="45.847136" lon="8.8254227"><ele>415.0</ele><time>2026-03-28T15:35:26.434Z</time></trkpt><trkpt lat="45.8470933" lon="8.8255874"><ele>415.0</ele><time>2026-03-28T15:35:27.435Z</time></trkpt><trkpt lat="45.8470793" lon="8.825773"><ele>415.0</ele><time>2026-03-28T15:35:28.434Z</time></trkpt><trkpt lat="45.8470754" lon="8.8259479"><ele>415.5</ele><time>2026-03-28T15:35:29.434Z</time></trkpt><trkpt lat="45.8470744" lon="8.8261294"><ele>416.0</ele><time>2026-03-28T15:35:30.435Z</time></trkpt><trkpt lat="45.8470452" lon="8.8263152"><ele>416.5</ele><time>2026-03-28T15:35:31.435Z</time></trkpt><trkpt lat="45.8469926" lon="8.8264974"><ele>417.0</ele><time>2026-03-28T15:35:32.435Z</time></trkpt><trkpt lat="45.8469297" lon="8.8266713"><ele>416.25</ele><time>2026-03-28T15:35:33.435Z</time></trkpt><trkpt lat="45.8468624" lon="8.8268351"><ele>415.5</ele><time>2026-03-28T15:35:34.434Z</time></trkpt><trkpt lat="45.8467937" lon="8.8269943"><ele>414.75</ele><time>2026-03-28T15:35:35.434Z</time></trkpt><trkpt lat="45.8467147" lon="8.8271465"><ele>414.0</ele><time>2026-03-28T15:35:36.435Z</time></trkpt><trkpt lat="45.8466226" lon="8.827294"><ele>411.25</ele><time>2026-03-28T15:35:37.434Z</time></trkpt><trkpt lat="45.8465141" lon="8.8274182"><ele>408.5</ele><time>2026-03-28T15:35:38.435Z</time></trkpt><trkpt lat="45.8463936" lon="8.8275344"><ele>405.75</ele><time>2026-03-28T15:35:39.434Z</time></trkpt><trkpt lat="45.8462703" lon="8.8276386"><ele>403.0</ele><time>2026-03-28T15:35:40.434Z</time></trkpt><trkpt lat="45.846149" lon="8.8277308"><ele>403.0</ele><time>2026-03-28T15:35:41.434Z</time></trkpt><trkpt lat="45.8460314" lon="8.827829"><ele>403.0</ele><time>2026-03-28T15:35:42.435Z</time></trkpt><trkpt lat="45.8459223" lon="8.8279262"><ele>403.0</ele><time>2026-03-28T15:35:43.435Z</time></trkpt><trkpt lat="45.8458106" lon="8.8280122"><ele>403.0</ele><time>2026-03-28T15:35:44.435Z</time></trkpt><trkpt lat="45.8457081" lon="8.8280948"><ele>402.2</ele><time>2026-03-28T15:35:45.434Z</time></trkpt><trkpt lat="45.8456099" lon="8.8281639"><ele>401.4</ele><time>2026-03-28T15:35:46.434Z</time></trkpt><trkpt lat="45.8455079" lon="8.8282125"><ele>400.59999999999997</ele><time>2026-03-28T15:35:47.434Z</time></trkpt><trkpt lat="45.8454059" lon="8.8282334"><ele>399.79999999999995</ele><time>2026-03-28T15:35:48.434Z</time></trkpt><trkpt lat="45.8453054" lon="8.8282272"><ele>399.0</ele><time>2026-03-28T15:35:49.434Z</time></trkpt><trkpt lat="45.845204" lon="8.8281996"><ele>398.5</ele><time>2026-03-28T15:35:50.434Z</time></trkpt><trkpt lat="45.8451" lon="8.8281577"><ele>398.0</ele><time>2026-03-28T15:35:51.434Z</time></trkpt><trkpt lat="45.8449976" lon="8.828108"><ele>397.5</ele><time>2026-03-28T15:35:52.435Z</time></trkpt><trkpt lat="45.8448851" lon="8.8280527"><ele>397.0</ele><time>2026-03-28T15:35:53.433Z</time></trkpt><trkpt lat="45.8447744" lon="8.8280004"><ele>397.0</ele><time>2026-03-28T15:35:54.434Z</time></trkpt><trkpt lat="45.8446559" lon="8.827943"><ele>397.0</ele><time>2026-03-28T15:35:55.435Z</time></trkpt><trkpt lat="45.8445323" lon="8.8278753"><ele>397.0</ele><time>2026-03-28T15:35:56.434Z</time></trkpt><trkpt lat="45.8444064" lon="8.8277886"><ele>397.0</ele><time>2026-03-28T15:35:57.434Z</time></trkpt><trkpt lat="45.8442871" lon="8.8276862"><ele>394.5</ele><time>2026-03-28T15:35:58.435Z</time></trkpt><trkpt lat="45.8441767" lon="8.8275796"><ele>392.0</ele><time>2026-03-28T15:35:59.434Z</time></trkpt><trkpt lat="45.8440651" lon="8.8274739"><ele>389.5</ele><time>2026-03-28T15:36:00.434Z</time></trkpt><trkpt lat="45.8439577" lon="8.8273653"><ele>387.0</ele><time>2026-03-28T15:36:01.435Z</time></trkpt><trkpt lat="45.8438532" lon="8.8272598"><ele>387.0</ele><time>2026-03-28T15:36:02.435Z</time></trkpt><trkpt lat="45.8437542" lon="8.827149"><ele>387.0</ele><time>2026-03-28T15:36:03.434Z</time></trkpt><trkpt lat="45.8436571" lon="8.827041"><ele>387.0</ele><time>2026-03-28T15:36:04.434Z</time></trkpt><trkpt lat="45.8435575" lon="8.8269367"><ele>387.0</ele><time>2026-03-28T15:36:05.435Z</time></trkpt><trkpt lat="45.8434582" lon="8.8268295"><ele>387.5</ele><time>2026-03-28T15:36:06.434Z</time></trkpt><trkpt lat="45.843363" lon="8.8267158"><ele>388.0</ele><time>2026-03-28T15:36:07.434Z</time></trkpt><trkpt lat="45.8432727" lon="8.8265959"><ele>388.5</ele><time>2026-03-28T15:36:08.435Z</time></trkpt><trkpt lat="45.8431843" lon="8.8264599"><ele>389.0</ele><time>2026-03-28T15:36:09.434Z</time></trkpt><trkpt lat="45.8431099" lon="8.826308"><ele>389.0</ele><time>2026-03-28T15:36:10.434Z</time></trkpt><trkpt lat="45.8430445" lon="8.8261441"><ele>389.0</ele><time>2026-03-28T15:36:11.434Z</time></trkpt><trkpt lat="45.8429866" lon="8.8259702"><ele>389.0</ele><time>2026-03-28T15:36:12.434Z</time></trkpt><trkpt lat="45.8429326" lon="8.8257904"><ele>389.0</ele><time>2026-03-28T15:36:13.435Z</time></trkpt><trkpt lat="45.8428811" lon="8.8256175"><ele>388.0</ele><time>2026-03-28T15:36:14.434Z</time></trkpt><trkpt lat="45.8428228" lon="8.8254633"><ele>387.0</ele><time>2026-03-28T15:36:15.434Z</time></trkpt><trkpt lat="45.8427648" lon="8.8253197"><ele>386.0</ele><time>2026-03-28T15:36:16.434Z</time></trkpt><trkpt lat="45.8427075" lon="8.8251893"><ele>385.0</ele><time>2026-03-28T15:36:17.434Z</time></trkpt><trkpt lat="45.8426548" lon="8.825067"><ele>384.0</ele><time>2026-03-28T15:36:18.435Z</time></trkpt><trkpt lat="45.8425976" lon="8.8249515"><ele>384.0</ele><time>2026-03-28T15:36:19.435Z</time></trkpt><trkpt lat="45.8425392" lon="8.8248439"><ele>384.0</ele><time>2026-03-28T15:36:20.434Z</time></trkpt><trkpt lat="45.8424859" lon="8.824742"><ele>384.0</ele><time>2026-03-28T15:36:21.435Z</time></trkpt><trkpt lat="45.8424222" lon="8.8246365"><ele>384.0</ele><time>2026-03-28T15:36:22.435Z</time></trkpt><trkpt lat="45.8423493" lon="8.8245343"><ele>384.0</ele><time>2026-03-28T15:36:23.434Z</time></trkpt><trkpt lat="45.8422684" lon="8.8244327"><ele>384.0</ele><time>2026-03-28T15:36:24.434Z</time></trkpt><trkpt lat="45.8421788" lon="8.8243404"><ele>384.0</ele><time>2026-03-28T15:36:25.435Z</time></trkpt><trkpt lat="45.8420824" lon="8.8242817"><ele>384.0</ele><time>2026-03-28T15:36:26.434Z</time></trkpt><trkpt lat="45.841988" lon="8.8242528"><ele>384.0</ele><time>2026-03-28T15:36:27.434Z</time></trkpt><trkpt lat="45.8418968" lon="8.8242575"><ele>384.0</ele><time>2026-03-28T15:36:28.435Z</time></trkpt><trkpt lat="45.8418067" lon="8.8242857"><ele>383.4</ele><time>2026-03-28T15:36:29.434Z</time></trkpt><trkpt lat="45.8417217" lon="8.8243372"><ele>382.79999999999995</ele><time>2026-03-28T15:36:30.434Z</time></trkpt><trkpt lat="45.8416266" lon="8.8244055"><ele>382.20000000000005</ele><time>2026-03-28T15:36:31.435Z</time></trkpt><trkpt lat="45.8415366" lon="8.8244806"><ele>381.6</ele><time>2026-03-28T15:36:32.434Z</time></trkpt><trkpt lat="45.841444" lon="8.824562"><ele>381.0</ele><time>2026-03-28T15:36:33.434Z</time></trkpt><trkpt lat="45.8413508" lon="8.8246375"><ele>381.0</ele><time>2026-03-28T15:36:34.435Z</time></trkpt><trkpt lat="45.8412614" lon="8.8247147"><ele>381.0</ele><time>2026-03-28T15:36:35.435Z</time></trkpt><trkpt lat="45.8411766" lon="8.8247812"><ele>381.0</ele><time>2026-03-28T15:36:36.434Z</time></trkpt><trkpt lat="45.8410924" lon="8.8248525"><ele>381.0</ele><time>2026-03-28T15:36:37.434Z</time></trkpt><trkpt lat="45.8410058" lon="8.8249261"><ele>381.0</ele><time>2026-03-28T15:36:38.435Z</time></trkpt><trkpt lat="45.8409245" lon="8.8250001"><ele>379.8</ele><time>2026-03-28T15:36:39.434Z</time></trkpt><trkpt lat="45.8408358" lon="8.825078"><ele>378.6</ele><time>2026-03-28T15:36:40.435Z</time></trkpt><trkpt lat="45.8407441" lon="8.8251503"><ele>377.4</ele><time>2026-03-28T15:36:41.435Z</time></trkpt><trkpt lat="45.840655" lon="8.8252199"><ele>376.2</ele><time>2026-03-28T15:36:42.434Z</time></trkpt><trkpt lat="45.8405788" lon="8.8252853"><ele>375.0</ele><time>2026-03-28T15:36:43.434Z</time></trkpt><trkpt lat="45.8405021" lon="8.8253507"><ele>374.2</ele><time>2026-03-28T15:36:44.434Z</time></trkpt><trkpt lat="45.8404265" lon="8.8254123"><ele>373.4</ele><time>2026-03-28T15:36:45.434Z</time></trkpt><trkpt lat="45.8403495" lon="8.8254748"><ele>372.6</ele><time>2026-03-28T15:36:46.435Z</time></trkpt><trkpt lat="45.8402627" lon="8.8255405"><ele>371.8</ele><time>2026-03-28T15:36:47.434Z</time></trkpt><trkpt lat="45.8401753" lon="8.8256071"><ele>371.0</ele><time>2026-03-28T15:36:48.435Z</time></trkpt><trkpt lat="45.8400901" lon="8.8256732"><ele>370.20000000000005</ele><time>2026-03-28T15:36:49.434Z</time></trkpt><trkpt lat="45.8400126" lon="8.8257407"><ele>369.40000000000003</ele><time>2026-03-28T15:36:50.434Z</time></trkpt><trkpt lat="45.8399496" lon="8.8257985"><ele>368.6</ele><time>2026-03-28T15:36:51.434Z</time></trkpt><trkpt lat="45.8398498" lon="8.8258821"><ele>367.8</ele><time>2026-03-28T15:36:53.435Z</time></trkpt><trkpt lat="45.839771" lon="8.8259513"><ele>367.0</ele><time>2026-03-28T15:36:55.434Z</time></trkpt><trkpt lat="45.839679" lon="8.8260743"><ele>367.0</ele><time>2026-03-28T15:36:57.435Z</time></trkpt><trkpt lat="45.8396154" lon="8.8261545"><ele>367.0</ele><time>2026-03-28T15:36:58.434Z</time></trkpt><trkpt lat="45.8395394" lon="8.826238"><ele>367.0</ele><time>2026-03-28T15:36:59.434Z</time></trkpt><trkpt lat="45.839464" lon="8.8263248"><ele>367.0</ele><time>2026-03-28T15:37:00.434Z</time></trkpt><trkpt lat="45.8393925" lon="8.8264156"><ele>367.0</ele><time>2026-03-28T15:37:01.435Z</time></trkpt><trkpt lat="45.8393282" lon="8.8264991"><ele>366.8333333333333</ele><time>2026-03-28T15:37:02.434Z</time></trkpt><trkpt lat="45.8392684" lon="8.8265745"><ele>366.66666666666663</ele><time>2026-03-28T15:37:03.435Z</time></trkpt><trkpt lat="45.8392113" lon="8.8266424"><ele>366.5</ele><time>2026-03-28T15:37:04.434Z</time></trkpt><trkpt lat="45.839164" lon="8.8267072"><ele>366.3333333333333</ele><time>2026-03-28T15:37:05.434Z</time></trkpt><trkpt lat="45.8390837" lon="8.8268256"><ele>366.1666666666667</ele><time>2026-03-28T15:37:07.434Z</time></trkpt><trkpt lat="45.8390318" lon="8.8269061"><ele>366.0</ele><time>2026-03-28T15:37:09.435Z</time></trkpt><trkpt lat="45.8389838" lon="8.8269841"><ele>366.0</ele><time>2026-03-28T15:37:11.434Z</time></trkpt><trkpt lat="45.8389062" lon="8.827102"><ele>366.0</ele><time>2026-03-28T15:37:13.434Z</time></trkpt><trkpt lat="45.8388256" lon="8.8272433"><ele>366.0</ele><time>2026-03-28T15:37:15.434Z</time></trkpt><trkpt lat="45.8387805" lon="8.8273099"><ele>366.0</ele><time>2026-03-28T15:37:16.435Z</time></trkpt><trkpt lat="45.8387442" lon="8.827387"><ele>366.0</ele><time>2026-03-28T15:37:17.434Z</time></trkpt><trkpt lat="45.8387282" lon="8.8275498"><ele>365.5</ele><time>2026-03-28T15:37:19.435Z</time></trkpt><trkpt lat="45.8388025" lon="8.8276939"><ele>365.0</ele><time>2026-03-28T15:37:21.434Z</time></trkpt><trkpt lat="45.8388633" lon="8.8277576"><ele>364.5</ele><time>2026-03-28T15:37:22.435Z</time></trkpt><trkpt lat="45.8389149" lon="8.8278401"><ele>364.0</ele><time>2026-03-28T15:37:23.434Z</time></trkpt><trkpt lat="45.8389625" lon="8.8279368"><ele>363.5</ele><time>2026-03-28T15:37:24.434Z</time></trkpt><trkpt lat="45.8390009" lon="8.8280456"><ele>363.0</ele><time>2026-03-28T15:37:25.435Z</time></trkpt><trkpt lat="45.8390412" lon="8.8281777"><ele>363.0</ele><time>2026-03-28T15:37:26.434Z</time></trkpt><trkpt lat="45.8390892" lon="8.8283411"><ele>363.0</ele><time>2026-03-28T15:37:27.434Z</time></trkpt><trkpt lat="45.8391479" lon="8.8285259"><ele>363.0</ele><time>2026-03-28T15:37:28.435Z</time></trkpt><trkpt lat="45.8392003" lon="8.8287214"><ele>363.0</ele><time>2026-03-28T15:37:29.435Z</time></trkpt><trkpt lat="45.8392477" lon="8.8289246"><ele>363.3333333333333</ele><time>2026-03-28T15:37:30.434Z</time></trkpt><trkpt lat="45.8392862" lon="8.8291401"><ele>363.66666666666663</ele><time>2026-03-28T15:37:31.435Z</time></trkpt><trkpt lat="45.8393049" lon="8.8293647"><ele>364.0</ele><time>2026-03-28T15:37:32.435Z</time></trkpt><trkpt lat="45.8393054" lon="8.8295978"><ele>365.3333333333333</ele><time>2026-03-28T15:37:33.435Z</time></trkpt><trkpt lat="45.8392919" lon="8.8298303"><ele>366.6666666666667</ele><time>2026-03-28T15:37:34.434Z</time></trkpt><trkpt lat="45.8392568" lon="8.8300669"><ele>368.0</ele><time>2026-03-28T15:37:35.435Z</time></trkpt><trkpt lat="45.839202" lon="8.8303011"><ele>369.6666666666667</ele><time>2026-03-28T15:37:36.434Z</time></trkpt><trkpt lat="45.8391321" lon="8.8305362"><ele>371.3333333333333</ele><time>2026-03-28T15:37:37.435Z</time></trkpt><trkpt lat="45.8390571" lon="8.8307731"><ele>373.0</ele><time>2026-03-28T15:37:38.434Z</time></trkpt><trkpt lat="45.8389711" lon="8.831008"><ele>376.0</ele><time>2026-03-28T15:37:39.435Z</time></trkpt><trkpt lat="45.838877" lon="8.8312457"><ele>379.0</ele><time>2026-03-28T15:37:40.434Z</time></trkpt><trkpt lat="45.8387816" lon="8.8314964"><ele>382.0</ele><time>2026-03-28T15:37:41.434Z</time></trkpt><trkpt lat="45.8386824" lon="8.831749"><ele>383.66666666666663</ele><time>2026-03-28T15:37:42.435Z</time></trkpt><trkpt lat="45.838585" lon="8.8320025"><ele>385.3333333333333</ele><time>2026-03-28T15:37:43.434Z</time></trkpt><trkpt lat="45.8384858" lon="8.832269"><ele>387.0</ele><time>2026-03-28T15:37:44.434Z</time></trkpt><trkpt lat="45.8383809" lon="8.8325356"><ele>384.0</ele><time>2026-03-28T15:37:45.434Z</time></trkpt><trkpt lat="45.8382766" lon="8.8327987"><ele>381.0</ele><time>2026-03-28T15:37:46.434Z</time></trkpt><trkpt lat="45.8381729" lon="8.8330695"><ele>378.0</ele><time>2026-03-28T15:37:47.434Z</time></trkpt><trkpt lat="45.8380694" lon="8.8333405"><ele>380.33333333333337</ele><time>2026-03-28T15:37:48.434Z</time></trkpt><trkpt lat="45.8379675" lon="8.8336068"><ele>382.6666666666667</ele><time>2026-03-28T15:37:49.434Z</time></trkpt><trkpt lat="45.8378652" lon="8.8338717"><ele>385.0</ele><time>2026-03-28T15:37:50.435Z</time></trkpt><trkpt lat="45.8377645" lon="8.8341313"><ele>385.33333333333337</ele><time>2026-03-28T15:37:51.434Z</time></trkpt><trkpt lat="45.8376707" lon="8.8343894"><ele>385.66666666666663</ele><time>2026-03-28T15:37:52.434Z</time></trkpt><trkpt lat="45.8375823" lon="8.8346417"><ele>386.0</ele><time>2026-03-28T15:37:53.435Z</time></trkpt><trkpt lat="45.8375014" lon="8.8349019"><ele>381.0</ele><time>2026-03-28T15:37:54.434Z</time></trkpt><trkpt lat="45.8374428" lon="8.8351781"><ele>376.0</ele><time>2026-03-28T15:37:55.435Z</time></trkpt><trkpt lat="45.8374028" lon="8.8354484"><ele>371.0</ele><time>2026-03-28T15:37:56.434Z</time></trkpt><trkpt lat="45.8373732" lon="8.8357165"><ele>372.0</ele><time>2026-03-28T15:37:57.435Z</time></trkpt><trkpt lat="45.8373494" lon="8.835978"><ele>373.0</ele><time>2026-03-28T15:37:58.434Z</time></trkpt><trkpt lat="45.8373296" lon="8.836228"><ele>374.0</ele><time>2026-03-28T15:37:59.435Z</time></trkpt><trkpt lat="45.8373008" lon="8.8364703"><ele>374.0</ele><time>2026-03-28T15:38:00.434Z</time></trkpt><trkpt lat="45.8372446" lon="8.8367052"><ele>374.0</ele><time>2026-03-28T15:38:01.434Z</time></trkpt><trkpt lat="45.8371647" lon="8.836892"><ele>374.0</ele><time>2026-03-28T15:38:02.435Z</time></trkpt><trkpt lat="45.8370656" lon="8.8370805"><ele>375.0</ele><time>2026-03-28T15:38:03.434Z</time></trkpt><trkpt lat="45.8369516" lon="8.8372386"><ele>376.0</ele><time>2026-03-28T15:38:04.435Z</time></trkpt><trkpt lat="45.8368215" lon="8.8373582"><ele>377.0</ele><time>2026-03-28T15:38:05.435Z</time></trkpt><trkpt lat="45.8366831" lon="8.8374596"><ele>370.6666666666667</ele><time>2026-03-28T15:38:06.434Z</time></trkpt><trkpt lat="45.8365355" lon="8.8375362"><ele>364.3333333333333</ele><time>2026-03-28T15:38:07.435Z</time></trkpt><trkpt lat="45.8363892" lon="8.837583"><ele>358.0</ele><time>2026-03-28T15:38:08.434Z</time></trkpt><trkpt lat="45.8362428" lon="8.8376026"><ele>358.0</ele><time>2026-03-28T15:38:09.434Z</time></trkpt><trkpt lat="45.8360966" lon="8.8376088"><ele>358.0</ele><time>2026-03-28T15:38:10.435Z</time></trkpt><trkpt lat="45.8359496" lon="8.8376074"><ele>358.0</ele><time>2026-03-28T15:38:11.435Z</time></trkpt><trkpt lat="45.8358077" lon="8.8376054"><ele>358.0</ele><time>2026-03-28T15:38:12.434Z</time></trkpt><trkpt lat="45.8356661" lon="8.8376162"><ele>357.75</ele><time>2026-03-28T15:38:13.435Z</time></trkpt><trkpt lat="45.8355365" lon="8.8376282"><ele>357.5</ele><time>2026-03-28T15:38:14.434Z</time></trkpt><trkpt lat="45.8354196" lon="8.8376514"><ele>357.25</ele><time>2026-03-28T15:38:15.435Z</time></trkpt><trkpt lat="45.8353046" lon="8.8376851"><ele>357.0</ele><time>2026-03-28T15:38:16.434Z</time></trkpt><trkpt lat="45.8351976" lon="8.8377302"><ele>357.0</ele><time>2026-03-28T15:38:17.435Z</time></trkpt><trkpt lat="45.8351066" lon="8.8377762"><ele>357.0</ele><time>2026-03-28T15:38:18.434Z</time></trkpt><trkpt lat="45.8350264" lon="8.8378227"><ele>357.0</ele><time>2026-03-28T15:38:19.435Z</time></trkpt><trkpt lat="45.8349513" lon="8.8378741"><ele>357.0</ele><time>2026-03-28T15:38:20.434Z</time></trkpt><trkpt lat="45.8348821" lon="8.8379207"><ele>357.0</ele><time>2026-03-28T15:38:21.435Z</time></trkpt><trkpt lat="45.834816" lon="8.8379655"><ele>357.0</ele><time>2026-03-28T15:38:22.434Z</time></trkpt><trkpt lat="45.8347462" lon="8.8380073"><ele>357.0</ele><time>2026-03-28T15:38:23.434Z</time></trkpt><trkpt lat="45.8346692" lon="8.8380283"><ele>357.0</ele><time>2026-03-28T15:38:24.434Z</time></trkpt><trkpt lat="45.8345883" lon="8.8380483"><ele>357.0</ele><time>2026-03-28T15:38:25.435Z</time></trkpt><trkpt lat="45.8345162" lon="8.8380898"><ele>357.0</ele><time>2026-03-28T15:38:26.434Z</time></trkpt><trkpt lat="45.834458" lon="8.8381557"><ele>357.0</ele><time>2026-03-28T15:38:27.434Z</time></trkpt><trkpt lat="45.8344155" lon="8.8382407"><ele>357.0</ele><time>2026-03-28T15:38:28.435Z</time></trkpt><trkpt lat="45.8343783" lon="8.8383502"><ele>357.0</ele><time>2026-03-28T15:38:29.434Z</time></trkpt><trkpt lat="45.8343289" lon="8.8384619"><ele>357.0</ele><time>2026-03-28T15:38:30.435Z</time></trkpt><trkpt lat="45.8342601" lon="8.8385698"><ele>357.0</ele><time>2026-03-28T15:38:31.434Z</time></trkpt><trkpt lat="45.8341799" lon="8.8386724"><ele>357.0</ele><time>2026-03-28T15:38:32.435Z</time></trkpt><trkpt lat="45.8340962" lon="8.8387741"><ele>357.0</ele><time>2026-03-28T15:38:33.434Z</time></trkpt><trkpt lat="45.8340034" lon="8.8388843"><ele>354.5</ele><time>2026-03-28T15:38:34.434Z</time></trkpt><trkpt lat="45.8339119" lon="8.839"><ele>352.0</ele><time>2026-03-28T15:38:35.434Z</time></trkpt><trkpt lat="45.8338084" lon="8.839123"><ele>349.5</ele><time>2026-03-28T15:38:36.435Z</time></trkpt><trkpt lat="45.8337014" lon="8.8392465"><ele>347.0</ele><time>2026-03-28T15:38:37.434Z</time></trkpt><trkpt lat="45.8335912" lon="8.8393731"><ele>347.0</ele><time>2026-03-28T15:38:38.435Z</time></trkpt><trkpt lat="45.8334769" lon="8.839503"><ele>347.0</ele><time>2026-03-28T15:38:39.434Z</time></trkpt><trkpt lat="45.8333601" lon="8.8396417"><ele>347.0</ele><time>2026-03-28T15:38:40.434Z</time></trkpt><trkpt lat="45.8332382" lon="8.8397824"><ele>347.0</ele><time>2026-03-28T15:38:41.434Z</time></trkpt><trkpt lat="45.8331135" lon="8.8399267"><ele>347.0</ele><time>2026-03-28T15:38:42.434Z</time></trkpt><trkpt lat="45.8329913" lon="8.8400597"><ele>347.0</ele><time>2026-03-28T15:38:43.434Z</time></trkpt><trkpt lat="45.8328763" lon="8.8401815"><ele>347.75</ele><time>2026-03-28T15:38:44.434Z</time></trkpt><trkpt lat="45.8327655" lon="8.8402927"><ele>348.5</ele><time>2026-03-28T15:38:45.434Z</time></trkpt><trkpt lat="45.8326655" lon="8.840391"><ele>349.25</ele><time>2026-03-28T15:38:46.434Z</time></trkpt><trkpt lat="45.8325694" lon="8.8404783"><ele>350.0</ele><time>2026-03-28T15:38:47.434Z</time></trkpt><trkpt lat="45.8324912" lon="8.8405418"><ele>349.14285714285717</ele><time>2026-03-28T15:38:48.435Z</time></trkpt><trkpt lat="45.8324319" lon="8.8405887"><ele>348.2857142857143</ele><time>2026-03-28T15:38:49.434Z</time></trkpt><trkpt lat="45.8323601" lon="8.8406546"><ele>347.42857142857144</ele><time>2026-03-28T15:38:51.435Z</time></trkpt><trkpt lat="45.8323006" lon="8.8407039"><ele>346.57142857142856</ele><time>2026-03-28T15:38:53.435Z</time></trkpt><trkpt lat="45.8322372" lon="8.8407457"><ele>345.7142857142857</ele><time>2026-03-28T15:38:56.435Z</time></trkpt><trkpt lat="45.8321643" lon="8.8407837"><ele>344.8571428571429</ele><time>2026-03-28T15:39:03.433Z</time></trkpt><trkpt lat="45.8321017" lon="8.8407964"><ele>344.0</ele><time>2026-03-28T15:39:07.435Z</time></trkpt><trkpt lat="45.8320119" lon="8.8407846"><ele>344.0</ele><time>2026-03-28T15:39:12.434Z</time></trkpt><trkpt lat="45.8318747" lon="8.8407919"><ele>344.0</ele><time>2026-03-28T15:39:14.434Z</time></trkpt><trkpt lat="45.8317979" lon="8.8408515"><ele>344.0</ele><time>2026-03-28T15:39:15.435Z</time></trkpt><trkpt lat="45.8317219" lon="8.8409507"><ele>344.0</ele><time>2026-03-28T15:39:16.434Z</time></trkpt><trkpt lat="45.8316281" lon="8.8410521"><ele>344.0</ele><time>2026-03-28T15:39:17.434Z</time></trkpt><trkpt lat="45.8315018" lon="8.841126"><ele>343.75</ele><time>2026-03-28T15:39:18.434Z</time></trkpt><trkpt lat="45.831363" lon="8.8412018"><ele>343.5</ele><time>2026-03-28T15:39:19.435Z</time></trkpt><trkpt lat="45.8312216" lon="8.8412609"><ele>343.25</ele><time>2026-03-28T15:39:20.435Z</time></trkpt><trkpt lat="45.8310893" lon="8.8413041"><ele>343.0</ele><time>2026-03-28T15:39:21.435Z</time></trkpt><trkpt lat="45.8309425" lon="8.8413697"><ele>341.66666666666663</ele><time>2026-03-28T15:39:22.434Z</time></trkpt><trkpt lat="45.8307755" lon="8.8414394"><ele>340.3333333333333</ele><time>2026-03-28T15:39:23.434Z</time></trkpt><trkpt lat="45.8305921" lon="8.8415077"><ele>339.0</ele><time>2026-03-28T15:39:24.434Z</time></trkpt><trkpt lat="45.8303957" lon="8.8415777"><ele>339.0</ele><time>2026-03-28T15:39:25.434Z</time></trkpt><trkpt lat="45.8301923" lon="8.8416578"><ele>339.0</ele><time>2026-03-28T15:39:26.434Z</time></trkpt><trkpt lat="45.8299958" lon="8.8417301"><ele>339.0</ele><time>2026-03-28T15:39:27.434Z</time></trkpt><trkpt lat="45.8298288" lon="8.8417849"><ele>339.5</ele><time>2026-03-28T15:39:28.434Z</time></trkpt><trkpt lat="45.8296853" lon="8.8418323"><ele>340.0</ele><time>2026-03-28T15:39:29.435Z</time></trkpt><trkpt lat="45.8295666" lon="8.8418742"><ele>340.5</ele><time>2026-03-28T15:39:30.435Z</time></trkpt><trkpt lat="45.8294654" lon="8.8419075"><ele>341.0</ele><time>2026-03-28T15:39:31.434Z</time></trkpt><trkpt lat="45.8293674" lon="8.8419347"><ele>341.0</ele><time>2026-03-28T15:39:32.434Z</time></trkpt><trkpt lat="45.8292694" lon="8.8419629"><ele>341.0</ele><time>2026-03-28T15:39:33.433Z</time></trkpt><trkpt lat="45.8291645" lon="8.8419908"><ele>341.0</ele><time>2026-03-28T15:39:34.433Z</time></trkpt><trkpt lat="45.8290508" lon="8.8420118"><ele>341.0</ele><time>2026-03-28T15:39:35.434Z</time></trkpt><trkpt lat="45.8289382" lon="8.8420311"><ele>341.0</ele><time>2026-03-28T15:39:36.434Z</time></trkpt><trkpt lat="45.8288239" lon="8.8420441"><ele>341.0</ele><time>2026-03-28T15:39:37.434Z</time></trkpt><trkpt lat="45.8287107" lon="8.842048"><ele>341.0</ele><time>2026-03-28T15:39:38.435Z</time></trkpt><trkpt lat="45.8285964" lon="8.8420416"><ele>341.0</ele><time>2026-03-28T15:39:39.435Z</time></trkpt><trkpt lat="45.8284864" lon="8.8420317"><ele>341.0</ele><time>2026-03-28T15:39:40.434Z</time></trkpt><trkpt lat="45.8283793" lon="8.8420179"><ele>341.0</ele><time>2026-03-28T15:39:41.433Z</time></trkpt><trkpt lat="45.8282802" lon="8.8419984"><ele>341.0</ele><time>2026-03-28T15:39:42.435Z</time></trkpt><trkpt lat="45.8281844" lon="8.8419742"><ele>341.0</ele><time>2026-03-28T15:39:43.434Z</time></trkpt><trkpt lat="45.8280832" lon="8.8419437"><ele>341.0</ele><time>2026-03-28T15:39:44.434Z</time></trkpt><trkpt lat="45.8279832" lon="8.8419104"><ele>341.0</ele><time>2026-03-28T15:39:45.435Z</time></trkpt><trkpt lat="45.8278822" lon="8.8418699"><ele>341.0</ele><time>2026-03-28T15:39:46.434Z</time></trkpt><trkpt lat="45.8277756" lon="8.8418332"><ele>340.8</ele><time>2026-03-28T15:39:47.434Z</time></trkpt><trkpt lat="45.8276673" lon="8.8417915"><ele>340.6</ele><time>2026-03-28T15:39:48.434Z</time></trkpt><trkpt lat="45.8275643" lon="8.8417514"><ele>340.4</ele><time>2026-03-28T15:39:49.434Z</time></trkpt><trkpt lat="45.8274638" lon="8.8417167"><ele>340.2</ele><time>2026-03-28T15:39:50.434Z</time></trkpt><trkpt lat="45.8273666" lon="8.8416851"><ele>340.0</ele><time>2026-03-28T15:39:51.435Z</time></trkpt><trkpt lat="45.8272681" lon="8.8416562"><ele>340.0</ele><time>2026-03-28T15:39:52.435Z</time></trkpt><trkpt lat="45.8271683" lon="8.8416301"><ele>340.0</ele><time>2026-03-28T15:39:53.434Z</time></trkpt><trkpt lat="45.82706" lon="8.841611"><ele>340.0</ele><time>2026-03-28T15:39:54.435Z</time></trkpt><trkpt lat="45.8269579" lon="8.8415985"><ele>340.0</ele><time>2026-03-28T15:39:55.434Z</time></trkpt><trkpt lat="45.8268498" lon="8.8415909"><ele>340.0</ele><time>2026-03-28T15:39:56.435Z</time></trkpt><trkpt lat="45.8267483" lon="8.841591"><ele>339.6</ele><time>2026-03-28T15:39:57.435Z</time></trkpt><trkpt lat="45.8266538" lon="8.8415938"><ele>339.2</ele><time>2026-03-28T15:39:58.434Z</time></trkpt><trkpt lat="45.8265432" lon="8.8416186"><ele>338.79999999999995</ele><time>2026-03-28T15:39:59.435Z</time></trkpt><trkpt lat="45.8264341" lon="8.8416496"><ele>338.4</ele><time>2026-03-28T15:40:00.433Z</time></trkpt><trkpt lat="45.8263221" lon="8.8416916"><ele>338.0</ele><time>2026-03-28T15:40:01.434Z</time></trkpt><trkpt lat="45.8262055" lon="8.8417436"><ele>337.75</ele><time>2026-03-28T15:40:02.433Z</time></trkpt><trkpt lat="45.8260795" lon="8.8418092"><ele>337.5</ele><time>2026-03-28T15:40:03.434Z</time></trkpt><trkpt lat="45.8259503" lon="8.8418955"><ele>337.25</ele><time>2026-03-28T15:40:04.433Z</time></trkpt><trkpt lat="45.8258017" lon="8.8420025"><ele>337.0</ele><time>2026-03-28T15:40:05.433Z</time></trkpt><trkpt lat="45.8256498" lon="8.8421136"><ele>336.0</ele><time>2026-03-28T15:40:06.434Z</time></trkpt><trkpt lat="45.8254898" lon="8.8422364"><ele>335.0</ele><time>2026-03-28T15:40:07.434Z</time></trkpt><trkpt lat="45.8253188" lon="8.8423572"><ele>334.0</ele><time>2026-03-28T15:40:08.434Z</time></trkpt><trkpt lat="45.8251365" lon="8.8424734"><ele>334.0</ele><time>2026-03-28T15:40:09.433Z</time></trkpt><trkpt lat="45.824952" lon="8.8425959"><ele>334.0</ele><time>2026-03-28T15:40:10.433Z</time></trkpt><trkpt lat="45.824769" lon="8.8427267"><ele>334.0</ele><time>2026-03-28T15:40:11.434Z</time></trkpt><trkpt lat="45.8245871" lon="8.8428537"><ele>333.66666666666663</ele><time>2026-03-28T15:40:12.433Z</time></trkpt><trkpt lat="45.8244124" lon="8.8429791"><ele>333.3333333333333</ele><time>2026-03-28T15:40:13.433Z</time></trkpt><trkpt lat="45.824241" lon="8.8431116"><ele>333.0</ele><time>2026-03-28T15:40:14.434Z</time></trkpt><trkpt lat="45.8240722" lon="8.8432617"><ele>333.6666666666667</ele><time>2026-03-28T15:40:15.433Z</time></trkpt><trkpt lat="45.8239235" lon="8.8434294"><ele>334.33333333333337</ele><time>2026-03-28T15:40:16.433Z</time></trkpt><trkpt lat="45.8237858" lon="8.8436192"><ele>335.0</ele><time>2026-03-28T15:40:17.434Z</time></trkpt><trkpt lat="45.8236689" lon="8.8438303"><ele>335.0</ele><time>2026-03-28T15:40:18.434Z</time></trkpt><trkpt lat="45.8235719" lon="8.8440714"><ele>335.0</ele><time>2026-03-28T15:40:19.433Z</time></trkpt><trkpt lat="45.8234992" lon="8.8443331"><ele>335.0</ele><time>2026-03-28T15:40:20.433Z</time></trkpt><trkpt lat="45.8234361" lon="8.844608"><ele>335.33333333333337</ele><time>2026-03-28T15:40:21.434Z</time></trkpt><trkpt lat="45.8233887" lon="8.8448977"><ele>335.6666666666667</ele><time>2026-03-28T15:40:22.433Z</time></trkpt><trkpt lat="45.823358" lon="8.8451805"><ele>336.0</ele><time>2026-03-28T15:40:23.433Z</time></trkpt><trkpt lat="45.8233304" lon="8.8454509"><ele>336.0</ele><time>2026-03-28T15:40:24.433Z</time></trkpt><trkpt lat="45.8233046" lon="8.8457113"><ele>336.0</ele><time>2026-03-28T15:40:25.434Z</time></trkpt><trkpt lat="45.8232811" lon="8.8459655"><ele>336.0</ele><time>2026-03-28T15:40:26.433Z</time></trkpt><trkpt lat="45.8232597" lon="8.846209"><ele>335.3333333333333</ele><time>2026-03-28T15:40:27.433Z</time></trkpt><trkpt lat="45.8232367" lon="8.8464534"><ele>334.66666666666663</ele><time>2026-03-28T15:40:28.433Z</time></trkpt><trkpt lat="45.8232086" lon="8.8466987"><ele>334.0</ele><time>2026-03-28T15:40:29.434Z</time></trkpt><trkpt lat="45.8231688" lon="8.846942"><ele>333.0</ele><time>2026-03-28T15:40:30.433Z</time></trkpt><trkpt lat="45.8231067" lon="8.8471667"><ele>332.0</ele><time>2026-03-28T15:40:31.434Z</time></trkpt><trkpt lat="45.823032" lon="8.8473835"><ele>331.0</ele><time>2026-03-28T15:40:32.433Z</time></trkpt><trkpt lat="45.8229324" lon="8.8475794"><ele>329.3333333333333</ele><time>2026-03-28T15:40:33.433Z</time></trkpt><trkpt lat="45.8228153" lon="8.8477574"><ele>327.6666666666667</ele><time>2026-03-28T15:40:34.433Z</time></trkpt><trkpt lat="45.8226755" lon="8.8479172"><ele>326.0</ele><time>2026-03-28T15:40:35.433Z</time></trkpt><trkpt lat="45.82252" lon="8.8480712"><ele>326.0</ele><time>2026-03-28T15:40:36.434Z</time></trkpt><trkpt lat="45.8223766" lon="8.848221"><ele>326.0</ele><time>2026-03-28T15:40:37.433Z</time></trkpt><trkpt lat="45.8222485" lon="8.8483771"><ele>326.0</ele><time>2026-03-28T15:40:38.433Z</time></trkpt><trkpt lat="45.8221377" lon="8.8485481"><ele>327.25</ele><time>2026-03-28T15:40:39.433Z</time></trkpt><trkpt lat="45.8220486" lon="8.8487413"><ele>328.5</ele><time>2026-03-28T15:40:40.434Z</time></trkpt><trkpt lat="45.821989" lon="8.8489304"><ele>329.75</ele><time>2026-03-28T15:40:41.433Z</time></trkpt><trkpt lat="45.8219439" lon="8.8490987"><ele>331.0</ele><time>2026-03-28T15:40:42.433Z</time></trkpt><trkpt lat="45.8219183" lon="8.8492493"><ele>332.16666666666663</ele><time>2026-03-28T15:40:43.434Z</time></trkpt><trkpt lat="45.8219029" lon="8.8493634"><ele>333.3333333333333</ele><time>2026-03-28T15:40:44.433Z</time></trkpt><trkpt lat="45.821895" lon="8.8494997"><ele>334.5</ele><time>2026-03-28T15:40:46.433Z</time></trkpt><trkpt lat="45.8219092" lon="8.8495973"><ele>335.6666666666667</ele><time>2026-03-28T15:40:53.434Z</time></trkpt><trkpt lat="45.8219142" lon="8.8497336"><ele>336.83333333333337</ele><time>2026-03-28T15:40:55.434Z</time></trkpt><trkpt lat="45.8219123" lon="8.8498277"><ele>338.0</ele><time>2026-03-28T15:40:57.434Z</time></trkpt><trkpt lat="45.8218977" lon="8.8499166"><ele>338.0</ele><time>2026-03-28T15:40:59.433Z</time></trkpt><trkpt lat="45.8218608" lon="8.8500919"><ele>338.0</ele><time>2026-03-28T15:41:01.434Z</time></trkpt><trkpt lat="45.8218423" lon="8.8501956"><ele>338.0</ele><time>2026-03-28T15:41:02.433Z</time></trkpt><trkpt lat="45.8218227" lon="8.8503074"><ele>338.0</ele><time>2026-03-28T15:41:03.434Z</time></trkpt><trkpt lat="45.821788" lon="8.8504212"><ele>338.0</ele><time>2026-03-28T15:41:04.433Z</time></trkpt><trkpt lat="45.821736" lon="8.8505368"><ele>338.75</ele><time>2026-03-28T15:41:05.433Z</time></trkpt><trkpt lat="45.8216725" lon="8.8506539"><ele>339.5</ele><time>2026-03-28T15:41:06.434Z</time></trkpt><trkpt lat="45.8216005" lon="8.8507819"><ele>340.25</ele><time>2026-03-28T15:41:07.433Z</time></trkpt><trkpt lat="45.8215194" lon="8.8509074"><ele>341.0</ele><time>2026-03-28T15:41:08.433Z</time></trkpt><trkpt lat="45.8214288" lon="8.8510348"><ele>341.0</ele><time>2026-03-28T15:41:09.434Z</time></trkpt><trkpt lat="45.8213278" lon="8.8511538"><ele>341.0</ele><time>2026-03-28T15:41:10.433Z</time></trkpt><trkpt lat="45.8212201" lon="8.8512693"><ele>341.0</ele><time>2026-03-28T15:41:11.433Z</time></trkpt><trkpt lat="45.8211081" lon="8.8513767"><ele>341.0</ele><time>2026-03-28T15:41:12.434Z</time></trkpt><trkpt lat="45.8209856" lon="8.8514715"><ele>338.25</ele><time>2026-03-28T15:41:13.433Z</time></trkpt><trkpt lat="45.8208589" lon="8.8515529"><ele>335.5</ele><time>2026-03-28T15:41:14.433Z</time></trkpt><trkpt lat="45.8207222" lon="8.8516302"><ele>332.75</ele><time>2026-03-28T15:41:15.433Z</time></trkpt><trkpt lat="45.8205822" lon="8.8516966"><ele>330.0</ele><time>2026-03-28T15:41:16.434Z</time></trkpt><trkpt lat="45.8204432" lon="8.8517476"><ele>330.0</ele><time>2026-03-28T15:41:17.433Z</time></trkpt><trkpt lat="45.8202984" lon="8.8517816"><ele>330.0</ele><time>2026-03-28T15:41:18.434Z</time></trkpt><trkpt lat="45.820148" lon="8.8518174"><ele>330.0</ele><time>2026-03-28T15:41:19.433Z</time></trkpt><trkpt lat="45.8200067" lon="8.8518469"><ele>330.0</ele><time>2026-03-28T15:41:20.434Z</time></trkpt><trkpt lat="45.819867" lon="8.8518728"><ele>334.0</ele><time>2026-03-28T15:41:21.434Z</time></trkpt><trkpt lat="45.8197374" lon="8.8518992"><ele>338.0</ele><time>2026-03-28T15:41:22.433Z</time></trkpt><trkpt lat="45.8196124" lon="8.8519278"><ele>342.0</ele><time>2026-03-28T15:41:23.433Z</time></trkpt><trkpt lat="45.8194858" lon="8.8519671"><ele>346.0</ele><time>2026-03-28T15:41:24.434Z</time></trkpt><trkpt lat="45.8193618" lon="8.8520116"><ele>343.5</ele><time>2026-03-28T15:41:25.433Z</time></trkpt><trkpt lat="45.8192339" lon="8.852067"><ele>341.0</ele><time>2026-03-28T15:41:26.434Z</time></trkpt><trkpt lat="45.8191084" lon="8.8521315"><ele>338.5</ele><time>2026-03-28T15:41:27.433Z</time></trkpt><trkpt lat="45.8189948" lon="8.8522093"><ele>336.0</ele><time>2026-03-28T15:41:28.433Z</time></trkpt><trkpt lat="45.8188841" lon="8.8523105"><ele>336.0</ele><time>2026-03-28T15:41:29.434Z</time></trkpt><trkpt lat="45.8187798" lon="8.8524307"><ele>336.0</ele><time>2026-03-28T15:41:30.434Z</time></trkpt><trkpt lat="45.8186849" lon="8.8525717"><ele>336.0</ele><time>2026-03-28T15:41:31.433Z</time></trkpt><trkpt lat="45.8185993" lon="8.8527118"><ele>336.0</ele><time>2026-03-28T15:41:32.434Z</time></trkpt><trkpt lat="45.8185265" lon="8.8528763"><ele>336.25</ele><time>2026-03-28T15:41:33.434Z</time></trkpt><trkpt lat="45.8184587" lon="8.8530506"><ele>336.5</ele><time>2026-03-28T15:41:34.433Z</time></trkpt><trkpt lat="45.8183995" lon="8.853223"><ele>336.75</ele><time>2026-03-28T15:41:35.433Z</time></trkpt><trkpt lat="45.8183473" lon="8.8533955"><ele>337.0</ele><time>2026-03-28T15:41:36.434Z</time></trkpt><trkpt lat="45.818297" lon="8.8535718"><ele>337.0</ele><time>2026-03-28T15:41:37.434Z</time></trkpt><trkpt lat="45.8182494" lon="8.8537529"><ele>337.0</ele><time>2026-03-28T15:41:38.433Z</time></trkpt><trkpt lat="45.8181985" lon="8.8539426"><ele>337.0</ele><time>2026-03-28T15:41:39.433Z</time></trkpt><trkpt lat="45.8181467" lon="8.8541305"><ele>337.0</ele><time>2026-03-28T15:41:40.434Z</time></trkpt><trkpt lat="45.8180885" lon="8.8543265"><ele>340.0</ele><time>2026-03-28T15:41:41.434Z</time></trkpt><trkpt lat="45.8180227" lon="8.8545246"><ele>343.0</ele><time>2026-03-28T15:41:42.434Z</time></trkpt><trkpt lat="45.8179565" lon="8.8547221"><ele>346.0</ele><time>2026-03-28T15:41:43.434Z</time></trkpt><trkpt lat="45.817883" lon="8.8549133"><ele>346.0</ele><time>2026-03-28T15:41:44.434Z</time></trkpt><trkpt lat="45.8178149" lon="8.8550887"><ele>346.0</ele><time>2026-03-28T15:41:45.433Z</time></trkpt><trkpt lat="45.81775" lon="8.8552593"><ele>346.0</ele><time>2026-03-28T15:41:46.433Z</time></trkpt><trkpt lat="45.8176734" lon="8.8554309"><ele>346.0</ele><time>2026-03-28T15:41:47.434Z</time></trkpt><trkpt lat="45.8175921" lon="8.8556074"><ele>347.0</ele><time>2026-03-28T15:41:48.433Z</time></trkpt><trkpt lat="45.8175046" lon="8.855781"><ele>348.0</ele><time>2026-03-28T15:41:49.434Z</time></trkpt><trkpt lat="45.8174176" lon="8.8559518"><ele>349.0</ele><time>2026-03-28T15:41:50.433Z</time></trkpt><trkpt lat="45.8173297" lon="8.8561171"><ele>350.0</ele><time>2026-03-28T15:41:51.433Z</time></trkpt><trkpt lat="45.8172375" lon="8.8562818"><ele>350.0</ele><time>2026-03-28T15:41:52.433Z</time></trkpt><trkpt lat="45.8171445" lon="8.856435"><ele>350.0</ele><time>2026-03-28T15:41:53.434Z</time></trkpt><trkpt lat="45.8170524" lon="8.8565798"><ele>350.0</ele><time>2026-03-28T15:41:54.434Z</time></trkpt><trkpt lat="45.8169492" lon="8.8567314"><ele>350.0</ele><time>2026-03-28T15:41:55.433Z</time></trkpt><trkpt lat="45.8168455" lon="8.8568813"><ele>346.0</ele><time>2026-03-28T15:41:56.433Z</time></trkpt><trkpt lat="45.8167372" lon="8.8570313"><ele>342.0</ele><time>2026-03-28T15:41:57.433Z</time></trkpt><trkpt lat="45.8166148" lon="8.8571789"><ele>338.0</ele><time>2026-03-28T15:41:58.433Z</time></trkpt><trkpt lat="45.8164867" lon="8.8573156"><ele>338.0</ele><time>2026-03-28T15:41:59.433Z</time></trkpt><trkpt lat="45.8163617" lon="8.8574575"><ele>338.0</ele><time>2026-03-28T15:42:00.434Z</time></trkpt><trkpt lat="45.8162331" lon="8.8575987"><ele>338.0</ele><time>2026-03-28T15:42:01.433Z</time></trkpt><trkpt lat="45.8161059" lon="8.8577365"><ele>335.75</ele><time>2026-03-28T15:42:02.433Z</time></trkpt><trkpt lat="45.815987" lon="8.8578655"><ele>333.5</ele><time>2026-03-28T15:42:03.433Z</time></trkpt><trkpt lat="45.8158716" lon="8.8579967"><ele>331.25</ele><time>2026-03-28T15:42:04.434Z</time></trkpt><trkpt lat="45.8157564" lon="8.8581254"><ele>329.0</ele><time>2026-03-28T15:42:05.434Z</time></trkpt><trkpt lat="45.8156401" lon="8.8582542"><ele>329.0</ele><time>2026-03-28T15:42:06.434Z</time></trkpt><trkpt lat="45.8155208" lon="8.8583773"><ele>329.0</ele><time>2026-03-28T15:42:07.433Z</time></trkpt><trkpt lat="45.8154045" lon="8.8585039"><ele>329.0</ele><time>2026-03-28T15:42:08.434Z</time></trkpt><trkpt lat="45.815291" lon="8.8586261"><ele>329.0</ele><time>2026-03-28T15:42:09.433Z</time></trkpt><trkpt lat="45.8151879" lon="8.8587465"><ele>328.25</ele><time>2026-03-28T15:42:10.433Z</time></trkpt><trkpt lat="45.8150799" lon="8.8588601"><ele>327.5</ele><time>2026-03-28T15:42:11.433Z</time></trkpt><trkpt lat="45.8149804" lon="8.8589675"><ele>326.75</ele><time>2026-03-28T15:42:12.433Z</time></trkpt><trkpt lat="45.8148838" lon="8.8590713"><ele>326.0</ele><time>2026-03-28T15:42:13.434Z</time></trkpt><trkpt lat="45.8147938" lon="8.8591751"><ele>326.0</ele><time>2026-03-28T15:42:14.434Z</time></trkpt><trkpt lat="45.814704" lon="8.8592693"><ele>326.0</ele><time>2026-03-28T15:42:15.433Z</time></trkpt><trkpt lat="45.8146204" lon="8.8593626"><ele>326.0</ele><time>2026-03-28T15:42:16.434Z</time></trkpt><trkpt lat="45.8145425" lon="8.8594492"><ele>326.0</ele><time>2026-03-28T15:42:17.433Z</time></trkpt><trkpt lat="45.8144584" lon="8.8595331"><ele>326.0</ele><time>2026-03-28T15:42:18.433Z</time></trkpt><trkpt lat="45.8143867" lon="8.8596094"><ele>325.5714285714286</ele><time>2026-03-28T15:42:19.434Z</time></trkpt><trkpt lat="45.8143205" lon="8.8596897"><ele>325.1428571428571</ele><time>2026-03-28T15:42:20.434Z</time></trkpt><trkpt lat="45.8142566" lon="8.8597608"><ele>324.7142857142857</ele><time>2026-03-28T15:42:21.433Z</time></trkpt><trkpt lat="45.8142035" lon="8.8598206"><ele>324.28571428571433</ele><time>2026-03-28T15:42:22.433Z</time></trkpt><trkpt lat="45.8141488" lon="8.859881"><ele>323.8571428571429</ele><time>2026-03-28T15:42:23.434Z</time></trkpt><trkpt lat="45.8140949" lon="8.8599353"><ele>323.42857142857144</ele><time>2026-03-28T15:42:24.433Z</time></trkpt><trkpt lat="45.8140344" lon="8.8600029"><ele>323.0</ele><time>2026-03-28T15:42:25.433Z</time></trkpt><trkpt lat="45.8139794" lon="8.8600558"><ele>325.33333333333337</ele><time>2026-03-28T15:42:26.433Z</time></trkpt><trkpt lat="45.813926" lon="8.8601192"><ele>327.6666666666667</ele><time>2026-03-28T15:42:27.433Z</time></trkpt><trkpt lat="45.8138674" lon="8.8601792"><ele>330.0</ele><time>2026-03-28T15:42:28.434Z</time></trkpt><trkpt lat="45.8138015" lon="8.8602388"><ele>332.3333333333333</ele><time>2026-03-28T15:42:29.434Z</time></trkpt><trkpt lat="45.8137282" lon="8.8603035"><ele>334.66666666666663</ele><time>2026-03-28T15:42:30.434Z</time></trkpt><trkpt lat="45.8136498" lon="8.8603613"><ele>337.0</ele><time>2026-03-28T15:42:31.433Z</time></trkpt><trkpt lat="45.8135741" lon="8.860426"><ele>337.0</ele><time>2026-03-28T15:42:32.433Z</time></trkpt><trkpt lat="45.8134993" lon="8.860482"><ele>337.0</ele><time>2026-03-28T15:42:33.433Z</time></trkpt><trkpt lat="45.8134284" lon="8.8605348"><ele>337.0</ele><time>2026-03-28T15:42:34.433Z</time></trkpt><trkpt lat="45.813361" lon="8.8605826"><ele>337.0</ele><time>2026-03-28T15:42:35.434Z</time></trkpt><trkpt lat="45.8132994" lon="8.8606313"><ele>337.0</ele><time>2026-03-28T15:42:36.433Z</time></trkpt><trkpt lat="45.8132346" lon="8.8606759"><ele>337.0</ele><time>2026-03-28T15:42:37.434Z</time></trkpt><trkpt lat="45.8131689" lon="8.8607232"><ele>334.0</ele><time>2026-03-28T15:42:38.434Z</time></trkpt><trkpt lat="45.8130918" lon="8.8607758"><ele>331.0</ele><time>2026-03-28T15:42:39.433Z</time></trkpt><trkpt lat="45.8130095" lon="8.8608352"><ele>328.0</ele><time>2026-03-28T15:42:40.433Z</time></trkpt><trkpt lat="45.8129174" lon="8.8609015"><ele>325.0</ele><time>2026-03-28T15:42:41.434Z</time></trkpt><trkpt lat="45.8128218" lon="8.8609703"><ele>322.0</ele><time>2026-03-28T15:42:42.434Z</time></trkpt><trkpt lat="45.8127297" lon="8.8610352"><ele>319.8</ele><time>2026-03-28T15:42:43.433Z</time></trkpt><trkpt lat="45.8126229" lon="8.8610979"><ele>317.6</ele><time>2026-03-28T15:42:44.434Z</time></trkpt><trkpt lat="45.8125138" lon="8.8611516"><ele>315.40000000000003</ele><time>2026-03-28T15:42:45.432Z</time></trkpt><trkpt lat="45.812412" lon="8.8612002"><ele>313.20000000000005</ele><time>2026-03-28T15:42:46.433Z</time></trkpt><trkpt lat="45.8123124" lon="8.8612538"><ele>311.0</ele><time>2026-03-28T15:42:47.433Z</time></trkpt><trkpt lat="45.8122197" lon="8.8613121"><ele>311.0</ele><time>2026-03-28T15:42:48.433Z</time></trkpt><trkpt lat="45.8121161" lon="8.8613824"><ele>311.0</ele><time>2026-03-28T15:42:49.434Z</time></trkpt><trkpt lat="45.8120083" lon="8.8614533"><ele>311.0</ele><time>2026-03-28T15:42:50.432Z</time></trkpt><trkpt lat="45.8118994" lon="8.8615313"><ele>311.0</ele><time>2026-03-28T15:42:51.434Z</time></trkpt><trkpt lat="45.8117941" lon="8.8616126"><ele>310.75</ele><time>2026-03-28T15:42:52.434Z</time></trkpt><trkpt lat="45.8116975" lon="8.8616946"><ele>310.5</ele><time>2026-03-28T15:42:53.433Z</time></trkpt><trkpt lat="45.8116055" lon="8.8617815"><ele>310.25</ele><time>2026-03-28T15:42:54.433Z</time></trkpt><trkpt lat="45.811508" lon="8.8618799"><ele>310.0</ele><time>2026-03-28T15:42:55.433Z</time></trkpt><trkpt lat="45.8114174" lon="8.8619842"><ele>310.0</ele><time>2026-03-28T15:42:56.433Z</time></trkpt><trkpt lat="45.8113196" lon="8.8620936"><ele>310.0</ele><time>2026-03-28T15:42:57.432Z</time></trkpt><trkpt lat="45.8112225" lon="8.8622005"><ele>310.0</ele><time>2026-03-28T15:42:58.434Z</time></trkpt><trkpt lat="45.8111192" lon="8.862311"><ele>310.0</ele><time>2026-03-28T15:42:59.433Z</time></trkpt><trkpt lat="45.8110161" lon="8.8624253"><ele>309.75</ele><time>2026-03-28T15:43:00.433Z</time></trkpt><trkpt lat="45.8109089" lon="8.8625339"><ele>309.5</ele><time>2026-03-28T15:43:01.434Z</time></trkpt><trkpt lat="45.8108097" lon="8.8626289"><ele>309.25</ele><time>2026-03-28T15:43:02.433Z</time></trkpt><trkpt lat="45.810713" lon="8.8627154"><ele>309.0</ele><time>2026-03-28T15:43:03.434Z</time></trkpt><trkpt lat="45.8106127" lon="8.8628024"><ele>308.8</ele><time>2026-03-28T15:43:04.434Z</time></trkpt><trkpt lat="45.8105109" lon="8.8628863"><ele>308.59999999999997</ele><time>2026-03-28T15:43:05.433Z</time></trkpt><trkpt lat="45.81041" lon="8.8629632"><ele>308.4</ele><time>2026-03-28T15:43:06.433Z</time></trkpt><trkpt lat="45.8103147" lon="8.8630378"><ele>308.2</ele><time>2026-03-28T15:43:07.434Z</time></trkpt><trkpt lat="45.810221" lon="8.8631083"><ele>308.0</ele><time>2026-03-28T15:43:08.433Z</time></trkpt><trkpt lat="45.8101289" lon="8.8631754"><ele>308.0</ele><time>2026-03-28T15:43:09.433Z</time></trkpt><trkpt lat="45.8100364" lon="8.8632451"><ele>308.0</ele><time>2026-03-28T15:43:10.434Z</time></trkpt><trkpt lat="45.8099521" lon="8.8633162"><ele>308.0</ele><time>2026-03-28T15:43:11.433Z</time></trkpt><trkpt lat="45.8098708" lon="8.8633778"><ele>308.0</ele><time>2026-03-28T15:43:12.433Z</time></trkpt><trkpt lat="45.8097913" lon="8.8634352"><ele>308.0</ele><time>2026-03-28T15:43:13.434Z</time></trkpt><trkpt lat="45.8097143" lon="8.8634824"><ele>308.1666666666667</ele><time>2026-03-28T15:43:14.433Z</time></trkpt><trkpt lat="45.8096412" lon="8.8635361"><ele>308.33333333333337</ele><time>2026-03-28T15:43:15.434Z</time></trkpt><trkpt lat="45.8095645" lon="8.8635823"><ele>308.5</ele><time>2026-03-28T15:43:16.433Z</time></trkpt><trkpt lat="45.8094888" lon="8.8636252"><ele>308.6666666666667</ele><time>2026-03-28T15:43:17.434Z</time></trkpt><trkpt lat="45.8094176" lon="8.8636746"><ele>308.8333333333333</ele><time>2026-03-28T15:43:18.433Z</time></trkpt><trkpt lat="45.8093442" lon="8.8637355"><ele>309.0</ele><time>2026-03-28T15:43:19.433Z</time></trkpt><trkpt lat="45.8092631" lon="8.8637959"><ele>308.5</ele><time>2026-03-28T15:43:20.434Z</time></trkpt><trkpt lat="45.8091805" lon="8.8638507"><ele>308.0</ele><time>2026-03-28T15:43:21.434Z</time></trkpt><trkpt lat="45.8091039" lon="8.8638998"><ele>307.5</ele><time>2026-03-28T15:43:22.433Z</time></trkpt><trkpt lat="45.8090352" lon="8.8639326"><ele>307.0</ele><time>2026-03-28T15:43:23.434Z</time></trkpt><trkpt lat="45.8089727" lon="8.863961"><ele>306.5</ele><time>2026-03-28T15:43:24.434Z</time></trkpt><trkpt lat="45.8088884" lon="8.8639738"><ele>306.0</ele><time>2026-03-28T15:43:26.433Z</time></trkpt><trkpt lat="45.8087947" lon="8.8639725"><ele>306.0</ele><time>2026-03-28T15:43:28.434Z</time></trkpt><trkpt lat="45.808678" lon="8.8639287"><ele>306.0</ele><time>2026-03-28T15:43:30.433Z</time></trkpt><trkpt lat="45.8086148" lon="8.8639163"><ele>306.0</ele><time>2026-03-28T15:43:31.433Z</time></trkpt><trkpt lat="45.8085464" lon="8.8639273"><ele>306.0</ele><time>2026-03-28T15:43:32.434Z</time></trkpt><trkpt lat="45.8084872" lon="8.8639635"><ele>306.0</ele><time>2026-03-28T15:43:33.434Z</time></trkpt><trkpt lat="45.8084312" lon="8.8640337"><ele>306.0</ele><time>2026-03-28T15:43:34.433Z</time></trkpt><trkpt lat="45.8083672" lon="8.8641355"><ele>305.75</ele><time>2026-03-28T15:43:35.433Z</time></trkpt><trkpt lat="45.8082824" lon="8.8642471"><ele>305.5</ele><time>2026-03-28T15:43:36.434Z</time></trkpt><trkpt lat="45.8081757" lon="8.8643457"><ele>305.25</ele><time>2026-03-28T15:43:37.434Z</time></trkpt><trkpt lat="45.8080496" lon="8.8644264"><ele>305.0</ele><time>2026-03-28T15:43:38.434Z</time></trkpt><trkpt lat="45.8079142" lon="8.8645022"><ele>305.0</ele><time>2026-03-28T15:43:39.434Z</time></trkpt><trkpt lat="45.8077726" lon="8.8645767"><ele>305.0</ele><time>2026-03-28T15:43:40.434Z</time></trkpt><trkpt lat="45.8076288" lon="8.8646452"><ele>305.0</ele><time>2026-03-28T15:43:41.434Z</time></trkpt><trkpt lat="45.8074767" lon="8.864707"><ele>305.0</ele><time>2026-03-28T15:43:42.433Z</time></trkpt><trkpt lat="45.8073244" lon="8.8647555"><ele>305.0</ele><time>2026-03-28T15:43:43.434Z</time></trkpt><trkpt lat="45.8071671" lon="8.8647899"><ele>305.0</ele><time>2026-03-28T15:43:44.433Z</time></trkpt><trkpt lat="45.8070078" lon="8.8648028"><ele>305.0</ele><time>2026-03-28T15:43:45.433Z</time></trkpt><trkpt lat="45.8068441" lon="8.8648055"><ele>305.0</ele><time>2026-03-28T15:43:46.434Z</time></trkpt><trkpt lat="45.8066791" lon="8.8647807"><ele>305.0</ele><time>2026-03-28T15:43:47.433Z</time></trkpt><trkpt lat="45.8065157" lon="8.8647325"><ele>305.0</ele><time>2026-03-28T15:43:48.433Z</time></trkpt><trkpt lat="45.806357" lon="8.8646624"><ele>305.0</ele><time>2026-03-28T15:43:49.434Z</time></trkpt><trkpt lat="45.8062042" lon="8.8645731"><ele>305.0</ele><time>2026-03-28T15:43:50.433Z</time></trkpt><trkpt lat="45.80606" lon="8.8644683"><ele>305.33333333333337</ele><time>2026-03-28T15:43:51.433Z</time></trkpt><trkpt lat="45.8059289" lon="8.8643427"><ele>305.6666666666667</ele><time>2026-03-28T15:43:52.434Z</time></trkpt><trkpt lat="45.8058087" lon="8.8641952"><ele>306.0</ele><time>2026-03-28T15:43:53.434Z</time></trkpt><trkpt lat="45.8057031" lon="8.8640467"><ele>306.0</ele><time>2026-03-28T15:43:54.433Z</time></trkpt><trkpt lat="45.8056092" lon="8.8639215"><ele>306.0</ele><time>2026-03-28T15:43:55.433Z</time></trkpt><trkpt lat="45.8055434" lon="8.8638195"><ele>306.0</ele><time>2026-03-28T15:43:56.433Z</time></trkpt><trkpt lat="45.8054928" lon="8.8637316"><ele>306.0</ele><time>2026-03-28T15:43:57.433Z</time></trkpt><trkpt lat="45.8054592" lon="8.8636452"><ele>306.0</ele><time>2026-03-28T15:43:58.433Z</time></trkpt><trkpt lat="45.8054312" lon="8.8635316"><ele>305.8</ele><time>2026-03-28T15:43:59.434Z</time></trkpt><trkpt lat="45.8054043" lon="8.8633939"><ele>305.6</ele><time>2026-03-28T15:44:00.434Z</time></trkpt><trkpt lat="45.8053605" lon="8.8632615"><ele>305.4</ele><time>2026-03-28T15:44:01.434Z</time></trkpt><trkpt lat="45.8052961" lon="8.8631631"><ele>305.2</ele><time>2026-03-28T15:44:02.434Z</time></trkpt><trkpt lat="45.805216" lon="8.863106"><ele>305.0</ele><time>2026-03-28T15:44:03.434Z</time></trkpt><trkpt lat="45.805127" lon="8.8631004"><ele>304.6</ele><time>2026-03-28T15:44:04.434Z</time></trkpt><trkpt lat="45.805039" lon="8.8631495"><ele>304.2</ele><time>2026-03-28T15:44:05.434Z</time></trkpt><trkpt lat="45.8049603" lon="8.8632173"><ele>303.8</ele><time>2026-03-28T15:44:06.433Z</time></trkpt><trkpt lat="45.8048883" lon="8.8632891"><ele>303.4</ele><time>2026-03-28T15:44:07.433Z</time></trkpt><trkpt lat="45.8048657" lon="8.8634808"><ele>303.0</ele><time>2026-03-28T15:44:08.434Z</time></trkpt><trkpt lat="45.80481" lon="8.8635728"><ele>304.5</ele><time>2026-03-28T15:44:09.434Z</time></trkpt><trkpt lat="45.8047476" lon="8.8636963"><ele>306.0</ele><time>2026-03-28T15:44:10.433Z</time></trkpt><trkpt lat="45.8046471" lon="8.863823"><ele>307.5</ele><time>2026-03-28T15:44:11.433Z</time></trkpt><trkpt lat="45.804525" lon="8.863961"><ele>309.0</ele><time>2026-03-28T15:44:12.433Z</time></trkpt><trkpt lat="45.8043841" lon="8.8641187"><ele>308.3333333333333</ele><time>2026-03-28T15:44:13.433Z</time></trkpt><trkpt lat="45.8042413" lon="8.8642734"><ele>307.66666666666663</ele><time>2026-03-28T15:44:14.433Z</time></trkpt><trkpt lat="45.8040764" lon="8.8644343"><ele>307.0</ele><time>2026-03-28T15:44:15.433Z</time></trkpt><trkpt lat="45.8039386" lon="8.8645679"><ele>313.0</ele><time>2026-03-28T15:44:16.434Z</time></trkpt><trkpt lat="45.8038147" lon="8.8646929"><ele>319.0</ele><time>2026-03-28T15:44:17.434Z</time></trkpt><trkpt lat="45.803683" lon="8.8648392"><ele>325.0</ele><time>2026-03-28T15:44:18.433Z</time></trkpt><trkpt lat="45.8035359" lon="8.8649762"><ele>325.66666666666663</ele><time>2026-03-28T15:44:19.434Z</time></trkpt><trkpt lat="45.803378" lon="8.8651133"><ele>326.3333333333333</ele><time>2026-03-28T15:44:20.433Z</time></trkpt><trkpt lat="45.8032224" lon="8.8652701"><ele>327.0</ele><time>2026-03-28T15:44:21.434Z</time></trkpt><trkpt lat="45.8030791" lon="8.8654701"><ele>327.0</ele><time>2026-03-28T15:44:22.433Z</time></trkpt><trkpt lat="45.8029491" lon="8.8657041"><ele>327.0</ele><time>2026-03-28T15:44:23.433Z</time></trkpt><trkpt lat="45.8028185" lon="8.865938"><ele>327.0</ele><time>2026-03-28T15:44:24.433Z</time></trkpt><trkpt lat="45.8026646" lon="8.866147"><ele>324.3333333333333</ele><time>2026-03-28T15:44:25.434Z</time></trkpt><trkpt lat="45.8024989" lon="8.8663483"><ele>321.66666666666663</ele><time>2026-03-28T15:44:26.434Z</time></trkpt><trkpt lat="45.802344" lon="8.8665369"><ele>319.0</ele><time>2026-03-28T15:44:27.434Z</time></trkpt><trkpt lat="45.802204" lon="8.8667193"><ele>326.3333333333333</ele><time>2026-03-28T15:44:28.434Z</time></trkpt><trkpt lat="45.8020844" lon="8.8669072"><ele>333.6666666666667</ele><time>2026-03-28T15:44:29.433Z</time></trkpt><trkpt lat="45.8019842" lon="8.8671162"><ele>341.0</ele><time>2026-03-28T15:44:30.433Z</time></trkpt><trkpt lat="45.8019039" lon="8.8673226"><ele>331.33333333333337</ele><time>2026-03-28T15:44:31.433Z</time></trkpt><trkpt lat="45.8018307" lon="8.8675318"><ele>321.6666666666667</ele><time>2026-03-28T15:44:32.434Z</time></trkpt><trkpt lat="45.8017659" lon="8.8677358"><ele>312.0</ele><time>2026-03-28T15:44:33.433Z</time></trkpt><trkpt lat="45.8017082" lon="8.8679489"><ele>312.0</ele><time>2026-03-28T15:44:34.433Z</time></trkpt><trkpt lat="45.8016672" lon="8.8681659"><ele>312.0</ele><time>2026-03-28T15:44:35.434Z</time></trkpt><trkpt lat="45.8016353" lon="8.8683796"><ele>312.0</ele><time>2026-03-28T15:44:36.433Z</time></trkpt><trkpt lat="45.801606" lon="8.8685861"><ele>313.6666666666667</ele><time>2026-03-28T15:44:37.433Z</time></trkpt><trkpt lat="45.8015774" lon="8.8687972"><ele>315.33333333333337</ele><time>2026-03-28T15:44:38.433Z</time></trkpt><trkpt lat="45.8015486" lon="8.8690097"><ele>317.0</ele><time>2026-03-28T15:44:39.433Z</time></trkpt><trkpt lat="45.8015213" lon="8.8692233"><ele>319.0</ele><time>2026-03-28T15:44:40.434Z</time></trkpt><trkpt lat="45.8014972" lon="8.8694301"><ele>321.0</ele><time>2026-03-28T15:44:41.434Z</time></trkpt><trkpt lat="45.8014756" lon="8.8696286"><ele>323.0</ele><time>2026-03-28T15:44:42.434Z</time></trkpt><trkpt lat="45.8014501" lon="8.8698208"><ele>325.0</ele><time>2026-03-28T15:44:43.433Z</time></trkpt><trkpt lat="45.8014263" lon="8.8700153"><ele>323.0</ele><time>2026-03-28T15:44:44.434Z</time></trkpt><trkpt lat="45.8014049" lon="8.8702006"><ele>321.0</ele><time>2026-03-28T15:44:45.434Z</time></trkpt><trkpt lat="45.801385" lon="8.8703783"><ele>319.0</ele><time>2026-03-28T15:44:46.433Z</time></trkpt><trkpt lat="45.8013742" lon="8.8705552"><ele>317.0</ele><time>2026-03-28T15:44:47.434Z</time></trkpt><trkpt lat="45.8013746" lon="8.8707231"><ele>317.0</ele><time>2026-03-28T15:44:48.433Z</time></trkpt><trkpt lat="45.8013948" lon="8.8708918"><ele>317.0</ele><time>2026-03-28T15:44:49.433Z</time></trkpt><trkpt lat="45.8014215" lon="8.871049"><ele>317.0</ele><time>2026-03-28T15:44:50.434Z</time></trkpt><trkpt lat="45.8014562" lon="8.8711915"><ele>317.0</ele><time>2026-03-28T15:44:51.433Z</time></trkpt><trkpt lat="45.8014882" lon="8.8713089"><ele>317.0</ele><time>2026-03-28T15:44:52.433Z</time></trkpt><trkpt lat="45.8015088" lon="8.8714074"><ele>315.0</ele><time>2026-03-28T15:44:53.434Z</time></trkpt><trkpt lat="45.8015182" lon="8.8715056"><ele>313.0</ele><time>2026-03-28T15:44:54.433Z</time></trkpt><trkpt lat="45.8015097" lon="8.8716149"><ele>311.0</ele><time>2026-03-28T15:44:55.434Z</time></trkpt><trkpt lat="45.801496" lon="8.8717403"><ele>309.0</ele><time>2026-03-28T15:44:56.434Z</time></trkpt><trkpt lat="45.8014923" lon="8.8718652"><ele>307.0</ele><time>2026-03-28T15:44:57.433Z</time></trkpt><trkpt lat="45.8015179" lon="8.8719929"><ele>305.0</ele><time>2026-03-28T15:44:58.434Z</time></trkpt><trkpt lat="45.8015365" lon="8.8721243"><ele>305.0</ele><time>2026-03-28T15:44:59.434Z</time></trkpt><trkpt lat="45.8015293" lon="8.8722636"><ele>305.0</ele><time>2026-03-28T15:45:00.433Z</time></trkpt><trkpt lat="45.8015107" lon="8.8724064"><ele>305.0</ele><time>2026-03-28T15:45:01.433Z</time></trkpt><trkpt lat="45.8014839" lon="8.8725503"><ele>305.0</ele><time>2026-03-28T15:45:02.433Z</time></trkpt><trkpt lat="45.8014549" lon="8.8726888"><ele>305.0</ele><time>2026-03-28T15:45:03.434Z</time></trkpt><trkpt lat="45.8014171" lon="8.8728219"><ele>305.0</ele><time>2026-03-28T15:45:04.433Z</time></trkpt><trkpt lat="45.8013668" lon="8.8729299"><ele>305.0</ele><time>2026-03-28T15:45:05.433Z</time></trkpt><trkpt lat="45.8012963" lon="8.8730074"><ele>305.0</ele><time>2026-03-28T15:45:06.433Z</time></trkpt><trkpt lat="45.801209" lon="8.8730447"><ele>305.0</ele><time>2026-03-28T15:45:07.434Z</time></trkpt><trkpt lat="45.8011041" lon="8.8730434"><ele>305.0</ele><time>2026-03-28T15:45:08.434Z</time></trkpt><trkpt lat="45.8009978" lon="8.8730108"><ele>308.75</ele><time>2026-03-28T15:45:09.434Z</time></trkpt><trkpt lat="45.8008864" lon="8.8729615"><ele>312.5</ele><time>2026-03-28T15:45:10.434Z</time></trkpt><trkpt lat="45.8007712" lon="8.8729263"><ele>316.25</ele><time>2026-03-28T15:45:11.434Z</time></trkpt><trkpt lat="45.800654" lon="8.8729189"><ele>320.0</ele><time>2026-03-28T15:45:12.434Z</time></trkpt><trkpt lat="45.8005531" lon="8.8729532"><ele>320.0</ele><time>2026-03-28T15:45:13.434Z</time></trkpt><trkpt lat="45.8004569" lon="8.8730233"><ele>320.0</ele><time>2026-03-28T15:45:14.434Z</time></trkpt><trkpt lat="45.8003736" lon="8.8731225"><ele>320.0</ele><time>2026-03-28T15:45:15.433Z</time></trkpt><trkpt lat="45.8002892" lon="8.8732439"><ele>320.0</ele><time>2026-03-28T15:45:16.433Z</time></trkpt><trkpt lat="45.8002007" lon="8.8733763"><ele>321.25</ele><time>2026-03-28T15:45:17.434Z</time></trkpt><trkpt lat="45.8001067" lon="8.8734979"><ele>322.5</ele><time>2026-03-28T15:45:18.434Z</time></trkpt><trkpt lat="45.7999988" lon="8.8736333"><ele>323.75</ele><time>2026-03-28T15:45:19.433Z</time></trkpt><trkpt lat="45.7999005" lon="8.8737687"><ele>325.0</ele><time>2026-03-28T15:45:20.433Z</time></trkpt><trkpt lat="45.7997989" lon="8.8739054"><ele>325.0</ele><time>2026-03-28T15:45:21.434Z</time></trkpt><trkpt lat="45.7996944" lon="8.8740338"><ele>325.0</ele><time>2026-03-28T15:45:22.433Z</time></trkpt><trkpt lat="45.799582" lon="8.8741455"><ele>325.0</ele><time>2026-03-28T15:45:23.433Z</time></trkpt><trkpt lat="45.7994639" lon="8.874244"><ele>325.0</ele><time>2026-03-28T15:45:24.434Z</time></trkpt><trkpt lat="45.7993355" lon="8.8743286"><ele>328.0</ele><time>2026-03-28T15:45:25.433Z</time></trkpt><trkpt lat="45.7992113" lon="8.8744097"><ele>331.0</ele><time>2026-03-28T15:45:26.433Z</time></trkpt><trkpt lat="45.7990794" lon="8.8744949"><ele>334.0</ele><time>2026-03-28T15:45:27.434Z</time></trkpt><trkpt lat="45.7989459" lon="8.8745819"><ele>337.0</ele><time>2026-03-28T15:45:28.434Z</time></trkpt><trkpt lat="45.7988079" lon="8.8746555"><ele>337.0</ele><time>2026-03-28T15:45:29.434Z</time></trkpt><trkpt lat="45.7986752" lon="8.8747107"><ele>337.0</ele><time>2026-03-28T15:45:30.434Z</time></trkpt><trkpt lat="45.7985391" lon="8.8747459"><ele>337.0</ele><time>2026-03-28T15:45:31.433Z</time></trkpt><trkpt lat="45.7984043" lon="8.8747571"><ele>337.0</ele><time>2026-03-28T15:45:32.434Z</time></trkpt><trkpt lat="45.798274" lon="8.8747586"><ele>334.75</ele><time>2026-03-28T15:45:33.433Z</time></trkpt><trkpt lat="45.7981416" lon="8.8747604"><ele>332.5</ele><time>2026-03-28T15:45:34.433Z</time></trkpt><trkpt lat="45.798008" lon="8.8747589"><ele>330.25</ele><time>2026-03-28T15:45:35.434Z</time></trkpt><trkpt lat="45.7978805" lon="8.8747561"><ele>328.0</ele><time>2026-03-28T15:45:36.434Z</time></trkpt><trkpt lat="45.7977708" lon="8.8747657"><ele>328.4</ele><time>2026-03-28T15:45:37.434Z</time></trkpt><trkpt lat="45.7976678" lon="8.8747903"><ele>328.79999999999995</ele><time>2026-03-28T15:45:38.433Z</time></trkpt><trkpt lat="45.7975793" lon="8.8748514"><ele>329.2</ele><time>2026-03-28T15:45:39.434Z</time></trkpt><trkpt lat="45.7975087" lon="8.8749503"><ele>329.6</ele><time>2026-03-28T15:45:40.434Z</time></trkpt><trkpt lat="45.7974746" lon="8.8750781"><ele>330.0</ele><time>2026-03-28T15:45:41.434Z</time></trkpt><trkpt lat="45.7974729" lon="8.8752258"><ele>330.0</ele><time>2026-03-28T15:45:42.432Z</time></trkpt><trkpt lat="45.7975154" lon="8.875359"><ele>330.0</ele><time>2026-03-28T15:45:43.434Z</time></trkpt><trkpt lat="45.7976017" lon="8.8754718"><ele>330.0</ele><time>2026-03-28T15:45:44.434Z</time></trkpt><trkpt lat="45.7977048" lon="8.8755835"><ele>330.0</ele><time>2026-03-28T15:45:45.433Z</time></trkpt><trkpt lat="45.7978056" lon="8.8757094"><ele>332.5</ele><time>2026-03-28T15:45:46.434Z</time></trkpt><trkpt lat="45.7978955" lon="8.8758462"><ele>335.0</ele><time>2026-03-28T15:45:47.434Z</time></trkpt><trkpt lat="45.797986" lon="8.8759936"><ele>337.5</ele><time>2026-03-28T15:45:48.434Z</time></trkpt><trkpt lat="45.7980658" lon="8.8761359"><ele>340.0</ele><time>2026-03-28T15:45:49.434Z</time></trkpt><trkpt lat="45.7981395" lon="8.8762854"><ele>340.75</ele><time>2026-03-28T15:45:50.434Z</time></trkpt><trkpt lat="45.7982023" lon="8.8764462"><ele>341.5</ele><time>2026-03-28T15:45:51.433Z</time></trkpt><trkpt lat="45.7982563" lon="8.8766059"><ele>342.25</ele><time>2026-03-28T15:45:52.434Z</time></trkpt><trkpt lat="45.7983091" lon="8.87676"><ele>343.0</ele><time>2026-03-28T15:45:53.434Z</time></trkpt><trkpt lat="45.798369" lon="8.8769087"><ele>343.0</ele><time>2026-03-28T15:45:54.433Z</time></trkpt><trkpt lat="45.7984422" lon="8.8770389"><ele>343.0</ele><time>2026-03-28T15:45:55.433Z</time></trkpt><trkpt lat="45.7985313" lon="8.8771623"><ele>343.0</ele><time>2026-03-28T15:45:56.433Z</time></trkpt><trkpt lat="45.7986199" lon="8.8772844"><ele>343.0</ele><time>2026-03-28T15:45:57.434Z</time></trkpt><trkpt lat="45.7987014" lon="8.8773927"><ele>344.0</ele><time>2026-03-28T15:45:58.434Z</time></trkpt><trkpt lat="45.798775" lon="8.8774844"><ele>345.0</ele><time>2026-03-28T15:45:59.433Z</time></trkpt><trkpt lat="45.7988394" lon="8.877563"><ele>346.0</ele><time>2026-03-28T15:46:00.434Z</time></trkpt><trkpt lat="45.7989216" lon="8.8776467"><ele>347.0</ele><time>2026-03-28T15:46:02.434Z</time></trkpt><trkpt lat="45.7989873" lon="8.8776803"><ele>348.0</ele><time>2026-03-28T15:46:11.433Z</time></trkpt><trkpt lat="45.7990771" lon="8.8777169"><ele>349.0</ele><time>2026-03-28T15:46:14.433Z</time></trkpt><trkpt lat="45.7991393" lon="8.8777556"><ele>349.5</ele><time>2026-03-28T15:46:16.434Z</time></trkpt><trkpt lat="45.7992065" lon="8.8777829"><ele>350.0</ele><time>2026-03-28T15:46:19.433Z</time></trkpt><trkpt lat="45.7992803" lon="8.8778148"><ele>350.5</ele><time>2026-03-28T15:46:23.434Z</time></trkpt><trkpt lat="45.7993504" lon="8.8778461"><ele>351.0</ele><time>2026-03-28T15:46:26.434Z</time></trkpt><trkpt lat="45.7994435" lon="8.8778978"><ele>351.5</ele><time>2026-03-28T15:46:33.434Z</time></trkpt><trkpt lat="45.7995496" lon="8.8779405"><ele>352.0</ele><time>2026-03-28T15:46:35.434Z</time></trkpt><trkpt lat="45.7996754" lon="8.8779913"><ele>352.0</ele><time>2026-03-28T15:46:37.433Z</time></trkpt><trkpt lat="45.7997487" lon="8.878021"><ele>352.0</ele><time>2026-03-28T15:46:38.433Z</time></trkpt><trkpt lat="45.7998147" lon="8.8780539"><ele>352.0</ele><time>2026-03-28T15:46:39.434Z</time></trkpt><trkpt lat="45.7999105" lon="8.8781079"><ele>352.0</ele><time>2026-03-28T15:46:41.433Z</time></trkpt><trkpt lat="45.7999703" lon="8.8781716"><ele>352.0</ele><time>2026-03-28T15:46:43.434Z</time></trkpt><trkpt lat="45.8000103" lon="8.8782494"><ele>352.0</ele><time>2026-03-28T15:46:46.434Z</time></trkpt><trkpt lat="45.8001288" lon="8.8782749"><ele>352.0</ele><time>2026-03-28T15:46:55.434Z</time></trkpt><trkpt lat="45.8002003" lon="8.8782705"><ele>352.0</ele><time>2026-03-28T15:46:56.434Z</time></trkpt><trkpt lat="45.8002778" lon="8.8782848"><ele>352.0</ele><time>2026-03-28T15:46:57.434Z</time></trkpt><trkpt lat="45.8003584" lon="8.8783131"><ele>352.0</ele><time>2026-03-28T15:46:58.434Z</time></trkpt><trkpt lat="45.8004436" lon="8.8783581"><ele>352.0</ele><time>2026-03-28T15:46:59.434Z</time></trkpt><trkpt lat="45.8005243" lon="8.8784031"><ele>352.0</ele><time>2026-03-28T15:47:00.433Z</time></trkpt><trkpt lat="45.8006097" lon="8.8784489"><ele>352.40000000000003</ele><time>2026-03-28T15:47:01.434Z</time></trkpt><trkpt lat="45.8006927" lon="8.8785042"><ele>352.8</ele><time>2026-03-28T15:47:02.433Z</time></trkpt><trkpt lat="45.800771" lon="8.8785666"><ele>353.2</ele><time>2026-03-28T15:47:03.433Z</time></trkpt><trkpt lat="45.8008521" lon="8.8786236"><ele>353.6</ele><time>2026-03-28T15:47:04.433Z</time></trkpt><trkpt lat="45.8009416" lon="8.8786674"><ele>354.0</ele><time>2026-03-28T15:47:05.433Z</time></trkpt><trkpt lat="45.8010307" lon="8.8786964"><ele>354.0</ele><time>2026-03-28T15:47:06.433Z</time></trkpt><trkpt lat="45.8011166" lon="8.878725"><ele>354.0</ele><time>2026-03-28T15:47:07.434Z</time></trkpt><trkpt lat="45.801187" lon="8.8787575"><ele>354.0</ele><time>2026-03-28T15:47:08.434Z</time></trkpt><trkpt lat="45.8012404" lon="8.8788064"><ele>354.0</ele><time>2026-03-28T15:47:09.434Z</time></trkpt><trkpt lat="45.8012785" lon="8.8789517"><ele>354.0</ele><time>2026-03-28T15:47:11.433Z</time></trkpt><trkpt lat="45.8012783" lon="8.8790651"><ele>354.0</ele><time>2026-03-28T15:47:12.433Z</time></trkpt><trkpt lat="45.8012764" lon="8.8791651"><ele>354.2</ele><time>2026-03-28T15:47:13.433Z</time></trkpt><trkpt lat="45.8012822" lon="8.8793326"><ele>354.4</ele><time>2026-03-28T15:47:15.434Z</time></trkpt><trkpt lat="45.8012788" lon="8.8794565"><ele>354.6</ele><time>2026-03-28T15:47:16.434Z</time></trkpt><trkpt lat="45.8012573" lon="8.8795998"><ele>354.8</ele><time>2026-03-28T15:47:17.434Z</time></trkpt><trkpt lat="45.8012485" lon="8.8797511"><ele>355.0</ele><time>2026-03-28T15:47:18.434Z</time></trkpt><trkpt lat="45.8012358" lon="8.8799261"><ele>355.0</ele><time>2026-03-28T15:47:19.434Z</time></trkpt><trkpt lat="45.8012254" lon="8.8801021"><ele>355.0</ele><time>2026-03-28T15:47:20.433Z</time></trkpt><trkpt lat="45.8012136" lon="8.8802871"><ele>355.0</ele><time>2026-03-28T15:47:21.433Z</time></trkpt><trkpt lat="45.8012008" lon="8.8804799"><ele>355.0</ele><time>2026-03-28T15:47:22.433Z</time></trkpt><trkpt lat="45.8011975" lon="8.8806577"><ele>355.0</ele><time>2026-03-28T15:47:23.433Z</time></trkpt><trkpt lat="45.8011839" lon="8.880822"><ele>355.0</ele><time>2026-03-28T15:47:24.433Z</time></trkpt><trkpt lat="45.8011678" lon="8.8809477"><ele>355.0</ele><time>2026-03-28T15:47:25.434Z</time></trkpt><trkpt lat="45.8011359" lon="8.8810429"><ele>355.0</ele><time>2026-03-28T15:47:26.433Z</time></trkpt><trkpt lat="45.8011004" lon="8.8811498"><ele>355.0</ele><time>2026-03-28T15:47:27.434Z</time></trkpt><trkpt lat="45.8010786" lon="8.8812717"><ele>355.0</ele><time>2026-03-28T15:47:28.434Z</time></trkpt><trkpt lat="45.8010806" lon="8.8813855"><ele>355.0</ele><time>2026-03-28T15:47:29.433Z</time></trkpt><trkpt lat="45.8011174" lon="8.8814979"><ele>355.0</ele><time>2026-03-28T15:47:30.433Z</time></trkpt><trkpt lat="45.8011603" lon="8.8816294"><ele>355.0</ele><time>2026-03-28T15:47:31.433Z</time></trkpt><trkpt lat="45.801187" lon="8.88177"><ele>355.0</ele><time>2026-03-28T15:47:32.433Z</time></trkpt><trkpt lat="45.8012048" lon="8.8819126"><ele>355.0</ele><time>2026-03-28T15:47:33.433Z</time></trkpt><trkpt lat="45.801198" lon="8.8820709"><ele>355.5</ele><time>2026-03-28T15:47:34.434Z</time></trkpt><trkpt lat="45.8011956" lon="8.8822418"><ele>356.0</ele><time>2026-03-28T15:47:35.434Z</time></trkpt><trkpt lat="45.8011934" lon="8.8824166"><ele>356.5</ele><time>2026-03-28T15:47:36.434Z</time></trkpt><trkpt lat="45.8011923" lon="8.8825977"><ele>357.0</ele><time>2026-03-28T15:47:37.434Z</time></trkpt><trkpt lat="45.8011892" lon="8.8827822"><ele>357.20000000000005</ele><time>2026-03-28T15:47:38.434Z</time></trkpt><trkpt lat="45.8011809" lon="8.8829646"><ele>357.4</ele><time>2026-03-28T15:47:39.434Z</time></trkpt><trkpt lat="45.801176" lon="8.8831103"><ele>357.6</ele><time>2026-03-28T15:47:40.433Z</time></trkpt><trkpt lat="45.8011689" lon="8.8832458"><ele>357.79999999999995</ele><time>2026-03-28T15:47:41.434Z</time></trkpt><trkpt lat="45.8011529" lon="8.883347"><ele>358.0</ele><time>2026-03-28T15:47:42.434Z</time></trkpt><trkpt lat="45.801168" lon="8.8834923"><ele>360.0</ele><time>2026-03-28T15:47:44.434Z</time></trkpt><trkpt lat="45.8012738" lon="8.8835254"><ele>362.0</ele><time>2026-03-28T15:47:46.433Z</time></trkpt><trkpt lat="45.8013557" lon="8.8835207"><ele>364.0</ele><time>2026-03-28T15:47:47.433Z</time></trkpt><trkpt lat="45.8014402" lon="8.8835197"><ele>366.0</ele><time>2026-03-28T15:47:48.434Z</time></trkpt><trkpt lat="45.8015395" lon="8.8835044"><ele>368.0</ele><time>2026-03-28T15:47:49.434Z</time></trkpt><trkpt lat="45.801644" lon="8.8834969"><ele>368.0</ele><time>2026-03-28T15:47:50.434Z</time></trkpt><trkpt lat="45.8017555" lon="8.8834772"><ele>368.0</ele><time>2026-03-28T15:47:51.433Z</time></trkpt><trkpt lat="45.8018522" lon="8.8834646"><ele>368.0</ele><time>2026-03-28T15:47:52.434Z</time></trkpt><trkpt lat="45.8019394" lon="8.8834652"><ele>368.0</ele><time>2026-03-28T15:47:53.432Z</time></trkpt><trkpt lat="45.802014" lon="8.8834897"><ele>368.0</ele><time>2026-03-28T15:47:54.433Z</time></trkpt><trkpt lat="45.8020687" lon="8.8835351"><ele>368.0</ele><time>2026-03-28T15:47:55.434Z</time></trkpt><trkpt lat="45.8021266" lon="8.8836916"><ele>368.33333333333337</ele><time>2026-03-28T15:47:57.434Z</time></trkpt><trkpt lat="45.8021517" lon="8.8837948"><ele>368.6666666666667</ele><time>2026-03-28T15:47:58.432Z</time></trkpt><trkpt lat="45.802199" lon="8.883889"><ele>369.0</ele><time>2026-03-28T15:47:59.434Z</time></trkpt><trkpt lat="45.8022726" lon="8.8839524"><ele>369.3333333333333</ele><time>2026-03-28T15:48:00.434Z</time></trkpt><trkpt lat="45.8023589" lon="8.8839938"><ele>369.66666666666663</ele><time>2026-03-28T15:48:01.433Z</time></trkpt><trkpt lat="45.8024491" lon="8.8840484"><ele>370.0</ele><time>2026-03-28T15:48:02.434Z</time></trkpt><trkpt lat="45.8025504" lon="8.884097"><ele>370.0</ele><time>2026-03-28T15:48:03.433Z</time></trkpt><trkpt lat="45.8026405" lon="8.8841699"><ele>370.0</ele><time>2026-03-28T15:48:04.434Z</time></trkpt><trkpt lat="45.8027102" lon="8.8842692"><ele>370.0</ele><time>2026-03-28T15:48:05.434Z</time></trkpt><trkpt lat="45.8027472" lon="8.884385"><ele>370.0</ele><time>2026-03-28T15:48:06.434Z</time></trkpt><trkpt lat="45.8027738" lon="8.8845134"><ele>370.0</ele><time>2026-03-28T15:48:07.434Z</time></trkpt><trkpt lat="45.8027991" lon="8.8846538"><ele>371.4</ele><time>2026-03-28T15:48:08.433Z</time></trkpt><trkpt lat="45.8028092" lon="8.8847951"><ele>372.8</ele><time>2026-03-28T15:48:09.434Z</time></trkpt><trkpt lat="45.8028131" lon="8.8849428"><ele>374.20000000000005</ele><time>2026-03-28T15:48:10.434Z</time></trkpt><trkpt lat="45.8028206" lon="8.8851019"><ele>375.6</ele><time>2026-03-28T15:48:11.433Z</time></trkpt><trkpt lat="45.8028189" lon="8.8852636"><ele>377.0</ele><time>2026-03-28T15:48:12.434Z</time></trkpt><trkpt lat="45.8028153" lon="8.8854379"><ele>377.75</ele><time>2026-03-28T15:48:13.434Z</time></trkpt><trkpt lat="45.8028096" lon="8.8856123"><ele>378.5</ele><time>2026-03-28T15:48:14.433Z</time></trkpt><trkpt lat="45.8028261" lon="8.8857823"><ele>379.25</ele><time>2026-03-28T15:48:15.434Z</time></trkpt><trkpt lat="45.8028647" lon="8.8859538"><ele>380.0</ele><time>2026-03-28T15:48:16.434Z</time></trkpt><trkpt lat="45.80292" lon="8.886121"><ele>380.75</ele><time>2026-03-28T15:48:17.433Z</time></trkpt><trkpt lat="45.8029881" lon="8.8862935"><ele>381.5</ele><time>2026-03-28T15:48:18.434Z</time></trkpt><trkpt lat="45.8030657" lon="8.8864792"><ele>382.25</ele><time>2026-03-28T15:48:19.433Z</time></trkpt><trkpt lat="45.8031481" lon="8.8866723"><ele>383.0</ele><time>2026-03-28T15:48:20.434Z</time></trkpt><trkpt lat="45.8032343" lon="8.8868659"><ele>383.33333333333337</ele><time>2026-03-28T15:48:21.434Z</time></trkpt><trkpt lat="45.8033141" lon="8.8870732"><ele>383.6666666666667</ele><time>2026-03-28T15:48:22.433Z</time></trkpt><trkpt lat="45.8033906" lon="8.8872859"><ele>384.0</ele><time>2026-03-28T15:48:23.433Z</time></trkpt><trkpt lat="45.8034695" lon="8.8874986"><ele>384.66666666666663</ele><time>2026-03-28T15:48:24.434Z</time></trkpt><trkpt lat="45.8035443" lon="8.8877105"><ele>385.3333333333333</ele><time>2026-03-28T15:48:25.434Z</time></trkpt><trkpt lat="45.8036124" lon="8.8879126"><ele>386.0</ele><time>2026-03-28T15:48:26.434Z</time></trkpt><trkpt lat="45.8036776" lon="8.8880982"><ele>385.99999999999994</ele><time>2026-03-28T15:48:27.434Z</time></trkpt><trkpt lat="45.8037304" lon="8.8882697"><ele>386.0</ele><time>2026-03-28T15:48:28.433Z</time></trkpt><trkpt lat="45.8037633" lon="8.8884132"><ele>386.0</ele><time>2026-03-28T15:48:29.433Z</time></trkpt><trkpt lat="45.8037875" lon="8.8885338"><ele>386.0</ele><time>2026-03-28T15:48:30.434Z</time></trkpt><trkpt lat="45.8038013" lon="8.8886266"><ele>385.99999999999994</ele><time>2026-03-28T15:48:31.433Z</time></trkpt><trkpt lat="45.8038433" lon="8.8885745"><ele>386.0</ele><time>2026-03-28T15:50:24.434Z</time></trkpt><trkpt lat="45.8037917" lon="8.8884524"><ele>386.0</ele><time>2026-03-28T15:50:26.434Z</time></trkpt><trkpt lat="45.803759" lon="8.88834"><ele>386.0</ele><time>2026-03-28T15:50:27.433Z</time></trkpt><trkpt lat="45.8037267" lon="8.8882154"><ele>386.0</ele><time>2026-03-28T15:50:28.433Z</time></trkpt><trkpt lat="45.8036753" lon="8.8880758"><ele>386.0</ele><time>2026-03-28T15:50:29.433Z</time></trkpt><trkpt lat="45.8036303" lon="8.887941"><ele>386.0</ele><time>2026-03-28T15:50:30.433Z</time></trkpt><trkpt lat="45.803578" lon="8.8877909"><ele>386.0</ele><time>2026-03-28T15:50:31.433Z</time></trkpt><trkpt lat="45.8035267" lon="8.8876246"><ele>386.0</ele><time>2026-03-28T15:50:32.433Z</time></trkpt><trkpt lat="45.8034668" lon="8.8874572"><ele>386.0</ele><time>2026-03-28T15:50:33.434Z</time></trkpt><trkpt lat="45.8034017" lon="8.8872796"><ele>386.0</ele><time>2026-03-28T15:50:34.434Z</time></trkpt><trkpt lat="45.8033322" lon="8.8870972"><ele>385.5</ele><time>2026-03-28T15:50:35.434Z</time></trkpt><trkpt lat="45.8032631" lon="8.8869207"><ele>385.0</ele><time>2026-03-28T15:50:36.433Z</time></trkpt><trkpt lat="45.8031935" lon="8.8867591"><ele>384.5</ele><time>2026-03-28T15:50:37.434Z</time></trkpt><trkpt lat="45.8031203" lon="8.8866041"><ele>384.0</ele><time>2026-03-28T15:50:38.434Z</time></trkpt><trkpt lat="45.8030518" lon="8.8864494"><ele>383.75</ele><time>2026-03-28T15:50:39.433Z</time></trkpt><trkpt lat="45.8029952" lon="8.8863073"><ele>383.5</ele><time>2026-03-28T15:50:40.433Z</time></trkpt><trkpt lat="45.8029378" lon="8.8861583"><ele>383.25</ele><time>2026-03-28T15:50:41.434Z</time></trkpt><trkpt lat="45.8028871" lon="8.8860004"><ele>383.0</ele><time>2026-03-28T15:50:42.433Z</time></trkpt><trkpt lat="45.8028531" lon="8.885834"><ele>382.25</ele><time>2026-03-28T15:50:43.434Z</time></trkpt><trkpt lat="45.8028365" lon="8.8856603"><ele>381.5</ele><time>2026-03-28T15:50:44.433Z</time></trkpt><trkpt lat="45.8028348" lon="8.8854819"><ele>380.75</ele><time>2026-03-28T15:50:45.433Z</time></trkpt><trkpt lat="45.8028316" lon="8.8852949"><ele>380.0</ele><time>2026-03-28T15:50:46.434Z</time></trkpt><trkpt lat="45.8028242" lon="8.8851173"><ele>379.25</ele><time>2026-03-28T15:50:47.432Z</time></trkpt><trkpt lat="45.8028214" lon="8.8849405"><ele>378.5</ele><time>2026-03-28T15:50:48.433Z</time></trkpt><trkpt lat="45.802815" lon="8.8847654"><ele>377.75</ele><time>2026-03-28T15:50:49.434Z</time></trkpt><trkpt lat="45.8027943" lon="8.8846041"><ele>377.0</ele><time>2026-03-28T15:50:50.433Z</time></trkpt><trkpt lat="45.8027762" lon="8.884451"><ele>377.0</ele><time>2026-03-28T15:50:51.433Z</time></trkpt><trkpt lat="45.8027481" lon="8.884316"><ele>377.0</ele><time>2026-03-28T15:50:52.434Z</time></trkpt><trkpt lat="45.8026873" lon="8.8841975"><ele>377.0</ele><time>2026-03-28T15:50:53.433Z</time></trkpt><trkpt lat="45.8026032" lon="8.8841258"><ele>377.0</ele><time>2026-03-28T15:50:54.433Z</time></trkpt><trkpt lat="45.8025" lon="8.8840737"><ele>377.0</ele><time>2026-03-28T15:50:55.433Z</time></trkpt><trkpt lat="45.8023948" lon="8.8840228"><ele>375.83333333333337</ele><time>2026-03-28T15:50:56.433Z</time></trkpt><trkpt lat="45.8022969" lon="8.8839713"><ele>374.6666666666667</ele><time>2026-03-28T15:50:57.434Z</time></trkpt><trkpt lat="45.8022202" lon="8.8839112"><ele>373.5</ele><time>2026-03-28T15:50:58.434Z</time></trkpt><trkpt lat="45.8021717" lon="8.8838233"><ele>372.3333333333333</ele><time>2026-03-28T15:50:59.434Z</time></trkpt><trkpt lat="45.8021548" lon="8.883713"><ele>371.16666666666663</ele><time>2026-03-28T15:51:00.433Z</time></trkpt><trkpt lat="45.8021314" lon="8.883613"><ele>370.0</ele><time>2026-03-28T15:51:01.433Z</time></trkpt><trkpt lat="45.8020941" lon="8.8835311"><ele>370.0</ele><time>2026-03-28T15:51:02.433Z</time></trkpt><trkpt lat="45.8019784" lon="8.88345"><ele>370.0</ele><time>2026-03-28T15:51:04.433Z</time></trkpt><trkpt lat="45.8018889" lon="8.8834421"><ele>370.0</ele><time>2026-03-28T15:51:05.434Z</time></trkpt><trkpt lat="45.8017879" lon="8.8834651"><ele>370.0</ele><time>2026-03-28T15:51:06.434Z</time></trkpt><trkpt lat="45.8016746" lon="8.883493"><ele>370.0</ele><time>2026-03-28T15:51:07.434Z</time></trkpt><trkpt lat="45.8015603" lon="8.8835085"><ele>369.66666666666663</ele><time>2026-03-28T15:51:08.434Z</time></trkpt><trkpt lat="45.8014539" lon="8.8835168"><ele>369.3333333333333</ele><time>2026-03-28T15:51:09.433Z</time></trkpt><trkpt lat="45.8013538" lon="8.88351"><ele>369.0</ele><time>2026-03-28T15:51:10.433Z</time></trkpt><trkpt lat="45.8012917" lon="8.883527"><ele>368.6666666666667</ele><time>2026-03-28T15:51:11.433Z</time></trkpt><trkpt lat="45.8012189" lon="8.8835219"><ele>368.33333333333337</ele><time>2026-03-28T15:51:13.433Z</time></trkpt><trkpt lat="45.8011352" lon="8.8835693"><ele>368.0</ele><time>2026-03-28T15:51:16.433Z</time></trkpt><trkpt lat="45.8010998" lon="8.8836523"><ele>368.0</ele><time>2026-03-28T15:51:17.433Z</time></trkpt><trkpt lat="45.8010576" lon="8.8837515"><ele>368.0</ele><time>2026-03-28T15:51:18.434Z</time></trkpt><trkpt lat="45.8010072" lon="8.8838702"><ele>368.0</ele><time>2026-03-28T15:51:19.433Z</time></trkpt><trkpt lat="45.8009549" lon="8.8839904"><ele>368.0</ele><time>2026-03-28T15:51:20.433Z</time></trkpt><trkpt lat="45.8008812" lon="8.884105"><ele>368.0</ele><time>2026-03-28T15:51:21.433Z</time></trkpt><trkpt lat="45.8008018" lon="8.8842147"><ele>368.75</ele><time>2026-03-28T15:51:22.434Z</time></trkpt><trkpt lat="45.8007124" lon="8.8843288"><ele>369.5</ele><time>2026-03-28T15:51:23.434Z</time></trkpt><trkpt lat="45.8006185" lon="8.8844297"><ele>370.25</ele><time>2026-03-28T15:51:24.433Z</time></trkpt><trkpt lat="45.8005097" lon="8.8845075"><ele>371.0</ele><time>2026-03-28T15:51:25.433Z</time></trkpt><trkpt lat="45.8004006" lon="8.8845725"><ele>371.0</ele><time>2026-03-28T15:51:26.433Z</time></trkpt><trkpt lat="45.8002889" lon="8.8846529"><ele>371.0</ele><time>2026-03-28T15:51:27.433Z</time></trkpt><trkpt lat="45.8001987" lon="8.8847353"><ele>371.0</ele><time>2026-03-28T15:51:28.433Z</time></trkpt><trkpt lat="45.8001168" lon="8.8848477"><ele>371.0</ele><time>2026-03-28T15:51:29.434Z</time></trkpt><trkpt lat="45.8000467" lon="8.8849817"><ele>371.5</ele><time>2026-03-28T15:51:30.434Z</time></trkpt><trkpt lat="45.7999863" lon="8.8851281"><ele>372.0</ele><time>2026-03-28T15:51:31.433Z</time></trkpt><trkpt lat="45.7999314" lon="8.8852779"><ele>372.5</ele><time>2026-03-28T15:51:32.434Z</time></trkpt><trkpt lat="45.7998685" lon="8.8854301"><ele>373.0</ele><time>2026-03-28T15:51:33.434Z</time></trkpt><trkpt lat="45.7998046" lon="8.8855732"><ele>373.0</ele><time>2026-03-28T15:51:34.433Z</time></trkpt><trkpt lat="45.7997537" lon="8.8857214"><ele>373.0</ele><time>2026-03-28T15:51:35.434Z</time></trkpt><trkpt lat="45.7996928" lon="8.8858759"><ele>373.0</ele><time>2026-03-28T15:51:36.433Z</time></trkpt><trkpt lat="45.7996312" lon="8.8860329"><ele>373.0</ele><time>2026-03-28T15:51:37.434Z</time></trkpt><trkpt lat="45.7995712" lon="8.8862037"><ele>373.0</ele><time>2026-03-28T15:51:38.433Z</time></trkpt><trkpt lat="45.7995099" lon="8.8863812"><ele>373.0</ele><time>2026-03-28T15:51:39.434Z</time></trkpt><trkpt lat="45.7994406" lon="8.8865486"><ele>373.0</ele><time>2026-03-28T15:51:40.434Z</time></trkpt><trkpt lat="45.7993791" lon="8.8867148"><ele>373.0</ele><time>2026-03-28T15:51:41.434Z</time></trkpt><trkpt lat="45.7993171" lon="8.8868762"><ele>373.0</ele><time>2026-03-28T15:51:42.433Z</time></trkpt><trkpt lat="45.7992547" lon="8.8870177"><ele>373.0</ele><time>2026-03-28T15:51:43.433Z</time></trkpt><trkpt lat="45.7991961" lon="8.8871648"><ele>373.0</ele><time>2026-03-28T15:51:44.434Z</time></trkpt><trkpt lat="45.7991396" lon="8.8873059"><ele>373.0</ele><time>2026-03-28T15:51:45.434Z</time></trkpt><trkpt lat="45.7990873" lon="8.8874627"><ele>373.0</ele><time>2026-03-28T15:51:46.433Z</time></trkpt><trkpt lat="45.7990345" lon="8.8876342"><ele>373.0</ele><time>2026-03-28T15:51:47.433Z</time></trkpt><trkpt lat="45.798971" lon="8.8878221"><ele>373.0</ele><time>2026-03-28T15:51:48.433Z</time></trkpt><trkpt lat="45.7988984" lon="8.8880066"><ele>373.0</ele><time>2026-03-28T15:51:49.434Z</time></trkpt><trkpt lat="45.7988303" lon="8.8881678"><ele>373.0</ele><time>2026-03-28T15:51:50.433Z</time></trkpt><trkpt lat="45.7987597" lon="8.8883189"><ele>373.0</ele><time>2026-03-28T15:51:51.433Z</time></trkpt><trkpt lat="45.7986963" lon="8.8884629"><ele>373.0</ele><time>2026-03-28T15:51:52.433Z</time></trkpt><trkpt lat="45.7986461" lon="8.8885967"><ele>373.0</ele><time>2026-03-28T15:51:53.433Z</time></trkpt><trkpt lat="45.7985862" lon="8.8886956"><ele>373.0</ele><time>2026-03-28T15:51:54.434Z</time></trkpt><trkpt lat="45.7985065" lon="8.8887569"><ele>374.0</ele><time>2026-03-28T15:51:55.433Z</time></trkpt><trkpt lat="45.7984032" lon="8.888803"><ele>375.0</ele><time>2026-03-28T15:51:56.433Z</time></trkpt><trkpt lat="45.7982884" lon="8.8888296"><ele>376.0</ele><time>2026-03-28T15:51:57.433Z</time></trkpt><trkpt lat="45.7981614" lon="8.8888663"><ele>377.0</ele><time>2026-03-28T15:51:58.433Z</time></trkpt><trkpt lat="45.7980339" lon="8.8889055"><ele>377.0</ele><time>2026-03-28T15:51:59.434Z</time></trkpt><trkpt lat="45.797886" lon="8.8889395"><ele>377.0</ele><time>2026-03-28T15:52:00.434Z</time></trkpt><trkpt lat="45.7977283" lon="8.8889833"><ele>377.0</ele><time>2026-03-28T15:52:01.434Z</time></trkpt><trkpt lat="45.7975656" lon="8.8890177"><ele>377.0</ele><time>2026-03-28T15:52:02.433Z</time></trkpt><trkpt lat="45.7973968" lon="8.8890422"><ele>377.0</ele><time>2026-03-28T15:52:03.433Z</time></trkpt><trkpt lat="45.797227" lon="8.8890752"><ele>377.0</ele><time>2026-03-28T15:52:04.434Z</time></trkpt><trkpt lat="45.7970537" lon="8.8891119"><ele>377.0</ele><time>2026-03-28T15:52:05.434Z</time></trkpt><trkpt lat="45.7968848" lon="8.8891455"><ele>377.0</ele><time>2026-03-28T15:52:06.433Z</time></trkpt><trkpt lat="45.796712" lon="8.8891748"><ele>377.0</ele><time>2026-03-28T15:52:07.433Z</time></trkpt><trkpt lat="45.7965487" lon="8.8891988"><ele>378.33333333333337</ele><time>2026-03-28T15:52:08.433Z</time></trkpt><trkpt lat="45.7963914" lon="8.8892333"><ele>379.6666666666667</ele><time>2026-03-28T15:52:09.433Z</time></trkpt><trkpt lat="45.7962468" lon="8.8892869"><ele>381.0</ele><time>2026-03-28T15:52:10.434Z</time></trkpt><trkpt lat="45.7961061" lon="8.8893611"><ele>379.0</ele><time>2026-03-28T15:52:11.433Z</time></trkpt><trkpt lat="45.7959762" lon="8.8894489"><ele>377.0</ele><time>2026-03-28T15:52:12.433Z</time></trkpt><trkpt lat="45.795849" lon="8.8895522"><ele>375.0</ele><time>2026-03-28T15:52:13.434Z</time></trkpt><trkpt lat="45.7957222" lon="8.8896683"><ele>373.0</ele><time>2026-03-28T15:52:14.433Z</time></trkpt><trkpt lat="45.7956168" lon="8.8897902"><ele>373.0</ele><time>2026-03-28T15:52:15.433Z</time></trkpt><trkpt lat="45.7955325" lon="8.88991"><ele>373.0</ele><time>2026-03-28T15:52:16.434Z</time></trkpt><trkpt lat="45.7954593" lon="8.8900209"><ele>373.0</ele><time>2026-03-28T15:52:17.433Z</time></trkpt><trkpt lat="45.7953923" lon="8.8901128"><ele>373.0</ele><time>2026-03-28T15:52:18.433Z</time></trkpt><trkpt lat="45.7953279" lon="8.8901826"><ele>373.0</ele><time>2026-03-28T15:52:19.434Z</time></trkpt><trkpt lat="45.7952612" lon="8.8902377"><ele>373.3333333333333</ele><time>2026-03-28T15:52:20.433Z</time></trkpt><trkpt lat="45.7951846" lon="8.8902894"><ele>373.66666666666663</ele><time>2026-03-28T15:52:21.434Z</time></trkpt><trkpt lat="45.7951052" lon="8.8903288"><ele>374.0</ele><time>2026-03-28T15:52:22.433Z</time></trkpt><trkpt lat="45.7950305" lon="8.8903654"><ele>374.3333333333333</ele><time>2026-03-28T15:52:23.433Z</time></trkpt><trkpt lat="45.7949598" lon="8.8904065"><ele>374.6666666666667</ele><time>2026-03-28T15:52:24.433Z</time></trkpt><trkpt lat="45.7948928" lon="8.8904426"><ele>375.0</ele><time>2026-03-28T15:52:25.433Z</time></trkpt><trkpt lat="45.7948276" lon="8.8904841"><ele>375.0</ele><time>2026-03-28T15:52:26.434Z</time></trkpt><trkpt lat="45.7947195" lon="8.8905459"><ele>375.0</ele><time>2026-03-28T15:52:28.433Z</time></trkpt><trkpt lat="45.7946384" lon="8.8905653"><ele>375.0</ele><time>2026-03-28T15:52:30.434Z</time></trkpt><trkpt lat="45.7945623" lon="8.8904377"><ele>375.0</ele><time>2026-03-28T15:52:32.433Z</time></trkpt><trkpt lat="45.7945392" lon="8.890329"><ele>375.0</ele><time>2026-03-28T15:52:33.434Z</time></trkpt><trkpt lat="45.7945114" lon="8.8902137"><ele>375.0</ele><time>2026-03-28T15:52:34.433Z</time></trkpt><trkpt lat="45.7944876" lon="8.8901023"><ele>375.0</ele><time>2026-03-28T15:52:35.434Z</time></trkpt><trkpt lat="45.7944716" lon="8.8899833"><ele>375.0</ele><time>2026-03-28T15:52:36.432Z</time></trkpt><trkpt lat="45.7944507" lon="8.8898605"><ele>375.0</ele><time>2026-03-28T15:52:37.434Z</time></trkpt><trkpt lat="45.7944285" lon="8.8897397"><ele>375.0</ele><time>2026-03-28T15:52:38.434Z</time></trkpt><trkpt lat="45.794409" lon="8.8896304"><ele>375.0</ele><time>2026-03-28T15:52:39.434Z</time></trkpt><trkpt lat="45.7943959" lon="8.8895214"><ele>373.7142857142857</ele><time>2026-03-28T15:52:40.432Z</time></trkpt><trkpt lat="45.7943764" lon="8.8894253"><ele>372.4285714285714</ele><time>2026-03-28T15:52:41.433Z</time></trkpt><trkpt lat="45.794356" lon="8.8893299"><ele>371.1428571428571</ele><time>2026-03-28T15:52:42.433Z</time></trkpt><trkpt lat="45.7943318" lon="8.8892244"><ele>369.8571428571429</ele><time>2026-03-28T15:52:43.434Z</time></trkpt><trkpt lat="45.7943157" lon="8.8891285"><ele>368.57142857142856</ele><time>2026-03-28T15:52:44.433Z</time></trkpt><trkpt lat="45.7942954" lon="8.8890395"><ele>367.2857142857143</ele><time>2026-03-28T15:52:45.433Z</time></trkpt><trkpt lat="45.7942784" lon="8.8889517"><ele>366.0</ele><time>2026-03-28T15:52:46.434Z</time></trkpt><trkpt lat="45.7942377" lon="8.8888007"><ele>365.20000000000005</ele><time>2026-03-28T15:52:48.434Z</time></trkpt><trkpt lat="45.7941237" lon="8.8887338"><ele>364.40000000000003</ele><time>2026-03-28T15:52:50.434Z</time></trkpt><trkpt lat="45.7939938" lon="8.8887825"><ele>363.6</ele><time>2026-03-28T15:52:52.434Z</time></trkpt><trkpt lat="45.7939203" lon="8.8888212"><ele>362.8</ele><time>2026-03-28T15:52:53.433Z</time></trkpt><trkpt lat="45.7938343" lon="8.8888571"><ele>362.0</ele><time>2026-03-28T15:52:54.434Z</time></trkpt><trkpt lat="45.7937586" lon="8.8889043"><ele>362.0</ele><time>2026-03-28T15:52:55.433Z</time></trkpt><trkpt lat="45.7936807" lon="8.8889526"><ele>362.0</ele><time>2026-03-28T15:52:56.434Z</time></trkpt><trkpt lat="45.7936014" lon="8.889002"><ele>362.0</ele><time>2026-03-28T15:52:57.433Z</time></trkpt><trkpt lat="45.7935249" lon="8.8890496"><ele>362.0</ele><time>2026-03-28T15:52:58.434Z</time></trkpt><trkpt lat="45.793451" lon="8.8890994"><ele>362.0</ele><time>2026-03-28T15:52:59.433Z</time></trkpt><trkpt lat="45.7933621" lon="8.8891807"><ele>362.0</ele><time>2026-03-28T15:53:00.434Z</time></trkpt><trkpt lat="45.79325" lon="8.8892746"><ele>361.75</ele><time>2026-03-28T15:53:01.433Z</time></trkpt><trkpt lat="45.7931186" lon="8.889368"><ele>361.5</ele><time>2026-03-28T15:53:02.433Z</time></trkpt><trkpt lat="45.792997" lon="8.8894445"><ele>361.25</ele><time>2026-03-28T15:53:03.434Z</time></trkpt><trkpt lat="45.7928735" lon="8.8895162"><ele>361.0</ele><time>2026-03-28T15:53:04.433Z</time></trkpt><trkpt lat="45.7927559" lon="8.8895865"><ele>360.5</ele><time>2026-03-28T15:53:05.433Z</time></trkpt><trkpt lat="45.7926193" lon="8.8896553"><ele>360.0</ele><time>2026-03-28T15:53:06.433Z</time></trkpt><trkpt lat="45.7924899" lon="8.889724"><ele>359.5</ele><time>2026-03-28T15:53:07.433Z</time></trkpt><trkpt lat="45.7923717" lon="8.889795"><ele>359.0</ele><time>2026-03-28T15:53:08.432Z</time></trkpt><trkpt lat="45.7922553" lon="8.8898851"><ele>359.0</ele><time>2026-03-28T15:53:09.433Z</time></trkpt><trkpt lat="45.7921427" lon="8.8899895"><ele>359.0</ele><time>2026-03-28T15:53:10.434Z</time></trkpt><trkpt lat="45.7920487" lon="8.890114"><ele>359.0</ele><time>2026-03-28T15:53:11.434Z</time></trkpt><trkpt lat="45.7919661" lon="8.8902322"><ele>359.0</ele><time>2026-03-28T15:53:12.434Z</time></trkpt><trkpt lat="45.7918902" lon="8.8903127"><ele>358.83333333333337</ele><time>2026-03-28T15:53:13.433Z</time></trkpt><trkpt lat="45.7918243" lon="8.8903517"><ele>358.6666666666667</ele><time>2026-03-28T15:53:14.433Z</time></trkpt><trkpt lat="45.7917603" lon="8.8903382"><ele>358.5</ele><time>2026-03-28T15:53:16.433Z</time></trkpt><trkpt lat="45.7917257" lon="8.8902044"><ele>358.3333333333333</ele><time>2026-03-28T15:53:18.434Z</time></trkpt><trkpt lat="45.7917407" lon="8.8900726"><ele>358.16666666666663</ele><time>2026-03-28T15:53:19.433Z</time></trkpt><trkpt lat="45.791738" lon="8.8899128"><ele>358.0</ele><time>2026-03-28T15:53:20.433Z</time></trkpt><trkpt lat="45.7917247" lon="8.8897331"><ele>358.0</ele><time>2026-03-28T15:53:21.433Z</time></trkpt><trkpt lat="45.7917081" lon="8.8895712"><ele>358.0</ele><time>2026-03-28T15:53:22.433Z</time></trkpt><trkpt lat="45.7916884" lon="8.889446"><ele>358.0</ele><time>2026-03-28T15:53:23.434Z</time></trkpt><trkpt lat="45.7916748" lon="8.8893437"><ele>358.0</ele><time>2026-03-28T15:53:24.433Z</time></trkpt><trkpt lat="45.7916735" lon="8.8892138"><ele>358.0</ele><time>2026-03-28T15:53:25.433Z</time></trkpt><trkpt lat="45.7916809" lon="8.8891045"><ele>358.0</ele><time>2026-03-28T15:53:26.432Z</time></trkpt><trkpt lat="45.7916214" lon="8.8889716"><ele>358.0</ele><time>2026-03-28T15:53:28.432Z</time></trkpt><trkpt lat="45.791543" lon="8.8890394"><ele>358.0</ele><time>2026-03-28T15:53:30.432Z</time></trkpt><trkpt lat="45.7915005" lon="8.8891498"><ele>358.0</ele><time>2026-03-28T15:53:31.432Z</time></trkpt><trkpt lat="45.7914313" lon="8.889269"><ele>358.0</ele><time>2026-03-28T15:53:32.432Z</time></trkpt><trkpt lat="45.7913413" lon="8.8893858"><ele>358.0</ele><time>2026-03-28T15:53:33.433Z</time></trkpt><trkpt lat="45.7912557" lon="8.8895071"><ele>358.0</ele><time>2026-03-28T15:53:34.432Z</time></trkpt><trkpt lat="45.7911419" lon="8.8896467"><ele>358.0</ele><time>2026-03-28T15:53:35.432Z</time></trkpt><trkpt lat="45.7910211" lon="8.8897818"><ele>358.0</ele><time>2026-03-28T15:53:36.433Z</time></trkpt><trkpt lat="45.7908904" lon="8.8899269"><ele>357.75</ele><time>2026-03-28T15:53:37.433Z</time></trkpt><trkpt lat="45.7907632" lon="8.8900525"><ele>357.5</ele><time>2026-03-28T15:53:38.433Z</time></trkpt><trkpt lat="45.7906457" lon="8.8901706"><ele>357.25</ele><time>2026-03-28T15:53:39.432Z</time></trkpt><trkpt lat="45.7905263" lon="8.8902861"><ele>357.0</ele><time>2026-03-28T15:53:40.432Z</time></trkpt><trkpt lat="45.7904209" lon="8.8903864"><ele>356.8333333333333</ele><time>2026-03-28T15:53:41.432Z</time></trkpt><trkpt lat="45.7903343" lon="8.8904654"><ele>356.6666666666667</ele><time>2026-03-28T15:53:42.432Z</time></trkpt><trkpt lat="45.7902754" lon="8.8905243"><ele>356.5</ele><time>2026-03-28T15:53:43.432Z</time></trkpt><trkpt lat="45.7902182" lon="8.890576"><ele>356.33333333333337</ele><time>2026-03-28T15:53:45.433Z</time></trkpt><trkpt lat="45.790131" lon="8.8906011"><ele>356.1666666666667</ele><time>2026-03-28T15:53:48.432Z</time></trkpt><trkpt lat="45.7900546" lon="8.8905747"><ele>356.0</ele><time>2026-03-28T15:53:49.433Z</time></trkpt><trkpt lat="45.7899573" lon="8.8905089"><ele>356.0</ele><time>2026-03-28T15:53:50.432Z</time></trkpt><trkpt lat="45.7898586" lon="8.890403"><ele>356.0</ele><time>2026-03-28T15:53:51.432Z</time></trkpt><trkpt lat="45.7897678" lon="8.8902603"><ele>356.0</ele><time>2026-03-28T15:53:52.432Z</time></trkpt><trkpt lat="45.7896818" lon="8.8901003"><ele>356.0</ele><time>2026-03-28T15:53:53.433Z</time></trkpt><trkpt lat="45.7896118" lon="8.8899343"><ele>355.75</ele><time>2026-03-28T15:53:54.432Z</time></trkpt><trkpt lat="45.7895504" lon="8.8897692"><ele>355.5</ele><time>2026-03-28T15:53:55.432Z</time></trkpt><trkpt lat="45.7894933" lon="8.889595"><ele>355.25</ele><time>2026-03-28T15:53:56.433Z</time></trkpt><trkpt lat="45.7894402" lon="8.8894344"><ele>355.0</ele><time>2026-03-28T15:53:57.432Z</time></trkpt><trkpt lat="45.7893811" lon="8.8892781"><ele>354.75</ele><time>2026-03-28T15:53:58.433Z</time></trkpt><trkpt lat="45.7893217" lon="8.88912"><ele>354.5</ele><time>2026-03-28T15:53:59.433Z</time></trkpt><trkpt lat="45.7892615" lon="8.8889479"><ele>354.25</ele><time>2026-03-28T15:54:00.432Z</time></trkpt><trkpt lat="45.7891977" lon="8.8887515"><ele>354.0</ele><time>2026-03-28T15:54:01.432Z</time></trkpt><trkpt lat="45.7891348" lon="8.888552"><ele>354.0</ele><time>2026-03-28T15:54:02.433Z</time></trkpt><trkpt lat="45.7890744" lon="8.8883656"><ele>354.0</ele><time>2026-03-28T15:54:03.432Z</time></trkpt><trkpt lat="45.7890212" lon="8.8881785"><ele>354.0</ele><time>2026-03-28T15:54:04.433Z</time></trkpt><trkpt lat="45.788958" lon="8.8879763"><ele>354.0</ele><time>2026-03-28T15:54:05.432Z</time></trkpt><trkpt lat="45.7888975" lon="8.8877683"><ele>354.0</ele><time>2026-03-28T15:54:06.433Z</time></trkpt><trkpt lat="45.7888437" lon="8.8875546"><ele>354.0</ele><time>2026-03-28T15:54:07.432Z</time></trkpt><trkpt lat="45.7887842" lon="8.8873358"><ele>354.0</ele><time>2026-03-28T15:54:08.433Z</time></trkpt><trkpt lat="45.7887351" lon="8.8871152"><ele>354.0</ele><time>2026-03-28T15:54:09.433Z</time></trkpt><trkpt lat="45.7886818" lon="8.8868921"><ele>354.0</ele><time>2026-03-28T15:54:10.432Z</time></trkpt><trkpt lat="45.7886329" lon="8.8866797"><ele>354.0</ele><time>2026-03-28T15:54:11.432Z</time></trkpt><trkpt lat="45.7885914" lon="8.8864771"><ele>354.0</ele><time>2026-03-28T15:54:12.433Z</time></trkpt><trkpt lat="45.7885437" lon="8.8862626"><ele>354.0</ele><time>2026-03-28T15:54:13.432Z</time></trkpt><trkpt lat="45.788497" lon="8.8860472"><ele>354.0</ele><time>2026-03-28T15:54:14.432Z</time></trkpt><trkpt lat="45.7884478" lon="8.8858418"><ele>354.0</ele><time>2026-03-28T15:54:15.433Z</time></trkpt><trkpt lat="45.7883869" lon="8.8856332"><ele>354.0</ele><time>2026-03-28T15:54:16.433Z</time></trkpt><trkpt lat="45.7883379" lon="8.8854414"><ele>354.0</ele><time>2026-03-28T15:54:17.432Z</time></trkpt><trkpt lat="45.7882984" lon="8.8852573"><ele>354.0</ele><time>2026-03-28T15:54:18.432Z</time></trkpt><trkpt lat="45.7882584" lon="8.8850882"><ele>353.79999999999995</ele><time>2026-03-28T15:54:19.432Z</time></trkpt><trkpt lat="45.7882232" lon="8.8849422"><ele>353.59999999999997</ele><time>2026-03-28T15:54:20.432Z</time></trkpt><trkpt lat="45.7881944" lon="8.8848019"><ele>353.4</ele><time>2026-03-28T15:54:21.433Z</time></trkpt><trkpt lat="45.7881812" lon="8.884662"><ele>353.2</ele><time>2026-03-28T15:54:22.432Z</time></trkpt><trkpt lat="45.7881814" lon="8.8845308"><ele>353.0</ele><time>2026-03-28T15:54:23.433Z</time></trkpt><trkpt lat="45.7881814" lon="8.8844083"><ele>353.0</ele><time>2026-03-28T15:54:24.433Z</time></trkpt><trkpt lat="45.7881547" lon="8.8842947"><ele>353.0</ele><time>2026-03-28T15:54:25.433Z</time></trkpt><trkpt lat="45.7881031" lon="8.8841747"><ele>353.0</ele><time>2026-03-28T15:54:26.433Z</time></trkpt><trkpt lat="45.7880416" lon="8.8840659"><ele>353.0</ele><time>2026-03-28T15:54:27.433Z</time></trkpt><trkpt lat="45.7879905" lon="8.8839321"><ele>353.0</ele><time>2026-03-28T15:54:28.433Z</time></trkpt><trkpt lat="45.7879513" lon="8.8837978"><ele>353.1666666666667</ele><time>2026-03-28T15:54:29.432Z</time></trkpt><trkpt lat="45.7879207" lon="8.8836869"><ele>353.33333333333337</ele><time>2026-03-28T15:54:30.432Z</time></trkpt><trkpt lat="45.7878943" lon="8.8835864"><ele>353.5</ele><time>2026-03-28T15:54:31.432Z</time></trkpt><trkpt lat="45.7878635" lon="8.8834941"><ele>353.6666666666667</ele><time>2026-03-28T15:54:32.432Z</time></trkpt><trkpt lat="45.7878234" lon="8.8833668"><ele>353.8333333333333</ele><time>2026-03-28T15:54:33.432Z</time></trkpt><trkpt lat="45.7877938" lon="8.8832153"><ele>354.0</ele><time>2026-03-28T15:54:34.433Z</time></trkpt><trkpt lat="45.7877616" lon="8.8830427"><ele>354.0</ele><time>2026-03-28T15:54:35.433Z</time></trkpt><trkpt lat="45.7877174" lon="8.8828643"><ele>354.0</ele><time>2026-03-28T15:54:36.432Z</time></trkpt><trkpt lat="45.7876717" lon="8.8826729"><ele>354.0</ele><time>2026-03-28T15:54:37.432Z</time></trkpt><trkpt lat="45.7876283" lon="8.8825006"><ele>354.0</ele><time>2026-03-28T15:54:38.433Z</time></trkpt><trkpt lat="45.7875865" lon="8.8823364"><ele>354.0</ele><time>2026-03-28T15:54:39.433Z</time></trkpt><trkpt lat="45.7875504" lon="8.8821568"><ele>354.0</ele><time>2026-03-28T15:54:40.433Z</time></trkpt><trkpt lat="45.7875085" lon="8.881963"><ele>354.0</ele><time>2026-03-28T15:54:41.433Z</time></trkpt><trkpt lat="45.7874459" lon="8.8817496"><ele>354.0</ele><time>2026-03-28T15:54:42.432Z</time></trkpt><trkpt lat="45.7873721" lon="8.8815162"><ele>354.0</ele><time>2026-03-28T15:54:43.431Z</time></trkpt><trkpt lat="45.7872989" lon="8.8812763"><ele>354.0</ele><time>2026-03-28T15:54:44.432Z</time></trkpt><trkpt lat="45.7872311" lon="8.8810262"><ele>354.0</ele><time>2026-03-28T15:54:45.433Z</time></trkpt><trkpt lat="45.7871715" lon="8.8807834"><ele>354.0</ele><time>2026-03-28T15:54:46.433Z</time></trkpt><trkpt lat="45.7871186" lon="8.8805518"><ele>354.0</ele><time>2026-03-28T15:54:47.432Z</time></trkpt><trkpt lat="45.7870746" lon="8.8803232"><ele>354.0</ele><time>2026-03-28T15:54:48.432Z</time></trkpt><trkpt lat="45.7870361" lon="8.8801115"><ele>354.75</ele><time>2026-03-28T15:54:49.432Z</time></trkpt><trkpt lat="45.7869993" lon="8.8799093"><ele>355.5</ele><time>2026-03-28T15:54:50.432Z</time></trkpt><trkpt lat="45.7869607" lon="8.8797193"><ele>356.25</ele><time>2026-03-28T15:54:51.432Z</time></trkpt><trkpt lat="45.7869285" lon="8.8795442"><ele>357.0</ele><time>2026-03-28T15:54:52.433Z</time></trkpt><trkpt lat="45.7869025" lon="8.879369"><ele>357.0</ele><time>2026-03-28T15:54:53.433Z</time></trkpt><trkpt lat="45.7868818" lon="8.8792167"><ele>357.0</ele><time>2026-03-28T15:54:54.432Z</time></trkpt><trkpt lat="45.7868742" lon="8.8790795"><ele>357.0</ele><time>2026-03-28T15:54:55.432Z</time></trkpt><trkpt lat="45.7869058" lon="8.8789731"><ele>357.0</ele><time>2026-03-28T15:54:56.432Z</time></trkpt><trkpt lat="45.7869577" lon="8.8788974"><ele>357.0</ele><time>2026-03-28T15:54:57.433Z</time></trkpt><trkpt lat="45.7870396" lon="8.8788612"><ele>357.0</ele><time>2026-03-28T15:54:58.433Z</time></trkpt><trkpt lat="45.7871168" lon="8.8788593"><ele>357.0</ele><time>2026-03-28T15:54:59.432Z</time></trkpt><trkpt lat="45.7871842" lon="8.8788553"><ele>357.0</ele><time>2026-03-28T15:55:00.432Z</time></trkpt><trkpt lat="45.7872397" lon="8.878752"><ele>357.0</ele><time>2026-03-28T15:55:02.433Z</time></trkpt><trkpt lat="45.7872395" lon="8.8786475"><ele>357.0</ele><time>2026-03-28T15:55:03.433Z</time></trkpt><trkpt lat="45.7872156" lon="8.8784856"><ele>357.0</ele><time>2026-03-28T15:55:04.433Z</time></trkpt><trkpt lat="45.7871958" lon="8.8783019"><ele>356.0</ele><time>2026-03-28T15:55:05.432Z</time></trkpt><trkpt lat="45.7871851" lon="8.8780954"><ele>355.0</ele><time>2026-03-28T15:55:06.432Z</time></trkpt><trkpt lat="45.7871794" lon="8.8778719"><ele>354.0</ele><time>2026-03-28T15:55:07.433Z</time></trkpt><trkpt lat="45.7871659" lon="8.8776541"><ele>354.0</ele><time>2026-03-28T15:55:08.432Z</time></trkpt><trkpt lat="45.7871528" lon="8.8774067"><ele>354.0</ele><time>2026-03-28T15:55:09.432Z</time></trkpt><trkpt lat="45.7871333" lon="8.8771569"><ele>354.0</ele><time>2026-03-28T15:55:10.433Z</time></trkpt><trkpt lat="45.7871137" lon="8.8769094"><ele>354.0</ele><time>2026-03-28T15:55:11.433Z</time></trkpt><trkpt lat="45.7870995" lon="8.8766741"><ele>354.0</ele><time>2026-03-28T15:55:12.432Z</time></trkpt><trkpt lat="45.7870802" lon="8.8764497"><ele>354.0</ele><time>2026-03-28T15:55:13.431Z</time></trkpt><trkpt lat="45.7870609" lon="8.8762248"><ele>354.0</ele><time>2026-03-28T15:55:14.432Z</time></trkpt><trkpt lat="45.787043" lon="8.8760078"><ele>354.0</ele><time>2026-03-28T15:55:15.432Z</time></trkpt><trkpt lat="45.7870225" lon="8.875792"><ele>354.0</ele><time>2026-03-28T15:55:16.433Z</time></trkpt><trkpt lat="45.7869996" lon="8.8756075"><ele>354.0</ele><time>2026-03-28T15:55:17.433Z</time></trkpt><trkpt lat="45.7869739" lon="8.8754412"><ele>353.79999999999995</ele><time>2026-03-28T15:55:18.433Z</time></trkpt><trkpt lat="45.7869523" lon="8.8753034"><ele>353.59999999999997</ele><time>2026-03-28T15:55:19.433Z</time></trkpt><trkpt lat="45.7869418" lon="8.8751959"><ele>353.4</ele><time>2026-03-28T15:55:20.432Z</time></trkpt><trkpt lat="45.7869589" lon="8.8751054"><ele>353.2</ele><time>2026-03-28T15:55:21.433Z</time></trkpt><trkpt lat="45.787073" lon="8.8750122"><ele>353.0</ele><time>2026-03-28T15:55:23.433Z</time></trkpt><trkpt lat="45.7871574" lon="8.8749966"><ele>352.4</ele><time>2026-03-28T15:55:24.433Z</time></trkpt><trkpt lat="45.7872509" lon="8.8749771"><ele>351.79999999999995</ele><time>2026-03-28T15:55:25.432Z</time></trkpt><trkpt lat="45.787352" lon="8.8749514"><ele>351.2</ele><time>2026-03-28T15:55:26.432Z</time></trkpt><trkpt lat="45.7874512" lon="8.8749265"><ele>350.6</ele><time>2026-03-28T15:55:27.433Z</time></trkpt><trkpt lat="45.787541" lon="8.8748981"><ele>350.0</ele><time>2026-03-28T15:55:28.433Z</time></trkpt><trkpt lat="45.7876316" lon="8.8748703"><ele>350.33333333333337</ele><time>2026-03-28T15:55:29.433Z</time></trkpt><trkpt lat="45.7877255" lon="8.8748399"><ele>350.6666666666667</ele><time>2026-03-28T15:55:30.433Z</time></trkpt><trkpt lat="45.7878083" lon="8.8748133"><ele>351.0</ele><time>2026-03-28T15:55:31.432Z</time></trkpt><trkpt lat="45.7878885" lon="8.8747878"><ele>351.3333333333333</ele><time>2026-03-28T15:55:32.433Z</time></trkpt><trkpt lat="45.787954" lon="8.8747642"><ele>351.66666666666663</ele><time>2026-03-28T15:55:33.432Z</time></trkpt><trkpt lat="45.7880589" lon="8.8747262"><ele>352.0</ele><time>2026-03-28T15:55:35.433Z</time></trkpt><trkpt lat="45.7881559" lon="8.8747236"><ele>352.0</ele><time>2026-03-28T15:55:38.433Z</time></trkpt><trkpt lat="45.7881883" lon="8.8748324"><ele>352.0</ele><time>2026-03-28T15:55:40.433Z</time></trkpt><trkpt lat="45.7881882" lon="8.8749405"><ele>352.0</ele><time>2026-03-28T15:55:41.432Z</time></trkpt><trkpt lat="45.7882042" lon="8.8750681"><ele>352.0</ele><time>2026-03-28T15:55:42.433Z</time></trkpt><trkpt lat="45.788223" lon="8.875173"><ele>352.0</ele><time>2026-03-28T15:55:43.433Z</time></trkpt><trkpt lat="45.7882283" lon="8.8752829"><ele>352.0</ele><time>2026-03-28T15:55:44.433Z</time></trkpt><trkpt lat="45.7881693" lon="8.8753306"><ele>356.0</ele><time>2026-03-28T15:55:45.433Z</time></trkpt><trkpt lat="45.7881071" lon="8.8753744"><ele>356.0</ele><time>2026-03-28T15:55:46.433Z</time></trkpt><trkpt lat="45.7880087" lon="8.8754093"><ele>356.0</ele><time>2026-03-28T15:55:47.433Z</time></trkpt><trkpt lat="45.7879254" lon="8.8754367"><ele>356.0</ele><time>2026-03-28T15:55:48.433Z</time></trkpt><trkpt lat="45.7878471" lon="8.8754573"><ele>356.0</ele><time>2026-03-28T15:55:49.432Z</time></trkpt><trkpt lat="45.7877458" lon="8.8754823"><ele>356.0</ele><time>2026-03-28T15:55:51.433Z</time></trkpt></trkseg></trk></gpx>